<?xml version="1.0" encoding="UTF-8" standalone="no" ?>
<gpx xmlns="http://www.topografix.com/GPX/1/1" xmlns:xsi="http://www.w3.org/2001/XMLSchema-instance" xsi:schemaLocation="http://www.topografix.com/GPX/1/1 http://www.topografix.com/GPX/1/1/gpx.xsd" version="1.1" creator="VisuGPX - https://www.visugpx.com">
  <metadata>
    <name>Sultanes</name>
  </metadata>
  <trk>
    <name><![CDATA[Sultanes_1]]></name>
    <trkseg>
      <trkpt lat="45.01585" lon="5.61057">
        <ele>966.4</ele>
        <time>2021-12-18T06:37:59Z</time>
      </trkpt>
      <trkpt lat="45.01586" lon="5.61055">
        <ele>966.4</ele>
        <time>2021-12-18T06:38:00Z</time>
      </trkpt>
      <trkpt lat="45.01587" lon="5.61053">
        <ele>966.4</ele>
        <time>2021-12-18T06:38:01Z</time>
      </trkpt>
      <trkpt lat="45.0159" lon="5.61049">
        <ele>966.6</ele>
        <time>2021-12-18T06:38:04Z</time>
      </trkpt>
      <trkpt lat="45.01591" lon="5.61049">
        <ele>966.6</ele>
        <time>2021-12-18T06:38:05Z</time>
      </trkpt>
      <trkpt lat="45.01592" lon="5.61048">
        <ele>967.4</ele>
        <time>2021-12-18T06:38:07Z</time>
      </trkpt>
      <trkpt lat="45.01597" lon="5.61042">
        <ele>968.6</ele>
        <time>2021-12-18T06:38:12Z</time>
      </trkpt>
      <trkpt lat="45.01598" lon="5.61041">
        <ele>968.8</ele>
        <time>2021-12-18T06:38:13Z</time>
      </trkpt>
      <trkpt lat="45.01599" lon="5.6104">
        <ele>969</ele>
        <time>2021-12-18T06:38:14Z</time>
      </trkpt>
      <trkpt lat="45.01601" lon="5.61037">
        <ele>969.6</ele>
        <time>2021-12-18T06:38:17Z</time>
      </trkpt>
      <trkpt lat="45.01601" lon="5.61036">
        <ele>970</ele>
        <time>2021-12-18T06:38:20Z</time>
      </trkpt>
      <trkpt lat="45.01603" lon="5.61031">
        <ele>970.4</ele>
        <time>2021-12-18T06:38:27Z</time>
      </trkpt>
      <trkpt lat="45.01605" lon="5.61028">
        <ele>970.8</ele>
        <time>2021-12-18T06:38:29Z</time>
      </trkpt>
      <trkpt lat="45.01607" lon="5.61024">
        <ele>971.6</ele>
        <time>2021-12-18T06:38:33Z</time>
      </trkpt>
      <trkpt lat="45.01608" lon="5.61023">
        <ele>971.8</ele>
        <time>2021-12-18T06:38:34Z</time>
      </trkpt>
      <trkpt lat="45.01608" lon="5.61022">
        <ele>972</ele>
        <time>2021-12-18T06:38:35Z</time>
      </trkpt>
      <trkpt lat="45.01609" lon="5.61022">
        <ele>972.2</ele>
        <time>2021-12-18T06:38:37Z</time>
      </trkpt>
      <trkpt lat="45.01609" lon="5.61022">
        <ele>972.2</ele>
        <time>2021-12-18T06:38:38Z</time>
      </trkpt>
      <trkpt lat="45.01607" lon="5.61026">
        <ele>972.8</ele>
        <time>2021-12-18T06:38:43Z</time>
      </trkpt>
      <trkpt lat="45.01601" lon="5.61039">
        <ele>970.4</ele>
        <time>2021-12-18T06:38:48Z</time>
      </trkpt>
      <trkpt lat="45.01593" lon="5.61049">
        <ele>968.8</ele>
        <time>2021-12-18T06:38:52Z</time>
      </trkpt>
      <trkpt lat="45.0159" lon="5.61051">
        <ele>968.6</ele>
        <time>2021-12-18T06:38:53Z</time>
      </trkpt>
      <trkpt lat="45.01587" lon="5.61052">
        <ele>966.8</ele>
        <time>2021-12-18T06:38:54Z</time>
      </trkpt>
      <trkpt lat="45.01583" lon="5.61059">
        <ele>966.4</ele>
        <time>2021-12-18T06:38:58Z</time>
      </trkpt>
      <trkpt lat="45.01575" lon="5.61064">
        <ele>965.6</ele>
        <time>2021-12-18T06:39:04Z</time>
      </trkpt>
      <trkpt lat="45.01574" lon="5.61065">
        <ele>965.4</ele>
        <time>2021-12-18T06:39:05Z</time>
      </trkpt>
      <trkpt lat="45.01573" lon="5.61068">
        <ele>964.8</ele>
        <time>2021-12-18T06:39:11Z</time>
      </trkpt>
      <trkpt lat="45.01573" lon="5.61068">
        <ele>964.8</ele>
        <time>2021-12-18T06:39:12Z</time>
      </trkpt>
      <trkpt lat="45.01572" lon="5.61067">
        <ele>964.8</ele>
        <time>2021-12-18T06:39:16Z</time>
      </trkpt>
      <trkpt lat="45.01571" lon="5.61067">
        <ele>964.6</ele>
        <time>2021-12-18T06:39:18Z</time>
      </trkpt>
      <trkpt lat="45.01571" lon="5.61067">
        <ele>964.4</ele>
        <time>2021-12-18T06:39:20Z</time>
      </trkpt>
      <trkpt lat="45.01571" lon="5.61068">
        <ele>964.2</ele>
        <time>2021-12-18T06:39:23Z</time>
      </trkpt>
      <trkpt lat="45.01571" lon="5.61068">
        <ele>964.2</ele>
        <time>2021-12-18T06:39:27Z</time>
      </trkpt>
      <trkpt lat="45.01571" lon="5.61068">
        <ele>964.4</ele>
        <time>2021-12-18T06:39:32Z</time>
      </trkpt>
      <trkpt lat="45.01568" lon="5.61067">
        <ele>964.2</ele>
        <time>2021-12-18T06:39:59Z</time>
      </trkpt>
      <trkpt lat="45.01567" lon="5.61066">
        <ele>964.4</ele>
        <time>2021-12-18T06:40:05Z</time>
      </trkpt>
      <trkpt lat="45.01567" lon="5.61064">
        <ele>964.4</ele>
        <time>2021-12-18T06:40:08Z</time>
      </trkpt>
      <trkpt lat="45.01568" lon="5.61064">
        <ele>965.2</ele>
        <time>2021-12-18T06:40:28Z</time>
      </trkpt>
      <trkpt lat="45.01568" lon="5.61064">
        <ele>965</ele>
        <time>2021-12-18T06:40:34Z</time>
      </trkpt>
      <trkpt lat="45.01568" lon="5.61064">
        <ele>965</ele>
        <time>2021-12-18T06:40:37Z</time>
      </trkpt>
      <trkpt lat="45.01572" lon="5.61061">
        <ele>965.4</ele>
        <time>2021-12-18T06:40:40Z</time>
      </trkpt>
      <trkpt lat="45.01574" lon="5.61059">
        <ele>965.6</ele>
        <time>2021-12-18T06:40:42Z</time>
      </trkpt>
      <trkpt lat="45.01575" lon="5.61058">
        <ele>965.6</ele>
        <time>2021-12-18T06:40:43Z</time>
      </trkpt>
      <trkpt lat="45.01576" lon="5.61058">
        <ele>965.6</ele>
        <time>2021-12-18T06:40:44Z</time>
      </trkpt>
      <trkpt lat="45.01579" lon="5.61057">
        <ele>965.6</ele>
        <time>2021-12-18T06:40:46Z</time>
      </trkpt>
      <trkpt lat="45.01581" lon="5.61054">
        <ele>966.2</ele>
        <time>2021-12-18T06:40:48Z</time>
      </trkpt>
      <trkpt lat="45.01583" lon="5.61049">
        <ele>966.6</ele>
        <time>2021-12-18T06:40:51Z</time>
      </trkpt>
      <trkpt lat="45.01584" lon="5.61048">
        <ele>966.8</ele>
        <time>2021-12-18T06:40:52Z</time>
      </trkpt>
      <trkpt lat="45.01588" lon="5.61046">
        <ele>967</ele>
        <time>2021-12-18T06:40:55Z</time>
      </trkpt>
      <trkpt lat="45.01591" lon="5.61045">
        <ele>967.6</ele>
        <time>2021-12-18T06:40:58Z</time>
      </trkpt>
      <trkpt lat="45.01592" lon="5.61046">
        <ele>967.8</ele>
        <time>2021-12-18T06:40:59Z</time>
      </trkpt>
      <trkpt lat="45.01594" lon="5.61045">
        <ele>968.6</ele>
        <time>2021-12-18T06:41:00Z</time>
      </trkpt>
      <trkpt lat="45.01595" lon="5.61045">
        <ele>968.8</ele>
        <time>2021-12-18T06:41:01Z</time>
      </trkpt>
      <trkpt lat="45.01598" lon="5.61041">
        <ele>969.2</ele>
        <time>2021-12-18T06:41:05Z</time>
      </trkpt>
      <trkpt lat="45.01599" lon="5.61041">
        <ele>969.8</ele>
        <time>2021-12-18T06:41:06Z</time>
      </trkpt>
      <trkpt lat="45.01601" lon="5.61033">
        <ele>970.8</ele>
        <time>2021-12-18T06:41:11Z</time>
      </trkpt>
      <trkpt lat="45.01603" lon="5.61031">
        <ele>970.8</ele>
        <time>2021-12-18T06:41:12Z</time>
      </trkpt>
      <trkpt lat="45.01604" lon="5.6103">
        <ele>971.4</ele>
        <time>2021-12-18T06:41:13Z</time>
      </trkpt>
      <trkpt lat="45.01605" lon="5.61026">
        <ele>972.2</ele>
        <time>2021-12-18T06:41:17Z</time>
      </trkpt>
      <trkpt lat="45.01606" lon="5.61024">
        <ele>972.2</ele>
        <time>2021-12-18T06:41:19Z</time>
      </trkpt>
      <trkpt lat="45.01607" lon="5.61022">
        <ele>972.8</ele>
        <time>2021-12-18T06:41:20Z</time>
      </trkpt>
      <trkpt lat="45.01608" lon="5.61012">
        <ele>972.8</ele>
        <time>2021-12-18T06:41:25Z</time>
      </trkpt>
      <trkpt lat="45.01608" lon="5.6101">
        <ele>972.8</ele>
        <time>2021-12-18T06:41:26Z</time>
      </trkpt>
      <trkpt lat="45.0161" lon="5.61">
        <ele>973.8</ele>
        <time>2021-12-18T06:41:31Z</time>
      </trkpt>
      <trkpt lat="45.0161" lon="5.60999">
        <ele>974</ele>
        <time>2021-12-18T06:41:32Z</time>
      </trkpt>
      <trkpt lat="45.01607" lon="5.60992">
        <ele>974.6</ele>
        <time>2021-12-18T06:41:36Z</time>
      </trkpt>
      <trkpt lat="45.01605" lon="5.60989">
        <ele>974.8</ele>
        <time>2021-12-18T06:41:38Z</time>
      </trkpt>
      <trkpt lat="45.01604" lon="5.60988">
        <ele>974.8</ele>
        <time>2021-12-18T06:41:39Z</time>
      </trkpt>
      <trkpt lat="45.01602" lon="5.60977">
        <ele>975.4</ele>
        <time>2021-12-18T06:41:46Z</time>
      </trkpt>
      <trkpt lat="45.01601" lon="5.60972">
        <ele>976</ele>
        <time>2021-12-18T06:41:49Z</time>
      </trkpt>
      <trkpt lat="45.01599" lon="5.60966">
        <ele>976.6</ele>
        <time>2021-12-18T06:41:53Z</time>
      </trkpt>
      <trkpt lat="45.01599" lon="5.60962">
        <ele>976.8</ele>
        <time>2021-12-18T06:41:56Z</time>
      </trkpt>
      <trkpt lat="45.01599" lon="5.60958">
        <ele>977</ele>
        <time>2021-12-18T06:41:58Z</time>
      </trkpt>
      <trkpt lat="45.01599" lon="5.60956">
        <ele>977.2</ele>
        <time>2021-12-18T06:41:59Z</time>
      </trkpt>
      <trkpt lat="45.01596" lon="5.60944">
        <ele>977.8</ele>
        <time>2021-12-18T06:42:07Z</time>
      </trkpt>
      <trkpt lat="45.01595" lon="5.60943">
        <ele>977.8</ele>
        <time>2021-12-18T06:42:08Z</time>
      </trkpt>
      <trkpt lat="45.01595" lon="5.6094">
        <ele>978</ele>
        <time>2021-12-18T06:42:10Z</time>
      </trkpt>
      <trkpt lat="45.01592" lon="5.60934">
        <ele>978.4</ele>
        <time>2021-12-18T06:42:14Z</time>
      </trkpt>
      <trkpt lat="45.01589" lon="5.60927">
        <ele>979</ele>
        <time>2021-12-18T06:42:19Z</time>
      </trkpt>
      <trkpt lat="45.01589" lon="5.60923">
        <ele>979.6</ele>
        <time>2021-12-18T06:42:22Z</time>
      </trkpt>
      <trkpt lat="45.01588" lon="5.60918">
        <ele>979.8</ele>
        <time>2021-12-18T06:42:26Z</time>
      </trkpt>
      <trkpt lat="45.01585" lon="5.60909">
        <ele>980.2</ele>
        <time>2021-12-18T06:42:31Z</time>
      </trkpt>
      <trkpt lat="45.01578" lon="5.60899">
        <ele>980.8</ele>
        <time>2021-12-18T06:42:39Z</time>
      </trkpt>
      <trkpt lat="45.01568" lon="5.60885">
        <ele>981.2</ele>
        <time>2021-12-18T06:42:50Z</time>
      </trkpt>
      <trkpt lat="45.01566" lon="5.60882">
        <ele>981.2</ele>
        <time>2021-12-18T06:42:53Z</time>
      </trkpt>
      <trkpt lat="45.0156" lon="5.60874">
        <ele>981.8</ele>
        <time>2021-12-18T06:43:01Z</time>
      </trkpt>
      <trkpt lat="45.01558" lon="5.6087">
        <ele>982.2</ele>
        <time>2021-12-18T06:43:04Z</time>
      </trkpt>
      <trkpt lat="45.01555" lon="5.60867">
        <ele>982.2</ele>
        <time>2021-12-18T06:43:07Z</time>
      </trkpt>
      <trkpt lat="45.01554" lon="5.60866">
        <ele>982.4</ele>
        <time>2021-12-18T06:43:08Z</time>
      </trkpt>
      <trkpt lat="45.01551" lon="5.60859">
        <ele>982.8</ele>
        <time>2021-12-18T06:43:14Z</time>
      </trkpt>
      <trkpt lat="45.01549" lon="5.60856">
        <ele>983.2</ele>
        <time>2021-12-18T06:43:16Z</time>
      </trkpt>
      <trkpt lat="45.01548" lon="5.60851">
        <ele>983.4</ele>
        <time>2021-12-18T06:43:20Z</time>
      </trkpt>
      <trkpt lat="45.01544" lon="5.60846">
        <ele>984</ele>
        <time>2021-12-18T06:43:24Z</time>
      </trkpt>
      <trkpt lat="45.01543" lon="5.60842">
        <ele>984.4</ele>
        <time>2021-12-18T06:43:26Z</time>
      </trkpt>
      <trkpt lat="45.01543" lon="5.60841">
        <ele>984.6</ele>
        <time>2021-12-18T06:43:27Z</time>
      </trkpt>
      <trkpt lat="45.01543" lon="5.60838">
        <ele>984.6</ele>
        <time>2021-12-18T06:43:28Z</time>
      </trkpt>
      <trkpt lat="45.01541" lon="5.60828">
        <ele>985</ele>
        <time>2021-12-18T06:43:35Z</time>
      </trkpt>
      <trkpt lat="45.01539" lon="5.60823">
        <ele>985.6</ele>
        <time>2021-12-18T06:43:39Z</time>
      </trkpt>
      <trkpt lat="45.01538" lon="5.6082">
        <ele>985.8</ele>
        <time>2021-12-18T06:43:41Z</time>
      </trkpt>
      <trkpt lat="45.01537" lon="5.60815">
        <ele>986.4</ele>
        <time>2021-12-18T06:43:44Z</time>
      </trkpt>
      <trkpt lat="45.01536" lon="5.60813">
        <ele>986.8</ele>
        <time>2021-12-18T06:43:46Z</time>
      </trkpt>
      <trkpt lat="45.01536" lon="5.60812">
        <ele>986.8</ele>
        <time>2021-12-18T06:43:47Z</time>
      </trkpt>
      <trkpt lat="45.01535" lon="5.60809">
        <ele>987.2</ele>
        <time>2021-12-18T06:43:49Z</time>
      </trkpt>
      <trkpt lat="45.01532" lon="5.60804">
        <ele>987.8</ele>
        <time>2021-12-18T06:43:53Z</time>
      </trkpt>
      <trkpt lat="45.01532" lon="5.60803">
        <ele>987.8</ele>
        <time>2021-12-18T06:43:54Z</time>
      </trkpt>
      <trkpt lat="45.01532" lon="5.60802">
        <ele>988</ele>
        <time>2021-12-18T06:43:55Z</time>
      </trkpt>
      <trkpt lat="45.01531" lon="5.60799">
        <ele>988.2</ele>
        <time>2021-12-18T06:43:57Z</time>
      </trkpt>
      <trkpt lat="45.0153" lon="5.60797">
        <ele>988.4</ele>
        <time>2021-12-18T06:43:59Z</time>
      </trkpt>
      <trkpt lat="45.01528" lon="5.60792">
        <ele>989</ele>
        <time>2021-12-18T06:44:03Z</time>
      </trkpt>
      <trkpt lat="45.01527" lon="5.60789">
        <ele>989.6</ele>
        <time>2021-12-18T06:44:05Z</time>
      </trkpt>
      <trkpt lat="45.01525" lon="5.60784">
        <ele>990.2</ele>
        <time>2021-12-18T06:44:09Z</time>
      </trkpt>
      <trkpt lat="45.01524" lon="5.60781">
        <ele>990.6</ele>
        <time>2021-12-18T06:44:12Z</time>
      </trkpt>
      <trkpt lat="45.01523" lon="5.60779">
        <ele>991.2</ele>
        <time>2021-12-18T06:44:15Z</time>
      </trkpt>
      <trkpt lat="45.01522" lon="5.60775">
        <ele>991.8</ele>
        <time>2021-12-18T06:44:18Z</time>
      </trkpt>
      <trkpt lat="45.01521" lon="5.60769">
        <ele>992.4</ele>
        <time>2021-12-18T06:44:22Z</time>
      </trkpt>
      <trkpt lat="45.01521" lon="5.60766">
        <ele>993</ele>
        <time>2021-12-18T06:44:25Z</time>
      </trkpt>
      <trkpt lat="45.0152" lon="5.6076">
        <ele>993.6</ele>
        <time>2021-12-18T06:44:30Z</time>
      </trkpt>
      <trkpt lat="45.01519" lon="5.60758">
        <ele>994</ele>
        <time>2021-12-18T06:44:32Z</time>
      </trkpt>
      <trkpt lat="45.01519" lon="5.60755">
        <ele>994.2</ele>
        <time>2021-12-18T06:44:34Z</time>
      </trkpt>
      <trkpt lat="45.01519" lon="5.6075">
        <ele>994.6</ele>
        <time>2021-12-18T06:44:37Z</time>
      </trkpt>
      <trkpt lat="45.01519" lon="5.60748">
        <ele>994.8</ele>
        <time>2021-12-18T06:44:38Z</time>
      </trkpt>
      <trkpt lat="45.01519" lon="5.60744">
        <ele>996</ele>
        <time>2021-12-18T06:44:43Z</time>
      </trkpt>
      <trkpt lat="45.01519" lon="5.60739">
        <ele>996.8</ele>
        <time>2021-12-18T06:44:47Z</time>
      </trkpt>
      <trkpt lat="45.01519" lon="5.60737">
        <ele>997.4</ele>
        <time>2021-12-18T06:44:49Z</time>
      </trkpt>
      <trkpt lat="45.0152" lon="5.60733">
        <ele>998</ele>
        <time>2021-12-18T06:44:52Z</time>
      </trkpt>
      <trkpt lat="45.0152" lon="5.6073">
        <ele>998.4</ele>
        <time>2021-12-18T06:44:54Z</time>
      </trkpt>
      <trkpt lat="45.0152" lon="5.60726">
        <ele>999</ele>
        <time>2021-12-18T06:44:57Z</time>
      </trkpt>
      <trkpt lat="45.0152" lon="5.60724">
        <ele>999.6</ele>
        <time>2021-12-18T06:44:59Z</time>
      </trkpt>
      <trkpt lat="45.0152" lon="5.60723">
        <ele>999.8</ele>
        <time>2021-12-18T06:45:00Z</time>
      </trkpt>
      <trkpt lat="45.01521" lon="5.6072">
        <ele>1000.4</ele>
        <time>2021-12-18T06:45:03Z</time>
      </trkpt>
      <trkpt lat="45.01521" lon="5.60719">
        <ele>1000.6</ele>
        <time>2021-12-18T06:45:04Z</time>
      </trkpt>
      <trkpt lat="45.01521" lon="5.60715">
        <ele>1001.2</ele>
        <time>2021-12-18T06:45:07Z</time>
      </trkpt>
      <trkpt lat="45.01521" lon="5.60712">
        <ele>1001.6</ele>
        <time>2021-12-18T06:45:09Z</time>
      </trkpt>
      <trkpt lat="45.01521" lon="5.60712">
        <ele>1001.8</ele>
        <time>2021-12-18T06:45:10Z</time>
      </trkpt>
      <trkpt lat="45.0152" lon="5.60704">
        <ele>1003</ele>
        <time>2021-12-18T06:45:15Z</time>
      </trkpt>
      <trkpt lat="45.0152" lon="5.60699">
        <ele>1004</ele>
        <time>2021-12-18T06:45:20Z</time>
      </trkpt>
      <trkpt lat="45.0152" lon="5.60698">
        <ele>1004.2</ele>
        <time>2021-12-18T06:45:21Z</time>
      </trkpt>
      <trkpt lat="45.01521" lon="5.60694">
        <ele>1005</ele>
        <time>2021-12-18T06:45:24Z</time>
      </trkpt>
      <trkpt lat="45.0152" lon="5.60688">
        <ele>1006.2</ele>
        <time>2021-12-18T06:45:29Z</time>
      </trkpt>
      <trkpt lat="45.0152" lon="5.60686">
        <ele>1006.4</ele>
        <time>2021-12-18T06:45:31Z</time>
      </trkpt>
      <trkpt lat="45.0152" lon="5.60685">
        <ele>1006.8</ele>
        <time>2021-12-18T06:45:32Z</time>
      </trkpt>
      <trkpt lat="45.0152" lon="5.60683">
        <ele>1007.2</ele>
        <time>2021-12-18T06:45:34Z</time>
      </trkpt>
      <trkpt lat="45.0152" lon="5.60681">
        <ele>1007.6</ele>
        <time>2021-12-18T06:45:37Z</time>
      </trkpt>
      <trkpt lat="45.0152" lon="5.60679">
        <ele>1008.2</ele>
        <time>2021-12-18T06:45:39Z</time>
      </trkpt>
      <trkpt lat="45.0152" lon="5.60677">
        <ele>1008.4</ele>
        <time>2021-12-18T06:45:40Z</time>
      </trkpt>
      <trkpt lat="45.01519" lon="5.60672">
        <ele>1009.2</ele>
        <time>2021-12-18T06:45:45Z</time>
      </trkpt>
      <trkpt lat="45.01519" lon="5.6067">
        <ele>1009.8</ele>
        <time>2021-12-18T06:45:47Z</time>
      </trkpt>
      <trkpt lat="45.01518" lon="5.60666">
        <ele>1010.4</ele>
        <time>2021-12-18T06:45:50Z</time>
      </trkpt>
      <trkpt lat="45.01519" lon="5.60662">
        <ele>1011.4</ele>
        <time>2021-12-18T06:45:54Z</time>
      </trkpt>
      <trkpt lat="45.01519" lon="5.6066">
        <ele>1011.6</ele>
        <time>2021-12-18T06:45:55Z</time>
      </trkpt>
      <trkpt lat="45.01517" lon="5.60657">
        <ele>1012.4</ele>
        <time>2021-12-18T06:45:58Z</time>
      </trkpt>
      <trkpt lat="45.01517" lon="5.60656">
        <ele>1012.4</ele>
        <time>2021-12-18T06:45:59Z</time>
      </trkpt>
      <trkpt lat="45.01517" lon="5.60652">
        <ele>1013</ele>
        <time>2021-12-18T06:46:02Z</time>
      </trkpt>
      <trkpt lat="45.01516" lon="5.60648">
        <ele>1013.4</ele>
        <time>2021-12-18T06:46:05Z</time>
      </trkpt>
      <trkpt lat="45.01515" lon="5.60641">
        <ele>1014.8</ele>
        <time>2021-12-18T06:46:11Z</time>
      </trkpt>
      <trkpt lat="45.01515" lon="5.6064">
        <ele>1015</ele>
        <time>2021-12-18T06:46:12Z</time>
      </trkpt>
      <trkpt lat="45.01513" lon="5.60634">
        <ele>1015.8</ele>
        <time>2021-12-18T06:46:17Z</time>
      </trkpt>
      <trkpt lat="45.01512" lon="5.60633">
        <ele>1016</ele>
        <time>2021-12-18T06:46:18Z</time>
      </trkpt>
      <trkpt lat="45.01511" lon="5.60628">
        <ele>1016.8</ele>
        <time>2021-12-18T06:46:23Z</time>
      </trkpt>
      <trkpt lat="45.0151" lon="5.60627">
        <ele>1017</ele>
        <time>2021-12-18T06:46:24Z</time>
      </trkpt>
      <trkpt lat="45.0151" lon="5.6062">
        <ele>1018</ele>
        <time>2021-12-18T06:46:29Z</time>
      </trkpt>
      <trkpt lat="45.01509" lon="5.60617">
        <ele>1018.6</ele>
        <time>2021-12-18T06:46:32Z</time>
      </trkpt>
      <trkpt lat="45.01508" lon="5.60617">
        <ele>1018.8</ele>
        <time>2021-12-18T06:46:33Z</time>
      </trkpt>
      <trkpt lat="45.01508" lon="5.60616">
        <ele>1019.2</ele>
        <time>2021-12-18T06:46:34Z</time>
      </trkpt>
      <trkpt lat="45.01506" lon="5.60613">
        <ele>1019.6</ele>
        <time>2021-12-18T06:46:36Z</time>
      </trkpt>
      <trkpt lat="45.01505" lon="5.60611">
        <ele>1020.2</ele>
        <time>2021-12-18T06:46:39Z</time>
      </trkpt>
      <trkpt lat="45.01505" lon="5.60609">
        <ele>1020.4</ele>
        <time>2021-12-18T06:46:41Z</time>
      </trkpt>
      <trkpt lat="45.01504" lon="5.60605">
        <ele>1021.2</ele>
        <time>2021-12-18T06:46:45Z</time>
      </trkpt>
      <trkpt lat="45.01503" lon="5.606">
        <ele>1021.8</ele>
        <time>2021-12-18T06:46:49Z</time>
      </trkpt>
      <trkpt lat="45.01503" lon="5.60599">
        <ele>1022.4</ele>
        <time>2021-12-18T06:46:51Z</time>
      </trkpt>
      <trkpt lat="45.01503" lon="5.60598">
        <ele>1022.6</ele>
        <time>2021-12-18T06:46:53Z</time>
      </trkpt>
      <trkpt lat="45.01501" lon="5.60596">
        <ele>1023.2</ele>
        <time>2021-12-18T06:46:55Z</time>
      </trkpt>
      <trkpt lat="45.01501" lon="5.60595">
        <ele>1023.4</ele>
        <time>2021-12-18T06:46:56Z</time>
      </trkpt>
      <trkpt lat="45.015" lon="5.6059">
        <ele>1024.6</ele>
        <time>2021-12-18T06:47:01Z</time>
      </trkpt>
      <trkpt lat="45.015" lon="5.60589">
        <ele>1024.8</ele>
        <time>2021-12-18T06:47:02Z</time>
      </trkpt>
      <trkpt lat="45.015" lon="5.60585">
        <ele>1025.4</ele>
        <time>2021-12-18T06:47:05Z</time>
      </trkpt>
      <trkpt lat="45.01501" lon="5.60583">
        <ele>1025.6</ele>
        <time>2021-12-18T06:47:07Z</time>
      </trkpt>
      <trkpt lat="45.01503" lon="5.60582">
        <ele>1026.2</ele>
        <time>2021-12-18T06:47:09Z</time>
      </trkpt>
      <trkpt lat="45.01504" lon="5.60581">
        <ele>1026.4</ele>
        <time>2021-12-18T06:47:10Z</time>
      </trkpt>
      <trkpt lat="45.01505" lon="5.6058">
        <ele>1026.4</ele>
        <time>2021-12-18T06:47:11Z</time>
      </trkpt>
      <trkpt lat="45.01506" lon="5.60579">
        <ele>1026.8</ele>
        <time>2021-12-18T06:47:13Z</time>
      </trkpt>
      <trkpt lat="45.01506" lon="5.60579">
        <ele>1027.2</ele>
        <time>2021-12-18T06:47:16Z</time>
      </trkpt>
      <trkpt lat="45.01506" lon="5.60579">
        <ele>1027.4</ele>
        <time>2021-12-18T06:47:17Z</time>
      </trkpt>
      <trkpt lat="45.01504" lon="5.60575">
        <ele>1027.6</ele>
        <time>2021-12-18T06:47:21Z</time>
      </trkpt>
      <trkpt lat="45.01502" lon="5.60573">
        <ele>1027.8</ele>
        <time>2021-12-18T06:47:23Z</time>
      </trkpt>
      <trkpt lat="45.01502" lon="5.60571">
        <ele>1027.8</ele>
        <time>2021-12-18T06:47:25Z</time>
      </trkpt>
      <trkpt lat="45.01499" lon="5.60569">
        <ele>1028.6</ele>
        <time>2021-12-18T06:47:30Z</time>
      </trkpt>
      <trkpt lat="45.01496" lon="5.60566">
        <ele>1028.8</ele>
        <time>2021-12-18T06:47:35Z</time>
      </trkpt>
      <trkpt lat="45.01494" lon="5.60566">
        <ele>1029</ele>
        <time>2021-12-18T06:47:36Z</time>
      </trkpt>
      <trkpt lat="45.01493" lon="5.60566">
        <ele>1029</ele>
        <time>2021-12-18T06:47:38Z</time>
      </trkpt>
      <trkpt lat="45.01493" lon="5.60566">
        <ele>1029.2</ele>
        <time>2021-12-18T06:47:41Z</time>
      </trkpt>
      <trkpt lat="45.01494" lon="5.60566">
        <ele>1029.2</ele>
        <time>2021-12-18T06:47:46Z</time>
      </trkpt>
      <trkpt lat="45.0149" lon="5.60562">
        <ele>1029.6</ele>
        <time>2021-12-18T06:47:52Z</time>
      </trkpt>
      <trkpt lat="45.01487" lon="5.6056">
        <ele>1030</ele>
        <time>2021-12-18T06:47:54Z</time>
      </trkpt>
      <trkpt lat="45.01484" lon="5.60556">
        <ele>1030.2</ele>
        <time>2021-12-18T06:47:57Z</time>
      </trkpt>
      <trkpt lat="45.01483" lon="5.60553">
        <ele>1030.4</ele>
        <time>2021-12-18T06:47:59Z</time>
      </trkpt>
      <trkpt lat="45.01483" lon="5.60549">
        <ele>1030.8</ele>
        <time>2021-12-18T06:48:01Z</time>
      </trkpt>
      <trkpt lat="45.01484" lon="5.60548">
        <ele>1031</ele>
        <time>2021-12-18T06:48:02Z</time>
      </trkpt>
      <trkpt lat="45.01484" lon="5.60546">
        <ele>1031.4</ele>
        <time>2021-12-18T06:48:03Z</time>
      </trkpt>
      <trkpt lat="45.01485" lon="5.60545">
        <ele>1031.8</ele>
        <time>2021-12-18T06:48:04Z</time>
      </trkpt>
      <trkpt lat="45.01486" lon="5.60543">
        <ele>1032.2</ele>
        <time>2021-12-18T06:48:06Z</time>
      </trkpt>
      <trkpt lat="45.01487" lon="5.60541">
        <ele>1032.4</ele>
        <time>2021-12-18T06:48:08Z</time>
      </trkpt>
      <trkpt lat="45.01487" lon="5.60541">
        <ele>1032.8</ele>
        <time>2021-12-18T06:48:09Z</time>
      </trkpt>
      <trkpt lat="45.01489" lon="5.60538">
        <ele>1033.6</ele>
        <time>2021-12-18T06:48:13Z</time>
      </trkpt>
      <trkpt lat="45.01491" lon="5.60537">
        <ele>1034</ele>
        <time>2021-12-18T06:48:15Z</time>
      </trkpt>
      <trkpt lat="45.01497" lon="5.60531">
        <ele>1034.6</ele>
        <time>2021-12-18T06:48:20Z</time>
      </trkpt>
      <trkpt lat="45.01503" lon="5.60525">
        <ele>1035.6</ele>
        <time>2021-12-18T06:48:26Z</time>
      </trkpt>
      <trkpt lat="45.01504" lon="5.60524">
        <ele>1035.8</ele>
        <time>2021-12-18T06:48:28Z</time>
      </trkpt>
      <trkpt lat="45.0151" lon="5.6052">
        <ele>1036.8</ele>
        <time>2021-12-18T06:48:34Z</time>
      </trkpt>
      <trkpt lat="45.01513" lon="5.60518">
        <ele>1037</ele>
        <time>2021-12-18T06:48:36Z</time>
      </trkpt>
      <trkpt lat="45.01515" lon="5.60517">
        <ele>1037.4</ele>
        <time>2021-12-18T06:48:38Z</time>
      </trkpt>
      <trkpt lat="45.01517" lon="5.60516">
        <ele>1037.8</ele>
        <time>2021-12-18T06:48:40Z</time>
      </trkpt>
      <trkpt lat="45.01518" lon="5.60514">
        <ele>1038.2</ele>
        <time>2021-12-18T06:48:43Z</time>
      </trkpt>
      <trkpt lat="45.01521" lon="5.60512">
        <ele>1039</ele>
        <time>2021-12-18T06:48:46Z</time>
      </trkpt>
      <trkpt lat="45.01521" lon="5.60512">
        <ele>1039.8</ele>
        <time>2021-12-18T06:48:50Z</time>
      </trkpt>
      <trkpt lat="45.01521" lon="5.60511">
        <ele>1040</ele>
        <time>2021-12-18T06:48:51Z</time>
      </trkpt>
      <trkpt lat="45.0152" lon="5.60509">
        <ele>1040.4</ele>
        <time>2021-12-18T06:48:53Z</time>
      </trkpt>
      <trkpt lat="45.0152" lon="5.60508">
        <ele>1040.6</ele>
        <time>2021-12-18T06:48:54Z</time>
      </trkpt>
      <trkpt lat="45.0152" lon="5.60506">
        <ele>1041</ele>
        <time>2021-12-18T06:48:56Z</time>
      </trkpt>
      <trkpt lat="45.0152" lon="5.60506">
        <ele>1041.6</ele>
        <time>2021-12-18T06:49:00Z</time>
      </trkpt>
      <trkpt lat="45.01519" lon="5.60502">
        <ele>1042.2</ele>
        <time>2021-12-18T06:49:04Z</time>
      </trkpt>
      <trkpt lat="45.0152" lon="5.60498">
        <ele>1042.4</ele>
        <time>2021-12-18T06:49:06Z</time>
      </trkpt>
      <trkpt lat="45.01521" lon="5.60496">
        <ele>1042.8</ele>
        <time>2021-12-18T06:49:07Z</time>
      </trkpt>
      <trkpt lat="45.01521" lon="5.60493">
        <ele>1043.4</ele>
        <time>2021-12-18T06:49:09Z</time>
      </trkpt>
      <trkpt lat="45.01521" lon="5.60491">
        <ele>1044</ele>
        <time>2021-12-18T06:49:11Z</time>
      </trkpt>
      <trkpt lat="45.01523" lon="5.60489">
        <ele>1044.6</ele>
        <time>2021-12-18T06:49:14Z</time>
      </trkpt>
      <trkpt lat="45.01527" lon="5.60488">
        <ele>1045.2</ele>
        <time>2021-12-18T06:49:17Z</time>
      </trkpt>
      <trkpt lat="45.01529" lon="5.60487">
        <ele>1045.4</ele>
        <time>2021-12-18T06:49:19Z</time>
      </trkpt>
      <trkpt lat="45.0153" lon="5.60486">
        <ele>1045.6</ele>
        <time>2021-12-18T06:49:20Z</time>
      </trkpt>
      <trkpt lat="45.0153" lon="5.60484">
        <ele>1046</ele>
        <time>2021-12-18T06:49:22Z</time>
      </trkpt>
      <trkpt lat="45.01531" lon="5.60482">
        <ele>1046.6</ele>
        <time>2021-12-18T06:49:24Z</time>
      </trkpt>
      <trkpt lat="45.01531" lon="5.60482">
        <ele>1046.8</ele>
        <time>2021-12-18T06:49:25Z</time>
      </trkpt>
      <trkpt lat="45.01535" lon="5.6048">
        <ele>1047.8</ele>
        <time>2021-12-18T06:49:29Z</time>
      </trkpt>
      <trkpt lat="45.01536" lon="5.60479">
        <ele>1048.2</ele>
        <time>2021-12-18T06:49:30Z</time>
      </trkpt>
      <trkpt lat="45.01536" lon="5.60478">
        <ele>1048.6</ele>
        <time>2021-12-18T06:49:32Z</time>
      </trkpt>
      <trkpt lat="45.01536" lon="5.60478">
        <ele>1048.8</ele>
        <time>2021-12-18T06:49:33Z</time>
      </trkpt>
      <trkpt lat="45.01534" lon="5.60476">
        <ele>1049.2</ele>
        <time>2021-12-18T06:49:35Z</time>
      </trkpt>
      <trkpt lat="45.01534" lon="5.60475">
        <ele>1049.4</ele>
        <time>2021-12-18T06:49:36Z</time>
      </trkpt>
      <trkpt lat="45.01533" lon="5.60474">
        <ele>1049.6</ele>
        <time>2021-12-18T06:49:37Z</time>
      </trkpt>
      <trkpt lat="45.01533" lon="5.60471">
        <ele>1050.2</ele>
        <time>2021-12-18T06:49:39Z</time>
      </trkpt>
      <trkpt lat="45.01531" lon="5.60467">
        <ele>1051.2</ele>
        <time>2021-12-18T06:49:44Z</time>
      </trkpt>
      <trkpt lat="45.0153" lon="5.60461">
        <ele>1052.4</ele>
        <time>2021-12-18T06:49:50Z</time>
      </trkpt>
      <trkpt lat="45.01529" lon="5.60458">
        <ele>1053</ele>
        <time>2021-12-18T06:49:53Z</time>
      </trkpt>
      <trkpt lat="45.01529" lon="5.60456">
        <ele>1053.6</ele>
        <time>2021-12-18T06:49:55Z</time>
      </trkpt>
      <trkpt lat="45.0153" lon="5.60453">
        <ele>1054.2</ele>
        <time>2021-12-18T06:49:59Z</time>
      </trkpt>
      <trkpt lat="45.01528" lon="5.60452">
        <ele>1054.6</ele>
        <time>2021-12-18T06:50:01Z</time>
      </trkpt>
      <trkpt lat="45.01528" lon="5.60451">
        <ele>1054.6</ele>
        <time>2021-12-18T06:50:02Z</time>
      </trkpt>
      <trkpt lat="45.01526" lon="5.6045">
        <ele>1055.2</ele>
        <time>2021-12-18T06:50:04Z</time>
      </trkpt>
      <trkpt lat="45.01525" lon="5.60448">
        <ele>1055.8</ele>
        <time>2021-12-18T06:50:06Z</time>
      </trkpt>
      <trkpt lat="45.01527" lon="5.60445">
        <ele>1056.4</ele>
        <time>2021-12-18T06:50:10Z</time>
      </trkpt>
      <trkpt lat="45.01525" lon="5.60441">
        <ele>1056.8</ele>
        <time>2021-12-18T06:50:13Z</time>
      </trkpt>
      <trkpt lat="45.01525" lon="5.60439">
        <ele>1057</ele>
        <time>2021-12-18T06:50:14Z</time>
      </trkpt>
      <trkpt lat="45.01524" lon="5.60434">
        <ele>1058</ele>
        <time>2021-12-18T06:50:18Z</time>
      </trkpt>
      <trkpt lat="45.01524" lon="5.60431">
        <ele>1058.8</ele>
        <time>2021-12-18T06:50:22Z</time>
      </trkpt>
      <trkpt lat="45.01524" lon="5.6043">
        <ele>1059</ele>
        <time>2021-12-18T06:50:23Z</time>
      </trkpt>
      <trkpt lat="45.01524" lon="5.60423">
        <ele>1060.2</ele>
        <time>2021-12-18T06:50:28Z</time>
      </trkpt>
      <trkpt lat="45.01526" lon="5.6042">
        <ele>1061</ele>
        <time>2021-12-18T06:50:32Z</time>
      </trkpt>
      <trkpt lat="45.01527" lon="5.60419">
        <ele>1061.2</ele>
        <time>2021-12-18T06:50:33Z</time>
      </trkpt>
      <trkpt lat="45.0153" lon="5.60414">
        <ele>1061.8</ele>
        <time>2021-12-18T06:50:36Z</time>
      </trkpt>
      <trkpt lat="45.01532" lon="5.60412">
        <ele>1062.2</ele>
        <time>2021-12-18T06:50:38Z</time>
      </trkpt>
      <trkpt lat="45.01533" lon="5.60411">
        <ele>1062.4</ele>
        <time>2021-12-18T06:50:39Z</time>
      </trkpt>
      <trkpt lat="45.01532" lon="5.60408">
        <ele>1063</ele>
        <time>2021-12-18T06:50:42Z</time>
      </trkpt>
      <trkpt lat="45.01533" lon="5.60407">
        <ele>1063.2</ele>
        <time>2021-12-18T06:50:43Z</time>
      </trkpt>
      <trkpt lat="45.01533" lon="5.60405">
        <ele>1063.6</ele>
        <time>2021-12-18T06:50:45Z</time>
      </trkpt>
      <trkpt lat="45.01533" lon="5.60404">
        <ele>1063.8</ele>
        <time>2021-12-18T06:50:46Z</time>
      </trkpt>
      <trkpt lat="45.01535" lon="5.60402">
        <ele>1064.4</ele>
        <time>2021-12-18T06:50:48Z</time>
      </trkpt>
      <trkpt lat="45.01538" lon="5.60401">
        <ele>1064.8</ele>
        <time>2021-12-18T06:50:50Z</time>
      </trkpt>
      <trkpt lat="45.0154" lon="5.60401">
        <ele>1065</ele>
        <time>2021-12-18T06:50:52Z</time>
      </trkpt>
      <trkpt lat="45.0154" lon="5.604">
        <ele>1065.6</ele>
        <time>2021-12-18T06:50:54Z</time>
      </trkpt>
      <trkpt lat="45.0154" lon="5.604">
        <ele>1065.8</ele>
        <time>2021-12-18T06:50:55Z</time>
      </trkpt>
      <trkpt lat="45.01541" lon="5.60399">
        <ele>1066.2</ele>
        <time>2021-12-18T06:50:57Z</time>
      </trkpt>
      <trkpt lat="45.01543" lon="5.60397">
        <ele>1066.8</ele>
        <time>2021-12-18T06:51:00Z</time>
      </trkpt>
      <trkpt lat="45.01543" lon="5.60397">
        <ele>1066.8</ele>
        <time>2021-12-18T06:51:01Z</time>
      </trkpt>
      <trkpt lat="45.01548" lon="5.60397">
        <ele>1067.4</ele>
        <time>2021-12-18T06:51:05Z</time>
      </trkpt>
      <trkpt lat="45.01548" lon="5.60397">
        <ele>1067.8</ele>
        <time>2021-12-18T06:51:06Z</time>
      </trkpt>
      <trkpt lat="45.01551" lon="5.60396">
        <ele>1068.6</ele>
        <time>2021-12-18T06:51:10Z</time>
      </trkpt>
      <trkpt lat="45.01552" lon="5.60397">
        <ele>1069</ele>
        <time>2021-12-18T06:51:11Z</time>
      </trkpt>
      <trkpt lat="45.01555" lon="5.60396">
        <ele>1069.8</ele>
        <time>2021-12-18T06:51:15Z</time>
      </trkpt>
      <trkpt lat="45.01556" lon="5.60396">
        <ele>1070.2</ele>
        <time>2021-12-18T06:51:16Z</time>
      </trkpt>
      <trkpt lat="45.01558" lon="5.60394">
        <ele>1070.6</ele>
        <time>2021-12-18T06:51:18Z</time>
      </trkpt>
      <trkpt lat="45.01559" lon="5.60393">
        <ele>1071.2</ele>
        <time>2021-12-18T06:51:20Z</time>
      </trkpt>
      <trkpt lat="45.01561" lon="5.60394">
        <ele>1071.4</ele>
        <time>2021-12-18T06:51:23Z</time>
      </trkpt>
      <trkpt lat="45.01568" lon="5.60392">
        <ele>1072.2</ele>
        <time>2021-12-18T06:51:28Z</time>
      </trkpt>
      <trkpt lat="45.01575" lon="5.60392">
        <ele>1073.4</ele>
        <time>2021-12-18T06:51:33Z</time>
      </trkpt>
      <trkpt lat="45.01576" lon="5.60393">
        <ele>1073.8</ele>
        <time>2021-12-18T06:51:35Z</time>
      </trkpt>
      <trkpt lat="45.01578" lon="5.60392">
        <ele>1074.4</ele>
        <time>2021-12-18T06:51:37Z</time>
      </trkpt>
      <trkpt lat="45.0158" lon="5.60391">
        <ele>1074.8</ele>
        <time>2021-12-18T06:51:40Z</time>
      </trkpt>
      <trkpt lat="45.0158" lon="5.6039">
        <ele>1075.2</ele>
        <time>2021-12-18T06:51:41Z</time>
      </trkpt>
      <trkpt lat="45.0158" lon="5.6039">
        <ele>1075.4</ele>
        <time>2021-12-18T06:51:43Z</time>
      </trkpt>
      <trkpt lat="45.0158" lon="5.60388">
        <ele>1076.2</ele>
        <time>2021-12-18T06:51:45Z</time>
      </trkpt>
      <trkpt lat="45.01579" lon="5.60386">
        <ele>1076.6</ele>
        <time>2021-12-18T06:51:47Z</time>
      </trkpt>
      <trkpt lat="45.01578" lon="5.60385">
        <ele>1077.2</ele>
        <time>2021-12-18T06:51:50Z</time>
      </trkpt>
      <trkpt lat="45.01577" lon="5.60384">
        <ele>1077.8</ele>
        <time>2021-12-18T06:51:52Z</time>
      </trkpt>
      <trkpt lat="45.01577" lon="5.60381">
        <ele>1078.6</ele>
        <time>2021-12-18T06:51:55Z</time>
      </trkpt>
      <trkpt lat="45.01577" lon="5.6038">
        <ele>1078.8</ele>
        <time>2021-12-18T06:51:56Z</time>
      </trkpt>
      <trkpt lat="45.01575" lon="5.60376">
        <ele>1079.6</ele>
        <time>2021-12-18T06:52:00Z</time>
      </trkpt>
      <trkpt lat="45.01575" lon="5.60375">
        <ele>1079.8</ele>
        <time>2021-12-18T06:52:01Z</time>
      </trkpt>
      <trkpt lat="45.01571" lon="5.6037">
        <ele>1080.4</ele>
        <time>2021-12-18T06:52:06Z</time>
      </trkpt>
      <trkpt lat="45.01571" lon="5.6037">
        <ele>1080.8</ele>
        <time>2021-12-18T06:52:07Z</time>
      </trkpt>
      <trkpt lat="45.01573" lon="5.60366">
        <ele>1081.8</ele>
        <time>2021-12-18T06:52:12Z</time>
      </trkpt>
      <trkpt lat="45.01574" lon="5.60367">
        <ele>1082</ele>
        <time>2021-12-18T06:52:13Z</time>
      </trkpt>
      <trkpt lat="45.01577" lon="5.60365">
        <ele>1083</ele>
        <time>2021-12-18T06:52:18Z</time>
      </trkpt>
      <trkpt lat="45.01578" lon="5.60365">
        <ele>1083.4</ele>
        <time>2021-12-18T06:52:20Z</time>
      </trkpt>
      <trkpt lat="45.01578" lon="5.60364">
        <ele>1084</ele>
        <time>2021-12-18T06:52:23Z</time>
      </trkpt>
      <trkpt lat="45.01579" lon="5.60362">
        <ele>1084.4</ele>
        <time>2021-12-18T06:52:25Z</time>
      </trkpt>
      <trkpt lat="45.01581" lon="5.6036">
        <ele>1085.2</ele>
        <time>2021-12-18T06:52:28Z</time>
      </trkpt>
      <trkpt lat="45.01583" lon="5.6036">
        <ele>1086</ele>
        <time>2021-12-18T06:52:32Z</time>
      </trkpt>
      <trkpt lat="45.01583" lon="5.60359">
        <ele>1086.2</ele>
        <time>2021-12-18T06:52:33Z</time>
      </trkpt>
      <trkpt lat="45.01587" lon="5.60355">
        <ele>1086.6</ele>
        <time>2021-12-18T06:52:36Z</time>
      </trkpt>
      <trkpt lat="45.0159" lon="5.60354">
        <ele>1087.4</ele>
        <time>2021-12-18T06:52:39Z</time>
      </trkpt>
      <trkpt lat="45.01592" lon="5.60353">
        <ele>1087.8</ele>
        <time>2021-12-18T06:52:41Z</time>
      </trkpt>
      <trkpt lat="45.01592" lon="5.60352">
        <ele>1088</ele>
        <time>2021-12-18T06:52:42Z</time>
      </trkpt>
      <trkpt lat="45.01591" lon="5.6035">
        <ele>1088.2</ele>
        <time>2021-12-18T06:52:44Z</time>
      </trkpt>
      <trkpt lat="45.01592" lon="5.60349">
        <ele>1088.4</ele>
        <time>2021-12-18T06:52:45Z</time>
      </trkpt>
      <trkpt lat="45.01591" lon="5.60349">
        <ele>1089.2</ele>
        <time>2021-12-18T06:52:47Z</time>
      </trkpt>
      <trkpt lat="45.01589" lon="5.60349">
        <ele>1089.6</ele>
        <time>2021-12-18T06:52:49Z</time>
      </trkpt>
      <trkpt lat="45.01588" lon="5.60346">
        <ele>1090.4</ele>
        <time>2021-12-18T06:52:56Z</time>
      </trkpt>
      <trkpt lat="45.01586" lon="5.60344">
        <ele>1090.6</ele>
        <time>2021-12-18T06:52:59Z</time>
      </trkpt>
      <trkpt lat="45.01585" lon="5.60343">
        <ele>1090.6</ele>
        <time>2021-12-18T06:53:00Z</time>
      </trkpt>
      <trkpt lat="45.01585" lon="5.60343">
        <ele>1090.8</ele>
        <time>2021-12-18T06:53:01Z</time>
      </trkpt>
      <trkpt lat="45.01584" lon="5.60342">
        <ele>1091</ele>
        <time>2021-12-18T06:53:02Z</time>
      </trkpt>
      <trkpt lat="45.01583" lon="5.60342">
        <ele>1091.2</ele>
        <time>2021-12-18T06:53:03Z</time>
      </trkpt>
      <trkpt lat="45.01582" lon="5.60341">
        <ele>1091.4</ele>
        <time>2021-12-18T06:53:04Z</time>
      </trkpt>
      <trkpt lat="45.0158" lon="5.60337">
        <ele>1091.6</ele>
        <time>2021-12-18T06:53:07Z</time>
      </trkpt>
      <trkpt lat="45.0158" lon="5.60335">
        <ele>1091.8</ele>
        <time>2021-12-18T06:53:08Z</time>
      </trkpt>
      <trkpt lat="45.01579" lon="5.60331">
        <ele>1092</ele>
        <time>2021-12-18T06:53:11Z</time>
      </trkpt>
      <trkpt lat="45.01578" lon="5.6033">
        <ele>1092.2</ele>
        <time>2021-12-18T06:53:12Z</time>
      </trkpt>
      <trkpt lat="45.01577" lon="5.60325">
        <ele>1092.4</ele>
        <time>2021-12-18T06:53:15Z</time>
      </trkpt>
      <trkpt lat="45.01577" lon="5.60325">
        <ele>1092.8</ele>
        <time>2021-12-18T06:53:16Z</time>
      </trkpt>
      <trkpt lat="45.01577" lon="5.60323">
        <ele>1093.2</ele>
        <time>2021-12-18T06:53:17Z</time>
      </trkpt>
      <trkpt lat="45.01577" lon="5.60319">
        <ele>1093.8</ele>
        <time>2021-12-18T06:53:20Z</time>
      </trkpt>
      <trkpt lat="45.01577" lon="5.60316">
        <ele>1094</ele>
        <time>2021-12-18T06:53:22Z</time>
      </trkpt>
      <trkpt lat="45.01576" lon="5.60315">
        <ele>1094.2</ele>
        <time>2021-12-18T06:53:23Z</time>
      </trkpt>
      <trkpt lat="45.01577" lon="5.60311">
        <ele>1094.8</ele>
        <time>2021-12-18T06:53:26Z</time>
      </trkpt>
      <trkpt lat="45.01578" lon="5.60307">
        <ele>1095.4</ele>
        <time>2021-12-18T06:53:29Z</time>
      </trkpt>
      <trkpt lat="45.01576" lon="5.60302">
        <ele>1095.8</ele>
        <time>2021-12-18T06:53:34Z</time>
      </trkpt>
      <trkpt lat="45.01575" lon="5.60301">
        <ele>1096.4</ele>
        <time>2021-12-18T06:53:36Z</time>
      </trkpt>
      <trkpt lat="45.01574" lon="5.60298">
        <ele>1097</ele>
        <time>2021-12-18T06:53:39Z</time>
      </trkpt>
      <trkpt lat="45.01575" lon="5.60293">
        <ele>1097.4</ele>
        <time>2021-12-18T06:53:43Z</time>
      </trkpt>
      <trkpt lat="45.01575" lon="5.60289">
        <ele>1098</ele>
        <time>2021-12-18T06:53:46Z</time>
      </trkpt>
      <trkpt lat="45.01575" lon="5.60286">
        <ele>1098.6</ele>
        <time>2021-12-18T06:53:49Z</time>
      </trkpt>
      <trkpt lat="45.01575" lon="5.60284">
        <ele>1099.4</ele>
        <time>2021-12-18T06:53:53Z</time>
      </trkpt>
      <trkpt lat="45.01582" lon="5.60283">
        <ele>1100.4</ele>
        <time>2021-12-18T06:53:59Z</time>
      </trkpt>
      <trkpt lat="45.01582" lon="5.60285">
        <ele>1100.4</ele>
        <time>2021-12-18T06:54:00Z</time>
      </trkpt>
      <trkpt lat="45.01585" lon="5.60286">
        <ele>1101</ele>
        <time>2021-12-18T06:54:03Z</time>
      </trkpt>
      <trkpt lat="45.01585" lon="5.60287">
        <ele>1101.2</ele>
        <time>2021-12-18T06:54:04Z</time>
      </trkpt>
      <trkpt lat="45.01586" lon="5.60286">
        <ele>1101.6</ele>
        <time>2021-12-18T06:54:05Z</time>
      </trkpt>
      <trkpt lat="45.01586" lon="5.60282">
        <ele>1102.8</ele>
        <time>2021-12-18T06:54:10Z</time>
      </trkpt>
      <trkpt lat="45.01586" lon="5.60281">
        <ele>1103.2</ele>
        <time>2021-12-18T06:54:12Z</time>
      </trkpt>
      <trkpt lat="45.01586" lon="5.60279">
        <ele>1103.8</ele>
        <time>2021-12-18T06:54:14Z</time>
      </trkpt>
      <trkpt lat="45.01587" lon="5.60274">
        <ele>1104.6</ele>
        <time>2021-12-18T06:54:18Z</time>
      </trkpt>
      <trkpt lat="45.01587" lon="5.60271">
        <ele>1104.8</ele>
        <time>2021-12-18T06:54:20Z</time>
      </trkpt>
      <trkpt lat="45.01585" lon="5.60268">
        <ele>1105.6</ele>
        <time>2021-12-18T06:54:24Z</time>
      </trkpt>
      <trkpt lat="45.01585" lon="5.60265">
        <ele>1106</ele>
        <time>2021-12-18T06:54:26Z</time>
      </trkpt>
      <trkpt lat="45.01586" lon="5.60264">
        <ele>1106.6</ele>
        <time>2021-12-18T06:54:29Z</time>
      </trkpt>
      <trkpt lat="45.01588" lon="5.60265">
        <ele>1107.2</ele>
        <time>2021-12-18T06:54:32Z</time>
      </trkpt>
      <trkpt lat="45.01589" lon="5.60265">
        <ele>1107.2</ele>
        <time>2021-12-18T06:54:33Z</time>
      </trkpt>
      <trkpt lat="45.01593" lon="5.60269">
        <ele>1108.2</ele>
        <time>2021-12-18T06:54:39Z</time>
      </trkpt>
      <trkpt lat="45.01594" lon="5.60269">
        <ele>1108.8</ele>
        <time>2021-12-18T06:54:42Z</time>
      </trkpt>
      <trkpt lat="45.01594" lon="5.60268">
        <ele>1109</ele>
        <time>2021-12-18T06:54:44Z</time>
      </trkpt>
      <trkpt lat="45.01594" lon="5.60266">
        <ele>1109.2</ele>
        <time>2021-12-18T06:54:45Z</time>
      </trkpt>
      <trkpt lat="45.01594" lon="5.6026">
        <ele>1110.4</ele>
        <time>2021-12-18T06:54:51Z</time>
      </trkpt>
      <trkpt lat="45.01595" lon="5.60259">
        <ele>1111.4</ele>
        <time>2021-12-18T06:54:57Z</time>
      </trkpt>
      <trkpt lat="45.01595" lon="5.60254">
        <ele>1112.6</ele>
        <time>2021-12-18T06:55:02Z</time>
      </trkpt>
      <trkpt lat="45.01598" lon="5.60248">
        <ele>1113.6</ele>
        <time>2021-12-18T06:55:07Z</time>
      </trkpt>
      <trkpt lat="45.01598" lon="5.60247">
        <ele>1114</ele>
        <time>2021-12-18T06:55:10Z</time>
      </trkpt>
      <trkpt lat="45.01597" lon="5.60244">
        <ele>1114.8</ele>
        <time>2021-12-18T06:55:13Z</time>
      </trkpt>
      <trkpt lat="45.01597" lon="5.60243">
        <ele>1115.6</ele>
        <time>2021-12-18T06:55:16Z</time>
      </trkpt>
      <trkpt lat="45.01596" lon="5.60241">
        <ele>1116</ele>
        <time>2021-12-18T06:55:18Z</time>
      </trkpt>
      <trkpt lat="45.01594" lon="5.60238">
        <ele>1116.6</ele>
        <time>2021-12-18T06:55:23Z</time>
      </trkpt>
      <trkpt lat="45.01591" lon="5.60237">
        <ele>1117</ele>
        <time>2021-12-18T06:55:25Z</time>
      </trkpt>
      <trkpt lat="45.01593" lon="5.60234">
        <ele>1117.8</ele>
        <time>2021-12-18T06:55:29Z</time>
      </trkpt>
      <trkpt lat="45.01595" lon="5.60232">
        <ele>1118</ele>
        <time>2021-12-18T06:55:30Z</time>
      </trkpt>
      <trkpt lat="45.01596" lon="5.60233">
        <ele>1118.8</ele>
        <time>2021-12-18T06:55:33Z</time>
      </trkpt>
      <trkpt lat="45.01596" lon="5.60233">
        <ele>1119.2</ele>
        <time>2021-12-18T06:55:35Z</time>
      </trkpt>
      <trkpt lat="45.016" lon="5.6023">
        <ele>1119.4</ele>
        <time>2021-12-18T06:55:38Z</time>
      </trkpt>
      <trkpt lat="45.01603" lon="5.60225">
        <ele>1120.2</ele>
        <time>2021-12-18T06:55:42Z</time>
      </trkpt>
      <trkpt lat="45.01606" lon="5.60225">
        <ele>1120.6</ele>
        <time>2021-12-18T06:55:44Z</time>
      </trkpt>
      <trkpt lat="45.01607" lon="5.60225">
        <ele>1120.8</ele>
        <time>2021-12-18T06:55:45Z</time>
      </trkpt>
      <trkpt lat="45.01608" lon="5.60223">
        <ele>1121</ele>
        <time>2021-12-18T06:55:47Z</time>
      </trkpt>
      <trkpt lat="45.01609" lon="5.60222">
        <ele>1121.2</ele>
        <time>2021-12-18T06:55:48Z</time>
      </trkpt>
      <trkpt lat="45.01609" lon="5.60221">
        <ele>1121.4</ele>
        <time>2021-12-18T06:55:49Z</time>
      </trkpt>
      <trkpt lat="45.01609" lon="5.60217">
        <ele>1122.4</ele>
        <time>2021-12-18T06:55:54Z</time>
      </trkpt>
      <trkpt lat="45.01609" lon="5.60215">
        <ele>1123.4</ele>
        <time>2021-12-18T06:55:58Z</time>
      </trkpt>
      <trkpt lat="45.01609" lon="5.60214">
        <ele>1123.6</ele>
        <time>2021-12-18T06:55:59Z</time>
      </trkpt>
      <trkpt lat="45.01609" lon="5.60213">
        <ele>1123.8</ele>
        <time>2021-12-18T06:56:00Z</time>
      </trkpt>
      <trkpt lat="45.01608" lon="5.60211">
        <ele>1124.8</ele>
        <time>2021-12-18T06:56:06Z</time>
      </trkpt>
      <trkpt lat="45.01606" lon="5.60209">
        <ele>1125.8</ele>
        <time>2021-12-18T06:56:11Z</time>
      </trkpt>
      <trkpt lat="45.01604" lon="5.60205">
        <ele>1127</ele>
        <time>2021-12-18T06:56:17Z</time>
      </trkpt>
      <trkpt lat="45.01608" lon="5.60202">
        <ele>1127.6</ele>
        <time>2021-12-18T06:56:21Z</time>
      </trkpt>
      <trkpt lat="45.01608" lon="5.60201">
        <ele>1128</ele>
        <time>2021-12-18T06:56:23Z</time>
      </trkpt>
      <trkpt lat="45.01607" lon="5.60196">
        <ele>1128.6</ele>
        <time>2021-12-18T06:56:27Z</time>
      </trkpt>
      <trkpt lat="45.01605" lon="5.60193">
        <ele>1129.2</ele>
        <time>2021-12-18T06:56:31Z</time>
      </trkpt>
      <trkpt lat="45.01604" lon="5.60192">
        <ele>1129.2</ele>
        <time>2021-12-18T06:56:32Z</time>
      </trkpt>
      <trkpt lat="45.01603" lon="5.60191">
        <ele>1129.6</ele>
        <time>2021-12-18T06:56:34Z</time>
      </trkpt>
      <trkpt lat="45.01605" lon="5.60188">
        <ele>1130.4</ele>
        <time>2021-12-18T06:56:37Z</time>
      </trkpt>
      <trkpt lat="45.01606" lon="5.60187">
        <ele>1130.6</ele>
        <time>2021-12-18T06:56:38Z</time>
      </trkpt>
      <trkpt lat="45.01606" lon="5.60187">
        <ele>1130.8</ele>
        <time>2021-12-18T06:56:39Z</time>
      </trkpt>
      <trkpt lat="45.01607" lon="5.60189">
        <ele>1131.2</ele>
        <time>2021-12-18T06:56:41Z</time>
      </trkpt>
      <trkpt lat="45.01608" lon="5.60189">
        <ele>1131.4</ele>
        <time>2021-12-18T06:56:42Z</time>
      </trkpt>
      <trkpt lat="45.0161" lon="5.6019">
        <ele>1131.8</ele>
        <time>2021-12-18T06:56:45Z</time>
      </trkpt>
      <trkpt lat="45.01613" lon="5.60189">
        <ele>1132.2</ele>
        <time>2021-12-18T06:56:48Z</time>
      </trkpt>
      <trkpt lat="45.01614" lon="5.60189">
        <ele>1132.4</ele>
        <time>2021-12-18T06:56:49Z</time>
      </trkpt>
      <trkpt lat="45.01617" lon="5.60189">
        <ele>1133</ele>
        <time>2021-12-18T06:56:51Z</time>
      </trkpt>
      <trkpt lat="45.01617" lon="5.60187">
        <ele>1133.2</ele>
        <time>2021-12-18T06:56:53Z</time>
      </trkpt>
      <trkpt lat="45.01618" lon="5.60185">
        <ele>1133.6</ele>
        <time>2021-12-18T06:56:55Z</time>
      </trkpt>
      <trkpt lat="45.01623" lon="5.60181">
        <ele>1134.2</ele>
        <time>2021-12-18T06:56:58Z</time>
      </trkpt>
      <trkpt lat="45.01625" lon="5.60181">
        <ele>1134.4</ele>
        <time>2021-12-18T06:56:59Z</time>
      </trkpt>
      <trkpt lat="45.01625" lon="5.60181">
        <ele>1134.8</ele>
        <time>2021-12-18T06:57:01Z</time>
      </trkpt>
      <trkpt lat="45.01625" lon="5.6018">
        <ele>1135.2</ele>
        <time>2021-12-18T06:57:03Z</time>
      </trkpt>
      <trkpt lat="45.0163" lon="5.6018">
        <ele>1135.8</ele>
        <time>2021-12-18T06:57:09Z</time>
      </trkpt>
      <trkpt lat="45.01631" lon="5.6018">
        <ele>1136</ele>
        <time>2021-12-18T06:57:10Z</time>
      </trkpt>
      <trkpt lat="45.01635" lon="5.60177">
        <ele>1136.6</ele>
        <time>2021-12-18T06:57:15Z</time>
      </trkpt>
      <trkpt lat="45.01633" lon="5.60177">
        <ele>1137</ele>
        <time>2021-12-18T06:57:18Z</time>
      </trkpt>
      <trkpt lat="45.01631" lon="5.60176">
        <ele>1137.2</ele>
        <time>2021-12-18T06:57:20Z</time>
      </trkpt>
      <trkpt lat="45.01628" lon="5.60175">
        <ele>1138</ele>
        <time>2021-12-18T06:57:25Z</time>
      </trkpt>
      <trkpt lat="45.01626" lon="5.60175">
        <ele>1138.2</ele>
        <time>2021-12-18T06:57:26Z</time>
      </trkpt>
      <trkpt lat="45.01625" lon="5.60172">
        <ele>1138.8</ele>
        <time>2021-12-18T06:57:30Z</time>
      </trkpt>
      <trkpt lat="45.01627" lon="5.6017">
        <ele>1139.2</ele>
        <time>2021-12-18T06:57:33Z</time>
      </trkpt>
      <trkpt lat="45.01626" lon="5.60169">
        <ele>1139.6</ele>
        <time>2021-12-18T06:57:35Z</time>
      </trkpt>
      <trkpt lat="45.01625" lon="5.60165">
        <ele>1140.4</ele>
        <time>2021-12-18T06:57:39Z</time>
      </trkpt>
      <trkpt lat="45.01623" lon="5.60166">
        <ele>1140.8</ele>
        <time>2021-12-18T06:57:42Z</time>
      </trkpt>
      <trkpt lat="45.01624" lon="5.60162">
        <ele>1141</ele>
        <time>2021-12-18T06:57:47Z</time>
      </trkpt>
      <trkpt lat="45.01625" lon="5.60158">
        <ele>1141.4</ele>
        <time>2021-12-18T06:57:50Z</time>
      </trkpt>
      <trkpt lat="45.01625" lon="5.60156">
        <ele>1141.6</ele>
        <time>2021-12-18T06:57:51Z</time>
      </trkpt>
      <trkpt lat="45.01626" lon="5.60153">
        <ele>1142.4</ele>
        <time>2021-12-18T06:57:54Z</time>
      </trkpt>
      <trkpt lat="45.01627" lon="5.60152">
        <ele>1142.6</ele>
        <time>2021-12-18T06:57:55Z</time>
      </trkpt>
      <trkpt lat="45.01626" lon="5.60152">
        <ele>1143.2</ele>
        <time>2021-12-18T06:57:57Z</time>
      </trkpt>
      <trkpt lat="45.01626" lon="5.60153">
        <ele>1143.4</ele>
        <time>2021-12-18T06:57:59Z</time>
      </trkpt>
      <trkpt lat="45.01626" lon="5.60153">
        <ele>1143.8</ele>
        <time>2021-12-18T06:58:01Z</time>
      </trkpt>
      <trkpt lat="45.01629" lon="5.60155">
        <ele>1144.4</ele>
        <time>2021-12-18T06:58:03Z</time>
      </trkpt>
      <trkpt lat="45.0163" lon="5.60154">
        <ele>1144.8</ele>
        <time>2021-12-18T06:58:05Z</time>
      </trkpt>
      <trkpt lat="45.01631" lon="5.60152">
        <ele>1145</ele>
        <time>2021-12-18T06:58:06Z</time>
      </trkpt>
      <trkpt lat="45.0163" lon="5.60149">
        <ele>1145.4</ele>
        <time>2021-12-18T06:58:08Z</time>
      </trkpt>
      <trkpt lat="45.0163" lon="5.60149">
        <ele>1145.6</ele>
        <time>2021-12-18T06:58:10Z</time>
      </trkpt>
      <trkpt lat="45.0163" lon="5.60148">
        <ele>1145.8</ele>
        <time>2021-12-18T06:58:11Z</time>
      </trkpt>
      <trkpt lat="45.0163" lon="5.60148">
        <ele>1146</ele>
        <time>2021-12-18T06:58:12Z</time>
      </trkpt>
      <trkpt lat="45.0163" lon="5.60147">
        <ele>1146.2</ele>
        <time>2021-12-18T06:58:13Z</time>
      </trkpt>
      <trkpt lat="45.01629" lon="5.60145">
        <ele>1146.4</ele>
        <time>2021-12-18T06:58:15Z</time>
      </trkpt>
      <trkpt lat="45.01628" lon="5.60144">
        <ele>1146.6</ele>
        <time>2021-12-18T06:58:17Z</time>
      </trkpt>
      <trkpt lat="45.01627" lon="5.6014">
        <ele>1147.2</ele>
        <time>2021-12-18T06:58:21Z</time>
      </trkpt>
      <trkpt lat="45.01627" lon="5.60139">
        <ele>1147.6</ele>
        <time>2021-12-18T06:58:23Z</time>
      </trkpt>
      <trkpt lat="45.01626" lon="5.60136">
        <ele>1148.2</ele>
        <time>2021-12-18T06:58:28Z</time>
      </trkpt>
      <trkpt lat="45.01626" lon="5.60136">
        <ele>1148.4</ele>
        <time>2021-12-18T06:58:29Z</time>
      </trkpt>
      <trkpt lat="45.01631" lon="5.60135">
        <ele>1149.2</ele>
        <time>2021-12-18T06:58:35Z</time>
      </trkpt>
      <trkpt lat="45.01634" lon="5.60133">
        <ele>1149.6</ele>
        <time>2021-12-18T06:58:38Z</time>
      </trkpt>
      <trkpt lat="45.01636" lon="5.60132">
        <ele>1149.6</ele>
        <time>2021-12-18T06:58:40Z</time>
      </trkpt>
      <trkpt lat="45.01637" lon="5.60132">
        <ele>1149.6</ele>
        <time>2021-12-18T06:58:42Z</time>
      </trkpt>
      <trkpt lat="45.01637" lon="5.60132">
        <ele>1149.6</ele>
        <time>2021-12-18T06:58:43Z</time>
      </trkpt>
      <trkpt lat="45.01639" lon="5.60132">
        <ele>1149.8</ele>
        <time>2021-12-18T06:58:44Z</time>
      </trkpt>
      <trkpt lat="45.0164" lon="5.60132">
        <ele>1149.8</ele>
        <time>2021-12-18T06:58:46Z</time>
      </trkpt>
      <trkpt lat="45.01641" lon="5.60132">
        <ele>1150.2</ele>
        <time>2021-12-18T06:58:48Z</time>
      </trkpt>
      <trkpt lat="45.01641" lon="5.60131">
        <ele>1150.2</ele>
        <time>2021-12-18T06:58:49Z</time>
      </trkpt>
      <trkpt lat="45.01642" lon="5.6013">
        <ele>1150.4</ele>
        <time>2021-12-18T06:58:51Z</time>
      </trkpt>
      <trkpt lat="45.01644" lon="5.60126">
        <ele>1150.8</ele>
        <time>2021-12-18T06:58:54Z</time>
      </trkpt>
      <trkpt lat="45.01643" lon="5.60126">
        <ele>1151</ele>
        <time>2021-12-18T06:58:56Z</time>
      </trkpt>
      <trkpt lat="45.01643" lon="5.60126">
        <ele>1151.4</ele>
        <time>2021-12-18T06:58:57Z</time>
      </trkpt>
      <trkpt lat="45.01643" lon="5.60126">
        <ele>1151.6</ele>
        <time>2021-12-18T06:58:58Z</time>
      </trkpt>
      <trkpt lat="45.01641" lon="5.60125">
        <ele>1152.2</ele>
        <time>2021-12-18T06:59:00Z</time>
      </trkpt>
      <trkpt lat="45.01641" lon="5.60124">
        <ele>1152.6</ele>
        <time>2021-12-18T06:59:02Z</time>
      </trkpt>
      <trkpt lat="45.01646" lon="5.6012">
        <ele>1153.4</ele>
        <time>2021-12-18T06:59:06Z</time>
      </trkpt>
      <trkpt lat="45.01646" lon="5.60118">
        <ele>1153.6</ele>
        <time>2021-12-18T06:59:08Z</time>
      </trkpt>
      <trkpt lat="45.01647" lon="5.60118">
        <ele>1154.2</ele>
        <time>2021-12-18T06:59:11Z</time>
      </trkpt>
      <trkpt lat="45.01647" lon="5.60118">
        <ele>1154.4</ele>
        <time>2021-12-18T06:59:12Z</time>
      </trkpt>
      <trkpt lat="45.01649" lon="5.60116">
        <ele>1154.8</ele>
        <time>2021-12-18T06:59:13Z</time>
      </trkpt>
      <trkpt lat="45.0165" lon="5.60115">
        <ele>1155</ele>
        <time>2021-12-18T06:59:14Z</time>
      </trkpt>
      <trkpt lat="45.01653" lon="5.60114">
        <ele>1156</ele>
        <time>2021-12-18T06:59:18Z</time>
      </trkpt>
      <trkpt lat="45.0165" lon="5.60113">
        <ele>1156.4</ele>
        <time>2021-12-18T06:59:20Z</time>
      </trkpt>
      <trkpt lat="45.01649" lon="5.60111">
        <ele>1157</ele>
        <time>2021-12-18T06:59:24Z</time>
      </trkpt>
      <trkpt lat="45.01652" lon="5.60109">
        <ele>1157.2</ele>
        <time>2021-12-18T06:59:26Z</time>
      </trkpt>
      <trkpt lat="45.01653" lon="5.60107">
        <ele>1158.2</ele>
        <time>2021-12-18T06:59:29Z</time>
      </trkpt>
      <trkpt lat="45.01656" lon="5.60102">
        <ele>1158.6</ele>
        <time>2021-12-18T06:59:32Z</time>
      </trkpt>
      <trkpt lat="45.0166" lon="5.601">
        <ele>1159.4</ele>
        <time>2021-12-18T06:59:36Z</time>
      </trkpt>
      <trkpt lat="45.01661" lon="5.601">
        <ele>1160.4</ele>
        <time>2021-12-18T06:59:40Z</time>
      </trkpt>
      <trkpt lat="45.01661" lon="5.60101">
        <ele>1160.4</ele>
        <time>2021-12-18T06:59:41Z</time>
      </trkpt>
      <trkpt lat="45.01661" lon="5.60101">
        <ele>1160.6</ele>
        <time>2021-12-18T06:59:42Z</time>
      </trkpt>
      <trkpt lat="45.01661" lon="5.60102">
        <ele>1161.4</ele>
        <time>2021-12-18T06:59:46Z</time>
      </trkpt>
      <trkpt lat="45.01663" lon="5.601">
        <ele>1161.8</ele>
        <time>2021-12-18T06:59:48Z</time>
      </trkpt>
      <trkpt lat="45.01664" lon="5.60099">
        <ele>1162.2</ele>
        <time>2021-12-18T06:59:50Z</time>
      </trkpt>
      <trkpt lat="45.01664" lon="5.60097">
        <ele>1162.8</ele>
        <time>2021-12-18T06:59:53Z</time>
      </trkpt>
      <trkpt lat="45.01664" lon="5.60096">
        <ele>1163</ele>
        <time>2021-12-18T06:59:54Z</time>
      </trkpt>
      <trkpt lat="45.01664" lon="5.60096">
        <ele>1163</ele>
        <time>2021-12-18T06:59:57Z</time>
      </trkpt>
      <trkpt lat="45.01664" lon="5.60095">
        <ele>1163.2</ele>
        <time>2021-12-18T06:59:59Z</time>
      </trkpt>
      <trkpt lat="45.01664" lon="5.60095">
        <ele>1163.2</ele>
        <time>2021-12-18T07:00:00Z</time>
      </trkpt>
      <trkpt lat="45.01663" lon="5.60095">
        <ele>1163</ele>
        <time>2021-12-18T07:00:06Z</time>
      </trkpt>
      <trkpt lat="45.01662" lon="5.60094">
        <ele>1163.2</ele>
        <time>2021-12-18T07:00:12Z</time>
      </trkpt>
      <trkpt lat="45.01656" lon="5.6009">
        <ele>1163</ele>
        <time>2021-12-18T07:00:21Z</time>
      </trkpt>
      <trkpt lat="45.01655" lon="5.60089">
        <ele>1163</ele>
        <time>2021-12-18T07:00:22Z</time>
      </trkpt>
      <trkpt lat="45.01654" lon="5.60088">
        <ele>1163</ele>
        <time>2021-12-18T07:00:23Z</time>
      </trkpt>
      <trkpt lat="45.01651" lon="5.60086">
        <ele>1163.2</ele>
        <time>2021-12-18T07:00:25Z</time>
      </trkpt>
      <trkpt lat="45.01648" lon="5.60084">
        <ele>1163.2</ele>
        <time>2021-12-18T07:00:28Z</time>
      </trkpt>
      <trkpt lat="45.0164" lon="5.6008">
        <ele>1163.4</ele>
        <time>2021-12-18T07:00:36Z</time>
      </trkpt>
      <trkpt lat="45.01635" lon="5.60077">
        <ele>1163.4</ele>
        <time>2021-12-18T07:00:41Z</time>
      </trkpt>
      <trkpt lat="45.01635" lon="5.60077">
        <ele>1163.4</ele>
        <time>2021-12-18T07:00:42Z</time>
      </trkpt>
      <trkpt lat="45.01636" lon="5.60077">
        <ele>1163.4</ele>
        <time>2021-12-18T07:00:43Z</time>
      </trkpt>
      <trkpt lat="45.01636" lon="5.60076">
        <ele>1163.4</ele>
        <time>2021-12-18T07:00:44Z</time>
      </trkpt>
      <trkpt lat="45.01632" lon="5.60076">
        <ele>1163.2</ele>
        <time>2021-12-18T07:00:50Z</time>
      </trkpt>
      <trkpt lat="45.01631" lon="5.60076">
        <ele>1163.2</ele>
        <time>2021-12-18T07:00:56Z</time>
      </trkpt>
      <trkpt lat="45.0163" lon="5.60076">
        <ele>1163.2</ele>
        <time>2021-12-18T07:00:57Z</time>
      </trkpt>
      <trkpt lat="45.01629" lon="5.60075">
        <ele>1163</ele>
        <time>2021-12-18T07:01:05Z</time>
      </trkpt>
      <trkpt lat="45.01629" lon="5.60075">
        <ele>1163</ele>
        <time>2021-12-18T07:01:06Z</time>
      </trkpt>
      <trkpt lat="45.01631" lon="5.60072">
        <ele>1163</ele>
        <time>2021-12-18T07:01:12Z</time>
      </trkpt>
      <trkpt lat="45.01633" lon="5.60071">
        <ele>1163</ele>
        <time>2021-12-18T07:01:15Z</time>
      </trkpt>
      <trkpt lat="45.01634" lon="5.60068">
        <ele>1163</ele>
        <time>2021-12-18T07:01:18Z</time>
      </trkpt>
      <trkpt lat="45.01634" lon="5.6007">
        <ele>1163.6</ele>
        <time>2021-12-18T07:01:24Z</time>
      </trkpt>
      <trkpt lat="45.01639" lon="5.6007">
        <ele>1164</ele>
        <time>2021-12-18T07:01:30Z</time>
      </trkpt>
      <trkpt lat="45.0164" lon="5.60071">
        <ele>1164.6</ele>
        <time>2021-12-18T07:01:33Z</time>
      </trkpt>
      <trkpt lat="45.0164" lon="5.60072">
        <ele>1164.6</ele>
        <time>2021-12-18T07:01:34Z</time>
      </trkpt>
      <trkpt lat="45.01641" lon="5.60072">
        <ele>1165</ele>
        <time>2021-12-18T07:01:35Z</time>
      </trkpt>
      <trkpt lat="45.01642" lon="5.60071">
        <ele>1165.2</ele>
        <time>2021-12-18T07:01:36Z</time>
      </trkpt>
      <trkpt lat="45.01644" lon="5.60067">
        <ele>1166.2</ele>
        <time>2021-12-18T07:01:40Z</time>
      </trkpt>
      <trkpt lat="45.01645" lon="5.60067">
        <ele>1166.8</ele>
        <time>2021-12-18T07:01:42Z</time>
      </trkpt>
      <trkpt lat="45.01647" lon="5.60068">
        <ele>1167.4</ele>
        <time>2021-12-18T07:01:45Z</time>
      </trkpt>
      <trkpt lat="45.0165" lon="5.60066">
        <ele>1168.2</ele>
        <time>2021-12-18T07:01:49Z</time>
      </trkpt>
      <trkpt lat="45.0165" lon="5.60065">
        <ele>1168.4</ele>
        <time>2021-12-18T07:01:50Z</time>
      </trkpt>
      <trkpt lat="45.01652" lon="5.60062">
        <ele>1169</ele>
        <time>2021-12-18T07:01:53Z</time>
      </trkpt>
      <trkpt lat="45.0165" lon="5.60061">
        <ele>1169.6</ele>
        <time>2021-12-18T07:01:56Z</time>
      </trkpt>
      <trkpt lat="45.01649" lon="5.60057">
        <ele>1170.2</ele>
        <time>2021-12-18T07:02:01Z</time>
      </trkpt>
      <trkpt lat="45.0165" lon="5.60056">
        <ele>1170.6</ele>
        <time>2021-12-18T07:02:03Z</time>
      </trkpt>
      <trkpt lat="45.01651" lon="5.60055">
        <ele>1170.8</ele>
        <time>2021-12-18T07:02:04Z</time>
      </trkpt>
      <trkpt lat="45.01653" lon="5.60053">
        <ele>1171.6</ele>
        <time>2021-12-18T07:02:07Z</time>
      </trkpt>
      <trkpt lat="45.01653" lon="5.60053">
        <ele>1171.8</ele>
        <time>2021-12-18T07:02:08Z</time>
      </trkpt>
      <trkpt lat="45.01653" lon="5.60051">
        <ele>1172.4</ele>
        <time>2021-12-18T07:02:11Z</time>
      </trkpt>
      <trkpt lat="45.01653" lon="5.60049">
        <ele>1172.8</ele>
        <time>2021-12-18T07:02:13Z</time>
      </trkpt>
      <trkpt lat="45.01655" lon="5.60046">
        <ele>1173.8</ele>
        <time>2021-12-18T07:02:17Z</time>
      </trkpt>
      <trkpt lat="45.01655" lon="5.60045">
        <ele>1174</ele>
        <time>2021-12-18T07:02:18Z</time>
      </trkpt>
      <trkpt lat="45.01654" lon="5.60041">
        <ele>1175</ele>
        <time>2021-12-18T07:02:24Z</time>
      </trkpt>
      <trkpt lat="45.01654" lon="5.60041">
        <ele>1175</ele>
        <time>2021-12-18T07:02:25Z</time>
      </trkpt>
      <trkpt lat="45.01655" lon="5.60037">
        <ele>1176</ele>
        <time>2021-12-18T07:02:30Z</time>
      </trkpt>
      <trkpt lat="45.01656" lon="5.60036">
        <ele>1176.2</ele>
        <time>2021-12-18T07:02:31Z</time>
      </trkpt>
      <trkpt lat="45.01659" lon="5.60035">
        <ele>1177</ele>
        <time>2021-12-18T07:02:36Z</time>
      </trkpt>
      <trkpt lat="45.01662" lon="5.60035">
        <ele>1177.6</ele>
        <time>2021-12-18T07:02:39Z</time>
      </trkpt>
      <trkpt lat="45.01664" lon="5.60032">
        <ele>1178.2</ele>
        <time>2021-12-18T07:02:43Z</time>
      </trkpt>
      <trkpt lat="45.01663" lon="5.60031">
        <ele>1178.8</ele>
        <time>2021-12-18T07:02:46Z</time>
      </trkpt>
      <trkpt lat="45.01662" lon="5.60027">
        <ele>1179.6</ele>
        <time>2021-12-18T07:02:49Z</time>
      </trkpt>
      <trkpt lat="45.01664" lon="5.60026">
        <ele>1180.6</ele>
        <time>2021-12-18T07:02:54Z</time>
      </trkpt>
      <trkpt lat="45.01664" lon="5.60023">
        <ele>1181.6</ele>
        <time>2021-12-18T07:03:00Z</time>
      </trkpt>
      <trkpt lat="45.01664" lon="5.60018">
        <ele>1182.8</ele>
        <time>2021-12-18T07:03:05Z</time>
      </trkpt>
      <trkpt lat="45.01664" lon="5.60016">
        <ele>1183.8</ele>
        <time>2021-12-18T07:03:10Z</time>
      </trkpt>
      <trkpt lat="45.0166" lon="5.60011">
        <ele>1185</ele>
        <time>2021-12-18T07:03:16Z</time>
      </trkpt>
      <trkpt lat="45.0166" lon="5.60007">
        <ele>1186.2</ele>
        <time>2021-12-18T07:03:22Z</time>
      </trkpt>
      <trkpt lat="45.01658" lon="5.60002">
        <ele>1187.2</ele>
        <time>2021-12-18T07:03:27Z</time>
      </trkpt>
      <trkpt lat="45.0166" lon="5.59998">
        <ele>1188</ele>
        <time>2021-12-18T07:03:31Z</time>
      </trkpt>
      <trkpt lat="45.01661" lon="5.59996">
        <ele>1188.4</ele>
        <time>2021-12-18T07:03:33Z</time>
      </trkpt>
      <trkpt lat="45.01665" lon="5.59994">
        <ele>1189.6</ele>
        <time>2021-12-18T07:03:39Z</time>
      </trkpt>
      <trkpt lat="45.01664" lon="5.59992">
        <ele>1190.4</ele>
        <time>2021-12-18T07:03:45Z</time>
      </trkpt>
      <trkpt lat="45.01662" lon="5.5999">
        <ele>1190.6</ele>
        <time>2021-12-18T07:03:47Z</time>
      </trkpt>
      <trkpt lat="45.01661" lon="5.5999">
        <ele>1190.8</ele>
        <time>2021-12-18T07:03:48Z</time>
      </trkpt>
      <trkpt lat="45.0166" lon="5.5999">
        <ele>1191.2</ele>
        <time>2021-12-18T07:03:50Z</time>
      </trkpt>
      <trkpt lat="45.01659" lon="5.5999">
        <ele>1191.4</ele>
        <time>2021-12-18T07:03:51Z</time>
      </trkpt>
      <trkpt lat="45.01659" lon="5.59989">
        <ele>1191.4</ele>
        <time>2021-12-18T07:03:52Z</time>
      </trkpt>
      <trkpt lat="45.01658" lon="5.59987">
        <ele>1191.8</ele>
        <time>2021-12-18T07:03:54Z</time>
      </trkpt>
      <trkpt lat="45.01657" lon="5.59985">
        <ele>1192.4</ele>
        <time>2021-12-18T07:03:57Z</time>
      </trkpt>
      <trkpt lat="45.01656" lon="5.59982">
        <ele>1193</ele>
        <time>2021-12-18T07:04:00Z</time>
      </trkpt>
      <trkpt lat="45.01655" lon="5.5998">
        <ele>1193.4</ele>
        <time>2021-12-18T07:04:03Z</time>
      </trkpt>
      <trkpt lat="45.01654" lon="5.5998">
        <ele>1193.6</ele>
        <time>2021-12-18T07:04:04Z</time>
      </trkpt>
      <trkpt lat="45.01653" lon="5.5998">
        <ele>1194</ele>
        <time>2021-12-18T07:04:06Z</time>
      </trkpt>
      <trkpt lat="45.01652" lon="5.59978">
        <ele>1194.8</ele>
        <time>2021-12-18T07:04:10Z</time>
      </trkpt>
      <trkpt lat="45.01652" lon="5.59976">
        <ele>1195</ele>
        <time>2021-12-18T07:04:12Z</time>
      </trkpt>
      <trkpt lat="45.01651" lon="5.59974">
        <ele>1196</ele>
        <time>2021-12-18T07:04:16Z</time>
      </trkpt>
      <trkpt lat="45.0165" lon="5.59972">
        <ele>1196.2</ele>
        <time>2021-12-18T07:04:18Z</time>
      </trkpt>
      <trkpt lat="45.0165" lon="5.59969">
        <ele>1197.2</ele>
        <time>2021-12-18T07:04:22Z</time>
      </trkpt>
      <trkpt lat="45.01649" lon="5.59968">
        <ele>1197.4</ele>
        <time>2021-12-18T07:04:23Z</time>
      </trkpt>
      <trkpt lat="45.01651" lon="5.59966">
        <ele>1198.2</ele>
        <time>2021-12-18T07:04:28Z</time>
      </trkpt>
      <trkpt lat="45.01651" lon="5.59966">
        <ele>1198.6</ele>
        <time>2021-12-18T07:04:30Z</time>
      </trkpt>
      <trkpt lat="45.01652" lon="5.59964">
        <ele>1199</ele>
        <time>2021-12-18T07:04:33Z</time>
      </trkpt>
      <trkpt lat="45.01652" lon="5.59962">
        <ele>1199.8</ele>
        <time>2021-12-18T07:04:37Z</time>
      </trkpt>
      <trkpt lat="45.01656" lon="5.59956">
        <ele>1200.8</ele>
        <time>2021-12-18T07:04:43Z</time>
      </trkpt>
      <trkpt lat="45.01657" lon="5.59956">
        <ele>1201.4</ele>
        <time>2021-12-18T07:04:46Z</time>
      </trkpt>
      <trkpt lat="45.01659" lon="5.59951">
        <ele>1202</ele>
        <time>2021-12-18T07:04:49Z</time>
      </trkpt>
      <trkpt lat="45.01659" lon="5.59949">
        <ele>1202.6</ele>
        <time>2021-12-18T07:04:52Z</time>
      </trkpt>
      <trkpt lat="45.01658" lon="5.59948">
        <ele>1203.2</ele>
        <time>2021-12-18T07:04:55Z</time>
      </trkpt>
      <trkpt lat="45.01659" lon="5.59946">
        <ele>1203.8</ele>
        <time>2021-12-18T07:04:58Z</time>
      </trkpt>
      <trkpt lat="45.01659" lon="5.59942">
        <ele>1204</ele>
        <time>2021-12-18T07:05:01Z</time>
      </trkpt>
      <trkpt lat="45.0166" lon="5.59942">
        <ele>1204.2</ele>
        <time>2021-12-18T07:05:02Z</time>
      </trkpt>
      <trkpt lat="45.01659" lon="5.59941">
        <ele>1205.2</ele>
        <time>2021-12-18T07:05:05Z</time>
      </trkpt>
      <trkpt lat="45.01659" lon="5.5994">
        <ele>1205.4</ele>
        <time>2021-12-18T07:05:06Z</time>
      </trkpt>
      <trkpt lat="45.01658" lon="5.59938">
        <ele>1206.4</ele>
        <time>2021-12-18T07:05:10Z</time>
      </trkpt>
      <trkpt lat="45.01658" lon="5.59937">
        <ele>1206.4</ele>
        <time>2021-12-18T07:05:11Z</time>
      </trkpt>
      <trkpt lat="45.01658" lon="5.59936">
        <ele>1206.8</ele>
        <time>2021-12-18T07:05:13Z</time>
      </trkpt>
      <trkpt lat="45.01659" lon="5.59936">
        <ele>1207.2</ele>
        <time>2021-12-18T07:05:14Z</time>
      </trkpt>
      <trkpt lat="45.0166" lon="5.59934">
        <ele>1207.4</ele>
        <time>2021-12-18T07:05:16Z</time>
      </trkpt>
      <trkpt lat="45.01661" lon="5.59933">
        <ele>1207.6</ele>
        <time>2021-12-18T07:05:17Z</time>
      </trkpt>
      <trkpt lat="45.01665" lon="5.59931">
        <ele>1208.6</ele>
        <time>2021-12-18T07:05:23Z</time>
      </trkpt>
      <trkpt lat="45.01666" lon="5.5993">
        <ele>1209</ele>
        <time>2021-12-18T07:05:25Z</time>
      </trkpt>
      <trkpt lat="45.01667" lon="5.59927">
        <ele>1209.6</ele>
        <time>2021-12-18T07:05:29Z</time>
      </trkpt>
      <trkpt lat="45.01668" lon="5.59927">
        <ele>1209.6</ele>
        <time>2021-12-18T07:05:30Z</time>
      </trkpt>
      <trkpt lat="45.01668" lon="5.59928">
        <ele>1210.2</ele>
        <time>2021-12-18T07:05:33Z</time>
      </trkpt>
      <trkpt lat="45.01665" lon="5.59926">
        <ele>1210.8</ele>
        <time>2021-12-18T07:05:37Z</time>
      </trkpt>
      <trkpt lat="45.01663" lon="5.59926">
        <ele>1211.8</ele>
        <time>2021-12-18T07:05:42Z</time>
      </trkpt>
      <trkpt lat="45.01663" lon="5.59925">
        <ele>1212</ele>
        <time>2021-12-18T07:05:43Z</time>
      </trkpt>
      <trkpt lat="45.01661" lon="5.59918">
        <ele>1212.8</ele>
        <time>2021-12-18T07:05:48Z</time>
      </trkpt>
      <trkpt lat="45.0166" lon="5.59917">
        <ele>1213.2</ele>
        <time>2021-12-18T07:05:50Z</time>
      </trkpt>
      <trkpt lat="45.01659" lon="5.59917">
        <ele>1213.6</ele>
        <time>2021-12-18T07:05:52Z</time>
      </trkpt>
      <trkpt lat="45.01658" lon="5.59915">
        <ele>1213.8</ele>
        <time>2021-12-18T07:05:54Z</time>
      </trkpt>
      <trkpt lat="45.01656" lon="5.59912">
        <ele>1214.4</ele>
        <time>2021-12-18T07:05:58Z</time>
      </trkpt>
      <trkpt lat="45.01655" lon="5.59911">
        <ele>1214.6</ele>
        <time>2021-12-18T07:05:59Z</time>
      </trkpt>
      <trkpt lat="45.01652" lon="5.59908">
        <ele>1215.6</ele>
        <time>2021-12-18T07:06:04Z</time>
      </trkpt>
      <trkpt lat="45.01651" lon="5.59908">
        <ele>1215.8</ele>
        <time>2021-12-18T07:06:05Z</time>
      </trkpt>
      <trkpt lat="45.01651" lon="5.59905">
        <ele>1216.6</ele>
        <time>2021-12-18T07:06:09Z</time>
      </trkpt>
      <trkpt lat="45.01651" lon="5.59905">
        <ele>1216.8</ele>
        <time>2021-12-18T07:06:10Z</time>
      </trkpt>
      <trkpt lat="45.01651" lon="5.59901">
        <ele>1217.8</ele>
        <time>2021-12-18T07:06:16Z</time>
      </trkpt>
      <trkpt lat="45.01649" lon="5.59899">
        <ele>1218.8</ele>
        <time>2021-12-18T07:06:20Z</time>
      </trkpt>
      <trkpt lat="45.01649" lon="5.59897">
        <ele>1219.2</ele>
        <time>2021-12-18T07:06:23Z</time>
      </trkpt>
      <trkpt lat="45.01649" lon="5.59896">
        <ele>1219.8</ele>
        <time>2021-12-18T07:06:25Z</time>
      </trkpt>
      <trkpt lat="45.0165" lon="5.59893">
        <ele>1220.4</ele>
        <time>2021-12-18T07:06:28Z</time>
      </trkpt>
      <trkpt lat="45.0165" lon="5.59892">
        <ele>1220.6</ele>
        <time>2021-12-18T07:06:29Z</time>
      </trkpt>
      <trkpt lat="45.0165" lon="5.5989">
        <ele>1221</ele>
        <time>2021-12-18T07:06:31Z</time>
      </trkpt>
      <trkpt lat="45.01648" lon="5.59887">
        <ele>1221.4</ele>
        <time>2021-12-18T07:06:34Z</time>
      </trkpt>
      <trkpt lat="45.01649" lon="5.59886">
        <ele>1222</ele>
        <time>2021-12-18T07:06:37Z</time>
      </trkpt>
      <trkpt lat="45.01651" lon="5.59885">
        <ele>1222.2</ele>
        <time>2021-12-18T07:06:39Z</time>
      </trkpt>
      <trkpt lat="45.01653" lon="5.59883">
        <ele>1223.2</ele>
        <time>2021-12-18T07:06:42Z</time>
      </trkpt>
      <trkpt lat="45.01655" lon="5.59881">
        <ele>1224</ele>
        <time>2021-12-18T07:06:46Z</time>
      </trkpt>
      <trkpt lat="45.01658" lon="5.59881">
        <ele>1224.2</ele>
        <time>2021-12-18T07:06:48Z</time>
      </trkpt>
      <trkpt lat="45.0166" lon="5.59879">
        <ele>1225.2</ele>
        <time>2021-12-18T07:06:53Z</time>
      </trkpt>
      <trkpt lat="45.0166" lon="5.59879">
        <ele>1225.4</ele>
        <time>2021-12-18T07:06:54Z</time>
      </trkpt>
      <trkpt lat="45.01659" lon="5.59875">
        <ele>1226</ele>
        <time>2021-12-18T07:06:58Z</time>
      </trkpt>
      <trkpt lat="45.01662" lon="5.59873">
        <ele>1226.4</ele>
        <time>2021-12-18T07:07:00Z</time>
      </trkpt>
      <trkpt lat="45.01663" lon="5.5987">
        <ele>1227.6</ele>
        <time>2021-12-18T07:07:05Z</time>
      </trkpt>
      <trkpt lat="45.01662" lon="5.59867">
        <ele>1228.2</ele>
        <time>2021-12-18T07:07:09Z</time>
      </trkpt>
      <trkpt lat="45.01661" lon="5.59866">
        <ele>1228.4</ele>
        <time>2021-12-18T07:07:10Z</time>
      </trkpt>
      <trkpt lat="45.0166" lon="5.59866">
        <ele>1228.6</ele>
        <time>2021-12-18T07:07:11Z</time>
      </trkpt>
      <trkpt lat="45.01658" lon="5.59865">
        <ele>1229.6</ele>
        <time>2021-12-18T07:07:15Z</time>
      </trkpt>
      <trkpt lat="45.01659" lon="5.59864">
        <ele>1229.8</ele>
        <time>2021-12-18T07:07:16Z</time>
      </trkpt>
      <trkpt lat="45.01663" lon="5.5986">
        <ele>1230.6</ele>
        <time>2021-12-18T07:07:20Z</time>
      </trkpt>
      <trkpt lat="45.01663" lon="5.59859">
        <ele>1231</ele>
        <time>2021-12-18T07:07:22Z</time>
      </trkpt>
      <trkpt lat="45.01663" lon="5.59857">
        <ele>1231.4</ele>
        <time>2021-12-18T07:07:25Z</time>
      </trkpt>
      <trkpt lat="45.01663" lon="5.59854">
        <ele>1232</ele>
        <time>2021-12-18T07:07:27Z</time>
      </trkpt>
      <trkpt lat="45.01662" lon="5.59852">
        <ele>1232.6</ele>
        <time>2021-12-18T07:07:31Z</time>
      </trkpt>
      <trkpt lat="45.01659" lon="5.5985">
        <ele>1233</ele>
        <time>2021-12-18T07:07:33Z</time>
      </trkpt>
      <trkpt lat="45.01658" lon="5.59849">
        <ele>1233.6</ele>
        <time>2021-12-18T07:07:36Z</time>
      </trkpt>
      <trkpt lat="45.01657" lon="5.59848">
        <ele>1234.2</ele>
        <time>2021-12-18T07:07:40Z</time>
      </trkpt>
      <trkpt lat="45.01656" lon="5.59847">
        <ele>1234.8</ele>
        <time>2021-12-18T07:07:44Z</time>
      </trkpt>
      <trkpt lat="45.01657" lon="5.59847">
        <ele>1235.2</ele>
        <time>2021-12-18T07:07:46Z</time>
      </trkpt>
      <trkpt lat="45.01656" lon="5.59843">
        <ele>1236</ele>
        <time>2021-12-18T07:07:50Z</time>
      </trkpt>
      <trkpt lat="45.01655" lon="5.59843">
        <ele>1236.2</ele>
        <time>2021-12-18T07:07:51Z</time>
      </trkpt>
      <trkpt lat="45.01654" lon="5.5984">
        <ele>1237.2</ele>
        <time>2021-12-18T07:07:55Z</time>
      </trkpt>
      <trkpt lat="45.01654" lon="5.59839">
        <ele>1237.2</ele>
        <time>2021-12-18T07:07:56Z</time>
      </trkpt>
      <trkpt lat="45.01656" lon="5.59836">
        <ele>1238</ele>
        <time>2021-12-18T07:08:00Z</time>
      </trkpt>
      <trkpt lat="45.01659" lon="5.59835">
        <ele>1238.4</ele>
        <time>2021-12-18T07:08:02Z</time>
      </trkpt>
      <trkpt lat="45.01659" lon="5.59834">
        <ele>1238.6</ele>
        <time>2021-12-18T07:08:04Z</time>
      </trkpt>
      <trkpt lat="45.01659" lon="5.59833">
        <ele>1238.6</ele>
        <time>2021-12-18T07:08:05Z</time>
      </trkpt>
      <trkpt lat="45.01656" lon="5.59833">
        <ele>1239.6</ele>
        <time>2021-12-18T07:08:08Z</time>
      </trkpt>
      <trkpt lat="45.01655" lon="5.59832">
        <ele>1239.8</ele>
        <time>2021-12-18T07:08:09Z</time>
      </trkpt>
      <trkpt lat="45.01658" lon="5.5983">
        <ele>1240.6</ele>
        <time>2021-12-18T07:08:13Z</time>
      </trkpt>
      <trkpt lat="45.01659" lon="5.5983">
        <ele>1240.6</ele>
        <time>2021-12-18T07:08:14Z</time>
      </trkpt>
      <trkpt lat="45.0166" lon="5.59829">
        <ele>1240.8</ele>
        <time>2021-12-18T07:08:17Z</time>
      </trkpt>
      <trkpt lat="45.01661" lon="5.59829">
        <ele>1241.2</ele>
        <time>2021-12-18T07:08:20Z</time>
      </trkpt>
      <trkpt lat="45.01661" lon="5.59827">
        <ele>1241.8</ele>
        <time>2021-12-18T07:08:25Z</time>
      </trkpt>
      <trkpt lat="45.01661" lon="5.59827">
        <ele>1242.2</ele>
        <time>2021-12-18T07:08:26Z</time>
      </trkpt>
      <trkpt lat="45.01662" lon="5.59825">
        <ele>1243</ele>
        <time>2021-12-18T07:08:30Z</time>
      </trkpt>
      <trkpt lat="45.01663" lon="5.59823">
        <ele>1243.6</ele>
        <time>2021-12-18T07:08:33Z</time>
      </trkpt>
      <trkpt lat="45.01663" lon="5.59822">
        <ele>1244.2</ele>
        <time>2021-12-18T07:08:37Z</time>
      </trkpt>
      <trkpt lat="45.01662" lon="5.59821">
        <ele>1244.4</ele>
        <time>2021-12-18T07:08:38Z</time>
      </trkpt>
      <trkpt lat="45.01662" lon="5.59817">
        <ele>1245.4</ele>
        <time>2021-12-18T07:08:43Z</time>
      </trkpt>
      <trkpt lat="45.01663" lon="5.59816">
        <ele>1245.6</ele>
        <time>2021-12-18T07:08:44Z</time>
      </trkpt>
      <trkpt lat="45.01664" lon="5.59813">
        <ele>1246.2</ele>
        <time>2021-12-18T07:08:48Z</time>
      </trkpt>
      <trkpt lat="45.01664" lon="5.59811">
        <ele>1246.4</ele>
        <time>2021-12-18T07:08:50Z</time>
      </trkpt>
      <trkpt lat="45.01665" lon="5.5981">
        <ele>1247.4</ele>
        <time>2021-12-18T07:08:54Z</time>
      </trkpt>
      <trkpt lat="45.01665" lon="5.59809">
        <ele>1247.6</ele>
        <time>2021-12-18T07:08:55Z</time>
      </trkpt>
      <trkpt lat="45.01663" lon="5.59806">
        <ele>1248.6</ele>
        <time>2021-12-18T07:08:59Z</time>
      </trkpt>
      <trkpt lat="45.01663" lon="5.59805">
        <ele>1248.8</ele>
        <time>2021-12-18T07:09:00Z</time>
      </trkpt>
      <trkpt lat="45.01661" lon="5.59801">
        <ele>1249.6</ele>
        <time>2021-12-18T07:09:05Z</time>
      </trkpt>
      <trkpt lat="45.01662" lon="5.59798">
        <ele>1250.2</ele>
        <time>2021-12-18T07:09:08Z</time>
      </trkpt>
      <trkpt lat="45.01663" lon="5.59798">
        <ele>1250.6</ele>
        <time>2021-12-18T07:09:10Z</time>
      </trkpt>
      <trkpt lat="45.01664" lon="5.59797">
        <ele>1251</ele>
        <time>2021-12-18T07:09:11Z</time>
      </trkpt>
      <trkpt lat="45.01664" lon="5.59793">
        <ele>1251.6</ele>
        <time>2021-12-18T07:09:15Z</time>
      </trkpt>
      <trkpt lat="45.01664" lon="5.59793">
        <ele>1251.8</ele>
        <time>2021-12-18T07:09:16Z</time>
      </trkpt>
      <trkpt lat="45.01664" lon="5.59793">
        <ele>1252</ele>
        <time>2021-12-18T07:09:17Z</time>
      </trkpt>
      <trkpt lat="45.01665" lon="5.59793">
        <ele>1252.2</ele>
        <time>2021-12-18T07:09:18Z</time>
      </trkpt>
      <trkpt lat="45.01667" lon="5.59792">
        <ele>1252.4</ele>
        <time>2021-12-18T07:09:20Z</time>
      </trkpt>
      <trkpt lat="45.01667" lon="5.59792">
        <ele>1252.6</ele>
        <time>2021-12-18T07:09:21Z</time>
      </trkpt>
      <trkpt lat="45.01667" lon="5.5979">
        <ele>1253</ele>
        <time>2021-12-18T07:09:24Z</time>
      </trkpt>
      <trkpt lat="45.01668" lon="5.59789">
        <ele>1253.2</ele>
        <time>2021-12-18T07:09:25Z</time>
      </trkpt>
      <trkpt lat="45.0167" lon="5.59788">
        <ele>1254.2</ele>
        <time>2021-12-18T07:09:29Z</time>
      </trkpt>
      <trkpt lat="45.01669" lon="5.59786">
        <ele>1254.6</ele>
        <time>2021-12-18T07:09:31Z</time>
      </trkpt>
      <trkpt lat="45.01667" lon="5.59787">
        <ele>1255.2</ele>
        <time>2021-12-18T07:09:34Z</time>
      </trkpt>
      <trkpt lat="45.01665" lon="5.59787">
        <ele>1255.8</ele>
        <time>2021-12-18T07:09:37Z</time>
      </trkpt>
      <trkpt lat="45.01667" lon="5.59784">
        <ele>1256.4</ele>
        <time>2021-12-18T07:09:40Z</time>
      </trkpt>
      <trkpt lat="45.01667" lon="5.59784">
        <ele>1256.6</ele>
        <time>2021-12-18T07:09:41Z</time>
      </trkpt>
      <trkpt lat="45.01669" lon="5.59782">
        <ele>1257.4</ele>
        <time>2021-12-18T07:09:46Z</time>
      </trkpt>
      <trkpt lat="45.01669" lon="5.59781">
        <ele>1257.6</ele>
        <time>2021-12-18T07:09:47Z</time>
      </trkpt>
      <trkpt lat="45.01671" lon="5.59777">
        <ele>1258.6</ele>
        <time>2021-12-18T07:09:53Z</time>
      </trkpt>
      <trkpt lat="45.01672" lon="5.59776">
        <ele>1259.6</ele>
        <time>2021-12-18T07:09:57Z</time>
      </trkpt>
      <trkpt lat="45.01673" lon="5.59775">
        <ele>1259.8</ele>
        <time>2021-12-18T07:09:58Z</time>
      </trkpt>
      <trkpt lat="45.01676" lon="5.59776">
        <ele>1260</ele>
        <time>2021-12-18T07:10:01Z</time>
      </trkpt>
      <trkpt lat="45.01677" lon="5.59776">
        <ele>1260.2</ele>
        <time>2021-12-18T07:10:02Z</time>
      </trkpt>
      <trkpt lat="45.0168" lon="5.59775">
        <ele>1260.4</ele>
        <time>2021-12-18T07:10:06Z</time>
      </trkpt>
      <trkpt lat="45.01682" lon="5.59774">
        <ele>1260.8</ele>
        <time>2021-12-18T07:10:09Z</time>
      </trkpt>
      <trkpt lat="45.01683" lon="5.59773">
        <ele>1261</ele>
        <time>2021-12-18T07:10:12Z</time>
      </trkpt>
      <trkpt lat="45.01689" lon="5.59772">
        <ele>1261.8</ele>
        <time>2021-12-18T07:10:17Z</time>
      </trkpt>
      <trkpt lat="45.01691" lon="5.5977">
        <ele>1262.4</ele>
        <time>2021-12-18T07:10:22Z</time>
      </trkpt>
      <trkpt lat="45.01696" lon="5.59768">
        <ele>1262.6</ele>
        <time>2021-12-18T07:10:26Z</time>
      </trkpt>
      <trkpt lat="45.01697" lon="5.59766">
        <ele>1262.8</ele>
        <time>2021-12-18T07:10:28Z</time>
      </trkpt>
      <trkpt lat="45.01697" lon="5.59766">
        <ele>1263.2</ele>
        <time>2021-12-18T07:10:29Z</time>
      </trkpt>
      <trkpt lat="45.01697" lon="5.59765">
        <ele>1263.6</ele>
        <time>2021-12-18T07:10:31Z</time>
      </trkpt>
      <trkpt lat="45.01698" lon="5.59764">
        <ele>1264</ele>
        <time>2021-12-18T07:10:32Z</time>
      </trkpt>
      <trkpt lat="45.01697" lon="5.59762">
        <ele>1264.2</ele>
        <time>2021-12-18T07:10:34Z</time>
      </trkpt>
      <trkpt lat="45.01697" lon="5.59759">
        <ele>1265.2</ele>
        <time>2021-12-18T07:10:37Z</time>
      </trkpt>
      <trkpt lat="45.01696" lon="5.59758">
        <ele>1265.8</ele>
        <time>2021-12-18T07:10:40Z</time>
      </trkpt>
      <trkpt lat="45.01696" lon="5.59757">
        <ele>1266.2</ele>
        <time>2021-12-18T07:10:42Z</time>
      </trkpt>
      <trkpt lat="45.01697" lon="5.59757">
        <ele>1266.6</ele>
        <time>2021-12-18T07:10:48Z</time>
      </trkpt>
      <trkpt lat="45.017" lon="5.59756">
        <ele>1266.6</ele>
        <time>2021-12-18T07:10:57Z</time>
      </trkpt>
      <trkpt lat="45.017" lon="5.59757">
        <ele>1267.2</ele>
        <time>2021-12-18T07:11:16Z</time>
      </trkpt>
      <trkpt lat="45.017" lon="5.59757">
        <ele>1267.4</ele>
        <time>2021-12-18T07:11:17Z</time>
      </trkpt>
      <trkpt lat="45.017" lon="5.59757">
        <ele>1267.6</ele>
        <time>2021-12-18T07:11:19Z</time>
      </trkpt>
      <trkpt lat="45.01701" lon="5.59756">
        <ele>1267.6</ele>
        <time>2021-12-18T07:11:21Z</time>
      </trkpt>
      <trkpt lat="45.01701" lon="5.59751">
        <ele>1268.2</ele>
        <time>2021-12-18T07:11:25Z</time>
      </trkpt>
      <trkpt lat="45.01702" lon="5.5975">
        <ele>1268.8</ele>
        <time>2021-12-18T07:11:27Z</time>
      </trkpt>
      <trkpt lat="45.01702" lon="5.59748">
        <ele>1269.2</ele>
        <time>2021-12-18T07:11:29Z</time>
      </trkpt>
      <trkpt lat="45.01701" lon="5.59747">
        <ele>1269.4</ele>
        <time>2021-12-18T07:11:30Z</time>
      </trkpt>
      <trkpt lat="45.01699" lon="5.59745">
        <ele>1270</ele>
        <time>2021-12-18T07:11:34Z</time>
      </trkpt>
      <trkpt lat="45.01699" lon="5.59744">
        <ele>1270.2</ele>
        <time>2021-12-18T07:11:35Z</time>
      </trkpt>
      <trkpt lat="45.01699" lon="5.59744">
        <ele>1270.4</ele>
        <time>2021-12-18T07:11:36Z</time>
      </trkpt>
      <trkpt lat="45.017" lon="5.5974">
        <ele>1271.4</ele>
        <time>2021-12-18T07:11:40Z</time>
      </trkpt>
      <trkpt lat="45.017" lon="5.5974">
        <ele>1271.8</ele>
        <time>2021-12-18T07:11:43Z</time>
      </trkpt>
      <trkpt lat="45.01701" lon="5.59739">
        <ele>1272.6</ele>
        <time>2021-12-18T07:11:48Z</time>
      </trkpt>
      <trkpt lat="45.017" lon="5.59739">
        <ele>1272.6</ele>
        <time>2021-12-18T07:11:49Z</time>
      </trkpt>
      <trkpt lat="45.017" lon="5.59738">
        <ele>1273.6</ele>
        <time>2021-12-18T07:11:53Z</time>
      </trkpt>
      <trkpt lat="45.017" lon="5.59737">
        <ele>1273.8</ele>
        <time>2021-12-18T07:11:56Z</time>
      </trkpt>
      <trkpt lat="45.01698" lon="5.59735">
        <ele>1274.2</ele>
        <time>2021-12-18T07:12:02Z</time>
      </trkpt>
      <trkpt lat="45.01698" lon="5.59733">
        <ele>1274.6</ele>
        <time>2021-12-18T07:12:06Z</time>
      </trkpt>
      <trkpt lat="45.01698" lon="5.59733">
        <ele>1275.2</ele>
        <time>2021-12-18T07:12:08Z</time>
      </trkpt>
      <trkpt lat="45.01698" lon="5.59732">
        <ele>1275.8</ele>
        <time>2021-12-18T07:12:10Z</time>
      </trkpt>
      <trkpt lat="45.01694" lon="5.59728">
        <ele>1276.8</ele>
        <time>2021-12-18T07:12:15Z</time>
      </trkpt>
      <trkpt lat="45.01694" lon="5.59727">
        <ele>1277</ele>
        <time>2021-12-18T07:12:16Z</time>
      </trkpt>
      <trkpt lat="45.01693" lon="5.59725">
        <ele>1277.4</ele>
        <time>2021-12-18T07:12:21Z</time>
      </trkpt>
      <trkpt lat="45.01691" lon="5.59724">
        <ele>1277.8</ele>
        <time>2021-12-18T07:12:26Z</time>
      </trkpt>
      <trkpt lat="45.01692" lon="5.59723">
        <ele>1278</ele>
        <time>2021-12-18T07:12:27Z</time>
      </trkpt>
      <trkpt lat="45.01693" lon="5.59722">
        <ele>1278.4</ele>
        <time>2021-12-18T07:12:29Z</time>
      </trkpt>
      <trkpt lat="45.01694" lon="5.59721">
        <ele>1278.6</ele>
        <time>2021-12-18T07:12:31Z</time>
      </trkpt>
      <trkpt lat="45.01694" lon="5.5972">
        <ele>1278.6</ele>
        <time>2021-12-18T07:12:32Z</time>
      </trkpt>
      <trkpt lat="45.01695" lon="5.59718">
        <ele>1278.8</ele>
        <time>2021-12-18T07:12:35Z</time>
      </trkpt>
      <trkpt lat="45.01696" lon="5.59716">
        <ele>1279.2</ele>
        <time>2021-12-18T07:12:39Z</time>
      </trkpt>
      <trkpt lat="45.01697" lon="5.59714">
        <ele>1280</ele>
        <time>2021-12-18T07:12:44Z</time>
      </trkpt>
      <trkpt lat="45.01703" lon="5.59712">
        <ele>1280.6</ele>
        <time>2021-12-18T07:12:51Z</time>
      </trkpt>
      <trkpt lat="45.01704" lon="5.59715">
        <ele>1281</ele>
        <time>2021-12-18T07:12:56Z</time>
      </trkpt>
      <trkpt lat="45.01706" lon="5.59717">
        <ele>1281.2</ele>
        <time>2021-12-18T07:13:02Z</time>
      </trkpt>
      <trkpt lat="45.01708" lon="5.59714">
        <ele>1282</ele>
        <time>2021-12-18T07:13:06Z</time>
      </trkpt>
      <trkpt lat="45.01708" lon="5.59713">
        <ele>1282.4</ele>
        <time>2021-12-18T07:13:09Z</time>
      </trkpt>
      <trkpt lat="45.01709" lon="5.59713">
        <ele>1282.8</ele>
        <time>2021-12-18T07:13:14Z</time>
      </trkpt>
      <trkpt lat="45.01709" lon="5.59712">
        <ele>1283</ele>
        <time>2021-12-18T07:13:15Z</time>
      </trkpt>
      <trkpt lat="45.01711" lon="5.59712">
        <ele>1283.2</ele>
        <time>2021-12-18T07:13:17Z</time>
      </trkpt>
      <trkpt lat="45.01713" lon="5.59711">
        <ele>1283.6</ele>
        <time>2021-12-18T07:13:21Z</time>
      </trkpt>
      <trkpt lat="45.01714" lon="5.59709">
        <ele>1284</ele>
        <time>2021-12-18T07:13:24Z</time>
      </trkpt>
      <trkpt lat="45.01715" lon="5.59708">
        <ele>1284.4</ele>
        <time>2021-12-18T07:13:25Z</time>
      </trkpt>
      <trkpt lat="45.01716" lon="5.59708">
        <ele>1284.6</ele>
        <time>2021-12-18T07:13:26Z</time>
      </trkpt>
      <trkpt lat="45.01717" lon="5.59705">
        <ele>1285</ele>
        <time>2021-12-18T07:13:30Z</time>
      </trkpt>
      <trkpt lat="45.01718" lon="5.59702">
        <ele>1285.4</ele>
        <time>2021-12-18T07:13:33Z</time>
      </trkpt>
      <trkpt lat="45.0172" lon="5.59702">
        <ele>1285.8</ele>
        <time>2021-12-18T07:13:35Z</time>
      </trkpt>
      <trkpt lat="45.01725" lon="5.597">
        <ele>1286.4</ele>
        <time>2021-12-18T07:13:39Z</time>
      </trkpt>
      <trkpt lat="45.01727" lon="5.59698">
        <ele>1286.8</ele>
        <time>2021-12-18T07:13:41Z</time>
      </trkpt>
      <trkpt lat="45.01727" lon="5.59693">
        <ele>1287.6</ele>
        <time>2021-12-18T07:13:45Z</time>
      </trkpt>
      <trkpt lat="45.01727" lon="5.59691">
        <ele>1288</ele>
        <time>2021-12-18T07:13:47Z</time>
      </trkpt>
      <trkpt lat="45.01727" lon="5.5969">
        <ele>1288.6</ele>
        <time>2021-12-18T07:13:50Z</time>
      </trkpt>
      <trkpt lat="45.01729" lon="5.59689">
        <ele>1289.2</ele>
        <time>2021-12-18T07:13:53Z</time>
      </trkpt>
      <trkpt lat="45.0173" lon="5.59688">
        <ele>1289.8</ele>
        <time>2021-12-18T07:13:56Z</time>
      </trkpt>
      <trkpt lat="45.01733" lon="5.59688">
        <ele>1290.4</ele>
        <time>2021-12-18T07:14:00Z</time>
      </trkpt>
      <trkpt lat="45.01734" lon="5.59686">
        <ele>1290.8</ele>
        <time>2021-12-18T07:14:02Z</time>
      </trkpt>
      <trkpt lat="45.01735" lon="5.59683">
        <ele>1291.8</ele>
        <time>2021-12-18T07:14:06Z</time>
      </trkpt>
      <trkpt lat="45.01735" lon="5.59683">
        <ele>1292</ele>
        <time>2021-12-18T07:14:07Z</time>
      </trkpt>
      <trkpt lat="45.01733" lon="5.59678">
        <ele>1292.6</ele>
        <time>2021-12-18T07:14:12Z</time>
      </trkpt>
      <trkpt lat="45.01731" lon="5.59676">
        <ele>1293.2</ele>
        <time>2021-12-18T07:14:14Z</time>
      </trkpt>
      <trkpt lat="45.01729" lon="5.59677">
        <ele>1293.8</ele>
        <time>2021-12-18T07:14:18Z</time>
      </trkpt>
      <trkpt lat="45.01727" lon="5.59677">
        <ele>1294.4</ele>
        <time>2021-12-18T07:14:22Z</time>
      </trkpt>
      <trkpt lat="45.01727" lon="5.59676">
        <ele>1294.4</ele>
        <time>2021-12-18T07:14:24Z</time>
      </trkpt>
      <trkpt lat="45.01729" lon="5.59671">
        <ele>1294.8</ele>
        <time>2021-12-18T07:14:28Z</time>
      </trkpt>
      <trkpt lat="45.01729" lon="5.5967">
        <ele>1295.2</ele>
        <time>2021-12-18T07:14:29Z</time>
      </trkpt>
      <trkpt lat="45.01729" lon="5.5967">
        <ele>1295.4</ele>
        <time>2021-12-18T07:14:30Z</time>
      </trkpt>
      <trkpt lat="45.0173" lon="5.59669">
        <ele>1295.8</ele>
        <time>2021-12-18T07:14:32Z</time>
      </trkpt>
      <trkpt lat="45.01729" lon="5.59669">
        <ele>1296</ele>
        <time>2021-12-18T07:14:33Z</time>
      </trkpt>
      <trkpt lat="45.0173" lon="5.5967">
        <ele>1296.4</ele>
        <time>2021-12-18T07:14:37Z</time>
      </trkpt>
      <trkpt lat="45.0173" lon="5.5967">
        <ele>1296.4</ele>
        <time>2021-12-18T07:14:38Z</time>
      </trkpt>
      <trkpt lat="45.01727" lon="5.59669">
        <ele>1296.6</ele>
        <time>2021-12-18T07:14:43Z</time>
      </trkpt>
      <trkpt lat="45.01728" lon="5.59669">
        <ele>1297.2</ele>
        <time>2021-12-18T07:14:49Z</time>
      </trkpt>
      <trkpt lat="45.01728" lon="5.59669">
        <ele>1297.6</ele>
        <time>2021-12-18T07:14:51Z</time>
      </trkpt>
      <trkpt lat="45.01728" lon="5.59669">
        <ele>1298.2</ele>
        <time>2021-12-18T07:14:59Z</time>
      </trkpt>
      <trkpt lat="45.01728" lon="5.59667">
        <ele>1298.6</ele>
        <time>2021-12-18T07:15:01Z</time>
      </trkpt>
      <trkpt lat="45.01728" lon="5.59667">
        <ele>1299.2</ele>
        <time>2021-12-18T07:15:04Z</time>
      </trkpt>
      <trkpt lat="45.01728" lon="5.59666">
        <ele>1299.6</ele>
        <time>2021-12-18T07:15:05Z</time>
      </trkpt>
      <trkpt lat="45.01729" lon="5.59664">
        <ele>1300.2</ele>
        <time>2021-12-18T07:15:07Z</time>
      </trkpt>
      <trkpt lat="45.01732" lon="5.59661">
        <ele>1300.8</ele>
        <time>2021-12-18T07:15:10Z</time>
      </trkpt>
      <trkpt lat="45.01732" lon="5.5966">
        <ele>1301</ele>
        <time>2021-12-18T07:15:11Z</time>
      </trkpt>
      <trkpt lat="45.01732" lon="5.5966">
        <ele>1301.4</ele>
        <time>2021-12-18T07:15:13Z</time>
      </trkpt>
      <trkpt lat="45.01731" lon="5.59661">
        <ele>1301.8</ele>
        <time>2021-12-18T07:15:15Z</time>
      </trkpt>
      <trkpt lat="45.01731" lon="5.5966">
        <ele>1302.4</ele>
        <time>2021-12-18T07:15:17Z</time>
      </trkpt>
      <trkpt lat="45.01732" lon="5.59658">
        <ele>1302.8</ele>
        <time>2021-12-18T07:15:18Z</time>
      </trkpt>
      <trkpt lat="45.01733" lon="5.59658">
        <ele>1303</ele>
        <time>2021-12-18T07:15:19Z</time>
      </trkpt>
      <trkpt lat="45.01733" lon="5.59654">
        <ele>1303.8</ele>
        <time>2021-12-18T07:15:23Z</time>
      </trkpt>
      <trkpt lat="45.01732" lon="5.59652">
        <ele>1304</ele>
        <time>2021-12-18T07:15:25Z</time>
      </trkpt>
      <trkpt lat="45.01733" lon="5.5965">
        <ele>1304.4</ele>
        <time>2021-12-18T07:15:27Z</time>
      </trkpt>
      <trkpt lat="45.01732" lon="5.5965">
        <ele>1305</ele>
        <time>2021-12-18T07:15:31Z</time>
      </trkpt>
      <trkpt lat="45.01732" lon="5.59648">
        <ele>1305.4</ele>
        <time>2021-12-18T07:15:32Z</time>
      </trkpt>
      <trkpt lat="45.01731" lon="5.59643">
        <ele>1306.2</ele>
        <time>2021-12-18T07:15:36Z</time>
      </trkpt>
      <trkpt lat="45.01732" lon="5.59642">
        <ele>1306.4</ele>
        <time>2021-12-18T07:15:37Z</time>
      </trkpt>
      <trkpt lat="45.01732" lon="5.59642">
        <ele>1307.4</ele>
        <time>2021-12-18T07:15:42Z</time>
      </trkpt>
      <trkpt lat="45.01728" lon="5.59642">
        <ele>1307.8</ele>
        <time>2021-12-18T07:15:45Z</time>
      </trkpt>
      <trkpt lat="45.01727" lon="5.59641">
        <ele>1308.2</ele>
        <time>2021-12-18T07:15:47Z</time>
      </trkpt>
      <trkpt lat="45.01724" lon="5.5964">
        <ele>1308.6</ele>
        <time>2021-12-18T07:15:49Z</time>
      </trkpt>
      <trkpt lat="45.01722" lon="5.59639">
        <ele>1309.2</ele>
        <time>2021-12-18T07:15:52Z</time>
      </trkpt>
      <trkpt lat="45.01722" lon="5.59635">
        <ele>1309.8</ele>
        <time>2021-12-18T07:15:55Z</time>
      </trkpt>
      <trkpt lat="45.01725" lon="5.59631">
        <ele>1310.6</ele>
        <time>2021-12-18T07:15:59Z</time>
      </trkpt>
      <trkpt lat="45.01725" lon="5.59631">
        <ele>1310.8</ele>
        <time>2021-12-18T07:16:01Z</time>
      </trkpt>
      <trkpt lat="45.01725" lon="5.5963">
        <ele>1311.2</ele>
        <time>2021-12-18T07:16:03Z</time>
      </trkpt>
      <trkpt lat="45.01729" lon="5.59626">
        <ele>1312</ele>
        <time>2021-12-18T07:16:07Z</time>
      </trkpt>
      <trkpt lat="45.0173" lon="5.59625">
        <ele>1312.2</ele>
        <time>2021-12-18T07:16:09Z</time>
      </trkpt>
      <trkpt lat="45.01727" lon="5.59626">
        <ele>1312.4</ele>
        <time>2021-12-18T07:16:14Z</time>
      </trkpt>
      <trkpt lat="45.01727" lon="5.59626">
        <ele>1312.4</ele>
        <time>2021-12-18T07:16:16Z</time>
      </trkpt>
      <trkpt lat="45.01728" lon="5.59626">
        <ele>1312.6</ele>
        <time>2021-12-18T07:16:19Z</time>
      </trkpt>
      <trkpt lat="45.01729" lon="5.59625">
        <ele>1313</ele>
        <time>2021-12-18T07:16:21Z</time>
      </trkpt>
      <trkpt lat="45.01729" lon="5.59625">
        <ele>1313</ele>
        <time>2021-12-18T07:16:24Z</time>
      </trkpt>
      <trkpt lat="45.0173" lon="5.59624">
        <ele>1313.4</ele>
        <time>2021-12-18T07:16:26Z</time>
      </trkpt>
      <trkpt lat="45.01732" lon="5.59623">
        <ele>1313.6</ele>
        <time>2021-12-18T07:16:29Z</time>
      </trkpt>
      <trkpt lat="45.01732" lon="5.5962">
        <ele>1314</ele>
        <time>2021-12-18T07:16:32Z</time>
      </trkpt>
      <trkpt lat="45.01732" lon="5.5962">
        <ele>1314.2</ele>
        <time>2021-12-18T07:16:33Z</time>
      </trkpt>
      <trkpt lat="45.01735" lon="5.59619">
        <ele>1315</ele>
        <time>2021-12-18T07:16:37Z</time>
      </trkpt>
      <trkpt lat="45.01736" lon="5.59618">
        <ele>1315.4</ele>
        <time>2021-12-18T07:16:40Z</time>
      </trkpt>
      <trkpt lat="45.01736" lon="5.59617">
        <ele>1316</ele>
        <time>2021-12-18T07:16:42Z</time>
      </trkpt>
      <trkpt lat="45.01737" lon="5.59617">
        <ele>1316.2</ele>
        <time>2021-12-18T07:16:43Z</time>
      </trkpt>
      <trkpt lat="45.01737" lon="5.59616">
        <ele>1316.4</ele>
        <time>2021-12-18T07:16:44Z</time>
      </trkpt>
      <trkpt lat="45.01738" lon="5.59616">
        <ele>1316.8</ele>
        <time>2021-12-18T07:16:45Z</time>
      </trkpt>
      <trkpt lat="45.01737" lon="5.59616">
        <ele>1317.4</ele>
        <time>2021-12-18T07:16:47Z</time>
      </trkpt>
      <trkpt lat="45.01736" lon="5.59615">
        <ele>1317.8</ele>
        <time>2021-12-18T07:16:48Z</time>
      </trkpt>
      <trkpt lat="45.01736" lon="5.59611">
        <ele>1318.2</ele>
        <time>2021-12-18T07:16:54Z</time>
      </trkpt>
      <trkpt lat="45.01736" lon="5.59612">
        <ele>1318.2</ele>
        <time>2021-12-18T07:16:56Z</time>
      </trkpt>
      <trkpt lat="45.01735" lon="5.59612">
        <ele>1318.2</ele>
        <time>2021-12-18T07:16:58Z</time>
      </trkpt>
      <trkpt lat="45.01735" lon="5.59612">
        <ele>1318.2</ele>
        <time>2021-12-18T07:17:05Z</time>
      </trkpt>
      <trkpt lat="45.01735" lon="5.59612">
        <ele>1318.2</ele>
        <time>2021-12-18T07:17:09Z</time>
      </trkpt>
      <trkpt lat="45.01735" lon="5.59612">
        <ele>1318.2</ele>
        <time>2021-12-18T07:17:16Z</time>
      </trkpt>
      <trkpt lat="45.01735" lon="5.59612">
        <ele>1318.2</ele>
        <time>2021-12-18T07:17:17Z</time>
      </trkpt>
      <trkpt lat="45.01735" lon="5.59612">
        <ele>1318.2</ele>
        <time>2021-12-18T07:17:21Z</time>
      </trkpt>
      <trkpt lat="45.01735" lon="5.59612">
        <ele>1318.2</ele>
        <time>2021-12-18T07:17:24Z</time>
      </trkpt>
      <trkpt lat="45.01735" lon="5.59612">
        <ele>1318.2</ele>
        <time>2021-12-18T07:17:26Z</time>
      </trkpt>
      <trkpt lat="45.01735" lon="5.59613">
        <ele>1318.2</ele>
        <time>2021-12-18T07:17:29Z</time>
      </trkpt>
      <trkpt lat="45.01735" lon="5.59613">
        <ele>1318</ele>
        <time>2021-12-18T07:17:32Z</time>
      </trkpt>
      <trkpt lat="45.01734" lon="5.59613">
        <ele>1318</ele>
        <time>2021-12-18T07:17:43Z</time>
      </trkpt>
      <trkpt lat="45.01729" lon="5.5961">
        <ele>1318.4</ele>
        <time>2021-12-18T07:17:56Z</time>
      </trkpt>
      <trkpt lat="45.01727" lon="5.59609">
        <ele>1318.6</ele>
        <time>2021-12-18T07:17:57Z</time>
      </trkpt>
      <trkpt lat="45.01722" lon="5.59605">
        <ele>1319.4</ele>
        <time>2021-12-18T07:18:05Z</time>
      </trkpt>
      <trkpt lat="45.01722" lon="5.59604">
        <ele>1319.6</ele>
        <time>2021-12-18T07:18:06Z</time>
      </trkpt>
      <trkpt lat="45.01715" lon="5.596">
        <ele>1320</ele>
        <time>2021-12-18T07:18:12Z</time>
      </trkpt>
      <trkpt lat="45.01711" lon="5.59599">
        <ele>1320.4</ele>
        <time>2021-12-18T07:18:16Z</time>
      </trkpt>
      <trkpt lat="45.01711" lon="5.59598">
        <ele>1320.6</ele>
        <time>2021-12-18T07:18:17Z</time>
      </trkpt>
      <trkpt lat="45.0171" lon="5.59598">
        <ele>1320.6</ele>
        <time>2021-12-18T07:18:18Z</time>
      </trkpt>
      <trkpt lat="45.01708" lon="5.59597">
        <ele>1321</ele>
        <time>2021-12-18T07:18:20Z</time>
      </trkpt>
      <trkpt lat="45.01705" lon="5.59596">
        <ele>1321.2</ele>
        <time>2021-12-18T07:18:23Z</time>
      </trkpt>
      <trkpt lat="45.01702" lon="5.59595">
        <ele>1321.6</ele>
        <time>2021-12-18T07:18:28Z</time>
      </trkpt>
      <trkpt lat="45.01701" lon="5.59595">
        <ele>1321.6</ele>
        <time>2021-12-18T07:18:29Z</time>
      </trkpt>
      <trkpt lat="45.017" lon="5.59595">
        <ele>1321.8</ele>
        <time>2021-12-18T07:18:30Z</time>
      </trkpt>
      <trkpt lat="45.01695" lon="5.59595">
        <ele>1322.2</ele>
        <time>2021-12-18T07:18:35Z</time>
      </trkpt>
      <trkpt lat="45.01692" lon="5.59594">
        <ele>1322.8</ele>
        <time>2021-12-18T07:18:39Z</time>
      </trkpt>
      <trkpt lat="45.0169" lon="5.59592">
        <ele>1322.8</ele>
        <time>2021-12-18T07:18:42Z</time>
      </trkpt>
      <trkpt lat="45.01682" lon="5.59589">
        <ele>1323.8</ele>
        <time>2021-12-18T07:18:51Z</time>
      </trkpt>
      <trkpt lat="45.01682" lon="5.59589">
        <ele>1323.8</ele>
        <time>2021-12-18T07:18:52Z</time>
      </trkpt>
      <trkpt lat="45.01678" lon="5.59587">
        <ele>1324.6</ele>
        <time>2021-12-18T07:18:58Z</time>
      </trkpt>
      <trkpt lat="45.01676" lon="5.59585">
        <ele>1324.8</ele>
        <time>2021-12-18T07:19:00Z</time>
      </trkpt>
      <trkpt lat="45.01671" lon="5.59583">
        <ele>1325.6</ele>
        <time>2021-12-18T07:19:06Z</time>
      </trkpt>
      <trkpt lat="45.01665" lon="5.59582">
        <ele>1325.8</ele>
        <time>2021-12-18T07:19:11Z</time>
      </trkpt>
      <trkpt lat="45.01661" lon="5.59582">
        <ele>1326</ele>
        <time>2021-12-18T07:19:14Z</time>
      </trkpt>
      <trkpt lat="45.0166" lon="5.59582">
        <ele>1326</ele>
        <time>2021-12-18T07:19:15Z</time>
      </trkpt>
      <trkpt lat="45.01656" lon="5.59582">
        <ele>1326.4</ele>
        <time>2021-12-18T07:19:19Z</time>
      </trkpt>
      <trkpt lat="45.01653" lon="5.59581">
        <ele>1326.8</ele>
        <time>2021-12-18T07:19:22Z</time>
      </trkpt>
      <trkpt lat="45.01645" lon="5.59583">
        <ele>1328</ele>
        <time>2021-12-18T07:19:30Z</time>
      </trkpt>
      <trkpt lat="45.01638" lon="5.59582">
        <ele>1328.4</ele>
        <time>2021-12-18T07:19:35Z</time>
      </trkpt>
      <trkpt lat="45.01636" lon="5.5958">
        <ele>1328.8</ele>
        <time>2021-12-18T07:19:38Z</time>
      </trkpt>
      <trkpt lat="45.01635" lon="5.5958">
        <ele>1329</ele>
        <time>2021-12-18T07:19:39Z</time>
      </trkpt>
      <trkpt lat="45.01634" lon="5.59577">
        <ele>1329.6</ele>
        <time>2021-12-18T07:19:43Z</time>
      </trkpt>
      <trkpt lat="45.01631" lon="5.59577">
        <ele>1330</ele>
        <time>2021-12-18T07:19:46Z</time>
      </trkpt>
      <trkpt lat="45.0163" lon="5.59577">
        <ele>1330.2</ele>
        <time>2021-12-18T07:19:47Z</time>
      </trkpt>
      <trkpt lat="45.01629" lon="5.59576">
        <ele>1330.2</ele>
        <time>2021-12-18T07:19:48Z</time>
      </trkpt>
      <trkpt lat="45.01627" lon="5.59574">
        <ele>1330.6</ele>
        <time>2021-12-18T07:19:52Z</time>
      </trkpt>
      <trkpt lat="45.01627" lon="5.59573">
        <ele>1330.8</ele>
        <time>2021-12-18T07:19:53Z</time>
      </trkpt>
      <trkpt lat="45.01626" lon="5.59573">
        <ele>1331.2</ele>
        <time>2021-12-18T07:19:55Z</time>
      </trkpt>
      <trkpt lat="45.01626" lon="5.59573">
        <ele>1331.2</ele>
        <time>2021-12-18T07:19:56Z</time>
      </trkpt>
      <trkpt lat="45.01624" lon="5.59572">
        <ele>1331.4</ele>
        <time>2021-12-18T07:19:58Z</time>
      </trkpt>
      <trkpt lat="45.01622" lon="5.5957">
        <ele>1331.8</ele>
        <time>2021-12-18T07:20:01Z</time>
      </trkpt>
      <trkpt lat="45.01621" lon="5.59568">
        <ele>1331.8</ele>
        <time>2021-12-18T07:20:02Z</time>
      </trkpt>
      <trkpt lat="45.01618" lon="5.59566">
        <ele>1332.2</ele>
        <time>2021-12-18T07:20:05Z</time>
      </trkpt>
      <trkpt lat="45.01613" lon="5.59564">
        <ele>1332.6</ele>
        <time>2021-12-18T07:20:09Z</time>
      </trkpt>
      <trkpt lat="45.01612" lon="5.59564">
        <ele>1333</ele>
        <time>2021-12-18T07:20:12Z</time>
      </trkpt>
      <trkpt lat="45.0161" lon="5.59563">
        <ele>1333.2</ele>
        <time>2021-12-18T07:20:14Z</time>
      </trkpt>
      <trkpt lat="45.01608" lon="5.59562">
        <ele>1333.6</ele>
        <time>2021-12-18T07:20:16Z</time>
      </trkpt>
      <trkpt lat="45.016" lon="5.59561">
        <ele>1334.4</ele>
        <time>2021-12-18T07:20:22Z</time>
      </trkpt>
      <trkpt lat="45.01599" lon="5.5956">
        <ele>1334.4</ele>
        <time>2021-12-18T07:20:23Z</time>
      </trkpt>
      <trkpt lat="45.01593" lon="5.59557">
        <ele>1335.2</ele>
        <time>2021-12-18T07:20:30Z</time>
      </trkpt>
      <trkpt lat="45.01591" lon="5.59557">
        <ele>1335.4</ele>
        <time>2021-12-18T07:20:31Z</time>
      </trkpt>
      <trkpt lat="45.01585" lon="5.59555">
        <ele>1336.4</ele>
        <time>2021-12-18T07:20:39Z</time>
      </trkpt>
      <trkpt lat="45.01584" lon="5.59554">
        <ele>1336.6</ele>
        <time>2021-12-18T07:20:40Z</time>
      </trkpt>
      <trkpt lat="45.01582" lon="5.59553">
        <ele>1336.8</ele>
        <time>2021-12-18T07:20:44Z</time>
      </trkpt>
      <trkpt lat="45.01577" lon="5.59551">
        <ele>1337.2</ele>
        <time>2021-12-18T07:20:48Z</time>
      </trkpt>
      <trkpt lat="45.01574" lon="5.59548">
        <ele>1337.4</ele>
        <time>2021-12-18T07:20:52Z</time>
      </trkpt>
      <trkpt lat="45.01573" lon="5.59548">
        <ele>1337.6</ele>
        <time>2021-12-18T07:20:53Z</time>
      </trkpt>
      <trkpt lat="45.01566" lon="5.59545">
        <ele>1338.6</ele>
        <time>2021-12-18T07:21:00Z</time>
      </trkpt>
      <trkpt lat="45.01564" lon="5.59545">
        <ele>1338.6</ele>
        <time>2021-12-18T07:21:01Z</time>
      </trkpt>
      <trkpt lat="45.01563" lon="5.59546">
        <ele>1338.8</ele>
        <time>2021-12-18T07:21:03Z</time>
      </trkpt>
      <trkpt lat="45.01558" lon="5.59546">
        <ele>1339.6</ele>
        <time>2021-12-18T07:21:07Z</time>
      </trkpt>
      <trkpt lat="45.01556" lon="5.59546">
        <ele>1339.8</ele>
        <time>2021-12-18T07:21:09Z</time>
      </trkpt>
      <trkpt lat="45.01552" lon="5.59544">
        <ele>1340.4</ele>
        <time>2021-12-18T07:21:14Z</time>
      </trkpt>
      <trkpt lat="45.01552" lon="5.59544">
        <ele>1340.6</ele>
        <time>2021-12-18T07:21:15Z</time>
      </trkpt>
      <trkpt lat="45.01551" lon="5.59544">
        <ele>1340.8</ele>
        <time>2021-12-18T07:21:17Z</time>
      </trkpt>
      <trkpt lat="45.0155" lon="5.59543">
        <ele>1341.2</ele>
        <time>2021-12-18T07:21:20Z</time>
      </trkpt>
      <trkpt lat="45.01546" lon="5.59542">
        <ele>1342</ele>
        <time>2021-12-18T07:21:24Z</time>
      </trkpt>
      <trkpt lat="45.01545" lon="5.59541">
        <ele>1342.2</ele>
        <time>2021-12-18T07:21:26Z</time>
      </trkpt>
      <trkpt lat="45.01539" lon="5.59541">
        <ele>1343</ele>
        <time>2021-12-18T07:21:32Z</time>
      </trkpt>
      <trkpt lat="45.01532" lon="5.59539">
        <ele>1344</ele>
        <time>2021-12-18T07:21:40Z</time>
      </trkpt>
      <trkpt lat="45.01531" lon="5.59539">
        <ele>1344.2</ele>
        <time>2021-12-18T07:21:41Z</time>
      </trkpt>
      <trkpt lat="45.01524" lon="5.5954">
        <ele>1345.2</ele>
        <time>2021-12-18T07:21:47Z</time>
      </trkpt>
      <trkpt lat="45.01523" lon="5.59539">
        <ele>1345.2</ele>
        <time>2021-12-18T07:21:48Z</time>
      </trkpt>
      <trkpt lat="45.01516" lon="5.59539">
        <ele>1346</ele>
        <time>2021-12-18T07:21:54Z</time>
      </trkpt>
      <trkpt lat="45.01514" lon="5.59539">
        <ele>1346.2</ele>
        <time>2021-12-18T07:21:56Z</time>
      </trkpt>
      <trkpt lat="45.01513" lon="5.59539">
        <ele>1346.4</ele>
        <time>2021-12-18T07:21:57Z</time>
      </trkpt>
      <trkpt lat="45.0151" lon="5.59539">
        <ele>1346.6</ele>
        <time>2021-12-18T07:21:59Z</time>
      </trkpt>
      <trkpt lat="45.01509" lon="5.59539">
        <ele>1346.8</ele>
        <time>2021-12-18T07:22:00Z</time>
      </trkpt>
      <trkpt lat="45.01508" lon="5.59539">
        <ele>1347</ele>
        <time>2021-12-18T07:22:01Z</time>
      </trkpt>
      <trkpt lat="45.01505" lon="5.59537">
        <ele>1347.4</ele>
        <time>2021-12-18T07:22:05Z</time>
      </trkpt>
      <trkpt lat="45.01505" lon="5.59536">
        <ele>1347.4</ele>
        <time>2021-12-18T07:22:06Z</time>
      </trkpt>
      <trkpt lat="45.01497" lon="5.59532">
        <ele>1348.4</ele>
        <time>2021-12-18T07:22:13Z</time>
      </trkpt>
      <trkpt lat="45.01496" lon="5.59532">
        <ele>1348.4</ele>
        <time>2021-12-18T07:22:14Z</time>
      </trkpt>
      <trkpt lat="45.0149" lon="5.59531">
        <ele>1349.6</ele>
        <time>2021-12-18T07:22:21Z</time>
      </trkpt>
      <trkpt lat="45.01488" lon="5.59529">
        <ele>1350</ele>
        <time>2021-12-18T07:22:24Z</time>
      </trkpt>
      <trkpt lat="45.01485" lon="5.5953">
        <ele>1350.2</ele>
        <time>2021-12-18T07:22:26Z</time>
      </trkpt>
      <trkpt lat="45.01484" lon="5.5953">
        <ele>1350.4</ele>
        <time>2021-12-18T07:22:27Z</time>
      </trkpt>
      <trkpt lat="45.01483" lon="5.59531">
        <ele>1350.4</ele>
        <time>2021-12-18T07:22:30Z</time>
      </trkpt>
      <trkpt lat="45.01483" lon="5.59532">
        <ele>1350.4</ele>
        <time>2021-12-18T07:22:33Z</time>
      </trkpt>
      <trkpt lat="45.01484" lon="5.59532">
        <ele>1350.4</ele>
        <time>2021-12-18T07:22:35Z</time>
      </trkpt>
      <trkpt lat="45.01484" lon="5.59532">
        <ele>1350.4</ele>
        <time>2021-12-18T07:22:36Z</time>
      </trkpt>
      <trkpt lat="45.01484" lon="5.59532">
        <ele>1350.4</ele>
        <time>2021-12-18T07:22:37Z</time>
      </trkpt>
      <trkpt lat="45.01484" lon="5.59532">
        <ele>1350.4</ele>
        <time>2021-12-18T07:22:38Z</time>
      </trkpt>
      <trkpt lat="45.01484" lon="5.59531">
        <ele>1350.4</ele>
        <time>2021-12-18T07:22:40Z</time>
      </trkpt>
      <trkpt lat="45.01484" lon="5.5953">
        <ele>1350.4</ele>
        <time>2021-12-18T07:22:43Z</time>
      </trkpt>
      <trkpt lat="45.01482" lon="5.59529">
        <ele>1350.6</ele>
        <time>2021-12-18T07:22:46Z</time>
      </trkpt>
      <trkpt lat="45.01481" lon="5.59529">
        <ele>1351</ele>
        <time>2021-12-18T07:22:49Z</time>
      </trkpt>
      <trkpt lat="45.01475" lon="5.59527">
        <ele>1351.8</ele>
        <time>2021-12-18T07:22:55Z</time>
      </trkpt>
      <trkpt lat="45.01474" lon="5.59525">
        <ele>1352.2</ele>
        <time>2021-12-18T07:22:57Z</time>
      </trkpt>
      <trkpt lat="45.0147" lon="5.59523">
        <ele>1352.8</ele>
        <time>2021-12-18T07:23:02Z</time>
      </trkpt>
      <trkpt lat="45.0147" lon="5.59522">
        <ele>1353</ele>
        <time>2021-12-18T07:23:03Z</time>
      </trkpt>
      <trkpt lat="45.01468" lon="5.59521">
        <ele>1353.4</ele>
        <time>2021-12-18T07:23:06Z</time>
      </trkpt>
      <trkpt lat="45.01467" lon="5.59521">
        <ele>1353.6</ele>
        <time>2021-12-18T07:23:07Z</time>
      </trkpt>
      <trkpt lat="45.01465" lon="5.5952">
        <ele>1354</ele>
        <time>2021-12-18T07:23:09Z</time>
      </trkpt>
      <trkpt lat="45.01463" lon="5.5952">
        <ele>1354.4</ele>
        <time>2021-12-18T07:23:12Z</time>
      </trkpt>
      <trkpt lat="45.01459" lon="5.59518">
        <ele>1355</ele>
        <time>2021-12-18T07:23:16Z</time>
      </trkpt>
      <trkpt lat="45.01458" lon="5.59517">
        <ele>1355.2</ele>
        <time>2021-12-18T07:23:17Z</time>
      </trkpt>
      <trkpt lat="45.01454" lon="5.59517">
        <ele>1356.2</ele>
        <time>2021-12-18T07:23:22Z</time>
      </trkpt>
      <trkpt lat="45.01448" lon="5.59514">
        <ele>1357.2</ele>
        <time>2021-12-18T07:23:30Z</time>
      </trkpt>
      <trkpt lat="45.01447" lon="5.59514">
        <ele>1357.4</ele>
        <time>2021-12-18T07:23:31Z</time>
      </trkpt>
      <trkpt lat="45.01443" lon="5.5951">
        <ele>1358.4</ele>
        <time>2021-12-18T07:23:36Z</time>
      </trkpt>
      <trkpt lat="45.01438" lon="5.59508">
        <ele>1359</ele>
        <time>2021-12-18T07:23:42Z</time>
      </trkpt>
      <trkpt lat="45.01436" lon="5.59506">
        <ele>1359.4</ele>
        <time>2021-12-18T07:23:44Z</time>
      </trkpt>
      <trkpt lat="45.01433" lon="5.59503">
        <ele>1360.4</ele>
        <time>2021-12-18T07:23:49Z</time>
      </trkpt>
      <trkpt lat="45.01432" lon="5.59503">
        <ele>1360.6</ele>
        <time>2021-12-18T07:23:50Z</time>
      </trkpt>
      <trkpt lat="45.01426" lon="5.59501">
        <ele>1361.6</ele>
        <time>2021-12-18T07:23:56Z</time>
      </trkpt>
      <trkpt lat="45.01423" lon="5.59499">
        <ele>1362.2</ele>
        <time>2021-12-18T07:24:00Z</time>
      </trkpt>
      <trkpt lat="45.01421" lon="5.59498">
        <ele>1362.6</ele>
        <time>2021-12-18T07:24:03Z</time>
      </trkpt>
      <trkpt lat="45.0142" lon="5.59497">
        <ele>1363</ele>
        <time>2021-12-18T07:24:05Z</time>
      </trkpt>
      <trkpt lat="45.01415" lon="5.59494">
        <ele>1363.8</ele>
        <time>2021-12-18T07:24:10Z</time>
      </trkpt>
      <trkpt lat="45.01413" lon="5.59493">
        <ele>1364</ele>
        <time>2021-12-18T07:24:12Z</time>
      </trkpt>
      <trkpt lat="45.01412" lon="5.59492">
        <ele>1364.2</ele>
        <time>2021-12-18T07:24:13Z</time>
      </trkpt>
      <trkpt lat="45.01412" lon="5.59491">
        <ele>1364.4</ele>
        <time>2021-12-18T07:24:14Z</time>
      </trkpt>
      <trkpt lat="45.0141" lon="5.59489">
        <ele>1364.8</ele>
        <time>2021-12-18T07:24:17Z</time>
      </trkpt>
      <trkpt lat="45.01407" lon="5.59487">
        <ele>1365.4</ele>
        <time>2021-12-18T07:24:20Z</time>
      </trkpt>
      <trkpt lat="45.01405" lon="5.59485">
        <ele>1365.8</ele>
        <time>2021-12-18T07:24:23Z</time>
      </trkpt>
      <trkpt lat="45.01403" lon="5.59484">
        <ele>1366</ele>
        <time>2021-12-18T07:24:25Z</time>
      </trkpt>
      <trkpt lat="45.01402" lon="5.59482">
        <ele>1366.4</ele>
        <time>2021-12-18T07:24:27Z</time>
      </trkpt>
      <trkpt lat="45.01401" lon="5.59481">
        <ele>1366.8</ele>
        <time>2021-12-18T07:24:29Z</time>
      </trkpt>
      <trkpt lat="45.01397" lon="5.5948">
        <ele>1367.2</ele>
        <time>2021-12-18T07:24:33Z</time>
      </trkpt>
      <trkpt lat="45.01397" lon="5.5948">
        <ele>1367.2</ele>
        <time>2021-12-18T07:24:34Z</time>
      </trkpt>
      <trkpt lat="45.01397" lon="5.5948">
        <ele>1367.4</ele>
        <time>2021-12-18T07:24:35Z</time>
      </trkpt>
      <trkpt lat="45.01394" lon="5.59477">
        <ele>1367.8</ele>
        <time>2021-12-18T07:24:42Z</time>
      </trkpt>
      <trkpt lat="45.01392" lon="5.59476">
        <ele>1368.2</ele>
        <time>2021-12-18T07:24:44Z</time>
      </trkpt>
      <trkpt lat="45.0139" lon="5.59475">
        <ele>1368.4</ele>
        <time>2021-12-18T07:24:47Z</time>
      </trkpt>
      <trkpt lat="45.01388" lon="5.59474">
        <ele>1368.6</ele>
        <time>2021-12-18T07:24:49Z</time>
      </trkpt>
      <trkpt lat="45.01386" lon="5.59471">
        <ele>1369.2</ele>
        <time>2021-12-18T07:24:52Z</time>
      </trkpt>
      <trkpt lat="45.01382" lon="5.59468">
        <ele>1369.8</ele>
        <time>2021-12-18T07:24:57Z</time>
      </trkpt>
      <trkpt lat="45.0138" lon="5.59465">
        <ele>1370.2</ele>
        <time>2021-12-18T07:25:00Z</time>
      </trkpt>
      <trkpt lat="45.01376" lon="5.59464">
        <ele>1370.8</ele>
        <time>2021-12-18T07:25:03Z</time>
      </trkpt>
      <trkpt lat="45.01375" lon="5.59464">
        <ele>1371</ele>
        <time>2021-12-18T07:25:05Z</time>
      </trkpt>
      <trkpt lat="45.01373" lon="5.59461">
        <ele>1371.4</ele>
        <time>2021-12-18T07:25:08Z</time>
      </trkpt>
      <trkpt lat="45.01372" lon="5.5946">
        <ele>1371.4</ele>
        <time>2021-12-18T07:25:09Z</time>
      </trkpt>
      <trkpt lat="45.0137" lon="5.59459">
        <ele>1371.8</ele>
        <time>2021-12-18T07:25:12Z</time>
      </trkpt>
      <trkpt lat="45.01367" lon="5.59457">
        <ele>1372.2</ele>
        <time>2021-12-18T07:25:15Z</time>
      </trkpt>
      <trkpt lat="45.01366" lon="5.59456">
        <ele>1372.4</ele>
        <time>2021-12-18T07:25:16Z</time>
      </trkpt>
      <trkpt lat="45.01363" lon="5.59454">
        <ele>1372.8</ele>
        <time>2021-12-18T07:25:19Z</time>
      </trkpt>
      <trkpt lat="45.0136" lon="5.59452">
        <ele>1373.4</ele>
        <time>2021-12-18T07:25:22Z</time>
      </trkpt>
      <trkpt lat="45.01359" lon="5.59451">
        <ele>1373.6</ele>
        <time>2021-12-18T07:25:23Z</time>
      </trkpt>
      <trkpt lat="45.01357" lon="5.5945">
        <ele>1374.2</ele>
        <time>2021-12-18T07:25:28Z</time>
      </trkpt>
      <trkpt lat="45.01357" lon="5.59449">
        <ele>1374.4</ele>
        <time>2021-12-18T07:25:34Z</time>
      </trkpt>
      <trkpt lat="45.01358" lon="5.5945">
        <ele>1374.4</ele>
        <time>2021-12-18T07:25:38Z</time>
      </trkpt>
      <trkpt lat="45.01358" lon="5.5945">
        <ele>1374.4</ele>
        <time>2021-12-18T07:25:42Z</time>
      </trkpt>
      <trkpt lat="45.01358" lon="5.5945">
        <ele>1374.4</ele>
        <time>2021-12-18T07:25:43Z</time>
      </trkpt>
      <trkpt lat="45.01357" lon="5.59449">
        <ele>1374.6</ele>
        <time>2021-12-18T07:25:44Z</time>
      </trkpt>
      <trkpt lat="45.01356" lon="5.59449">
        <ele>1374.6</ele>
        <time>2021-12-18T07:25:45Z</time>
      </trkpt>
      <trkpt lat="45.01355" lon="5.59448">
        <ele>1374.8</ele>
        <time>2021-12-18T07:25:46Z</time>
      </trkpt>
      <trkpt lat="45.01352" lon="5.59446">
        <ele>1374.8</ele>
        <time>2021-12-18T07:25:48Z</time>
      </trkpt>
      <trkpt lat="45.01351" lon="5.59446">
        <ele>1375.2</ele>
        <time>2021-12-18T07:25:49Z</time>
      </trkpt>
      <trkpt lat="45.01347" lon="5.59445">
        <ele>1375.6</ele>
        <time>2021-12-18T07:25:52Z</time>
      </trkpt>
      <trkpt lat="45.01345" lon="5.59444">
        <ele>1375.8</ele>
        <time>2021-12-18T07:25:54Z</time>
      </trkpt>
      <trkpt lat="45.01344" lon="5.59443">
        <ele>1376.2</ele>
        <time>2021-12-18T07:25:56Z</time>
      </trkpt>
      <trkpt lat="45.01341" lon="5.59442">
        <ele>1376.6</ele>
        <time>2021-12-18T07:25:59Z</time>
      </trkpt>
      <trkpt lat="45.01339" lon="5.5944">
        <ele>1377.2</ele>
        <time>2021-12-18T07:26:03Z</time>
      </trkpt>
      <trkpt lat="45.01339" lon="5.5944">
        <ele>1377.4</ele>
        <time>2021-12-18T07:26:04Z</time>
      </trkpt>
      <trkpt lat="45.01336" lon="5.59435">
        <ele>1377.8</ele>
        <time>2021-12-18T07:26:11Z</time>
      </trkpt>
      <trkpt lat="45.01336" lon="5.59432">
        <ele>1378.2</ele>
        <time>2021-12-18T07:26:14Z</time>
      </trkpt>
      <trkpt lat="45.01335" lon="5.59431">
        <ele>1378.4</ele>
        <time>2021-12-18T07:26:16Z</time>
      </trkpt>
      <trkpt lat="45.01336" lon="5.59432">
        <ele>1378.4</ele>
        <time>2021-12-18T07:26:23Z</time>
      </trkpt>
      <trkpt lat="45.01336" lon="5.59431">
        <ele>1378.4</ele>
        <time>2021-12-18T07:26:30Z</time>
      </trkpt>
      <trkpt lat="45.01338" lon="5.59431">
        <ele>1378.4</ele>
        <time>2021-12-18T07:26:32Z</time>
      </trkpt>
      <trkpt lat="45.0134" lon="5.5943">
        <ele>1378.6</ele>
        <time>2021-12-18T07:26:33Z</time>
      </trkpt>
      <trkpt lat="45.01341" lon="5.5943">
        <ele>1378.8</ele>
        <time>2021-12-18T07:26:34Z</time>
      </trkpt>
      <trkpt lat="45.01342" lon="5.5943">
        <ele>1378.8</ele>
        <time>2021-12-18T07:26:35Z</time>
      </trkpt>
      <trkpt lat="45.01346" lon="5.59431">
        <ele>1379.4</ele>
        <time>2021-12-18T07:26:39Z</time>
      </trkpt>
      <trkpt lat="45.0135" lon="5.59429">
        <ele>1380</ele>
        <time>2021-12-18T07:26:42Z</time>
      </trkpt>
      <trkpt lat="45.01352" lon="5.5943">
        <ele>1380.4</ele>
        <time>2021-12-18T07:26:44Z</time>
      </trkpt>
      <trkpt lat="45.01353" lon="5.5943">
        <ele>1380.6</ele>
        <time>2021-12-18T07:26:45Z</time>
      </trkpt>
      <trkpt lat="45.01356" lon="5.59431">
        <ele>1381</ele>
        <time>2021-12-18T07:26:48Z</time>
      </trkpt>
      <trkpt lat="45.01357" lon="5.59431">
        <ele>1381.2</ele>
        <time>2021-12-18T07:26:49Z</time>
      </trkpt>
      <trkpt lat="45.01361" lon="5.59432">
        <ele>1381.8</ele>
        <time>2021-12-18T07:26:52Z</time>
      </trkpt>
      <trkpt lat="45.01363" lon="5.59431">
        <ele>1382.2</ele>
        <time>2021-12-18T07:26:54Z</time>
      </trkpt>
      <trkpt lat="45.01368" lon="5.59432">
        <ele>1382.8</ele>
        <time>2021-12-18T07:26:58Z</time>
      </trkpt>
      <trkpt lat="45.0137" lon="5.59431">
        <ele>1383</ele>
        <time>2021-12-18T07:27:00Z</time>
      </trkpt>
      <trkpt lat="45.01371" lon="5.59431">
        <ele>1383.4</ele>
        <time>2021-12-18T07:27:01Z</time>
      </trkpt>
      <trkpt lat="45.01375" lon="5.59429">
        <ele>1383.8</ele>
        <time>2021-12-18T07:27:04Z</time>
      </trkpt>
      <trkpt lat="45.01377" lon="5.59428">
        <ele>1383.8</ele>
        <time>2021-12-18T07:27:05Z</time>
      </trkpt>
      <trkpt lat="45.01384" lon="5.59427">
        <ele>1384.4</ele>
        <time>2021-12-18T07:27:10Z</time>
      </trkpt>
      <trkpt lat="45.01385" lon="5.59427">
        <ele>1384.8</ele>
        <time>2021-12-18T07:27:11Z</time>
      </trkpt>
      <trkpt lat="45.01386" lon="5.59428">
        <ele>1384.8</ele>
        <time>2021-12-18T07:27:12Z</time>
      </trkpt>
      <trkpt lat="45.01387" lon="5.5943">
        <ele>1385.4</ele>
        <time>2021-12-18T07:27:15Z</time>
      </trkpt>
      <trkpt lat="45.01388" lon="5.5943">
        <ele>1385.6</ele>
        <time>2021-12-18T07:27:16Z</time>
      </trkpt>
      <trkpt lat="45.01388" lon="5.59431">
        <ele>1385.8</ele>
        <time>2021-12-18T07:27:17Z</time>
      </trkpt>
      <trkpt lat="45.01391" lon="5.59434">
        <ele>1386.8</ele>
        <time>2021-12-18T07:27:22Z</time>
      </trkpt>
      <trkpt lat="45.01393" lon="5.59435">
        <ele>1387.2</ele>
        <time>2021-12-18T07:27:24Z</time>
      </trkpt>
      <trkpt lat="45.01396" lon="5.59434">
        <ele>1387.4</ele>
        <time>2021-12-18T07:27:28Z</time>
      </trkpt>
      <trkpt lat="45.01399" lon="5.59435">
        <ele>1388</ele>
        <time>2021-12-18T07:27:31Z</time>
      </trkpt>
      <trkpt lat="45.01404" lon="5.59433">
        <ele>1388.4</ele>
        <time>2021-12-18T07:27:35Z</time>
      </trkpt>
      <trkpt lat="45.01406" lon="5.59432">
        <ele>1388.8</ele>
        <time>2021-12-18T07:27:37Z</time>
      </trkpt>
      <trkpt lat="45.01407" lon="5.59432">
        <ele>1389</ele>
        <time>2021-12-18T07:27:38Z</time>
      </trkpt>
      <trkpt lat="45.0141" lon="5.59431">
        <ele>1389.6</ele>
        <time>2021-12-18T07:27:41Z</time>
      </trkpt>
      <trkpt lat="45.01412" lon="5.5943">
        <ele>1389.8</ele>
        <time>2021-12-18T07:27:43Z</time>
      </trkpt>
      <trkpt lat="45.01413" lon="5.59428">
        <ele>1390</ele>
        <time>2021-12-18T07:27:44Z</time>
      </trkpt>
      <trkpt lat="45.01415" lon="5.59426">
        <ele>1390.4</ele>
        <time>2021-12-18T07:27:46Z</time>
      </trkpt>
      <trkpt lat="45.01416" lon="5.59426">
        <ele>1390.4</ele>
        <time>2021-12-18T07:27:47Z</time>
      </trkpt>
      <trkpt lat="45.01417" lon="5.59426">
        <ele>1390.6</ele>
        <time>2021-12-18T07:27:48Z</time>
      </trkpt>
      <trkpt lat="45.0142" lon="5.59426">
        <ele>1391.2</ele>
        <time>2021-12-18T07:27:52Z</time>
      </trkpt>
      <trkpt lat="45.01421" lon="5.59426">
        <ele>1391.4</ele>
        <time>2021-12-18T07:27:53Z</time>
      </trkpt>
      <trkpt lat="45.01421" lon="5.59425">
        <ele>1391.6</ele>
        <time>2021-12-18T07:27:54Z</time>
      </trkpt>
      <trkpt lat="45.01422" lon="5.59423">
        <ele>1392</ele>
        <time>2021-12-18T07:27:56Z</time>
      </trkpt>
      <trkpt lat="45.01425" lon="5.59421">
        <ele>1392.2</ele>
        <time>2021-12-18T07:27:59Z</time>
      </trkpt>
      <trkpt lat="45.01428" lon="5.5942">
        <ele>1392.8</ele>
        <time>2021-12-18T07:28:02Z</time>
      </trkpt>
      <trkpt lat="45.01432" lon="5.59419">
        <ele>1393.2</ele>
        <time>2021-12-18T07:28:05Z</time>
      </trkpt>
      <trkpt lat="45.01433" lon="5.59419">
        <ele>1393.2</ele>
        <time>2021-12-18T07:28:06Z</time>
      </trkpt>
      <trkpt lat="45.01434" lon="5.59418">
        <ele>1393.4</ele>
        <time>2021-12-18T07:28:08Z</time>
      </trkpt>
      <trkpt lat="45.01435" lon="5.59419">
        <ele>1393.4</ele>
        <time>2021-12-18T07:28:09Z</time>
      </trkpt>
      <trkpt lat="45.01437" lon="5.59419">
        <ele>1393.8</ele>
        <time>2021-12-18T07:28:11Z</time>
      </trkpt>
      <trkpt lat="45.01438" lon="5.59419">
        <ele>1394</ele>
        <time>2021-12-18T07:28:13Z</time>
      </trkpt>
      <trkpt lat="45.01441" lon="5.59418">
        <ele>1394.2</ele>
        <time>2021-12-18T07:28:15Z</time>
      </trkpt>
      <trkpt lat="45.01442" lon="5.59418">
        <ele>1394.4</ele>
        <time>2021-12-18T07:28:16Z</time>
      </trkpt>
      <trkpt lat="45.01446" lon="5.59419">
        <ele>1395</ele>
        <time>2021-12-18T07:28:19Z</time>
      </trkpt>
      <trkpt lat="45.01448" lon="5.59421">
        <ele>1395.2</ele>
        <time>2021-12-18T07:28:21Z</time>
      </trkpt>
      <trkpt lat="45.0145" lon="5.59419">
        <ele>1395.4</ele>
        <time>2021-12-18T07:28:23Z</time>
      </trkpt>
      <trkpt lat="45.01451" lon="5.59417">
        <ele>1395.6</ele>
        <time>2021-12-18T07:28:25Z</time>
      </trkpt>
      <trkpt lat="45.01452" lon="5.59416">
        <ele>1395.8</ele>
        <time>2021-12-18T07:28:26Z</time>
      </trkpt>
      <trkpt lat="45.01454" lon="5.59416">
        <ele>1396.2</ele>
        <time>2021-12-18T07:28:28Z</time>
      </trkpt>
      <trkpt lat="45.01456" lon="5.59417">
        <ele>1396.6</ele>
        <time>2021-12-18T07:28:30Z</time>
      </trkpt>
      <trkpt lat="45.01456" lon="5.59417">
        <ele>1396.8</ele>
        <time>2021-12-18T07:28:31Z</time>
      </trkpt>
      <trkpt lat="45.01466" lon="5.59412">
        <ele>1397.6</ele>
        <time>2021-12-18T07:28:39Z</time>
      </trkpt>
      <trkpt lat="45.01467" lon="5.59412">
        <ele>1397.8</ele>
        <time>2021-12-18T07:28:40Z</time>
      </trkpt>
      <trkpt lat="45.0147" lon="5.59411">
        <ele>1398.2</ele>
        <time>2021-12-18T07:28:43Z</time>
      </trkpt>
      <trkpt lat="45.01472" lon="5.5941">
        <ele>1398.6</ele>
        <time>2021-12-18T07:28:45Z</time>
      </trkpt>
      <trkpt lat="45.01473" lon="5.59409">
        <ele>1398.8</ele>
        <time>2021-12-18T07:28:46Z</time>
      </trkpt>
      <trkpt lat="45.0148" lon="5.59404">
        <ele>1399.8</ele>
        <time>2021-12-18T07:28:54Z</time>
      </trkpt>
      <trkpt lat="45.01481" lon="5.59403">
        <ele>1399.8</ele>
        <time>2021-12-18T07:28:55Z</time>
      </trkpt>
      <trkpt lat="45.01482" lon="5.59402">
        <ele>1400</ele>
        <time>2021-12-18T07:28:56Z</time>
      </trkpt>
      <trkpt lat="45.01485" lon="5.59402">
        <ele>1400.2</ele>
        <time>2021-12-18T07:28:58Z</time>
      </trkpt>
      <trkpt lat="45.01486" lon="5.59402">
        <ele>1400.2</ele>
        <time>2021-12-18T07:28:59Z</time>
      </trkpt>
      <trkpt lat="45.01487" lon="5.59401">
        <ele>1400.4</ele>
        <time>2021-12-18T07:29:00Z</time>
      </trkpt>
      <trkpt lat="45.01488" lon="5.59402">
        <ele>1400.4</ele>
        <time>2021-12-18T07:29:01Z</time>
      </trkpt>
      <trkpt lat="45.0149" lon="5.59401">
        <ele>1400.8</ele>
        <time>2021-12-18T07:29:04Z</time>
      </trkpt>
      <trkpt lat="45.01492" lon="5.594">
        <ele>1401</ele>
        <time>2021-12-18T07:29:06Z</time>
      </trkpt>
      <trkpt lat="45.01493" lon="5.594">
        <ele>1401.2</ele>
        <time>2021-12-18T07:29:07Z</time>
      </trkpt>
      <trkpt lat="45.01496" lon="5.59398">
        <ele>1402</ele>
        <time>2021-12-18T07:29:11Z</time>
      </trkpt>
      <trkpt lat="45.01497" lon="5.59397">
        <ele>1402.2</ele>
        <time>2021-12-18T07:29:12Z</time>
      </trkpt>
      <trkpt lat="45.01501" lon="5.59393">
        <ele>1403</ele>
        <time>2021-12-18T07:29:18Z</time>
      </trkpt>
      <trkpt lat="45.01502" lon="5.59392">
        <ele>1403</ele>
        <time>2021-12-18T07:29:19Z</time>
      </trkpt>
      <trkpt lat="45.01503" lon="5.59392">
        <ele>1403.2</ele>
        <time>2021-12-18T07:29:20Z</time>
      </trkpt>
      <trkpt lat="45.01508" lon="5.59392">
        <ele>1403.6</ele>
        <time>2021-12-18T07:29:24Z</time>
      </trkpt>
      <trkpt lat="45.01511" lon="5.5939">
        <ele>1403.8</ele>
        <time>2021-12-18T07:29:26Z</time>
      </trkpt>
      <trkpt lat="45.01512" lon="5.5939">
        <ele>1404</ele>
        <time>2021-12-18T07:29:27Z</time>
      </trkpt>
      <trkpt lat="45.01516" lon="5.59389">
        <ele>1404.4</ele>
        <time>2021-12-18T07:29:30Z</time>
      </trkpt>
      <trkpt lat="45.01517" lon="5.59388">
        <ele>1404.4</ele>
        <time>2021-12-18T07:29:31Z</time>
      </trkpt>
      <trkpt lat="45.01526" lon="5.59385">
        <ele>1405.4</ele>
        <time>2021-12-18T07:29:40Z</time>
      </trkpt>
      <trkpt lat="45.01527" lon="5.59385">
        <ele>1405.6</ele>
        <time>2021-12-18T07:29:41Z</time>
      </trkpt>
      <trkpt lat="45.0153" lon="5.59382">
        <ele>1406</ele>
        <time>2021-12-18T07:29:45Z</time>
      </trkpt>
      <trkpt lat="45.01532" lon="5.59381">
        <ele>1406.6</ele>
        <time>2021-12-18T07:29:49Z</time>
      </trkpt>
      <trkpt lat="45.01532" lon="5.5938">
        <ele>1406.8</ele>
        <time>2021-12-18T07:29:50Z</time>
      </trkpt>
      <trkpt lat="45.01535" lon="5.59377">
        <ele>1407.2</ele>
        <time>2021-12-18T07:29:53Z</time>
      </trkpt>
      <trkpt lat="45.01537" lon="5.59377">
        <ele>1407.4</ele>
        <time>2021-12-18T07:29:55Z</time>
      </trkpt>
      <trkpt lat="45.01538" lon="5.59378">
        <ele>1407.6</ele>
        <time>2021-12-18T07:29:56Z</time>
      </trkpt>
      <trkpt lat="45.01539" lon="5.59378">
        <ele>1407.6</ele>
        <time>2021-12-18T07:29:57Z</time>
      </trkpt>
      <trkpt lat="45.0154" lon="5.59377">
        <ele>1407.8</ele>
        <time>2021-12-18T07:29:58Z</time>
      </trkpt>
      <trkpt lat="45.01545" lon="5.59375">
        <ele>1408.2</ele>
        <time>2021-12-18T07:30:02Z</time>
      </trkpt>
      <trkpt lat="45.01551" lon="5.59374">
        <ele>1408.6</ele>
        <time>2021-12-18T07:30:06Z</time>
      </trkpt>
      <trkpt lat="45.01552" lon="5.59373">
        <ele>1408.8</ele>
        <time>2021-12-18T07:30:07Z</time>
      </trkpt>
      <trkpt lat="45.01554" lon="5.59373">
        <ele>1409.2</ele>
        <time>2021-12-18T07:30:09Z</time>
      </trkpt>
      <trkpt lat="45.01554" lon="5.59373">
        <ele>1409.4</ele>
        <time>2021-12-18T07:30:10Z</time>
      </trkpt>
      <trkpt lat="45.01557" lon="5.59372">
        <ele>1409.8</ele>
        <time>2021-12-18T07:30:12Z</time>
      </trkpt>
      <trkpt lat="45.0156" lon="5.5937">
        <ele>1409.8</ele>
        <time>2021-12-18T07:30:14Z</time>
      </trkpt>
      <trkpt lat="45.01561" lon="5.59369">
        <ele>1409.8</ele>
        <time>2021-12-18T07:30:15Z</time>
      </trkpt>
      <trkpt lat="45.01564" lon="5.59368">
        <ele>1410.4</ele>
        <time>2021-12-18T07:30:19Z</time>
      </trkpt>
      <trkpt lat="45.01564" lon="5.59367">
        <ele>1410.4</ele>
        <time>2021-12-18T07:30:20Z</time>
      </trkpt>
      <trkpt lat="45.01566" lon="5.59366">
        <ele>1410.8</ele>
        <time>2021-12-18T07:30:23Z</time>
      </trkpt>
      <trkpt lat="45.01566" lon="5.59366">
        <ele>1411</ele>
        <time>2021-12-18T07:30:24Z</time>
      </trkpt>
      <trkpt lat="45.01568" lon="5.59365">
        <ele>1411.2</ele>
        <time>2021-12-18T07:30:25Z</time>
      </trkpt>
      <trkpt lat="45.01572" lon="5.59364">
        <ele>1411.8</ele>
        <time>2021-12-18T07:30:29Z</time>
      </trkpt>
      <trkpt lat="45.01574" lon="5.59364">
        <ele>1412.2</ele>
        <time>2021-12-18T07:30:31Z</time>
      </trkpt>
      <trkpt lat="45.01576" lon="5.59364">
        <ele>1412.2</ele>
        <time>2021-12-18T07:30:32Z</time>
      </trkpt>
      <trkpt lat="45.01584" lon="5.59362">
        <ele>1412.8</ele>
        <time>2021-12-18T07:30:39Z</time>
      </trkpt>
      <trkpt lat="45.01587" lon="5.59361">
        <ele>1413.2</ele>
        <time>2021-12-18T07:30:43Z</time>
      </trkpt>
      <trkpt lat="45.01588" lon="5.59361">
        <ele>1413.4</ele>
        <time>2021-12-18T07:30:44Z</time>
      </trkpt>
      <trkpt lat="45.01588" lon="5.5936">
        <ele>1413.6</ele>
        <time>2021-12-18T07:30:45Z</time>
      </trkpt>
      <trkpt lat="45.01587" lon="5.59361">
        <ele>1413.8</ele>
        <time>2021-12-18T07:30:48Z</time>
      </trkpt>
      <trkpt lat="45.01587" lon="5.59362">
        <ele>1414</ele>
        <time>2021-12-18T07:30:50Z</time>
      </trkpt>
      <trkpt lat="45.01587" lon="5.59364">
        <ele>1414</ele>
        <time>2021-12-18T07:30:54Z</time>
      </trkpt>
      <trkpt lat="45.0159" lon="5.59363">
        <ele>1414.2</ele>
        <time>2021-12-18T07:30:57Z</time>
      </trkpt>
      <trkpt lat="45.01592" lon="5.59363">
        <ele>1414</ele>
        <time>2021-12-18T07:31:02Z</time>
      </trkpt>
      <trkpt lat="45.01593" lon="5.59362">
        <ele>1414</ele>
        <time>2021-12-18T07:31:05Z</time>
      </trkpt>
      <trkpt lat="45.01593" lon="5.59362">
        <ele>1414.2</ele>
        <time>2021-12-18T07:31:11Z</time>
      </trkpt>
      <trkpt lat="45.01593" lon="5.59362">
        <ele>1414.2</ele>
        <time>2021-12-18T07:31:13Z</time>
      </trkpt>
      <trkpt lat="45.01593" lon="5.59362">
        <ele>1414</ele>
        <time>2021-12-18T07:31:24Z</time>
      </trkpt>
      <trkpt lat="45.01593" lon="5.59362">
        <ele>1413.8</ele>
        <time>2021-12-18T07:31:29Z</time>
      </trkpt>
      <trkpt lat="45.01593" lon="5.59362">
        <ele>1413.8</ele>
        <time>2021-12-18T07:31:35Z</time>
      </trkpt>
      <trkpt lat="45.01593" lon="5.59363">
        <ele>1413.8</ele>
        <time>2021-12-18T07:31:39Z</time>
      </trkpt>
      <trkpt lat="45.01594" lon="5.59365">
        <ele>1413.4</ele>
        <time>2021-12-18T07:32:03Z</time>
      </trkpt>
      <trkpt lat="45.01594" lon="5.59365">
        <ele>1413.4</ele>
        <time>2021-12-18T07:32:11Z</time>
      </trkpt>
      <trkpt lat="45.01592" lon="5.59365">
        <ele>1413.4</ele>
        <time>2021-12-18T07:32:18Z</time>
      </trkpt>
      <trkpt lat="45.01592" lon="5.59365">
        <ele>1412.8</ele>
        <time>2021-12-18T07:32:26Z</time>
      </trkpt>
      <trkpt lat="45.01591" lon="5.59366">
        <ele>1413</ele>
        <time>2021-12-18T07:32:36Z</time>
      </trkpt>
      <trkpt lat="45.01592" lon="5.59366">
        <ele>1413</ele>
        <time>2021-12-18T07:32:49Z</time>
      </trkpt>
      <trkpt lat="45.01593" lon="5.59366">
        <ele>1413</ele>
        <time>2021-12-18T07:32:53Z</time>
      </trkpt>
      <trkpt lat="45.01593" lon="5.59367">
        <ele>1413</ele>
        <time>2021-12-18T07:33:04Z</time>
      </trkpt>
      <trkpt lat="45.01592" lon="5.59367">
        <ele>1412.8</ele>
        <time>2021-12-18T07:33:11Z</time>
      </trkpt>
      <trkpt lat="45.01591" lon="5.59367">
        <ele>1412.8</ele>
        <time>2021-12-18T07:33:15Z</time>
      </trkpt>
      <trkpt lat="45.01591" lon="5.59368">
        <ele>1412.8</ele>
        <time>2021-12-18T07:33:17Z</time>
      </trkpt>
      <trkpt lat="45.01589" lon="5.59368">
        <ele>1412.6</ele>
        <time>2021-12-18T07:33:29Z</time>
      </trkpt>
      <trkpt lat="45.01589" lon="5.59369">
        <ele>1412.6</ele>
        <time>2021-12-18T07:33:34Z</time>
      </trkpt>
      <trkpt lat="45.0159" lon="5.59369">
        <ele>1412.2</ele>
        <time>2021-12-18T07:33:54Z</time>
      </trkpt>
      <trkpt lat="45.0159" lon="5.59369">
        <ele>1412.2</ele>
        <time>2021-12-18T07:33:55Z</time>
      </trkpt>
      <trkpt lat="45.0159" lon="5.59369">
        <ele>1412.2</ele>
        <time>2021-12-18T07:34:00Z</time>
      </trkpt>
      <trkpt lat="45.0159" lon="5.59369">
        <ele>1412.2</ele>
        <time>2021-12-18T07:34:07Z</time>
      </trkpt>
      <trkpt lat="45.0159" lon="5.59369">
        <ele>1412.4</ele>
        <time>2021-12-18T07:34:12Z</time>
      </trkpt>
      <trkpt lat="45.0159" lon="5.59369">
        <ele>1412.4</ele>
        <time>2021-12-18T07:34:20Z</time>
      </trkpt>
      <trkpt lat="45.0159" lon="5.59369">
        <ele>1412.4</ele>
        <time>2021-12-18T07:34:25Z</time>
      </trkpt>
      <trkpt lat="45.0159" lon="5.59369">
        <ele>1412.4</ele>
        <time>2021-12-18T07:34:31Z</time>
      </trkpt>
      <trkpt lat="45.0159" lon="5.59369">
        <ele>1412.4</ele>
        <time>2021-12-18T07:34:46Z</time>
      </trkpt>
      <trkpt lat="45.0159" lon="5.59369">
        <ele>1412.4</ele>
        <time>2021-12-18T07:34:52Z</time>
      </trkpt>
      <trkpt lat="45.01586" lon="5.59367">
        <ele>1412.4</ele>
        <time>2021-12-18T07:35:11Z</time>
      </trkpt>
      <trkpt lat="45.01583" lon="5.59365">
        <ele>1412.4</ele>
        <time>2021-12-18T07:35:14Z</time>
      </trkpt>
      <trkpt lat="45.01579" lon="5.59364">
        <ele>1412.4</ele>
        <time>2021-12-18T07:35:16Z</time>
      </trkpt>
      <trkpt lat="45.01573" lon="5.59364">
        <ele>1412.4</ele>
        <time>2021-12-18T07:35:21Z</time>
      </trkpt>
      <trkpt lat="45.0157" lon="5.59364">
        <ele>1412.8</ele>
        <time>2021-12-18T07:35:23Z</time>
      </trkpt>
      <trkpt lat="45.01569" lon="5.59364">
        <ele>1413</ele>
        <time>2021-12-18T07:35:24Z</time>
      </trkpt>
      <trkpt lat="45.01567" lon="5.59363">
        <ele>1413.2</ele>
        <time>2021-12-18T07:35:26Z</time>
      </trkpt>
      <trkpt lat="45.01559" lon="5.59361">
        <ele>1413.6</ele>
        <time>2021-12-18T07:35:34Z</time>
      </trkpt>
      <trkpt lat="45.01558" lon="5.59361">
        <ele>1413.8</ele>
        <time>2021-12-18T07:35:35Z</time>
      </trkpt>
      <trkpt lat="45.01552" lon="5.59359">
        <ele>1414.2</ele>
        <time>2021-12-18T07:35:40Z</time>
      </trkpt>
      <trkpt lat="45.01551" lon="5.5936">
        <ele>1414.2</ele>
        <time>2021-12-18T07:35:41Z</time>
      </trkpt>
      <trkpt lat="45.0155" lon="5.59359">
        <ele>1414.4</ele>
        <time>2021-12-18T07:35:42Z</time>
      </trkpt>
      <trkpt lat="45.0155" lon="5.5936">
        <ele>1414.4</ele>
        <time>2021-12-18T07:35:43Z</time>
      </trkpt>
      <trkpt lat="45.01544" lon="5.59359">
        <ele>1414.8</ele>
        <time>2021-12-18T07:35:48Z</time>
      </trkpt>
      <trkpt lat="45.0154" lon="5.59359">
        <ele>1415.4</ele>
        <time>2021-12-18T07:35:52Z</time>
      </trkpt>
      <trkpt lat="45.01533" lon="5.59358">
        <ele>1415.6</ele>
        <time>2021-12-18T07:35:59Z</time>
      </trkpt>
      <trkpt lat="45.01528" lon="5.59355">
        <ele>1416.2</ele>
        <time>2021-12-18T07:36:06Z</time>
      </trkpt>
      <trkpt lat="45.01526" lon="5.59354">
        <ele>1416.4</ele>
        <time>2021-12-18T07:36:08Z</time>
      </trkpt>
      <trkpt lat="45.01525" lon="5.59354">
        <ele>1416.4</ele>
        <time>2021-12-18T07:36:09Z</time>
      </trkpt>
      <trkpt lat="45.01517" lon="5.59354">
        <ele>1417</ele>
        <time>2021-12-18T07:36:16Z</time>
      </trkpt>
      <trkpt lat="45.01517" lon="5.59355">
        <ele>1417.2</ele>
        <time>2021-12-18T07:36:18Z</time>
      </trkpt>
      <trkpt lat="45.01518" lon="5.59355">
        <ele>1417.2</ele>
        <time>2021-12-18T07:36:20Z</time>
      </trkpt>
      <trkpt lat="45.01517" lon="5.59355">
        <ele>1417.2</ele>
        <time>2021-12-18T07:36:22Z</time>
      </trkpt>
      <trkpt lat="45.01513" lon="5.59355">
        <ele>1417.4</ele>
        <time>2021-12-18T07:36:27Z</time>
      </trkpt>
      <trkpt lat="45.0151" lon="5.59355">
        <ele>1418</ele>
        <time>2021-12-18T07:36:31Z</time>
      </trkpt>
      <trkpt lat="45.01508" lon="5.59356">
        <ele>1418.2</ele>
        <time>2021-12-18T07:36:33Z</time>
      </trkpt>
      <trkpt lat="45.01503" lon="5.59356">
        <ele>1418.4</ele>
        <time>2021-12-18T07:36:38Z</time>
      </trkpt>
      <trkpt lat="45.015" lon="5.59355">
        <ele>1418.8</ele>
        <time>2021-12-18T07:36:40Z</time>
      </trkpt>
      <trkpt lat="45.01493" lon="5.59355">
        <ele>1419.6</ele>
        <time>2021-12-18T07:36:47Z</time>
      </trkpt>
      <trkpt lat="45.01488" lon="5.59355">
        <ele>1419.8</ele>
        <time>2021-12-18T07:36:51Z</time>
      </trkpt>
      <trkpt lat="45.01487" lon="5.59355">
        <ele>1420</ele>
        <time>2021-12-18T07:36:53Z</time>
      </trkpt>
      <trkpt lat="45.01482" lon="5.59356">
        <ele>1420.4</ele>
        <time>2021-12-18T07:36:57Z</time>
      </trkpt>
      <trkpt lat="45.0148" lon="5.59356">
        <ele>1420.6</ele>
        <time>2021-12-18T07:36:59Z</time>
      </trkpt>
      <trkpt lat="45.01471" lon="5.59356">
        <ele>1421.6</ele>
        <time>2021-12-18T07:37:06Z</time>
      </trkpt>
      <trkpt lat="45.0147" lon="5.59356">
        <ele>1421.6</ele>
        <time>2021-12-18T07:37:07Z</time>
      </trkpt>
      <trkpt lat="45.01469" lon="5.59356">
        <ele>1421.6</ele>
        <time>2021-12-18T07:37:08Z</time>
      </trkpt>
      <trkpt lat="45.01467" lon="5.59356">
        <ele>1421.8</ele>
        <time>2021-12-18T07:37:10Z</time>
      </trkpt>
      <trkpt lat="45.01462" lon="5.59355">
        <ele>1422.2</ele>
        <time>2021-12-18T07:37:14Z</time>
      </trkpt>
      <trkpt lat="45.01461" lon="5.59355">
        <ele>1422.4</ele>
        <time>2021-12-18T07:37:15Z</time>
      </trkpt>
      <trkpt lat="45.01459" lon="5.59354">
        <ele>1422.8</ele>
        <time>2021-12-18T07:37:18Z</time>
      </trkpt>
      <trkpt lat="45.01455" lon="5.59354">
        <ele>1423.4</ele>
        <time>2021-12-18T07:37:23Z</time>
      </trkpt>
      <trkpt lat="45.01452" lon="5.59357">
        <ele>1423.6</ele>
        <time>2021-12-18T07:37:34Z</time>
      </trkpt>
      <trkpt lat="45.01448" lon="5.59355">
        <ele>1423.6</ele>
        <time>2021-12-18T07:37:41Z</time>
      </trkpt>
      <trkpt lat="45.01447" lon="5.59355">
        <ele>1423.8</ele>
        <time>2021-12-18T07:37:42Z</time>
      </trkpt>
      <trkpt lat="45.01444" lon="5.59357">
        <ele>1424.4</ele>
        <time>2021-12-18T07:37:45Z</time>
      </trkpt>
      <trkpt lat="45.01439" lon="5.59355">
        <ele>1424.8</ele>
        <time>2021-12-18T07:37:48Z</time>
      </trkpt>
      <trkpt lat="45.01432" lon="5.59353">
        <ele>1425.8</ele>
        <time>2021-12-18T07:37:55Z</time>
      </trkpt>
      <trkpt lat="45.0143" lon="5.59352">
        <ele>1426</ele>
        <time>2021-12-18T07:37:57Z</time>
      </trkpt>
      <trkpt lat="45.01426" lon="5.59352">
        <ele>1426.4</ele>
        <time>2021-12-18T07:38:01Z</time>
      </trkpt>
      <trkpt lat="45.01423" lon="5.5935">
        <ele>1427.2</ele>
        <time>2021-12-18T07:38:04Z</time>
      </trkpt>
      <trkpt lat="45.01422" lon="5.59351">
        <ele>1427.4</ele>
        <time>2021-12-18T07:38:06Z</time>
      </trkpt>
      <trkpt lat="45.01422" lon="5.59351">
        <ele>1427.4</ele>
        <time>2021-12-18T07:38:07Z</time>
      </trkpt>
      <trkpt lat="45.01414" lon="5.59347">
        <ele>1428.2</ele>
        <time>2021-12-18T07:38:14Z</time>
      </trkpt>
      <trkpt lat="45.01413" lon="5.59346">
        <ele>1428.4</ele>
        <time>2021-12-18T07:38:15Z</time>
      </trkpt>
      <trkpt lat="45.01407" lon="5.59343">
        <ele>1428.6</ele>
        <time>2021-12-18T07:38:20Z</time>
      </trkpt>
      <trkpt lat="45.01405" lon="5.59342">
        <ele>1429.2</ele>
        <time>2021-12-18T07:38:23Z</time>
      </trkpt>
      <trkpt lat="45.01403" lon="5.59342">
        <ele>1429.4</ele>
        <time>2021-12-18T07:38:25Z</time>
      </trkpt>
      <trkpt lat="45.014" lon="5.5934">
        <ele>1429.6</ele>
        <time>2021-12-18T07:38:28Z</time>
      </trkpt>
      <trkpt lat="45.01395" lon="5.59332">
        <ele>1429.8</ele>
        <time>2021-12-18T07:38:34Z</time>
      </trkpt>
      <trkpt lat="45.01394" lon="5.59328">
        <ele>1430</ele>
        <time>2021-12-18T07:38:38Z</time>
      </trkpt>
      <trkpt lat="45.01391" lon="5.59328">
        <ele>1430.4</ele>
        <time>2021-12-18T07:38:41Z</time>
      </trkpt>
      <trkpt lat="45.01387" lon="5.59325">
        <ele>1430.6</ele>
        <time>2021-12-18T07:38:45Z</time>
      </trkpt>
      <trkpt lat="45.01384" lon="5.59325">
        <ele>1431</ele>
        <time>2021-12-18T07:38:47Z</time>
      </trkpt>
      <trkpt lat="45.01373" lon="5.59318">
        <ele>1431.4</ele>
        <time>2021-12-18T07:38:57Z</time>
      </trkpt>
      <trkpt lat="45.01365" lon="5.59315">
        <ele>1432.2</ele>
        <time>2021-12-18T07:39:04Z</time>
      </trkpt>
      <trkpt lat="45.01365" lon="5.59314">
        <ele>1432.4</ele>
        <time>2021-12-18T07:39:05Z</time>
      </trkpt>
      <trkpt lat="45.01355" lon="5.59309">
        <ele>1433.2</ele>
        <time>2021-12-18T07:39:13Z</time>
      </trkpt>
      <trkpt lat="45.0135" lon="5.59307">
        <ele>1433.6</ele>
        <time>2021-12-18T07:39:18Z</time>
      </trkpt>
      <trkpt lat="45.01348" lon="5.59305">
        <ele>1433.8</ele>
        <time>2021-12-18T07:39:21Z</time>
      </trkpt>
      <trkpt lat="45.01341" lon="5.593">
        <ele>1434.4</ele>
        <time>2021-12-18T07:39:28Z</time>
      </trkpt>
      <trkpt lat="45.01341" lon="5.59299">
        <ele>1434.4</ele>
        <time>2021-12-18T07:39:29Z</time>
      </trkpt>
      <trkpt lat="45.01337" lon="5.59297">
        <ele>1434.8</ele>
        <time>2021-12-18T07:39:33Z</time>
      </trkpt>
      <trkpt lat="45.01332" lon="5.59294">
        <ele>1435.4</ele>
        <time>2021-12-18T07:39:38Z</time>
      </trkpt>
      <trkpt lat="45.01331" lon="5.59294">
        <ele>1435.4</ele>
        <time>2021-12-18T07:39:39Z</time>
      </trkpt>
      <trkpt lat="45.01326" lon="5.59292">
        <ele>1435.8</ele>
        <time>2021-12-18T07:39:44Z</time>
      </trkpt>
      <trkpt lat="45.01324" lon="5.5929">
        <ele>1436.2</ele>
        <time>2021-12-18T07:39:46Z</time>
      </trkpt>
      <trkpt lat="45.01319" lon="5.59289">
        <ele>1436.6</ele>
        <time>2021-12-18T07:39:50Z</time>
      </trkpt>
      <trkpt lat="45.01316" lon="5.59286">
        <ele>1436.8</ele>
        <time>2021-12-18T07:39:53Z</time>
      </trkpt>
      <trkpt lat="45.01314" lon="5.59285">
        <ele>1436.8</ele>
        <time>2021-12-18T07:39:55Z</time>
      </trkpt>
      <trkpt lat="45.01313" lon="5.59284">
        <ele>1436.8</ele>
        <time>2021-12-18T07:39:56Z</time>
      </trkpt>
      <trkpt lat="45.01305" lon="5.5928">
        <ele>1437.8</ele>
        <time>2021-12-18T07:40:03Z</time>
      </trkpt>
      <trkpt lat="45.01303" lon="5.59278">
        <ele>1438</ele>
        <time>2021-12-18T07:40:06Z</time>
      </trkpt>
      <trkpt lat="45.01294" lon="5.59274">
        <ele>1438.6</ele>
        <time>2021-12-18T07:40:13Z</time>
      </trkpt>
      <trkpt lat="45.0129" lon="5.59271">
        <ele>1439.2</ele>
        <time>2021-12-18T07:40:18Z</time>
      </trkpt>
      <trkpt lat="45.01288" lon="5.5927">
        <ele>1439.4</ele>
        <time>2021-12-18T07:40:20Z</time>
      </trkpt>
      <trkpt lat="45.01283" lon="5.59266">
        <ele>1439.4</ele>
        <time>2021-12-18T07:40:25Z</time>
      </trkpt>
      <trkpt lat="45.0128" lon="5.59263">
        <ele>1439.8</ele>
        <time>2021-12-18T07:40:28Z</time>
      </trkpt>
      <trkpt lat="45.01275" lon="5.5926">
        <ele>1440.2</ele>
        <time>2021-12-18T07:40:33Z</time>
      </trkpt>
      <trkpt lat="45.0127" lon="5.59257">
        <ele>1440.6</ele>
        <time>2021-12-18T07:40:38Z</time>
      </trkpt>
      <trkpt lat="45.0127" lon="5.59256">
        <ele>1440.6</ele>
        <time>2021-12-18T07:40:39Z</time>
      </trkpt>
      <trkpt lat="45.01267" lon="5.59253">
        <ele>1440.8</ele>
        <time>2021-12-18T07:40:42Z</time>
      </trkpt>
      <trkpt lat="45.01265" lon="5.59251">
        <ele>1441</ele>
        <time>2021-12-18T07:40:45Z</time>
      </trkpt>
      <trkpt lat="45.01263" lon="5.59249">
        <ele>1441.4</ele>
        <time>2021-12-18T07:40:47Z</time>
      </trkpt>
      <trkpt lat="45.0126" lon="5.59248">
        <ele>1441.6</ele>
        <time>2021-12-18T07:40:50Z</time>
      </trkpt>
      <trkpt lat="45.01256" lon="5.59242">
        <ele>1442.2</ele>
        <time>2021-12-18T07:40:57Z</time>
      </trkpt>
      <trkpt lat="45.01255" lon="5.59242">
        <ele>1442.4</ele>
        <time>2021-12-18T07:40:58Z</time>
      </trkpt>
      <trkpt lat="45.01251" lon="5.59237">
        <ele>1443</ele>
        <time>2021-12-18T07:41:04Z</time>
      </trkpt>
      <trkpt lat="45.01249" lon="5.59234">
        <ele>1443.2</ele>
        <time>2021-12-18T07:41:07Z</time>
      </trkpt>
      <trkpt lat="45.01248" lon="5.59233">
        <ele>1443.6</ele>
        <time>2021-12-18T07:41:08Z</time>
      </trkpt>
      <trkpt lat="45.01244" lon="5.59229">
        <ele>1444.4</ele>
        <time>2021-12-18T07:41:13Z</time>
      </trkpt>
      <trkpt lat="45.01241" lon="5.59226">
        <ele>1444.6</ele>
        <time>2021-12-18T07:41:16Z</time>
      </trkpt>
      <trkpt lat="45.01238" lon="5.59221">
        <ele>1445</ele>
        <time>2021-12-18T07:41:20Z</time>
      </trkpt>
      <trkpt lat="45.01237" lon="5.5922">
        <ele>1445.2</ele>
        <time>2021-12-18T07:41:21Z</time>
      </trkpt>
      <trkpt lat="45.01237" lon="5.59216">
        <ele>1445.4</ele>
        <time>2021-12-18T07:41:23Z</time>
      </trkpt>
      <trkpt lat="45.01238" lon="5.59215">
        <ele>1445.4</ele>
        <time>2021-12-18T07:41:24Z</time>
      </trkpt>
      <trkpt lat="45.01238" lon="5.59214">
        <ele>1445.6</ele>
        <time>2021-12-18T07:41:25Z</time>
      </trkpt>
      <trkpt lat="45.01239" lon="5.59213">
        <ele>1445.6</ele>
        <time>2021-12-18T07:41:26Z</time>
      </trkpt>
      <trkpt lat="45.01241" lon="5.59214">
        <ele>1446</ele>
        <time>2021-12-18T07:41:28Z</time>
      </trkpt>
      <trkpt lat="45.01242" lon="5.59217">
        <ele>1446.2</ele>
        <time>2021-12-18T07:41:30Z</time>
      </trkpt>
      <trkpt lat="45.01243" lon="5.59217">
        <ele>1446.4</ele>
        <time>2021-12-18T07:41:31Z</time>
      </trkpt>
      <trkpt lat="45.01246" lon="5.59217">
        <ele>1447</ele>
        <time>2021-12-18T07:41:34Z</time>
      </trkpt>
      <trkpt lat="45.01247" lon="5.59217">
        <ele>1447.2</ele>
        <time>2021-12-18T07:41:35Z</time>
      </trkpt>
      <trkpt lat="45.0125" lon="5.5922">
        <ele>1448</ele>
        <time>2021-12-18T07:41:40Z</time>
      </trkpt>
      <trkpt lat="45.0125" lon="5.5922">
        <ele>1448.2</ele>
        <time>2021-12-18T07:41:41Z</time>
      </trkpt>
      <trkpt lat="45.01256" lon="5.5922">
        <ele>1449</ele>
        <time>2021-12-18T07:41:47Z</time>
      </trkpt>
      <trkpt lat="45.0126" lon="5.59223">
        <ele>1450.2</ele>
        <time>2021-12-18T07:41:52Z</time>
      </trkpt>
      <trkpt lat="45.01263" lon="5.59224">
        <ele>1450.6</ele>
        <time>2021-12-18T07:41:54Z</time>
      </trkpt>
      <trkpt lat="45.01264" lon="5.59225">
        <ele>1451</ele>
        <time>2021-12-18T07:41:56Z</time>
      </trkpt>
      <trkpt lat="45.01264" lon="5.59225">
        <ele>1451.4</ele>
        <time>2021-12-18T07:41:57Z</time>
      </trkpt>
      <trkpt lat="45.01266" lon="5.59224">
        <ele>1451.6</ele>
        <time>2021-12-18T07:41:59Z</time>
      </trkpt>
      <trkpt lat="45.01271" lon="5.59221">
        <ele>1452.4</ele>
        <time>2021-12-18T07:42:03Z</time>
      </trkpt>
      <trkpt lat="45.01272" lon="5.59221">
        <ele>1452.8</ele>
        <time>2021-12-18T07:42:04Z</time>
      </trkpt>
      <trkpt lat="45.01279" lon="5.59218">
        <ele>1453.6</ele>
        <time>2021-12-18T07:42:09Z</time>
      </trkpt>
      <trkpt lat="45.01281" lon="5.59217">
        <ele>1453.8</ele>
        <time>2021-12-18T07:42:10Z</time>
      </trkpt>
      <trkpt lat="45.01286" lon="5.59217">
        <ele>1454.4</ele>
        <time>2021-12-18T07:42:16Z</time>
      </trkpt>
      <trkpt lat="45.01286" lon="5.59217">
        <ele>1454.6</ele>
        <time>2021-12-18T07:42:17Z</time>
      </trkpt>
      <trkpt lat="45.01284" lon="5.59217">
        <ele>1454.8</ele>
        <time>2021-12-18T07:42:19Z</time>
      </trkpt>
      <trkpt lat="45.01287" lon="5.59217">
        <ele>1455</ele>
        <time>2021-12-18T07:42:24Z</time>
      </trkpt>
      <trkpt lat="45.01287" lon="5.59218">
        <ele>1454.8</ele>
        <time>2021-12-18T07:42:28Z</time>
      </trkpt>
      <trkpt lat="45.01286" lon="5.59219">
        <ele>1454.4</ele>
        <time>2021-12-18T07:42:31Z</time>
      </trkpt>
      <trkpt lat="45.01286" lon="5.59219">
        <ele>1454.6</ele>
        <time>2021-12-18T07:42:34Z</time>
      </trkpt>
      <trkpt lat="45.01286" lon="5.59218">
        <ele>1454.6</ele>
        <time>2021-12-18T07:42:36Z</time>
      </trkpt>
      <trkpt lat="45.01288" lon="5.59217">
        <ele>1454.6</ele>
        <time>2021-12-18T07:42:39Z</time>
      </trkpt>
      <trkpt lat="45.01288" lon="5.59217">
        <ele>1454.6</ele>
        <time>2021-12-18T07:42:41Z</time>
      </trkpt>
      <trkpt lat="45.01287" lon="5.59217">
        <ele>1454.2</ele>
        <time>2021-12-18T07:42:44Z</time>
      </trkpt>
      <trkpt lat="45.01287" lon="5.59217">
        <ele>1454.2</ele>
        <time>2021-12-18T07:42:50Z</time>
      </trkpt>
      <trkpt lat="45.01288" lon="5.59217">
        <ele>1454</ele>
        <time>2021-12-18T07:42:54Z</time>
      </trkpt>
      <trkpt lat="45.01288" lon="5.59218">
        <ele>1454</ele>
        <time>2021-12-18T07:42:58Z</time>
      </trkpt>
      <trkpt lat="45.01288" lon="5.59218">
        <ele>1454.4</ele>
        <time>2021-12-18T07:43:01Z</time>
      </trkpt>
      <trkpt lat="45.01288" lon="5.59219">
        <ele>1454.4</ele>
        <time>2021-12-18T07:43:03Z</time>
      </trkpt>
      <trkpt lat="45.01288" lon="5.59219">
        <ele>1454.4</ele>
        <time>2021-12-18T07:43:11Z</time>
      </trkpt>
      <trkpt lat="45.01288" lon="5.5922">
        <ele>1454.4</ele>
        <time>2021-12-18T07:43:17Z</time>
      </trkpt>
      <trkpt lat="45.01288" lon="5.5922">
        <ele>1454.4</ele>
        <time>2021-12-18T07:43:23Z</time>
      </trkpt>
      <trkpt lat="45.01291" lon="5.59221">
        <ele>1455.8</ele>
        <time>2021-12-18T07:43:30Z</time>
      </trkpt>
      <trkpt lat="45.01292" lon="5.59221">
        <ele>1456</ele>
        <time>2021-12-18T07:43:31Z</time>
      </trkpt>
      <trkpt lat="45.01297" lon="5.59222">
        <ele>1456.8</ele>
        <time>2021-12-18T07:43:35Z</time>
      </trkpt>
      <trkpt lat="45.01301" lon="5.59219">
        <ele>1457.4</ele>
        <time>2021-12-18T07:43:39Z</time>
      </trkpt>
      <trkpt lat="45.01306" lon="5.59217">
        <ele>1457.8</ele>
        <time>2021-12-18T07:43:42Z</time>
      </trkpt>
      <trkpt lat="45.01307" lon="5.59217">
        <ele>1458</ele>
        <time>2021-12-18T07:43:43Z</time>
      </trkpt>
      <trkpt lat="45.0131" lon="5.59216">
        <ele>1458.6</ele>
        <time>2021-12-18T07:43:46Z</time>
      </trkpt>
      <trkpt lat="45.01311" lon="5.59216">
        <ele>1458.8</ele>
        <time>2021-12-18T07:43:48Z</time>
      </trkpt>
      <trkpt lat="45.01312" lon="5.59216">
        <ele>1459</ele>
        <time>2021-12-18T07:43:49Z</time>
      </trkpt>
      <trkpt lat="45.01312" lon="5.59216">
        <ele>1459.2</ele>
        <time>2021-12-18T07:43:50Z</time>
      </trkpt>
      <trkpt lat="45.01314" lon="5.59215">
        <ele>1459.6</ele>
        <time>2021-12-18T07:43:52Z</time>
      </trkpt>
      <trkpt lat="45.01315" lon="5.59215">
        <ele>1459.8</ele>
        <time>2021-12-18T07:43:53Z</time>
      </trkpt>
      <trkpt lat="45.01317" lon="5.59216">
        <ele>1460.2</ele>
        <time>2021-12-18T07:43:55Z</time>
      </trkpt>
      <trkpt lat="45.01319" lon="5.59216">
        <ele>1460.8</ele>
        <time>2021-12-18T07:43:58Z</time>
      </trkpt>
      <trkpt lat="45.01321" lon="5.59216">
        <ele>1461.4</ele>
        <time>2021-12-18T07:44:01Z</time>
      </trkpt>
      <trkpt lat="45.01324" lon="5.59217">
        <ele>1461.8</ele>
        <time>2021-12-18T07:44:04Z</time>
      </trkpt>
      <trkpt lat="45.01324" lon="5.59217">
        <ele>1462.4</ele>
        <time>2021-12-18T07:44:07Z</time>
      </trkpt>
      <trkpt lat="45.01326" lon="5.59216">
        <ele>1463</ele>
        <time>2021-12-18T07:44:09Z</time>
      </trkpt>
      <trkpt lat="45.01328" lon="5.59216">
        <ele>1463.2</ele>
        <time>2021-12-18T07:44:11Z</time>
      </trkpt>
      <trkpt lat="45.01329" lon="5.59215">
        <ele>1463.4</ele>
        <time>2021-12-18T07:44:13Z</time>
      </trkpt>
      <trkpt lat="45.01331" lon="5.59216">
        <ele>1463.8</ele>
        <time>2021-12-18T07:44:15Z</time>
      </trkpt>
      <trkpt lat="45.01334" lon="5.59215">
        <ele>1464.6</ele>
        <time>2021-12-18T07:44:19Z</time>
      </trkpt>
      <trkpt lat="45.0134" lon="5.59214">
        <ele>1465.8</ele>
        <time>2021-12-18T07:44:25Z</time>
      </trkpt>
      <trkpt lat="45.01341" lon="5.59213">
        <ele>1466</ele>
        <time>2021-12-18T07:44:27Z</time>
      </trkpt>
      <trkpt lat="45.01346" lon="5.59212">
        <ele>1466.8</ele>
        <time>2021-12-18T07:44:32Z</time>
      </trkpt>
      <trkpt lat="45.01349" lon="5.59209">
        <ele>1467</ele>
        <time>2021-12-18T07:44:34Z</time>
      </trkpt>
      <trkpt lat="45.01352" lon="5.59207">
        <ele>1468</ele>
        <time>2021-12-18T07:44:39Z</time>
      </trkpt>
      <trkpt lat="45.01354" lon="5.59207">
        <ele>1468.4</ele>
        <time>2021-12-18T07:44:41Z</time>
      </trkpt>
      <trkpt lat="45.01357" lon="5.59206">
        <ele>1469</ele>
        <time>2021-12-18T07:44:45Z</time>
      </trkpt>
      <trkpt lat="45.0136" lon="5.59205">
        <ele>1470</ele>
        <time>2021-12-18T07:44:49Z</time>
      </trkpt>
      <trkpt lat="45.01361" lon="5.59204">
        <ele>1470.2</ele>
        <time>2021-12-18T07:44:50Z</time>
      </trkpt>
      <trkpt lat="45.01366" lon="5.59201">
        <ele>1470.8</ele>
        <time>2021-12-18T07:44:54Z</time>
      </trkpt>
      <trkpt lat="45.01366" lon="5.59202">
        <ele>1471.2</ele>
        <time>2021-12-18T07:44:55Z</time>
      </trkpt>
      <trkpt lat="45.01368" lon="5.59202">
        <ele>1471.6</ele>
        <time>2021-12-18T07:44:57Z</time>
      </trkpt>
      <trkpt lat="45.01371" lon="5.59201">
        <ele>1472.4</ele>
        <time>2021-12-18T07:45:02Z</time>
      </trkpt>
      <trkpt lat="45.01379" lon="5.59199">
        <ele>1473.6</ele>
        <time>2021-12-18T07:45:08Z</time>
      </trkpt>
      <trkpt lat="45.01386" lon="5.592">
        <ele>1474.6</ele>
        <time>2021-12-18T07:45:15Z</time>
      </trkpt>
      <trkpt lat="45.01387" lon="5.592">
        <ele>1474.8</ele>
        <time>2021-12-18T07:45:16Z</time>
      </trkpt>
      <trkpt lat="45.01392" lon="5.592">
        <ele>1475.6</ele>
        <time>2021-12-18T07:45:20Z</time>
      </trkpt>
      <trkpt lat="45.01397" lon="5.59199">
        <ele>1476.6</ele>
        <time>2021-12-18T07:45:26Z</time>
      </trkpt>
      <trkpt lat="45.01398" lon="5.59199">
        <ele>1477</ele>
        <time>2021-12-18T07:45:27Z</time>
      </trkpt>
      <trkpt lat="45.01403" lon="5.592">
        <ele>1478</ele>
        <time>2021-12-18T07:45:33Z</time>
      </trkpt>
      <trkpt lat="45.01408" lon="5.592">
        <ele>1478.8</ele>
        <time>2021-12-18T07:45:39Z</time>
      </trkpt>
      <trkpt lat="45.01409" lon="5.592">
        <ele>1479</ele>
        <time>2021-12-18T07:45:40Z</time>
      </trkpt>
      <trkpt lat="45.01413" lon="5.59204">
        <ele>1479.8</ele>
        <time>2021-12-18T07:45:45Z</time>
      </trkpt>
      <trkpt lat="45.01413" lon="5.59204">
        <ele>1480</ele>
        <time>2021-12-18T07:45:46Z</time>
      </trkpt>
      <trkpt lat="45.01417" lon="5.59206">
        <ele>1480.6</ele>
        <time>2021-12-18T07:45:50Z</time>
      </trkpt>
      <trkpt lat="45.01419" lon="5.59205">
        <ele>1481.2</ele>
        <time>2021-12-18T07:45:53Z</time>
      </trkpt>
      <trkpt lat="45.0142" lon="5.59206">
        <ele>1481.4</ele>
        <time>2021-12-18T07:45:54Z</time>
      </trkpt>
      <trkpt lat="45.01421" lon="5.59205">
        <ele>1481.4</ele>
        <time>2021-12-18T07:45:55Z</time>
      </trkpt>
      <trkpt lat="45.01425" lon="5.59202">
        <ele>1482</ele>
        <time>2021-12-18T07:45:58Z</time>
      </trkpt>
      <trkpt lat="45.01427" lon="5.592">
        <ele>1482.6</ele>
        <time>2021-12-18T07:46:00Z</time>
      </trkpt>
      <trkpt lat="45.01427" lon="5.592">
        <ele>1482.8</ele>
        <time>2021-12-18T07:46:01Z</time>
      </trkpt>
      <trkpt lat="45.01428" lon="5.59199">
        <ele>1482.8</ele>
        <time>2021-12-18T07:46:02Z</time>
      </trkpt>
      <trkpt lat="45.01433" lon="5.592">
        <ele>1483.4</ele>
        <time>2021-12-18T07:46:06Z</time>
      </trkpt>
      <trkpt lat="45.01433" lon="5.592">
        <ele>1483.6</ele>
        <time>2021-12-18T07:46:07Z</time>
      </trkpt>
      <trkpt lat="45.01435" lon="5.59202">
        <ele>1483.8</ele>
        <time>2021-12-18T07:46:12Z</time>
      </trkpt>
      <trkpt lat="45.01435" lon="5.59204">
        <ele>1484</ele>
        <time>2021-12-18T07:46:17Z</time>
      </trkpt>
      <trkpt lat="45.01437" lon="5.59202">
        <ele>1484</ele>
        <time>2021-12-18T07:46:22Z</time>
      </trkpt>
      <trkpt lat="45.0144" lon="5.592">
        <ele>1484.6</ele>
        <time>2021-12-18T07:46:28Z</time>
      </trkpt>
      <trkpt lat="45.01442" lon="5.59201">
        <ele>1485.6</ele>
        <time>2021-12-18T07:46:32Z</time>
      </trkpt>
      <trkpt lat="45.01446" lon="5.59199">
        <ele>1486.2</ele>
        <time>2021-12-18T07:46:36Z</time>
      </trkpt>
      <trkpt lat="45.0145" lon="5.59194">
        <ele>1486.8</ele>
        <time>2021-12-18T07:46:42Z</time>
      </trkpt>
      <trkpt lat="45.01452" lon="5.59193">
        <ele>1487</ele>
        <time>2021-12-18T07:46:43Z</time>
      </trkpt>
      <trkpt lat="45.01453" lon="5.59192">
        <ele>1487.2</ele>
        <time>2021-12-18T07:46:44Z</time>
      </trkpt>
      <trkpt lat="45.01455" lon="5.59189">
        <ele>1487.8</ele>
        <time>2021-12-18T07:46:46Z</time>
      </trkpt>
      <trkpt lat="45.01456" lon="5.59188">
        <ele>1488</ele>
        <time>2021-12-18T07:46:47Z</time>
      </trkpt>
      <trkpt lat="45.01456" lon="5.59188">
        <ele>1488.4</ele>
        <time>2021-12-18T07:46:49Z</time>
      </trkpt>
      <trkpt lat="45.01456" lon="5.59188">
        <ele>1488.6</ele>
        <time>2021-12-18T07:46:50Z</time>
      </trkpt>
      <trkpt lat="45.01457" lon="5.59188">
        <ele>1488.8</ele>
        <time>2021-12-18T07:46:51Z</time>
      </trkpt>
      <trkpt lat="45.0146" lon="5.59187">
        <ele>1489.8</ele>
        <time>2021-12-18T07:46:56Z</time>
      </trkpt>
      <trkpt lat="45.01464" lon="5.59184">
        <ele>1490.6</ele>
        <time>2021-12-18T07:47:01Z</time>
      </trkpt>
      <trkpt lat="45.01466" lon="5.59182">
        <ele>1491</ele>
        <time>2021-12-18T07:47:04Z</time>
      </trkpt>
      <trkpt lat="45.0147" lon="5.59177">
        <ele>1492</ele>
        <time>2021-12-18T07:47:10Z</time>
      </trkpt>
      <trkpt lat="45.0147" lon="5.59177">
        <ele>1492</ele>
        <time>2021-12-18T07:47:11Z</time>
      </trkpt>
      <trkpt lat="45.01471" lon="5.59178">
        <ele>1492.4</ele>
        <time>2021-12-18T07:47:18Z</time>
      </trkpt>
      <trkpt lat="45.01475" lon="5.59174">
        <ele>1493.2</ele>
        <time>2021-12-18T07:47:24Z</time>
      </trkpt>
      <trkpt lat="45.01478" lon="5.59172">
        <ele>1494.6</ele>
        <time>2021-12-18T07:47:28Z</time>
      </trkpt>
      <trkpt lat="45.01479" lon="5.5917">
        <ele>1495.4</ele>
        <time>2021-12-18T07:47:31Z</time>
      </trkpt>
      <trkpt lat="45.0148" lon="5.59169">
        <ele>1495.6</ele>
        <time>2021-12-18T07:47:33Z</time>
      </trkpt>
      <trkpt lat="45.01482" lon="5.59166">
        <ele>1496.2</ele>
        <time>2021-12-18T07:47:37Z</time>
      </trkpt>
      <trkpt lat="45.01482" lon="5.59166">
        <ele>1497</ele>
        <time>2021-12-18T07:47:40Z</time>
      </trkpt>
      <trkpt lat="45.01482" lon="5.59167">
        <ele>1497.4</ele>
        <time>2021-12-18T07:47:42Z</time>
      </trkpt>
      <trkpt lat="45.01479" lon="5.59165">
        <ele>1497.8</ele>
        <time>2021-12-18T07:47:47Z</time>
      </trkpt>
      <trkpt lat="45.01479" lon="5.59164">
        <ele>1498.2</ele>
        <time>2021-12-18T07:47:48Z</time>
      </trkpt>
      <trkpt lat="45.01479" lon="5.59162">
        <ele>1498.4</ele>
        <time>2021-12-18T07:47:49Z</time>
      </trkpt>
      <trkpt lat="45.01478" lon="5.59161">
        <ele>1499.2</ele>
        <time>2021-12-18T07:47:51Z</time>
      </trkpt>
      <trkpt lat="45.01478" lon="5.59161">
        <ele>1499.4</ele>
        <time>2021-12-18T07:47:52Z</time>
      </trkpt>
      <trkpt lat="45.01477" lon="5.59159">
        <ele>1499.8</ele>
        <time>2021-12-18T07:47:55Z</time>
      </trkpt>
      <trkpt lat="45.01476" lon="5.59159">
        <ele>1500.2</ele>
        <time>2021-12-18T07:47:56Z</time>
      </trkpt>
      <trkpt lat="45.01475" lon="5.5916">
        <ele>1500.4</ele>
        <time>2021-12-18T07:47:57Z</time>
      </trkpt>
      <trkpt lat="45.01473" lon="5.59158">
        <ele>1501</ele>
        <time>2021-12-18T07:48:01Z</time>
      </trkpt>
      <trkpt lat="45.01472" lon="5.59158">
        <ele>1501.4</ele>
        <time>2021-12-18T07:48:02Z</time>
      </trkpt>
      <trkpt lat="45.01471" lon="5.59158">
        <ele>1501.8</ele>
        <time>2021-12-18T07:48:04Z</time>
      </trkpt>
      <trkpt lat="45.01468" lon="5.59157">
        <ele>1502.2</ele>
        <time>2021-12-18T07:48:09Z</time>
      </trkpt>
      <trkpt lat="45.01468" lon="5.59155">
        <ele>1502.4</ele>
        <time>2021-12-18T07:48:10Z</time>
      </trkpt>
      <trkpt lat="45.01469" lon="5.59155">
        <ele>1502.6</ele>
        <time>2021-12-18T07:48:11Z</time>
      </trkpt>
      <trkpt lat="45.01468" lon="5.59153">
        <ele>1503</ele>
        <time>2021-12-18T07:48:13Z</time>
      </trkpt>
      <trkpt lat="45.01466" lon="5.59153">
        <ele>1503.2</ele>
        <time>2021-12-18T07:48:14Z</time>
      </trkpt>
      <trkpt lat="45.01465" lon="5.59153">
        <ele>1503.2</ele>
        <time>2021-12-18T07:48:15Z</time>
      </trkpt>
      <trkpt lat="45.01464" lon="5.59153">
        <ele>1503.4</ele>
        <time>2021-12-18T07:48:16Z</time>
      </trkpt>
      <trkpt lat="45.01463" lon="5.59152">
        <ele>1503.6</ele>
        <time>2021-12-18T07:48:18Z</time>
      </trkpt>
      <trkpt lat="45.01458" lon="5.5915">
        <ele>1504.4</ele>
        <time>2021-12-18T07:48:23Z</time>
      </trkpt>
      <trkpt lat="45.01457" lon="5.5915">
        <ele>1504.6</ele>
        <time>2021-12-18T07:48:24Z</time>
      </trkpt>
      <trkpt lat="45.01452" lon="5.59149">
        <ele>1505.8</ele>
        <time>2021-12-18T07:48:31Z</time>
      </trkpt>
      <trkpt lat="45.01448" lon="5.59147">
        <ele>1506.8</ele>
        <time>2021-12-18T07:48:36Z</time>
      </trkpt>
      <trkpt lat="45.01447" lon="5.59147">
        <ele>1507.2</ele>
        <time>2021-12-18T07:48:37Z</time>
      </trkpt>
      <trkpt lat="45.01444" lon="5.59147">
        <ele>1508</ele>
        <time>2021-12-18T07:48:41Z</time>
      </trkpt>
      <trkpt lat="45.01443" lon="5.59145">
        <ele>1508.2</ele>
        <time>2021-12-18T07:48:44Z</time>
      </trkpt>
      <trkpt lat="45.01442" lon="5.5914">
        <ele>1509</ele>
        <time>2021-12-18T07:48:48Z</time>
      </trkpt>
      <trkpt lat="45.01443" lon="5.59141">
        <ele>1509</ele>
        <time>2021-12-18T07:48:49Z</time>
      </trkpt>
      <trkpt lat="45.01441" lon="5.59141">
        <ele>1510.4</ele>
        <time>2021-12-18T07:48:54Z</time>
      </trkpt>
      <trkpt lat="45.01442" lon="5.59139">
        <ele>1511.2</ele>
        <time>2021-12-18T07:48:59Z</time>
      </trkpt>
      <trkpt lat="45.01442" lon="5.59138">
        <ele>1511.6</ele>
        <time>2021-12-18T07:49:01Z</time>
      </trkpt>
      <trkpt lat="45.01444" lon="5.59135">
        <ele>1512.6</ele>
        <time>2021-12-18T07:49:06Z</time>
      </trkpt>
      <trkpt lat="45.01447" lon="5.59133">
        <ele>1513.8</ele>
        <time>2021-12-18T07:49:11Z</time>
      </trkpt>
      <trkpt lat="45.01448" lon="5.59133">
        <ele>1513.8</ele>
        <time>2021-12-18T07:49:12Z</time>
      </trkpt>
      <trkpt lat="45.01453" lon="5.59129">
        <ele>1514.4</ele>
        <time>2021-12-18T07:49:19Z</time>
      </trkpt>
      <trkpt lat="45.01455" lon="5.59129">
        <ele>1515</ele>
        <time>2021-12-18T07:49:22Z</time>
      </trkpt>
      <trkpt lat="45.01455" lon="5.59126">
        <ele>1515.4</ele>
        <time>2021-12-18T07:49:26Z</time>
      </trkpt>
      <trkpt lat="45.01456" lon="5.59125">
        <ele>1516</ele>
        <time>2021-12-18T07:49:30Z</time>
      </trkpt>
      <trkpt lat="45.01456" lon="5.59125">
        <ele>1516.4</ele>
        <time>2021-12-18T07:49:33Z</time>
      </trkpt>
      <trkpt lat="45.01452" lon="5.59125">
        <ele>1517.2</ele>
        <time>2021-12-18T07:49:39Z</time>
      </trkpt>
      <trkpt lat="45.01447" lon="5.59126">
        <ele>1518.2</ele>
        <time>2021-12-18T07:49:44Z</time>
      </trkpt>
      <trkpt lat="45.01445" lon="5.59125">
        <ele>1519</ele>
        <time>2021-12-18T07:49:48Z</time>
      </trkpt>
      <trkpt lat="45.01445" lon="5.59123">
        <ele>1519.2</ele>
        <time>2021-12-18T07:49:49Z</time>
      </trkpt>
      <trkpt lat="45.01445" lon="5.59123">
        <ele>1519.4</ele>
        <time>2021-12-18T07:49:50Z</time>
      </trkpt>
      <trkpt lat="45.01446" lon="5.59121">
        <ele>1519.8</ele>
        <time>2021-12-18T07:49:53Z</time>
      </trkpt>
      <trkpt lat="45.01447" lon="5.59121">
        <ele>1520.2</ele>
        <time>2021-12-18T07:49:55Z</time>
      </trkpt>
      <trkpt lat="45.01448" lon="5.59121">
        <ele>1520.4</ele>
        <time>2021-12-18T07:49:56Z</time>
      </trkpt>
      <trkpt lat="45.0145" lon="5.59119">
        <ele>1521</ele>
        <time>2021-12-18T07:50:01Z</time>
      </trkpt>
      <trkpt lat="45.01451" lon="5.59118">
        <ele>1521.4</ele>
        <time>2021-12-18T07:50:04Z</time>
      </trkpt>
      <trkpt lat="45.01453" lon="5.59115">
        <ele>1521.8</ele>
        <time>2021-12-18T07:50:08Z</time>
      </trkpt>
      <trkpt lat="45.01455" lon="5.59114">
        <ele>1522.6</ele>
        <time>2021-12-18T07:50:11Z</time>
      </trkpt>
      <trkpt lat="45.01455" lon="5.59113">
        <ele>1523</ele>
        <time>2021-12-18T07:50:13Z</time>
      </trkpt>
      <trkpt lat="45.01455" lon="5.59112">
        <ele>1523.2</ele>
        <time>2021-12-18T07:50:14Z</time>
      </trkpt>
      <trkpt lat="45.01455" lon="5.59111">
        <ele>1523.6</ele>
        <time>2021-12-18T07:50:16Z</time>
      </trkpt>
      <trkpt lat="45.01452" lon="5.5911">
        <ele>1524.4</ele>
        <time>2021-12-18T07:50:21Z</time>
      </trkpt>
      <trkpt lat="45.01452" lon="5.5911">
        <ele>1524.6</ele>
        <time>2021-12-18T07:50:22Z</time>
      </trkpt>
      <trkpt lat="45.01448" lon="5.5911">
        <ele>1525.6</ele>
        <time>2021-12-18T07:50:27Z</time>
      </trkpt>
      <trkpt lat="45.01446" lon="5.59109">
        <ele>1525.8</ele>
        <time>2021-12-18T07:50:29Z</time>
      </trkpt>
      <trkpt lat="45.01444" lon="5.59106">
        <ele>1526.6</ele>
        <time>2021-12-18T07:50:34Z</time>
      </trkpt>
      <trkpt lat="45.01442" lon="5.59105">
        <ele>1526.8</ele>
        <time>2021-12-18T07:50:36Z</time>
      </trkpt>
      <trkpt lat="45.0144" lon="5.59103">
        <ele>1527.2</ele>
        <time>2021-12-18T07:50:39Z</time>
      </trkpt>
      <trkpt lat="45.01438" lon="5.59102">
        <ele>1528</ele>
        <time>2021-12-18T07:50:42Z</time>
      </trkpt>
      <trkpt lat="45.01438" lon="5.59101">
        <ele>1528</ele>
        <time>2021-12-18T07:50:43Z</time>
      </trkpt>
      <trkpt lat="45.01436" lon="5.59099">
        <ele>1528.6</ele>
        <time>2021-12-18T07:50:47Z</time>
      </trkpt>
      <trkpt lat="45.01436" lon="5.59098">
        <ele>1529</ele>
        <time>2021-12-18T07:50:48Z</time>
      </trkpt>
      <trkpt lat="45.01436" lon="5.59099">
        <ele>1529.2</ele>
        <time>2021-12-18T07:50:49Z</time>
      </trkpt>
      <trkpt lat="45.01439" lon="5.59101">
        <ele>1529.6</ele>
        <time>2021-12-18T07:50:53Z</time>
      </trkpt>
      <trkpt lat="45.0144" lon="5.591">
        <ele>1530.2</ele>
        <time>2021-12-18T07:50:57Z</time>
      </trkpt>
      <trkpt lat="45.01443" lon="5.59099">
        <ele>1530.6</ele>
        <time>2021-12-18T07:51:01Z</time>
      </trkpt>
      <trkpt lat="45.01447" lon="5.59097">
        <ele>1531.2</ele>
        <time>2021-12-18T07:51:07Z</time>
      </trkpt>
      <trkpt lat="45.01448" lon="5.59096">
        <ele>1531.8</ele>
        <time>2021-12-18T07:51:09Z</time>
      </trkpt>
      <trkpt lat="45.01451" lon="5.59094">
        <ele>1532.4</ele>
        <time>2021-12-18T07:51:13Z</time>
      </trkpt>
      <trkpt lat="45.01454" lon="5.59092">
        <ele>1533</ele>
        <time>2021-12-18T07:51:16Z</time>
      </trkpt>
      <trkpt lat="45.01455" lon="5.59091">
        <ele>1533.6</ele>
        <time>2021-12-18T07:51:18Z</time>
      </trkpt>
      <trkpt lat="45.01455" lon="5.59091">
        <ele>1533.8</ele>
        <time>2021-12-18T07:51:19Z</time>
      </trkpt>
      <trkpt lat="45.01457" lon="5.59088">
        <ele>1534.2</ele>
        <time>2021-12-18T07:51:22Z</time>
      </trkpt>
      <trkpt lat="45.01458" lon="5.59088">
        <ele>1534.6</ele>
        <time>2021-12-18T07:51:24Z</time>
      </trkpt>
      <trkpt lat="45.01459" lon="5.59087">
        <ele>1534.8</ele>
        <time>2021-12-18T07:51:25Z</time>
      </trkpt>
      <trkpt lat="45.0146" lon="5.59087">
        <ele>1535.2</ele>
        <time>2021-12-18T07:51:27Z</time>
      </trkpt>
      <trkpt lat="45.0146" lon="5.59086">
        <ele>1535.6</ele>
        <time>2021-12-18T07:51:29Z</time>
      </trkpt>
      <trkpt lat="45.01461" lon="5.59086">
        <ele>1535.8</ele>
        <time>2021-12-18T07:51:30Z</time>
      </trkpt>
      <trkpt lat="45.01463" lon="5.59084">
        <ele>1536.8</ele>
        <time>2021-12-18T07:51:34Z</time>
      </trkpt>
      <trkpt lat="45.01464" lon="5.59084">
        <ele>1537.4</ele>
        <time>2021-12-18T07:51:38Z</time>
      </trkpt>
      <trkpt lat="45.01464" lon="5.59084">
        <ele>1537.6</ele>
        <time>2021-12-18T07:51:40Z</time>
      </trkpt>
      <trkpt lat="45.01463" lon="5.59085">
        <ele>1537.8</ele>
        <time>2021-12-18T07:51:41Z</time>
      </trkpt>
      <trkpt lat="45.01461" lon="5.59085">
        <ele>1538</ele>
        <time>2021-12-18T07:51:43Z</time>
      </trkpt>
      <trkpt lat="45.01461" lon="5.59084">
        <ele>1538.2</ele>
        <time>2021-12-18T07:51:44Z</time>
      </trkpt>
      <trkpt lat="45.01458" lon="5.59083">
        <ele>1539</ele>
        <time>2021-12-18T07:51:48Z</time>
      </trkpt>
      <trkpt lat="45.01456" lon="5.59082">
        <ele>1539.6</ele>
        <time>2021-12-18T07:51:52Z</time>
      </trkpt>
      <trkpt lat="45.01454" lon="5.59081">
        <ele>1540</ele>
        <time>2021-12-18T07:51:56Z</time>
      </trkpt>
      <trkpt lat="45.01451" lon="5.59079">
        <ele>1541</ele>
        <time>2021-12-18T07:52:00Z</time>
      </trkpt>
      <trkpt lat="45.0145" lon="5.59079">
        <ele>1541.2</ele>
        <time>2021-12-18T07:52:01Z</time>
      </trkpt>
      <trkpt lat="45.01448" lon="5.59079">
        <ele>1541.4</ele>
        <time>2021-12-18T07:52:04Z</time>
      </trkpt>
      <trkpt lat="45.01446" lon="5.59077">
        <ele>1541.8</ele>
        <time>2021-12-18T07:52:07Z</time>
      </trkpt>
      <trkpt lat="45.01445" lon="5.59076">
        <ele>1542.2</ele>
        <time>2021-12-18T07:52:09Z</time>
      </trkpt>
      <trkpt lat="45.01443" lon="5.59074">
        <ele>1543</ele>
        <time>2021-12-18T07:52:13Z</time>
      </trkpt>
      <trkpt lat="45.01441" lon="5.59072">
        <ele>1543.4</ele>
        <time>2021-12-18T07:52:15Z</time>
      </trkpt>
      <trkpt lat="45.0144" lon="5.59072">
        <ele>1543.4</ele>
        <time>2021-12-18T07:52:16Z</time>
      </trkpt>
      <trkpt lat="45.01439" lon="5.59068">
        <ele>1544.2</ele>
        <time>2021-12-18T07:52:23Z</time>
      </trkpt>
      <trkpt lat="45.01437" lon="5.59066">
        <ele>1544.4</ele>
        <time>2021-12-18T07:52:29Z</time>
      </trkpt>
      <trkpt lat="45.01437" lon="5.59065">
        <ele>1544.6</ele>
        <time>2021-12-18T07:52:30Z</time>
      </trkpt>
      <trkpt lat="45.01434" lon="5.59062">
        <ele>1545.2</ele>
        <time>2021-12-18T07:52:34Z</time>
      </trkpt>
      <trkpt lat="45.01433" lon="5.59061">
        <ele>1545.4</ele>
        <time>2021-12-18T07:52:35Z</time>
      </trkpt>
      <trkpt lat="45.01433" lon="5.59061">
        <ele>1545.6</ele>
        <time>2021-12-18T07:52:36Z</time>
      </trkpt>
      <trkpt lat="45.01429" lon="5.59057">
        <ele>1546.2</ele>
        <time>2021-12-18T07:52:40Z</time>
      </trkpt>
      <trkpt lat="45.01428" lon="5.59057">
        <ele>1546.4</ele>
        <time>2021-12-18T07:52:41Z</time>
      </trkpt>
      <trkpt lat="45.01428" lon="5.59056">
        <ele>1546.8</ele>
        <time>2021-12-18T07:52:42Z</time>
      </trkpt>
      <trkpt lat="45.01427" lon="5.59056">
        <ele>1547</ele>
        <time>2021-12-18T07:52:43Z</time>
      </trkpt>
      <trkpt lat="45.01426" lon="5.59055">
        <ele>1547.2</ele>
        <time>2021-12-18T07:52:44Z</time>
      </trkpt>
      <trkpt lat="45.01424" lon="5.59054">
        <ele>1547.8</ele>
        <time>2021-12-18T07:52:48Z</time>
      </trkpt>
      <trkpt lat="45.01422" lon="5.59053">
        <ele>1548.2</ele>
        <time>2021-12-18T07:52:50Z</time>
      </trkpt>
      <trkpt lat="45.01424" lon="5.59053">
        <ele>1548.8</ele>
        <time>2021-12-18T07:52:54Z</time>
      </trkpt>
      <trkpt lat="45.01424" lon="5.59053">
        <ele>1549</ele>
        <time>2021-12-18T07:52:55Z</time>
      </trkpt>
      <trkpt lat="45.01429" lon="5.59051">
        <ele>1549.8</ele>
        <time>2021-12-18T07:53:01Z</time>
      </trkpt>
      <trkpt lat="45.0143" lon="5.59051">
        <ele>1550</ele>
        <time>2021-12-18T07:53:02Z</time>
      </trkpt>
      <trkpt lat="45.01434" lon="5.59051">
        <ele>1551</ele>
        <time>2021-12-18T07:53:08Z</time>
      </trkpt>
      <trkpt lat="45.01436" lon="5.59051">
        <ele>1551.4</ele>
        <time>2021-12-18T07:53:10Z</time>
      </trkpt>
      <trkpt lat="45.0144" lon="5.5905">
        <ele>1552.2</ele>
        <time>2021-12-18T07:53:15Z</time>
      </trkpt>
      <trkpt lat="45.01441" lon="5.5905">
        <ele>1552.8</ele>
        <time>2021-12-18T07:53:17Z</time>
      </trkpt>
      <trkpt lat="45.01442" lon="5.59051">
        <ele>1553</ele>
        <time>2021-12-18T07:53:19Z</time>
      </trkpt>
      <trkpt lat="45.01443" lon="5.59051">
        <ele>1553</ele>
        <time>2021-12-18T07:53:20Z</time>
      </trkpt>
      <trkpt lat="45.01444" lon="5.59051">
        <ele>1553.4</ele>
        <time>2021-12-18T07:53:21Z</time>
      </trkpt>
      <trkpt lat="45.01445" lon="5.59052">
        <ele>1553.6</ele>
        <time>2021-12-18T07:53:23Z</time>
      </trkpt>
      <trkpt lat="45.01448" lon="5.5905">
        <ele>1554.4</ele>
        <time>2021-12-18T07:53:28Z</time>
      </trkpt>
      <trkpt lat="45.0145" lon="5.59049">
        <ele>1554.8</ele>
        <time>2021-12-18T07:53:31Z</time>
      </trkpt>
      <trkpt lat="45.01453" lon="5.59045">
        <ele>1555.6</ele>
        <time>2021-12-18T07:53:35Z</time>
      </trkpt>
      <trkpt lat="45.01457" lon="5.59044">
        <ele>1556</ele>
        <time>2021-12-18T07:53:39Z</time>
      </trkpt>
      <trkpt lat="45.01459" lon="5.59042">
        <ele>1556.6</ele>
        <time>2021-12-18T07:53:42Z</time>
      </trkpt>
      <trkpt lat="45.0146" lon="5.59042">
        <ele>1556.8</ele>
        <time>2021-12-18T07:53:44Z</time>
      </trkpt>
      <trkpt lat="45.0146" lon="5.59042">
        <ele>1557</ele>
        <time>2021-12-18T07:53:45Z</time>
      </trkpt>
      <trkpt lat="45.01461" lon="5.5904">
        <ele>1557.4</ele>
        <time>2021-12-18T07:53:47Z</time>
      </trkpt>
      <trkpt lat="45.01462" lon="5.5904">
        <ele>1557.6</ele>
        <time>2021-12-18T07:53:48Z</time>
      </trkpt>
      <trkpt lat="45.01464" lon="5.59039">
        <ele>1558.6</ele>
        <time>2021-12-18T07:53:52Z</time>
      </trkpt>
      <trkpt lat="45.01464" lon="5.59039">
        <ele>1558.6</ele>
        <time>2021-12-18T07:53:53Z</time>
      </trkpt>
      <trkpt lat="45.01463" lon="5.59038">
        <ele>1559.2</ele>
        <time>2021-12-18T07:53:57Z</time>
      </trkpt>
      <trkpt lat="45.01461" lon="5.59036">
        <ele>1559.6</ele>
        <time>2021-12-18T07:54:01Z</time>
      </trkpt>
      <trkpt lat="45.01459" lon="5.59034">
        <ele>1560.8</ele>
        <time>2021-12-18T07:54:07Z</time>
      </trkpt>
      <trkpt lat="45.01453" lon="5.59032">
        <ele>1562</ele>
        <time>2021-12-18T07:54:15Z</time>
      </trkpt>
      <trkpt lat="45.01452" lon="5.59032">
        <ele>1562.2</ele>
        <time>2021-12-18T07:54:16Z</time>
      </trkpt>
      <trkpt lat="45.01448" lon="5.5903">
        <ele>1563.2</ele>
        <time>2021-12-18T07:54:22Z</time>
      </trkpt>
      <trkpt lat="45.01446" lon="5.59028">
        <ele>1563.6</ele>
        <time>2021-12-18T07:54:25Z</time>
      </trkpt>
      <trkpt lat="45.01442" lon="5.59028">
        <ele>1564.4</ele>
        <time>2021-12-18T07:54:30Z</time>
      </trkpt>
      <trkpt lat="45.0144" lon="5.59026">
        <ele>1564.8</ele>
        <time>2021-12-18T07:54:33Z</time>
      </trkpt>
      <trkpt lat="45.01439" lon="5.59025">
        <ele>1565.2</ele>
        <time>2021-12-18T07:54:35Z</time>
      </trkpt>
      <trkpt lat="45.01437" lon="5.59025">
        <ele>1565.6</ele>
        <time>2021-12-18T07:54:37Z</time>
      </trkpt>
      <trkpt lat="45.01435" lon="5.59025">
        <ele>1566</ele>
        <time>2021-12-18T07:54:39Z</time>
      </trkpt>
      <trkpt lat="45.01432" lon="5.59023">
        <ele>1566.6</ele>
        <time>2021-12-18T07:54:43Z</time>
      </trkpt>
      <trkpt lat="45.01431" lon="5.59022">
        <ele>1566.6</ele>
        <time>2021-12-18T07:54:44Z</time>
      </trkpt>
      <trkpt lat="45.0143" lon="5.59021">
        <ele>1567</ele>
        <time>2021-12-18T07:54:45Z</time>
      </trkpt>
      <trkpt lat="45.01427" lon="5.59021">
        <ele>1567.4</ele>
        <time>2021-12-18T07:54:49Z</time>
      </trkpt>
      <trkpt lat="45.01426" lon="5.59021">
        <ele>1567.8</ele>
        <time>2021-12-18T07:54:51Z</time>
      </trkpt>
      <trkpt lat="45.01422" lon="5.59018">
        <ele>1568.8</ele>
        <time>2021-12-18T07:54:58Z</time>
      </trkpt>
      <trkpt lat="45.01427" lon="5.59017">
        <ele>1569.6</ele>
        <time>2021-12-18T07:55:05Z</time>
      </trkpt>
      <trkpt lat="45.01429" lon="5.59017">
        <ele>1569.8</ele>
        <time>2021-12-18T07:55:07Z</time>
      </trkpt>
      <trkpt lat="45.0143" lon="5.59017">
        <ele>1570.4</ele>
        <time>2021-12-18T07:55:10Z</time>
      </trkpt>
      <trkpt lat="45.01432" lon="5.59016">
        <ele>1570.4</ele>
        <time>2021-12-18T07:55:12Z</time>
      </trkpt>
      <trkpt lat="45.01433" lon="5.59016">
        <ele>1570.8</ele>
        <time>2021-12-18T07:55:14Z</time>
      </trkpt>
      <trkpt lat="45.01437" lon="5.59015">
        <ele>1571.2</ele>
        <time>2021-12-18T07:55:17Z</time>
      </trkpt>
      <trkpt lat="45.01438" lon="5.59015">
        <ele>1571.2</ele>
        <time>2021-12-18T07:55:19Z</time>
      </trkpt>
      <trkpt lat="45.01442" lon="5.59013">
        <ele>1571.8</ele>
        <time>2021-12-18T07:55:23Z</time>
      </trkpt>
      <trkpt lat="45.01445" lon="5.59013">
        <ele>1572.6</ele>
        <time>2021-12-18T07:55:26Z</time>
      </trkpt>
      <trkpt lat="45.01447" lon="5.59013">
        <ele>1573</ele>
        <time>2021-12-18T07:55:29Z</time>
      </trkpt>
      <trkpt lat="45.01451" lon="5.5901">
        <ele>1573.4</ele>
        <time>2021-12-18T07:55:32Z</time>
      </trkpt>
      <trkpt lat="45.01455" lon="5.59009">
        <ele>1574</ele>
        <time>2021-12-18T07:55:37Z</time>
      </trkpt>
      <trkpt lat="45.01455" lon="5.59009">
        <ele>1574.2</ele>
        <time>2021-12-18T07:55:38Z</time>
      </trkpt>
      <trkpt lat="45.01458" lon="5.59005">
        <ele>1575.2</ele>
        <time>2021-12-18T07:55:44Z</time>
      </trkpt>
      <trkpt lat="45.01459" lon="5.59005">
        <ele>1575.2</ele>
        <time>2021-12-18T07:55:45Z</time>
      </trkpt>
      <trkpt lat="45.01463" lon="5.59003">
        <ele>1576</ele>
        <time>2021-12-18T07:55:51Z</time>
      </trkpt>
      <trkpt lat="45.01463" lon="5.59003">
        <ele>1576.2</ele>
        <time>2021-12-18T07:55:52Z</time>
      </trkpt>
      <trkpt lat="45.01465" lon="5.59002">
        <ele>1576.4</ele>
        <time>2021-12-18T07:55:54Z</time>
      </trkpt>
      <trkpt lat="45.01468" lon="5.59001">
        <ele>1577.2</ele>
        <time>2021-12-18T07:56:00Z</time>
      </trkpt>
      <trkpt lat="45.0147" lon="5.59">
        <ele>1577.4</ele>
        <time>2021-12-18T07:56:02Z</time>
      </trkpt>
      <trkpt lat="45.01469" lon="5.59">
        <ele>1578.2</ele>
        <time>2021-12-18T07:56:08Z</time>
      </trkpt>
      <trkpt lat="45.01468" lon="5.59">
        <ele>1578.4</ele>
        <time>2021-12-18T07:56:09Z</time>
      </trkpt>
      <trkpt lat="45.01466" lon="5.59">
        <ele>1578.8</ele>
        <time>2021-12-18T07:56:12Z</time>
      </trkpt>
      <trkpt lat="45.01464" lon="5.59">
        <ele>1579.2</ele>
        <time>2021-12-18T07:56:14Z</time>
      </trkpt>
      <trkpt lat="45.01463" lon="5.58999">
        <ele>1579.2</ele>
        <time>2021-12-18T07:56:15Z</time>
      </trkpt>
      <trkpt lat="45.01463" lon="5.58999">
        <ele>1579.4</ele>
        <time>2021-12-18T07:56:16Z</time>
      </trkpt>
      <trkpt lat="45.01462" lon="5.58998">
        <ele>1579.6</ele>
        <time>2021-12-18T07:56:17Z</time>
      </trkpt>
      <trkpt lat="45.01459" lon="5.58996">
        <ele>1580.4</ele>
        <time>2021-12-18T07:56:22Z</time>
      </trkpt>
      <trkpt lat="45.01459" lon="5.58995">
        <ele>1580.4</ele>
        <time>2021-12-18T07:56:23Z</time>
      </trkpt>
      <trkpt lat="45.01454" lon="5.58995">
        <ele>1581.8</ele>
        <time>2021-12-18T07:56:30Z</time>
      </trkpt>
      <trkpt lat="45.01453" lon="5.58994">
        <ele>1581.8</ele>
        <time>2021-12-18T07:56:31Z</time>
      </trkpt>
      <trkpt lat="45.01451" lon="5.58994">
        <ele>1582</ele>
        <time>2021-12-18T07:56:34Z</time>
      </trkpt>
      <trkpt lat="45.01449" lon="5.58993">
        <ele>1582.6</ele>
        <time>2021-12-18T07:56:37Z</time>
      </trkpt>
      <trkpt lat="45.01448" lon="5.58993">
        <ele>1582.8</ele>
        <time>2021-12-18T07:56:39Z</time>
      </trkpt>
      <trkpt lat="45.01445" lon="5.58991">
        <ele>1583.4</ele>
        <time>2021-12-18T07:56:44Z</time>
      </trkpt>
      <trkpt lat="45.01443" lon="5.58988">
        <ele>1584</ele>
        <time>2021-12-18T07:56:47Z</time>
      </trkpt>
      <trkpt lat="45.0144" lon="5.58986">
        <ele>1584.6</ele>
        <time>2021-12-18T07:56:51Z</time>
      </trkpt>
      <trkpt lat="45.01439" lon="5.58983">
        <ele>1585</ele>
        <time>2021-12-18T07:56:54Z</time>
      </trkpt>
      <trkpt lat="45.01438" lon="5.58983">
        <ele>1585.2</ele>
        <time>2021-12-18T07:56:55Z</time>
      </trkpt>
      <trkpt lat="45.01434" lon="5.58981">
        <ele>1586.2</ele>
        <time>2021-12-18T07:57:01Z</time>
      </trkpt>
      <trkpt lat="45.01434" lon="5.5898">
        <ele>1586.2</ele>
        <time>2021-12-18T07:57:02Z</time>
      </trkpt>
      <trkpt lat="45.01432" lon="5.58976">
        <ele>1587.2</ele>
        <time>2021-12-18T07:57:07Z</time>
      </trkpt>
      <trkpt lat="45.01431" lon="5.58975">
        <ele>1587.4</ele>
        <time>2021-12-18T07:57:09Z</time>
      </trkpt>
      <trkpt lat="45.01428" lon="5.5897">
        <ele>1588.4</ele>
        <time>2021-12-18T07:57:15Z</time>
      </trkpt>
      <trkpt lat="45.01428" lon="5.5897">
        <ele>1588.6</ele>
        <time>2021-12-18T07:57:16Z</time>
      </trkpt>
      <trkpt lat="45.01425" lon="5.58967">
        <ele>1589</ele>
        <time>2021-12-18T07:57:20Z</time>
      </trkpt>
      <trkpt lat="45.01422" lon="5.58966">
        <ele>1589.4</ele>
        <time>2021-12-18T07:57:24Z</time>
      </trkpt>
      <trkpt lat="45.01421" lon="5.58965">
        <ele>1589.6</ele>
        <time>2021-12-18T07:57:25Z</time>
      </trkpt>
      <trkpt lat="45.01421" lon="5.58965">
        <ele>1589.6</ele>
        <time>2021-12-18T07:57:26Z</time>
      </trkpt>
      <trkpt lat="45.01419" lon="5.58961">
        <ele>1590.8</ele>
        <time>2021-12-18T07:57:32Z</time>
      </trkpt>
      <trkpt lat="45.01421" lon="5.5896">
        <ele>1591.6</ele>
        <time>2021-12-18T07:57:37Z</time>
      </trkpt>
      <trkpt lat="45.01422" lon="5.5896">
        <ele>1591.8</ele>
        <time>2021-12-18T07:57:38Z</time>
      </trkpt>
      <trkpt lat="45.01427" lon="5.5896">
        <ele>1592.4</ele>
        <time>2021-12-18T07:57:44Z</time>
      </trkpt>
      <trkpt lat="45.0143" lon="5.5896">
        <ele>1593</ele>
        <time>2021-12-18T07:57:47Z</time>
      </trkpt>
      <trkpt lat="45.01433" lon="5.5896">
        <ele>1593.4</ele>
        <time>2021-12-18T07:57:52Z</time>
      </trkpt>
      <trkpt lat="45.01436" lon="5.5896">
        <ele>1594</ele>
        <time>2021-12-18T07:57:56Z</time>
      </trkpt>
      <trkpt lat="45.01438" lon="5.5896">
        <ele>1594.4</ele>
        <time>2021-12-18T07:57:59Z</time>
      </trkpt>
      <trkpt lat="45.01443" lon="5.58959">
        <ele>1595.2</ele>
        <time>2021-12-18T07:58:05Z</time>
      </trkpt>
      <trkpt lat="45.01443" lon="5.5896">
        <ele>1595.4</ele>
        <time>2021-12-18T07:58:06Z</time>
      </trkpt>
      <trkpt lat="45.01445" lon="5.58958">
        <ele>1596.2</ele>
        <time>2021-12-18T07:58:09Z</time>
      </trkpt>
      <trkpt lat="45.01447" lon="5.58958">
        <ele>1596.4</ele>
        <time>2021-12-18T07:58:11Z</time>
      </trkpt>
      <trkpt lat="45.0145" lon="5.58956">
        <ele>1597.2</ele>
        <time>2021-12-18T07:58:15Z</time>
      </trkpt>
      <trkpt lat="45.01453" lon="5.58956">
        <ele>1597.6</ele>
        <time>2021-12-18T07:58:18Z</time>
      </trkpt>
      <trkpt lat="45.01456" lon="5.58954">
        <ele>1598.2</ele>
        <time>2021-12-18T07:58:22Z</time>
      </trkpt>
      <trkpt lat="45.01458" lon="5.58952">
        <ele>1598.8</ele>
        <time>2021-12-18T07:58:25Z</time>
      </trkpt>
      <trkpt lat="45.01459" lon="5.58951">
        <ele>1599.4</ele>
        <time>2021-12-18T07:58:28Z</time>
      </trkpt>
      <trkpt lat="45.01464" lon="5.58948">
        <ele>1600</ele>
        <time>2021-12-18T07:58:36Z</time>
      </trkpt>
      <trkpt lat="45.01463" lon="5.58949">
        <ele>1600.2</ele>
        <time>2021-12-18T07:58:42Z</time>
      </trkpt>
      <trkpt lat="45.01464" lon="5.5895">
        <ele>1600.4</ele>
        <time>2021-12-18T07:58:49Z</time>
      </trkpt>
      <trkpt lat="45.01463" lon="5.58952">
        <ele>1600.6</ele>
        <time>2021-12-18T07:59:09Z</time>
      </trkpt>
      <trkpt lat="45.01464" lon="5.58952">
        <ele>1600.4</ele>
        <time>2021-12-18T07:59:12Z</time>
      </trkpt>
      <trkpt lat="45.01464" lon="5.58952">
        <ele>1600.4</ele>
        <time>2021-12-18T07:59:15Z</time>
      </trkpt>
      <trkpt lat="45.01464" lon="5.58951">
        <ele>1600.4</ele>
        <time>2021-12-18T07:59:18Z</time>
      </trkpt>
      <trkpt lat="45.01465" lon="5.58951">
        <ele>1600.2</ele>
        <time>2021-12-18T07:59:21Z</time>
      </trkpt>
      <trkpt lat="45.01465" lon="5.5895">
        <ele>1600.2</ele>
        <time>2021-12-18T07:59:24Z</time>
      </trkpt>
      <trkpt lat="45.01466" lon="5.5895">
        <ele>1600.4</ele>
        <time>2021-12-18T07:59:31Z</time>
      </trkpt>
      <trkpt lat="45.01466" lon="5.58949">
        <ele>1600.2</ele>
        <time>2021-12-18T07:59:40Z</time>
      </trkpt>
      <trkpt lat="45.01466" lon="5.58948">
        <ele>1600</ele>
        <time>2021-12-18T07:59:44Z</time>
      </trkpt>
      <trkpt lat="45.01466" lon="5.58948">
        <ele>1600</ele>
        <time>2021-12-18T07:59:47Z</time>
      </trkpt>
      <trkpt lat="45.01465" lon="5.58948">
        <ele>1600</ele>
        <time>2021-12-18T07:59:50Z</time>
      </trkpt>
      <trkpt lat="45.01464" lon="5.58949">
        <ele>1600</ele>
        <time>2021-12-18T08:00:02Z</time>
      </trkpt>
      <trkpt lat="45.0146" lon="5.58948">
        <ele>1600</ele>
        <time>2021-12-18T08:00:15Z</time>
      </trkpt>
      <trkpt lat="45.01454" lon="5.58945">
        <ele>1600.4</ele>
        <time>2021-12-18T08:00:22Z</time>
      </trkpt>
      <trkpt lat="45.01451" lon="5.58942">
        <ele>1601.2</ele>
        <time>2021-12-18T08:00:30Z</time>
      </trkpt>
      <trkpt lat="45.01452" lon="5.58941">
        <ele>1601.4</ele>
        <time>2021-12-18T08:00:32Z</time>
      </trkpt>
      <trkpt lat="45.01457" lon="5.58939">
        <ele>1602.2</ele>
        <time>2021-12-18T08:00:38Z</time>
      </trkpt>
      <trkpt lat="45.01457" lon="5.58938">
        <ele>1602.4</ele>
        <time>2021-12-18T08:00:39Z</time>
      </trkpt>
      <trkpt lat="45.01462" lon="5.58936">
        <ele>1603.4</ele>
        <time>2021-12-18T08:00:45Z</time>
      </trkpt>
      <trkpt lat="45.01462" lon="5.58936">
        <ele>1603.6</ele>
        <time>2021-12-18T08:00:46Z</time>
      </trkpt>
      <trkpt lat="45.0146" lon="5.58936">
        <ele>1603.8</ele>
        <time>2021-12-18T08:00:48Z</time>
      </trkpt>
      <trkpt lat="45.01453" lon="5.58938">
        <ele>1604.8</ele>
        <time>2021-12-18T08:00:55Z</time>
      </trkpt>
      <trkpt lat="45.01445" lon="5.58936">
        <ele>1605.6</ele>
        <time>2021-12-18T08:01:03Z</time>
      </trkpt>
      <trkpt lat="45.01445" lon="5.58936">
        <ele>1605.8</ele>
        <time>2021-12-18T08:01:04Z</time>
      </trkpt>
      <trkpt lat="45.01441" lon="5.58935">
        <ele>1606.8</ele>
        <time>2021-12-18T08:01:09Z</time>
      </trkpt>
      <trkpt lat="45.0144" lon="5.58936">
        <ele>1607</ele>
        <time>2021-12-18T08:01:10Z</time>
      </trkpt>
      <trkpt lat="45.01438" lon="5.58931">
        <ele>1607.2</ele>
        <time>2021-12-18T08:01:14Z</time>
      </trkpt>
      <trkpt lat="45.01438" lon="5.58929">
        <ele>1607.4</ele>
        <time>2021-12-18T08:01:16Z</time>
      </trkpt>
      <trkpt lat="45.01434" lon="5.58925">
        <ele>1608.2</ele>
        <time>2021-12-18T08:01:22Z</time>
      </trkpt>
      <trkpt lat="45.01431" lon="5.58923">
        <ele>1608.6</ele>
        <time>2021-12-18T08:01:25Z</time>
      </trkpt>
      <trkpt lat="45.01428" lon="5.58921">
        <ele>1609.4</ele>
        <time>2021-12-18T08:01:29Z</time>
      </trkpt>
      <trkpt lat="45.01425" lon="5.58919">
        <ele>1610</ele>
        <time>2021-12-18T08:01:34Z</time>
      </trkpt>
      <trkpt lat="45.01424" lon="5.58916">
        <ele>1610.4</ele>
        <time>2021-12-18T08:01:37Z</time>
      </trkpt>
      <trkpt lat="45.01425" lon="5.58916">
        <ele>1610.6</ele>
        <time>2021-12-18T08:01:39Z</time>
      </trkpt>
      <trkpt lat="45.01425" lon="5.58916">
        <ele>1610.6</ele>
        <time>2021-12-18T08:01:40Z</time>
      </trkpt>
      <trkpt lat="45.01425" lon="5.58916">
        <ele>1610.6</ele>
        <time>2021-12-18T08:01:41Z</time>
      </trkpt>
      <trkpt lat="45.01429" lon="5.58918">
        <ele>1610.8</ele>
        <time>2021-12-18T08:01:45Z</time>
      </trkpt>
      <trkpt lat="45.0143" lon="5.58918">
        <ele>1611</ele>
        <time>2021-12-18T08:01:46Z</time>
      </trkpt>
      <trkpt lat="45.01431" lon="5.58919">
        <ele>1611.2</ele>
        <time>2021-12-18T08:01:47Z</time>
      </trkpt>
      <trkpt lat="45.01432" lon="5.58919">
        <ele>1611.6</ele>
        <time>2021-12-18T08:01:48Z</time>
      </trkpt>
      <trkpt lat="45.01436" lon="5.58917">
        <ele>1612.4</ele>
        <time>2021-12-18T08:01:53Z</time>
      </trkpt>
      <trkpt lat="45.01436" lon="5.58917">
        <ele>1612.8</ele>
        <time>2021-12-18T08:01:54Z</time>
      </trkpt>
      <trkpt lat="45.01437" lon="5.58917">
        <ele>1613</ele>
        <time>2021-12-18T08:01:55Z</time>
      </trkpt>
      <trkpt lat="45.01439" lon="5.58917">
        <ele>1613.4</ele>
        <time>2021-12-18T08:01:57Z</time>
      </trkpt>
      <trkpt lat="45.0144" lon="5.58916">
        <ele>1613.4</ele>
        <time>2021-12-18T08:01:58Z</time>
      </trkpt>
      <trkpt lat="45.01441" lon="5.58916">
        <ele>1613.8</ele>
        <time>2021-12-18T08:01:59Z</time>
      </trkpt>
      <trkpt lat="45.01443" lon="5.58916">
        <ele>1614.4</ele>
        <time>2021-12-18T08:02:01Z</time>
      </trkpt>
      <trkpt lat="45.01444" lon="5.58915">
        <ele>1615</ele>
        <time>2021-12-18T08:02:04Z</time>
      </trkpt>
      <trkpt lat="45.01445" lon="5.58914">
        <ele>1615.4</ele>
        <time>2021-12-18T08:02:07Z</time>
      </trkpt>
      <trkpt lat="45.01447" lon="5.58912">
        <ele>1616.2</ele>
        <time>2021-12-18T08:02:10Z</time>
      </trkpt>
      <trkpt lat="45.01448" lon="5.58911">
        <ele>1616.8</ele>
        <time>2021-12-18T08:02:13Z</time>
      </trkpt>
      <trkpt lat="45.01449" lon="5.58911">
        <ele>1617.4</ele>
        <time>2021-12-18T08:02:15Z</time>
      </trkpt>
      <trkpt lat="45.01453" lon="5.58907">
        <ele>1618.4</ele>
        <time>2021-12-18T08:02:22Z</time>
      </trkpt>
      <trkpt lat="45.01454" lon="5.58907">
        <ele>1618.4</ele>
        <time>2021-12-18T08:02:23Z</time>
      </trkpt>
      <trkpt lat="45.01456" lon="5.58905">
        <ele>1619.6</ele>
        <time>2021-12-18T08:02:28Z</time>
      </trkpt>
      <trkpt lat="45.01458" lon="5.58904">
        <ele>1620</ele>
        <time>2021-12-18T08:02:31Z</time>
      </trkpt>
      <trkpt lat="45.01459" lon="5.58905">
        <ele>1620.6</ele>
        <time>2021-12-18T08:02:35Z</time>
      </trkpt>
      <trkpt lat="45.01459" lon="5.58905">
        <ele>1620.8</ele>
        <time>2021-12-18T08:02:36Z</time>
      </trkpt>
      <trkpt lat="45.01459" lon="5.58906">
        <ele>1621</ele>
        <time>2021-12-18T08:02:37Z</time>
      </trkpt>
      <trkpt lat="45.01459" lon="5.58907">
        <ele>1621.2</ele>
        <time>2021-12-18T08:02:44Z</time>
      </trkpt>
      <trkpt lat="45.01459" lon="5.58907">
        <ele>1621.6</ele>
        <time>2021-12-18T08:02:54Z</time>
      </trkpt>
      <trkpt lat="45.01457" lon="5.58906">
        <ele>1622.8</ele>
        <time>2021-12-18T08:02:59Z</time>
      </trkpt>
      <trkpt lat="45.01453" lon="5.58904">
        <ele>1623.6</ele>
        <time>2021-12-18T08:03:03Z</time>
      </trkpt>
      <trkpt lat="45.0145" lon="5.58903">
        <ele>1623.8</ele>
        <time>2021-12-18T08:03:05Z</time>
      </trkpt>
      <trkpt lat="45.01445" lon="5.58901">
        <ele>1624.8</ele>
        <time>2021-12-18T08:03:10Z</time>
      </trkpt>
      <trkpt lat="45.01444" lon="5.58901">
        <ele>1625.2</ele>
        <time>2021-12-18T08:03:11Z</time>
      </trkpt>
      <trkpt lat="45.0144" lon="5.58898">
        <ele>1626.2</ele>
        <time>2021-12-18T08:03:18Z</time>
      </trkpt>
      <trkpt lat="45.0144" lon="5.58897">
        <ele>1626.6</ele>
        <time>2021-12-18T08:03:20Z</time>
      </trkpt>
      <trkpt lat="45.01439" lon="5.58894">
        <ele>1627.4</ele>
        <time>2021-12-18T08:03:23Z</time>
      </trkpt>
      <trkpt lat="45.01437" lon="5.58893">
        <ele>1627.6</ele>
        <time>2021-12-18T08:03:25Z</time>
      </trkpt>
      <trkpt lat="45.01436" lon="5.58892">
        <ele>1627.8</ele>
        <time>2021-12-18T08:03:27Z</time>
      </trkpt>
      <trkpt lat="45.01435" lon="5.58891">
        <ele>1628</ele>
        <time>2021-12-18T08:03:29Z</time>
      </trkpt>
      <trkpt lat="45.01435" lon="5.5889">
        <ele>1628.4</ele>
        <time>2021-12-18T08:03:31Z</time>
      </trkpt>
      <trkpt lat="45.01435" lon="5.5889">
        <ele>1628.4</ele>
        <time>2021-12-18T08:03:32Z</time>
      </trkpt>
      <trkpt lat="45.01436" lon="5.5889">
        <ele>1628.6</ele>
        <time>2021-12-18T08:03:33Z</time>
      </trkpt>
      <trkpt lat="45.01436" lon="5.58889">
        <ele>1628.6</ele>
        <time>2021-12-18T08:03:35Z</time>
      </trkpt>
      <trkpt lat="45.01437" lon="5.58888">
        <ele>1628.8</ele>
        <time>2021-12-18T08:03:41Z</time>
      </trkpt>
      <trkpt lat="45.0144" lon="5.58888">
        <ele>1629.4</ele>
        <time>2021-12-18T08:03:45Z</time>
      </trkpt>
      <trkpt lat="45.01445" lon="5.58885">
        <ele>1630.4</ele>
        <time>2021-12-18T08:03:52Z</time>
      </trkpt>
      <trkpt lat="45.01446" lon="5.58884">
        <ele>1630.6</ele>
        <time>2021-12-18T08:03:53Z</time>
      </trkpt>
      <trkpt lat="45.01449" lon="5.58883">
        <ele>1631.6</ele>
        <time>2021-12-18T08:03:58Z</time>
      </trkpt>
      <trkpt lat="45.01451" lon="5.58882">
        <ele>1631.8</ele>
        <time>2021-12-18T08:04:00Z</time>
      </trkpt>
      <trkpt lat="45.01454" lon="5.5888">
        <ele>1632.6</ele>
        <time>2021-12-18T08:04:05Z</time>
      </trkpt>
      <trkpt lat="45.01454" lon="5.58881">
        <ele>1632.8</ele>
        <time>2021-12-18T08:04:06Z</time>
      </trkpt>
      <trkpt lat="45.01451" lon="5.58882">
        <ele>1633.2</ele>
        <time>2021-12-18T08:04:12Z</time>
      </trkpt>
      <trkpt lat="45.01449" lon="5.58882">
        <ele>1633.6</ele>
        <time>2021-12-18T08:04:15Z</time>
      </trkpt>
      <trkpt lat="45.01447" lon="5.58881">
        <ele>1634.4</ele>
        <time>2021-12-18T08:04:18Z</time>
      </trkpt>
      <trkpt lat="45.01445" lon="5.58881">
        <ele>1634.6</ele>
        <time>2021-12-18T08:04:19Z</time>
      </trkpt>
      <trkpt lat="45.01444" lon="5.58881">
        <ele>1634.8</ele>
        <time>2021-12-18T08:04:21Z</time>
      </trkpt>
      <trkpt lat="45.01442" lon="5.58877">
        <ele>1635.2</ele>
        <time>2021-12-18T08:04:26Z</time>
      </trkpt>
      <trkpt lat="45.01442" lon="5.58876">
        <ele>1635.4</ele>
        <time>2021-12-18T08:04:27Z</time>
      </trkpt>
      <trkpt lat="45.01441" lon="5.58875">
        <ele>1635.8</ele>
        <time>2021-12-18T08:04:29Z</time>
      </trkpt>
      <trkpt lat="45.01441" lon="5.58874">
        <ele>1636</ele>
        <time>2021-12-18T08:04:33Z</time>
      </trkpt>
      <trkpt lat="45.0144" lon="5.58872">
        <ele>1636.6</ele>
        <time>2021-12-18T08:04:38Z</time>
      </trkpt>
      <trkpt lat="45.01438" lon="5.58872">
        <ele>1636.8</ele>
        <time>2021-12-18T08:04:40Z</time>
      </trkpt>
      <trkpt lat="45.01439" lon="5.5887">
        <ele>1637.4</ele>
        <time>2021-12-18T08:04:45Z</time>
      </trkpt>
      <trkpt lat="45.01442" lon="5.5887">
        <ele>1637.8</ele>
        <time>2021-12-18T08:04:49Z</time>
      </trkpt>
      <trkpt lat="45.01445" lon="5.58869">
        <ele>1638.6</ele>
        <time>2021-12-18T08:04:53Z</time>
      </trkpt>
      <trkpt lat="45.01446" lon="5.58868">
        <ele>1638.8</ele>
        <time>2021-12-18T08:04:54Z</time>
      </trkpt>
      <trkpt lat="45.01449" lon="5.58867">
        <ele>1639.2</ele>
        <time>2021-12-18T08:04:58Z</time>
      </trkpt>
      <trkpt lat="45.01451" lon="5.58866">
        <ele>1639.6</ele>
        <time>2021-12-18T08:05:00Z</time>
      </trkpt>
      <trkpt lat="45.01453" lon="5.58865">
        <ele>1640</ele>
        <time>2021-12-18T08:05:03Z</time>
      </trkpt>
      <trkpt lat="45.01455" lon="5.58864">
        <ele>1640.4</ele>
        <time>2021-12-18T08:05:06Z</time>
      </trkpt>
      <trkpt lat="45.01455" lon="5.58865">
        <ele>1640.6</ele>
        <time>2021-12-18T08:05:08Z</time>
      </trkpt>
      <trkpt lat="45.01454" lon="5.58863">
        <ele>1641.2</ele>
        <time>2021-12-18T08:05:12Z</time>
      </trkpt>
      <trkpt lat="45.01452" lon="5.58863">
        <ele>1641.6</ele>
        <time>2021-12-18T08:05:14Z</time>
      </trkpt>
      <trkpt lat="45.01448" lon="5.58858">
        <ele>1642.2</ele>
        <time>2021-12-18T08:05:20Z</time>
      </trkpt>
      <trkpt lat="45.01447" lon="5.58856">
        <ele>1642.8</ele>
        <time>2021-12-18T08:05:22Z</time>
      </trkpt>
      <trkpt lat="45.01445" lon="5.58855">
        <ele>1643.4</ele>
        <time>2021-12-18T08:05:27Z</time>
      </trkpt>
      <trkpt lat="45.01444" lon="5.58854">
        <ele>1643.6</ele>
        <time>2021-12-18T08:05:29Z</time>
      </trkpt>
      <trkpt lat="45.01445" lon="5.58855">
        <ele>1643.8</ele>
        <time>2021-12-18T08:05:31Z</time>
      </trkpt>
      <trkpt lat="45.01446" lon="5.58855">
        <ele>1644</ele>
        <time>2021-12-18T08:05:33Z</time>
      </trkpt>
      <trkpt lat="45.01447" lon="5.58855">
        <ele>1644.2</ele>
        <time>2021-12-18T08:05:35Z</time>
      </trkpt>
      <trkpt lat="45.01446" lon="5.58855">
        <ele>1644.4</ele>
        <time>2021-12-18T08:05:36Z</time>
      </trkpt>
      <trkpt lat="45.01447" lon="5.58855">
        <ele>1644.6</ele>
        <time>2021-12-18T08:05:37Z</time>
      </trkpt>
      <trkpt lat="45.01448" lon="5.58855">
        <ele>1644.8</ele>
        <time>2021-12-18T08:05:39Z</time>
      </trkpt>
      <trkpt lat="45.01449" lon="5.58855">
        <ele>1645</ele>
        <time>2021-12-18T08:05:41Z</time>
      </trkpt>
      <trkpt lat="45.0145" lon="5.58855">
        <ele>1645.2</ele>
        <time>2021-12-18T08:05:42Z</time>
      </trkpt>
      <trkpt lat="45.01452" lon="5.58854">
        <ele>1645.6</ele>
        <time>2021-12-18T08:05:44Z</time>
      </trkpt>
      <trkpt lat="45.01452" lon="5.58854">
        <ele>1645.8</ele>
        <time>2021-12-18T08:05:46Z</time>
      </trkpt>
      <trkpt lat="45.01452" lon="5.58854">
        <ele>1646</ele>
        <time>2021-12-18T08:05:47Z</time>
      </trkpt>
      <trkpt lat="45.01451" lon="5.58854">
        <ele>1646.4</ele>
        <time>2021-12-18T08:05:50Z</time>
      </trkpt>
      <trkpt lat="45.01449" lon="5.58853">
        <ele>1646.6</ele>
        <time>2021-12-18T08:05:52Z</time>
      </trkpt>
      <trkpt lat="45.01448" lon="5.58851">
        <ele>1647</ele>
        <time>2021-12-18T08:05:54Z</time>
      </trkpt>
      <trkpt lat="45.01445" lon="5.58848">
        <ele>1647.6</ele>
        <time>2021-12-18T08:05:59Z</time>
      </trkpt>
      <trkpt lat="45.01443" lon="5.58848">
        <ele>1647.8</ele>
        <time>2021-12-18T08:06:01Z</time>
      </trkpt>
      <trkpt lat="45.01442" lon="5.58845">
        <ele>1648.6</ele>
        <time>2021-12-18T08:06:06Z</time>
      </trkpt>
      <trkpt lat="45.01442" lon="5.58845">
        <ele>1648.8</ele>
        <time>2021-12-18T08:06:07Z</time>
      </trkpt>
      <trkpt lat="45.01444" lon="5.58843">
        <ele>1649.4</ele>
        <time>2021-12-18T08:06:11Z</time>
      </trkpt>
      <trkpt lat="45.01445" lon="5.58843">
        <ele>1649.6</ele>
        <time>2021-12-18T08:06:14Z</time>
      </trkpt>
      <trkpt lat="45.01446" lon="5.58844">
        <ele>1649.8</ele>
        <time>2021-12-18T08:06:16Z</time>
      </trkpt>
      <trkpt lat="45.01453" lon="5.58841">
        <ele>1650.8</ele>
        <time>2021-12-18T08:06:23Z</time>
      </trkpt>
      <trkpt lat="45.01454" lon="5.58841">
        <ele>1651.4</ele>
        <time>2021-12-18T08:06:25Z</time>
      </trkpt>
      <trkpt lat="45.01455" lon="5.58841">
        <ele>1651.6</ele>
        <time>2021-12-18T08:06:27Z</time>
      </trkpt>
      <trkpt lat="45.01455" lon="5.58841">
        <ele>1651.8</ele>
        <time>2021-12-18T08:06:29Z</time>
      </trkpt>
      <trkpt lat="45.01451" lon="5.58842">
        <ele>1652.6</ele>
        <time>2021-12-18T08:06:35Z</time>
      </trkpt>
      <trkpt lat="45.0145" lon="5.58842">
        <ele>1652.8</ele>
        <time>2021-12-18T08:06:36Z</time>
      </trkpt>
      <trkpt lat="45.01447" lon="5.5884">
        <ele>1653.8</ele>
        <time>2021-12-18T08:06:41Z</time>
      </trkpt>
      <trkpt lat="45.01446" lon="5.58839">
        <ele>1654</ele>
        <time>2021-12-18T08:06:42Z</time>
      </trkpt>
      <trkpt lat="45.01441" lon="5.58838">
        <ele>1654.8</ele>
        <time>2021-12-18T08:06:47Z</time>
      </trkpt>
      <trkpt lat="45.01441" lon="5.58837">
        <ele>1655</ele>
        <time>2021-12-18T08:06:48Z</time>
      </trkpt>
      <trkpt lat="45.0144" lon="5.58837">
        <ele>1655.2</ele>
        <time>2021-12-18T08:06:49Z</time>
      </trkpt>
      <trkpt lat="45.0144" lon="5.58837">
        <ele>1655.4</ele>
        <time>2021-12-18T08:06:53Z</time>
      </trkpt>
      <trkpt lat="45.01444" lon="5.58834">
        <ele>1655.8</ele>
        <time>2021-12-18T08:06:59Z</time>
      </trkpt>
      <trkpt lat="45.01446" lon="5.58833">
        <ele>1656.2</ele>
        <time>2021-12-18T08:07:02Z</time>
      </trkpt>
      <trkpt lat="45.01449" lon="5.58832">
        <ele>1656.8</ele>
        <time>2021-12-18T08:07:06Z</time>
      </trkpt>
      <trkpt lat="45.01451" lon="5.58832">
        <ele>1657.2</ele>
        <time>2021-12-18T08:07:09Z</time>
      </trkpt>
      <trkpt lat="45.01454" lon="5.58831">
        <ele>1657.8</ele>
        <time>2021-12-18T08:07:13Z</time>
      </trkpt>
      <trkpt lat="45.01456" lon="5.58831">
        <ele>1658.4</ele>
        <time>2021-12-18T08:07:16Z</time>
      </trkpt>
      <trkpt lat="45.01457" lon="5.58829">
        <ele>1659.4</ele>
        <time>2021-12-18T08:07:20Z</time>
      </trkpt>
      <trkpt lat="45.01457" lon="5.58829">
        <ele>1659.6</ele>
        <time>2021-12-18T08:07:21Z</time>
      </trkpt>
      <trkpt lat="45.01455" lon="5.58826">
        <ele>1660.4</ele>
        <time>2021-12-18T08:07:28Z</time>
      </trkpt>
      <trkpt lat="45.01449" lon="5.58823">
        <ele>1661.4</ele>
        <time>2021-12-18T08:07:36Z</time>
      </trkpt>
      <trkpt lat="45.01449" lon="5.58823">
        <ele>1661.8</ele>
        <time>2021-12-18T08:07:37Z</time>
      </trkpt>
      <trkpt lat="45.01445" lon="5.58822">
        <ele>1662.8</ele>
        <time>2021-12-18T08:07:44Z</time>
      </trkpt>
      <trkpt lat="45.01444" lon="5.58821">
        <ele>1663</ele>
        <time>2021-12-18T08:07:50Z</time>
      </trkpt>
      <trkpt lat="45.01442" lon="5.58818">
        <ele>1662.8</ele>
        <time>2021-12-18T08:07:57Z</time>
      </trkpt>
      <trkpt lat="45.01441" lon="5.58819">
        <ele>1662.8</ele>
        <time>2021-12-18T08:08:03Z</time>
      </trkpt>
      <trkpt lat="45.01441" lon="5.58819">
        <ele>1662.6</ele>
        <time>2021-12-18T08:08:11Z</time>
      </trkpt>
      <trkpt lat="45.01441" lon="5.58819">
        <ele>1662.6</ele>
        <time>2021-12-18T08:08:12Z</time>
      </trkpt>
      <trkpt lat="45.0144" lon="5.5882">
        <ele>1662.6</ele>
        <time>2021-12-18T08:08:20Z</time>
      </trkpt>
      <trkpt lat="45.0144" lon="5.58825">
        <ele>1662.2</ele>
        <time>2021-12-18T08:08:57Z</time>
      </trkpt>
      <trkpt lat="45.0144" lon="5.58825">
        <ele>1662.2</ele>
        <time>2021-12-18T08:08:59Z</time>
      </trkpt>
      <trkpt lat="45.0144" lon="5.58825">
        <ele>1662.2</ele>
        <time>2021-12-18T08:09:04Z</time>
      </trkpt>
      <trkpt lat="45.0144" lon="5.58825">
        <ele>1662.2</ele>
        <time>2021-12-18T08:09:16Z</time>
      </trkpt>
      <trkpt lat="45.0144" lon="5.58825">
        <ele>1662.4</ele>
        <time>2021-12-18T08:09:21Z</time>
      </trkpt>
      <trkpt lat="45.01441" lon="5.58827">
        <ele>1662.6</ele>
        <time>2021-12-18T08:09:36Z</time>
      </trkpt>
      <trkpt lat="45.01441" lon="5.58827">
        <ele>1662.6</ele>
        <time>2021-12-18T08:09:37Z</time>
      </trkpt>
      <trkpt lat="45.01441" lon="5.58829">
        <ele>1662.6</ele>
        <time>2021-12-18T08:09:43Z</time>
      </trkpt>
      <trkpt lat="45.01442" lon="5.58829">
        <ele>1662.6</ele>
        <time>2021-12-18T08:09:59Z</time>
      </trkpt>
      <trkpt lat="45.01442" lon="5.58829">
        <ele>1662.6</ele>
        <time>2021-12-18T08:10:01Z</time>
      </trkpt>
      <trkpt lat="45.01442" lon="5.58829">
        <ele>1662.6</ele>
        <time>2021-12-18T08:10:02Z</time>
      </trkpt>
      <trkpt lat="45.01442" lon="5.5883">
        <ele>1662.6</ele>
        <time>2021-12-18T08:10:04Z</time>
      </trkpt>
      <trkpt lat="45.01442" lon="5.5883">
        <ele>1662.6</ele>
        <time>2021-12-18T08:10:05Z</time>
      </trkpt>
      <trkpt lat="45.01443" lon="5.58833">
        <ele>1662.6</ele>
        <time>2021-12-18T08:10:27Z</time>
      </trkpt>
      <trkpt lat="45.01443" lon="5.58834">
        <ele>1662.6</ele>
        <time>2021-12-18T08:10:36Z</time>
      </trkpt>
      <trkpt lat="45.01443" lon="5.58835">
        <ele>1662.6</ele>
        <time>2021-12-18T08:10:39Z</time>
      </trkpt>
      <trkpt lat="45.0144" lon="5.58842">
        <ele>1662.6</ele>
        <time>2021-12-18T08:10:44Z</time>
      </trkpt>
      <trkpt lat="45.01439" lon="5.58843">
        <ele>1662.6</ele>
        <time>2021-12-18T08:10:48Z</time>
      </trkpt>
      <trkpt lat="45.0144" lon="5.58841">
        <ele>1662.6</ele>
        <time>2021-12-18T08:10:50Z</time>
      </trkpt>
      <trkpt lat="45.0144" lon="5.58839">
        <ele>1662.6</ele>
        <time>2021-12-18T08:10:58Z</time>
      </trkpt>
      <trkpt lat="45.0144" lon="5.58839">
        <ele>1662.6</ele>
        <time>2021-12-18T08:10:59Z</time>
      </trkpt>
      <trkpt lat="45.0144" lon="5.58839">
        <ele>1662.6</ele>
        <time>2021-12-18T08:11:16Z</time>
      </trkpt>
      <trkpt lat="45.0144" lon="5.58839">
        <ele>1662.6</ele>
        <time>2021-12-18T08:11:26Z</time>
      </trkpt>
      <trkpt lat="45.01442" lon="5.58834">
        <ele>1662.6</ele>
        <time>2021-12-18T08:11:45Z</time>
      </trkpt>
      <trkpt lat="45.01443" lon="5.58832">
        <ele>1662.6</ele>
        <time>2021-12-18T08:11:46Z</time>
      </trkpt>
      <trkpt lat="45.01443" lon="5.58826">
        <ele>1662.8</ele>
        <time>2021-12-18T08:11:51Z</time>
      </trkpt>
      <trkpt lat="45.01445" lon="5.58819">
        <ele>1663.8</ele>
        <time>2021-12-18T08:11:56Z</time>
      </trkpt>
      <trkpt lat="45.01448" lon="5.58816">
        <ele>1664</ele>
        <time>2021-12-18T08:11:57Z</time>
      </trkpt>
      <trkpt lat="45.01452" lon="5.58808">
        <ele>1664.4</ele>
        <time>2021-12-18T08:11:59Z</time>
      </trkpt>
      <trkpt lat="45.01451" lon="5.58807">
        <ele>1664.6</ele>
        <time>2021-12-18T08:12:01Z</time>
      </trkpt>
      <trkpt lat="45.0145" lon="5.58809">
        <ele>1664.8</ele>
        <time>2021-12-18T08:12:02Z</time>
      </trkpt>
      <trkpt lat="45.01451" lon="5.58809">
        <ele>1665</ele>
        <time>2021-12-18T08:12:03Z</time>
      </trkpt>
      <trkpt lat="45.01452" lon="5.58807">
        <ele>1666</ele>
        <time>2021-12-18T08:12:09Z</time>
      </trkpt>
      <trkpt lat="45.01452" lon="5.58806">
        <ele>1666.2</ele>
        <time>2021-12-18T08:12:11Z</time>
      </trkpt>
      <trkpt lat="45.01451" lon="5.58803">
        <ele>1667.4</ele>
        <time>2021-12-18T08:12:15Z</time>
      </trkpt>
      <trkpt lat="45.0145" lon="5.58803">
        <ele>1668</ele>
        <time>2021-12-18T08:12:19Z</time>
      </trkpt>
      <trkpt lat="45.01449" lon="5.58803">
        <ele>1668.4</ele>
        <time>2021-12-18T08:12:21Z</time>
      </trkpt>
      <trkpt lat="45.01449" lon="5.58801">
        <ele>1669.2</ele>
        <time>2021-12-18T08:12:24Z</time>
      </trkpt>
      <trkpt lat="45.01449" lon="5.58801">
        <ele>1669.4</ele>
        <time>2021-12-18T08:12:26Z</time>
      </trkpt>
      <trkpt lat="45.0145" lon="5.58801">
        <ele>1670.6</ele>
        <time>2021-12-18T08:12:32Z</time>
      </trkpt>
      <trkpt lat="45.0145" lon="5.58801">
        <ele>1670.8</ele>
        <time>2021-12-18T08:12:33Z</time>
      </trkpt>
      <trkpt lat="45.01449" lon="5.58801">
        <ele>1671.4</ele>
        <time>2021-12-18T08:12:39Z</time>
      </trkpt>
      <trkpt lat="45.01449" lon="5.588">
        <ele>1671.6</ele>
        <time>2021-12-18T08:12:40Z</time>
      </trkpt>
      <trkpt lat="45.01448" lon="5.58795">
        <ele>1673</ele>
        <time>2021-12-18T08:12:46Z</time>
      </trkpt>
      <trkpt lat="45.01448" lon="5.58795">
        <ele>1673.2</ele>
        <time>2021-12-18T08:12:47Z</time>
      </trkpt>
      <trkpt lat="45.01448" lon="5.58794">
        <ele>1674.2</ele>
        <time>2021-12-18T08:12:51Z</time>
      </trkpt>
      <trkpt lat="45.01449" lon="5.58794">
        <ele>1674.8</ele>
        <time>2021-12-18T08:12:54Z</time>
      </trkpt>
      <trkpt lat="45.01448" lon="5.58792">
        <ele>1675.2</ele>
        <time>2021-12-18T08:12:56Z</time>
      </trkpt>
      <trkpt lat="45.01447" lon="5.58791">
        <ele>1676.2</ele>
        <time>2021-12-18T08:13:00Z</time>
      </trkpt>
      <trkpt lat="45.01447" lon="5.58791">
        <ele>1676.4</ele>
        <time>2021-12-18T08:13:01Z</time>
      </trkpt>
      <trkpt lat="45.01446" lon="5.5879">
        <ele>1676.8</ele>
        <time>2021-12-18T08:13:03Z</time>
      </trkpt>
      <trkpt lat="45.01446" lon="5.58789">
        <ele>1676.8</ele>
        <time>2021-12-18T08:13:04Z</time>
      </trkpt>
      <trkpt lat="45.01447" lon="5.58787">
        <ele>1677.6</ele>
        <time>2021-12-18T08:13:07Z</time>
      </trkpt>
      <trkpt lat="45.01448" lon="5.58783">
        <ele>1678.8</ele>
        <time>2021-12-18T08:13:13Z</time>
      </trkpt>
      <trkpt lat="45.01449" lon="5.58783">
        <ele>1679.4</ele>
        <time>2021-12-18T08:13:15Z</time>
      </trkpt>
      <trkpt lat="45.0145" lon="5.58781">
        <ele>1679.8</ele>
        <time>2021-12-18T08:13:18Z</time>
      </trkpt>
      <trkpt lat="45.0145" lon="5.58781">
        <ele>1680.6</ele>
        <time>2021-12-18T08:13:22Z</time>
      </trkpt>
      <trkpt lat="45.0145" lon="5.5878">
        <ele>1680.8</ele>
        <time>2021-12-18T08:13:23Z</time>
      </trkpt>
      <trkpt lat="45.01447" lon="5.58776">
        <ele>1681.8</ele>
        <time>2021-12-18T08:13:30Z</time>
      </trkpt>
      <trkpt lat="45.01447" lon="5.58776">
        <ele>1683.2</ele>
        <time>2021-12-18T08:13:35Z</time>
      </trkpt>
      <trkpt lat="45.01447" lon="5.58776">
        <ele>1683.6</ele>
        <time>2021-12-18T08:13:37Z</time>
      </trkpt>
      <trkpt lat="45.01447" lon="5.58776">
        <ele>1684.2</ele>
        <time>2021-12-18T08:13:40Z</time>
      </trkpt>
      <trkpt lat="45.01447" lon="5.58776">
        <ele>1685.2</ele>
        <time>2021-12-18T08:13:45Z</time>
      </trkpt>
      <trkpt lat="45.01447" lon="5.58776">
        <ele>1685.2</ele>
        <time>2021-12-18T08:13:46Z</time>
      </trkpt>
      <trkpt lat="45.01446" lon="5.58775">
        <ele>1686.2</ele>
        <time>2021-12-18T08:13:51Z</time>
      </trkpt>
      <trkpt lat="45.01445" lon="5.58773">
        <ele>1687.2</ele>
        <time>2021-12-18T08:13:57Z</time>
      </trkpt>
      <trkpt lat="45.01445" lon="5.58772">
        <ele>1687.4</ele>
        <time>2021-12-18T08:13:58Z</time>
      </trkpt>
      <trkpt lat="45.01445" lon="5.58769">
        <ele>1688.4</ele>
        <time>2021-12-18T08:14:04Z</time>
      </trkpt>
      <trkpt lat="45.01445" lon="5.58768">
        <ele>1689.6</ele>
        <time>2021-12-18T08:14:10Z</time>
      </trkpt>
      <trkpt lat="45.01447" lon="5.58764">
        <ele>1690.4</ele>
        <time>2021-12-18T08:14:15Z</time>
      </trkpt>
      <trkpt lat="45.01447" lon="5.58763">
        <ele>1690.8</ele>
        <time>2021-12-18T08:14:16Z</time>
      </trkpt>
      <trkpt lat="45.01448" lon="5.58762">
        <ele>1691.8</ele>
        <time>2021-12-18T08:14:24Z</time>
      </trkpt>
      <trkpt lat="45.01449" lon="5.58758">
        <ele>1692.6</ele>
        <time>2021-12-18T08:14:30Z</time>
      </trkpt>
      <trkpt lat="45.0145" lon="5.58757">
        <ele>1693</ele>
        <time>2021-12-18T08:14:32Z</time>
      </trkpt>
      <trkpt lat="45.0145" lon="5.58756">
        <ele>1694.2</ele>
        <time>2021-12-18T08:14:38Z</time>
      </trkpt>
      <trkpt lat="45.0145" lon="5.58755">
        <ele>1695.2</ele>
        <time>2021-12-18T08:14:43Z</time>
      </trkpt>
      <trkpt lat="45.01451" lon="5.58753">
        <ele>1696.4</ele>
        <time>2021-12-18T08:14:47Z</time>
      </trkpt>
      <trkpt lat="45.01451" lon="5.58751">
        <ele>1697.4</ele>
        <time>2021-12-18T08:14:53Z</time>
      </trkpt>
      <trkpt lat="45.01452" lon="5.58751">
        <ele>1698.4</ele>
        <time>2021-12-18T08:14:58Z</time>
      </trkpt>
      <trkpt lat="45.01453" lon="5.5875">
        <ele>1699.4</ele>
        <time>2021-12-18T08:15:02Z</time>
      </trkpt>
      <trkpt lat="45.01453" lon="5.5875">
        <ele>1699.6</ele>
        <time>2021-12-18T08:15:03Z</time>
      </trkpt>
      <trkpt lat="45.01453" lon="5.58748">
        <ele>1700.6</ele>
        <time>2021-12-18T08:15:09Z</time>
      </trkpt>
      <trkpt lat="45.01453" lon="5.58748">
        <ele>1700.8</ele>
        <time>2021-12-18T08:15:10Z</time>
      </trkpt>
      <trkpt lat="45.01452" lon="5.58746">
        <ele>1701.8</ele>
        <time>2021-12-18T08:15:16Z</time>
      </trkpt>
      <trkpt lat="45.01452" lon="5.58745">
        <ele>1703</ele>
        <time>2021-12-18T08:15:21Z</time>
      </trkpt>
      <trkpt lat="45.01451" lon="5.58743">
        <ele>1704.2</ele>
        <time>2021-12-18T08:15:27Z</time>
      </trkpt>
      <trkpt lat="45.0145" lon="5.58737">
        <ele>1705.2</ele>
        <time>2021-12-18T08:15:37Z</time>
      </trkpt>
      <trkpt lat="45.01449" lon="5.58735">
        <ele>1706.2</ele>
        <time>2021-12-18T08:15:43Z</time>
      </trkpt>
      <trkpt lat="45.01449" lon="5.58731">
        <ele>1707.4</ele>
        <time>2021-12-18T08:15:49Z</time>
      </trkpt>
      <trkpt lat="45.0145" lon="5.58727">
        <ele>1708.4</ele>
        <time>2021-12-18T08:15:55Z</time>
      </trkpt>
      <trkpt lat="45.01449" lon="5.58725">
        <ele>1709</ele>
        <time>2021-12-18T08:15:58Z</time>
      </trkpt>
      <trkpt lat="45.01451" lon="5.5872">
        <ele>1709.6</ele>
        <time>2021-12-18T08:16:02Z</time>
      </trkpt>
      <trkpt lat="45.01454" lon="5.58714">
        <ele>1710.6</ele>
        <time>2021-12-18T08:16:07Z</time>
      </trkpt>
      <trkpt lat="45.01454" lon="5.58715">
        <ele>1710.6</ele>
        <time>2021-12-18T08:16:08Z</time>
      </trkpt>
      <trkpt lat="45.01452" lon="5.58716">
        <ele>1711.6</ele>
        <time>2021-12-18T08:16:13Z</time>
      </trkpt>
      <trkpt lat="45.0145" lon="5.58718">
        <ele>1712.8</ele>
        <time>2021-12-18T08:16:18Z</time>
      </trkpt>
      <trkpt lat="45.0145" lon="5.58718">
        <ele>1713.8</ele>
        <time>2021-12-18T08:16:24Z</time>
      </trkpt>
      <trkpt lat="45.0145" lon="5.58715">
        <ele>1715</ele>
        <time>2021-12-18T08:16:30Z</time>
      </trkpt>
      <trkpt lat="45.01451" lon="5.58715">
        <ele>1715.6</ele>
        <time>2021-12-18T08:16:32Z</time>
      </trkpt>
      <trkpt lat="45.01451" lon="5.58716">
        <ele>1716.2</ele>
        <time>2021-12-18T08:16:35Z</time>
      </trkpt>
      <trkpt lat="45.0145" lon="5.58714">
        <ele>1716.8</ele>
        <time>2021-12-18T08:16:38Z</time>
      </trkpt>
      <trkpt lat="45.0145" lon="5.58715">
        <ele>1717.2</ele>
        <time>2021-12-18T08:16:40Z</time>
      </trkpt>
      <trkpt lat="45.01451" lon="5.58715">
        <ele>1717.8</ele>
        <time>2021-12-18T08:16:45Z</time>
      </trkpt>
      <trkpt lat="45.01451" lon="5.58714">
        <ele>1718.2</ele>
        <time>2021-12-18T08:16:47Z</time>
      </trkpt>
      <trkpt lat="45.0145" lon="5.58713">
        <ele>1719.4</ele>
        <time>2021-12-18T08:16:53Z</time>
      </trkpt>
      <trkpt lat="45.0145" lon="5.58712">
        <ele>1719.6</ele>
        <time>2021-12-18T08:16:54Z</time>
      </trkpt>
      <trkpt lat="45.01448" lon="5.58711">
        <ele>1720.4</ele>
        <time>2021-12-18T08:17:01Z</time>
      </trkpt>
      <trkpt lat="45.01448" lon="5.58712">
        <ele>1721.6</ele>
        <time>2021-12-18T08:17:05Z</time>
      </trkpt>
      <trkpt lat="45.01448" lon="5.58711">
        <ele>1722</ele>
        <time>2021-12-18T08:17:07Z</time>
      </trkpt>
      <trkpt lat="45.01449" lon="5.5871">
        <ele>1722.8</ele>
        <time>2021-12-18T08:17:11Z</time>
      </trkpt>
      <trkpt lat="45.01449" lon="5.5871">
        <ele>1723</ele>
        <time>2021-12-18T08:17:12Z</time>
      </trkpt>
      <trkpt lat="45.01449" lon="5.5871">
        <ele>1723.8</ele>
        <time>2021-12-18T08:17:16Z</time>
      </trkpt>
      <trkpt lat="45.01449" lon="5.5871">
        <ele>1724.4</ele>
        <time>2021-12-18T08:17:19Z</time>
      </trkpt>
      <trkpt lat="45.01449" lon="5.5871">
        <ele>1725</ele>
        <time>2021-12-18T08:17:24Z</time>
      </trkpt>
      <trkpt lat="45.01449" lon="5.58709">
        <ele>1726.2</ele>
        <time>2021-12-18T08:17:30Z</time>
      </trkpt>
      <trkpt lat="45.0145" lon="5.58708">
        <ele>1727.4</ele>
        <time>2021-12-18T08:17:36Z</time>
      </trkpt>
      <trkpt lat="45.01451" lon="5.58708">
        <ele>1728.4</ele>
        <time>2021-12-18T08:17:41Z</time>
      </trkpt>
      <trkpt lat="45.01451" lon="5.58707">
        <ele>1729.4</ele>
        <time>2021-12-18T08:17:47Z</time>
      </trkpt>
      <trkpt lat="45.01452" lon="5.58704">
        <ele>1730.4</ele>
        <time>2021-12-18T08:17:52Z</time>
      </trkpt>
      <trkpt lat="45.01453" lon="5.58703">
        <ele>1731.4</ele>
        <time>2021-12-18T08:17:57Z</time>
      </trkpt>
      <trkpt lat="45.01453" lon="5.58702">
        <ele>1731.8</ele>
        <time>2021-12-18T08:17:59Z</time>
      </trkpt>
      <trkpt lat="45.01453" lon="5.58702">
        <ele>1732.6</ele>
        <time>2021-12-18T08:18:03Z</time>
      </trkpt>
      <trkpt lat="45.01454" lon="5.58701">
        <ele>1733.6</ele>
        <time>2021-12-18T08:18:08Z</time>
      </trkpt>
      <trkpt lat="45.01455" lon="5.58699">
        <ele>1734.8</ele>
        <time>2021-12-18T08:18:19Z</time>
      </trkpt>
      <trkpt lat="45.01455" lon="5.58696">
        <ele>1735.8</ele>
        <time>2021-12-18T08:18:28Z</time>
      </trkpt>
      <trkpt lat="45.0145" lon="5.58692">
        <ele>1735.8</ele>
        <time>2021-12-18T08:18:44Z</time>
      </trkpt>
      <trkpt lat="45.0145" lon="5.58692">
        <ele>1736</ele>
        <time>2021-12-18T08:18:48Z</time>
      </trkpt>
      <trkpt lat="45.0145" lon="5.58691">
        <ele>1736.2</ele>
        <time>2021-12-18T08:18:52Z</time>
      </trkpt>
      <trkpt lat="45.0145" lon="5.58691">
        <ele>1736.6</ele>
        <time>2021-12-18T08:18:56Z</time>
      </trkpt>
      <trkpt lat="45.0145" lon="5.58691">
        <ele>1737</ele>
        <time>2021-12-18T08:18:57Z</time>
      </trkpt>
      <trkpt lat="45.0145" lon="5.5869">
        <ele>1737.6</ele>
        <time>2021-12-18T08:19:07Z</time>
      </trkpt>
      <trkpt lat="45.0145" lon="5.5869">
        <ele>1737.8</ele>
        <time>2021-12-18T08:19:09Z</time>
      </trkpt>
      <trkpt lat="45.0145" lon="5.58689">
        <ele>1738</ele>
        <time>2021-12-18T08:19:12Z</time>
      </trkpt>
      <trkpt lat="45.0145" lon="5.58688">
        <ele>1737.8</ele>
        <time>2021-12-18T08:19:23Z</time>
      </trkpt>
      <trkpt lat="45.01448" lon="5.5869">
        <ele>1737.4</ele>
        <time>2021-12-18T08:19:42Z</time>
      </trkpt>
      <trkpt lat="45.01447" lon="5.58688">
        <ele>1737.6</ele>
        <time>2021-12-18T08:19:45Z</time>
      </trkpt>
      <trkpt lat="45.01445" lon="5.58687">
        <ele>1737.6</ele>
        <time>2021-12-18T08:19:46Z</time>
      </trkpt>
      <trkpt lat="45.01447" lon="5.58683">
        <ele>1737.6</ele>
        <time>2021-12-18T08:19:51Z</time>
      </trkpt>
      <trkpt lat="45.01448" lon="5.58686">
        <ele>1737.6</ele>
        <time>2021-12-18T08:19:55Z</time>
      </trkpt>
      <trkpt lat="45.0145" lon="5.58682">
        <ele>1737.6</ele>
        <time>2021-12-18T08:20:02Z</time>
      </trkpt>
      <trkpt lat="45.0145" lon="5.58679">
        <ele>1737.8</ele>
        <time>2021-12-18T08:20:08Z</time>
      </trkpt>
      <trkpt lat="45.01449" lon="5.58685">
        <ele>1737.8</ele>
        <time>2021-12-18T08:20:12Z</time>
      </trkpt>
      <trkpt lat="45.01449" lon="5.58687">
        <ele>1737.8</ele>
        <time>2021-12-18T08:20:22Z</time>
      </trkpt>
      <trkpt lat="45.01452" lon="5.58687">
        <ele>1737.8</ele>
        <time>2021-12-18T08:20:26Z</time>
      </trkpt>
      <trkpt lat="45.01452" lon="5.58686">
        <ele>1737.8</ele>
        <time>2021-12-18T08:20:28Z</time>
      </trkpt>
      <trkpt lat="45.01448" lon="5.58685">
        <ele>1737.6</ele>
        <time>2021-12-18T08:20:34Z</time>
      </trkpt>
      <trkpt lat="45.01448" lon="5.58685">
        <ele>1737.6</ele>
        <time>2021-12-18T08:20:35Z</time>
      </trkpt>
      <trkpt lat="45.01447" lon="5.58684">
        <ele>1737.6</ele>
        <time>2021-12-18T08:20:37Z</time>
      </trkpt>
      <trkpt lat="45.01448" lon="5.58685">
        <ele>1737.4</ele>
        <time>2021-12-18T08:20:38Z</time>
      </trkpt>
      <trkpt lat="45.01448" lon="5.58686">
        <ele>1737.4</ele>
        <time>2021-12-18T08:20:41Z</time>
      </trkpt>
      <trkpt lat="45.01443" lon="5.58691">
        <ele>1737.2</ele>
        <time>2021-12-18T08:20:46Z</time>
      </trkpt>
      <trkpt lat="45.01444" lon="5.58695">
        <ele>1737.4</ele>
        <time>2021-12-18T08:20:51Z</time>
      </trkpt>
      <trkpt lat="45.01444" lon="5.58694">
        <ele>1737.4</ele>
        <time>2021-12-18T08:20:57Z</time>
      </trkpt>
      <trkpt lat="45.01443" lon="5.58695">
        <ele>1737.6</ele>
        <time>2021-12-18T08:21:02Z</time>
      </trkpt>
      <trkpt lat="45.01444" lon="5.58695">
        <ele>1738</ele>
        <time>2021-12-18T08:21:11Z</time>
      </trkpt>
      <trkpt lat="45.01449" lon="5.58693">
        <ele>1737.6</ele>
        <time>2021-12-18T08:21:19Z</time>
      </trkpt>
      <trkpt lat="45.01451" lon="5.58693">
        <ele>1737.8</ele>
        <time>2021-12-18T08:21:23Z</time>
      </trkpt>
      <trkpt lat="45.01451" lon="5.58692">
        <ele>1737.8</ele>
        <time>2021-12-18T08:21:25Z</time>
      </trkpt>
      <trkpt lat="45.01451" lon="5.58689">
        <ele>1738</ele>
        <time>2021-12-18T08:21:31Z</time>
      </trkpt>
      <trkpt lat="45.01451" lon="5.58689">
        <ele>1738</ele>
        <time>2021-12-18T08:21:33Z</time>
      </trkpt>
      <trkpt lat="45.0145" lon="5.58694">
        <ele>1738.4</ele>
        <time>2021-12-18T08:21:51Z</time>
      </trkpt>
      <trkpt lat="45.0145" lon="5.58692">
        <ele>1738.6</ele>
        <time>2021-12-18T08:21:57Z</time>
      </trkpt>
      <trkpt lat="45.01451" lon="5.58692">
        <ele>1739.2</ele>
        <time>2021-12-18T08:21:59Z</time>
      </trkpt>
      <trkpt lat="45.0145" lon="5.58694">
        <ele>1740</ele>
        <time>2021-12-18T08:22:02Z</time>
      </trkpt>
      <trkpt lat="45.0145" lon="5.58696">
        <ele>1740.2</ele>
        <time>2021-12-18T08:22:04Z</time>
      </trkpt>
      <trkpt lat="45.0145" lon="5.58697">
        <ele>1740.2</ele>
        <time>2021-12-18T08:22:05Z</time>
      </trkpt>
      <trkpt lat="45.01448" lon="5.58698">
        <ele>1741.4</ele>
        <time>2021-12-18T08:22:09Z</time>
      </trkpt>
      <trkpt lat="45.01448" lon="5.58696">
        <ele>1742.4</ele>
        <time>2021-12-18T08:22:14Z</time>
      </trkpt>
      <trkpt lat="45.01448" lon="5.58697">
        <ele>1743.4</ele>
        <time>2021-12-18T08:22:19Z</time>
      </trkpt>
      <trkpt lat="45.01449" lon="5.58694">
        <ele>1744.8</ele>
        <time>2021-12-18T08:22:25Z</time>
      </trkpt>
      <trkpt lat="45.01448" lon="5.58695">
        <ele>1745.8</ele>
        <time>2021-12-18T08:22:29Z</time>
      </trkpt>
      <trkpt lat="45.0145" lon="5.5869">
        <ele>1747</ele>
        <time>2021-12-18T08:22:34Z</time>
      </trkpt>
      <trkpt lat="45.0145" lon="5.58688">
        <ele>1747.2</ele>
        <time>2021-12-18T08:22:35Z</time>
      </trkpt>
      <trkpt lat="45.0145" lon="5.58687">
        <ele>1748</ele>
        <time>2021-12-18T08:22:39Z</time>
      </trkpt>
      <trkpt lat="45.0145" lon="5.58687">
        <ele>1748.6</ele>
        <time>2021-12-18T08:22:42Z</time>
      </trkpt>
      <trkpt lat="45.0145" lon="5.58687">
        <ele>1748.8</ele>
        <time>2021-12-18T08:22:44Z</time>
      </trkpt>
      <trkpt lat="45.0145" lon="5.58687">
        <ele>1749.4</ele>
        <time>2021-12-18T08:22:46Z</time>
      </trkpt>
      <trkpt lat="45.0145" lon="5.58687">
        <ele>1750.4</ele>
        <time>2021-12-18T08:22:50Z</time>
      </trkpt>
      <trkpt lat="45.01451" lon="5.58682">
        <ele>1751.4</ele>
        <time>2021-12-18T08:22:56Z</time>
      </trkpt>
      <trkpt lat="45.01452" lon="5.5868">
        <ele>1751.6</ele>
        <time>2021-12-18T08:22:57Z</time>
      </trkpt>
      <trkpt lat="45.01452" lon="5.58677">
        <ele>1752.6</ele>
        <time>2021-12-18T08:23:03Z</time>
      </trkpt>
      <trkpt lat="45.01452" lon="5.58675">
        <ele>1753.8</ele>
        <time>2021-12-18T08:23:07Z</time>
      </trkpt>
      <trkpt lat="45.01453" lon="5.58672">
        <ele>1755</ele>
        <time>2021-12-18T08:23:12Z</time>
      </trkpt>
      <trkpt lat="45.01454" lon="5.58668">
        <ele>1756.2</ele>
        <time>2021-12-18T08:23:19Z</time>
      </trkpt>
      <trkpt lat="45.01455" lon="5.58665">
        <ele>1756.8</ele>
        <time>2021-12-18T08:23:22Z</time>
      </trkpt>
      <trkpt lat="45.01458" lon="5.58654">
        <ele>1757</ele>
        <time>2021-12-18T08:23:25Z</time>
      </trkpt>
      <trkpt lat="45.01458" lon="5.58652">
        <ele>1757.2</ele>
        <time>2021-12-18T08:23:26Z</time>
      </trkpt>
      <trkpt lat="45.01459" lon="5.58649">
        <ele>1757.6</ele>
        <time>2021-12-18T08:23:28Z</time>
      </trkpt>
      <trkpt lat="45.01459" lon="5.58646">
        <ele>1758.4</ele>
        <time>2021-12-18T08:23:31Z</time>
      </trkpt>
      <trkpt lat="45.01459" lon="5.58646">
        <ele>1759.6</ele>
        <time>2021-12-18T08:23:37Z</time>
      </trkpt>
      <trkpt lat="45.01455" lon="5.58651">
        <ele>1760.6</ele>
        <time>2021-12-18T08:23:44Z</time>
      </trkpt>
      <trkpt lat="45.01458" lon="5.58645">
        <ele>1761.2</ele>
        <time>2021-12-18T08:23:46Z</time>
      </trkpt>
      <trkpt lat="45.0146" lon="5.58642">
        <ele>1761.8</ele>
        <time>2021-12-18T08:23:50Z</time>
      </trkpt>
      <trkpt lat="45.01459" lon="5.58643">
        <ele>1762.8</ele>
        <time>2021-12-18T08:23:54Z</time>
      </trkpt>
      <trkpt lat="45.01459" lon="5.58646">
        <ele>1763</ele>
        <time>2021-12-18T08:23:56Z</time>
      </trkpt>
      <trkpt lat="45.01459" lon="5.5865">
        <ele>1764</ele>
        <time>2021-12-18T08:24:01Z</time>
      </trkpt>
      <trkpt lat="45.01458" lon="5.58652">
        <ele>1764.6</ele>
        <time>2021-12-18T08:24:05Z</time>
      </trkpt>
      <trkpt lat="45.01459" lon="5.58652">
        <ele>1765.2</ele>
        <time>2021-12-18T08:24:07Z</time>
      </trkpt>
      <trkpt lat="45.01457" lon="5.58646">
        <ele>1766.2</ele>
        <time>2021-12-18T08:24:13Z</time>
      </trkpt>
      <trkpt lat="45.01455" lon="5.58648">
        <ele>1766.8</ele>
        <time>2021-12-18T08:24:16Z</time>
      </trkpt>
      <trkpt lat="45.01455" lon="5.58649">
        <ele>1767.2</ele>
        <time>2021-12-18T08:24:18Z</time>
      </trkpt>
      <trkpt lat="45.01457" lon="5.58648">
        <ele>1768</ele>
        <time>2021-12-18T08:24:22Z</time>
      </trkpt>
      <trkpt lat="45.01459" lon="5.58638">
        <ele>1768.4</ele>
        <time>2021-12-18T08:24:24Z</time>
      </trkpt>
      <trkpt lat="45.01459" lon="5.58641">
        <ele>1769.6</ele>
        <time>2021-12-18T08:24:31Z</time>
      </trkpt>
      <trkpt lat="45.01462" lon="5.58633">
        <ele>1770.8</ele>
        <time>2021-12-18T08:24:36Z</time>
      </trkpt>
      <trkpt lat="45.01462" lon="5.58628">
        <ele>1771.8</ele>
        <time>2021-12-18T08:24:41Z</time>
      </trkpt>
      <trkpt lat="45.01463" lon="5.58624">
        <ele>1772</ele>
        <time>2021-12-18T08:24:43Z</time>
      </trkpt>
      <trkpt lat="45.01463" lon="5.58619">
        <ele>1772.8</ele>
        <time>2021-12-18T08:24:47Z</time>
      </trkpt>
      <trkpt lat="45.01465" lon="5.58632">
        <ele>1773.8</ele>
        <time>2021-12-18T08:24:52Z</time>
      </trkpt>
      <trkpt lat="45.01465" lon="5.5863">
        <ele>1774</ele>
        <time>2021-12-18T08:24:53Z</time>
      </trkpt>
      <trkpt lat="45.01467" lon="5.5863">
        <ele>1774.8</ele>
        <time>2021-12-18T08:24:58Z</time>
      </trkpt>
      <trkpt lat="45.0147" lon="5.58627">
        <ele>1775.6</ele>
        <time>2021-12-18T08:25:02Z</time>
      </trkpt>
      <trkpt lat="45.0147" lon="5.58627">
        <ele>1775.8</ele>
        <time>2021-12-18T08:25:03Z</time>
      </trkpt>
      <trkpt lat="45.0147" lon="5.58626">
        <ele>1776.2</ele>
        <time>2021-12-18T08:25:04Z</time>
      </trkpt>
      <trkpt lat="45.01473" lon="5.5862">
        <ele>1776.8</ele>
        <time>2021-12-18T08:25:08Z</time>
      </trkpt>
      <trkpt lat="45.01475" lon="5.58615">
        <ele>1777.2</ele>
        <time>2021-12-18T08:25:11Z</time>
      </trkpt>
      <trkpt lat="45.01477" lon="5.58618">
        <ele>1778.2</ele>
        <time>2021-12-18T08:25:16Z</time>
      </trkpt>
      <trkpt lat="45.01476" lon="5.58621">
        <ele>1778.4</ele>
        <time>2021-12-18T08:25:17Z</time>
      </trkpt>
      <trkpt lat="45.01475" lon="5.58619">
        <ele>1778.6</ele>
        <time>2021-12-18T08:25:18Z</time>
      </trkpt>
      <trkpt lat="45.01476" lon="5.58618">
        <ele>1778.8</ele>
        <time>2021-12-18T08:25:19Z</time>
      </trkpt>
      <trkpt lat="45.01475" lon="5.58617">
        <ele>1779.6</ele>
        <time>2021-12-18T08:25:23Z</time>
      </trkpt>
      <trkpt lat="45.01474" lon="5.58617">
        <ele>1780</ele>
        <time>2021-12-18T08:25:24Z</time>
      </trkpt>
      <trkpt lat="45.01474" lon="5.58612">
        <ele>1780.8</ele>
        <time>2021-12-18T08:25:29Z</time>
      </trkpt>
      <trkpt lat="45.01475" lon="5.58612">
        <ele>1781</ele>
        <time>2021-12-18T08:25:30Z</time>
      </trkpt>
      <trkpt lat="45.01477" lon="5.5861">
        <ele>1781.8</ele>
        <time>2021-12-18T08:25:34Z</time>
      </trkpt>
      <trkpt lat="45.01476" lon="5.58608">
        <ele>1782</ele>
        <time>2021-12-18T08:25:35Z</time>
      </trkpt>
      <trkpt lat="45.01475" lon="5.58605">
        <ele>1782.4</ele>
        <time>2021-12-18T08:25:38Z</time>
      </trkpt>
      <trkpt lat="45.01475" lon="5.58607">
        <ele>1782.8</ele>
        <time>2021-12-18T08:25:39Z</time>
      </trkpt>
      <trkpt lat="45.01474" lon="5.58609">
        <ele>1782.8</ele>
        <time>2021-12-18T08:25:40Z</time>
      </trkpt>
      <trkpt lat="45.01475" lon="5.5861">
        <ele>1784</ele>
        <time>2021-12-18T08:25:44Z</time>
      </trkpt>
      <trkpt lat="45.01474" lon="5.58609">
        <ele>1784.4</ele>
        <time>2021-12-18T08:25:47Z</time>
      </trkpt>
      <trkpt lat="45.01472" lon="5.58602">
        <ele>1785</ele>
        <time>2021-12-18T08:25:50Z</time>
      </trkpt>
      <trkpt lat="45.01472" lon="5.586">
        <ele>1785.4</ele>
        <time>2021-12-18T08:25:52Z</time>
      </trkpt>
      <trkpt lat="45.01471" lon="5.58595">
        <ele>1786.2</ele>
        <time>2021-12-18T08:25:56Z</time>
      </trkpt>
      <trkpt lat="45.01471" lon="5.58595">
        <ele>1786.6</ele>
        <time>2021-12-18T08:25:58Z</time>
      </trkpt>
      <trkpt lat="45.01472" lon="5.58593">
        <ele>1787.2</ele>
        <time>2021-12-18T08:26:01Z</time>
      </trkpt>
      <trkpt lat="45.01477" lon="5.58585">
        <ele>1787.6</ele>
        <time>2021-12-18T08:26:04Z</time>
      </trkpt>
      <trkpt lat="45.01478" lon="5.58587">
        <ele>1788.4</ele>
        <time>2021-12-18T08:26:08Z</time>
      </trkpt>
      <trkpt lat="45.0148" lon="5.58583">
        <ele>1788.8</ele>
        <time>2021-12-18T08:26:10Z</time>
      </trkpt>
      <trkpt lat="45.01483" lon="5.5858">
        <ele>1789</ele>
        <time>2021-12-18T08:26:12Z</time>
      </trkpt>
      <trkpt lat="45.01485" lon="5.58578">
        <ele>1789.4</ele>
        <time>2021-12-18T08:26:14Z</time>
      </trkpt>
      <trkpt lat="45.01486" lon="5.58577">
        <ele>1789.6</ele>
        <time>2021-12-18T08:26:15Z</time>
      </trkpt>
      <trkpt lat="45.01488" lon="5.58574">
        <ele>1789.8</ele>
        <time>2021-12-18T08:26:18Z</time>
      </trkpt>
      <trkpt lat="45.01491" lon="5.58572">
        <ele>1790.6</ele>
        <time>2021-12-18T08:26:22Z</time>
      </trkpt>
      <trkpt lat="45.01492" lon="5.58571">
        <ele>1791.4</ele>
        <time>2021-12-18T08:26:26Z</time>
      </trkpt>
      <trkpt lat="45.01491" lon="5.58571">
        <ele>1791.6</ele>
        <time>2021-12-18T08:26:27Z</time>
      </trkpt>
      <trkpt lat="45.01493" lon="5.5857">
        <ele>1792</ele>
        <time>2021-12-18T08:26:30Z</time>
      </trkpt>
      <trkpt lat="45.01494" lon="5.58569">
        <ele>1792.4</ele>
        <time>2021-12-18T08:26:31Z</time>
      </trkpt>
      <trkpt lat="45.01493" lon="5.58569">
        <ele>1793</ele>
        <time>2021-12-18T08:26:34Z</time>
      </trkpt>
      <trkpt lat="45.01495" lon="5.58567">
        <ele>1793.6</ele>
        <time>2021-12-18T08:26:36Z</time>
      </trkpt>
      <trkpt lat="45.01496" lon="5.58565">
        <ele>1794.2</ele>
        <time>2021-12-18T08:26:38Z</time>
      </trkpt>
      <trkpt lat="45.015" lon="5.58559">
        <ele>1794.8</ele>
        <time>2021-12-18T08:26:42Z</time>
      </trkpt>
      <trkpt lat="45.01502" lon="5.58555">
        <ele>1795.2</ele>
        <time>2021-12-18T08:26:46Z</time>
      </trkpt>
      <trkpt lat="45.01507" lon="5.5855">
        <ele>1795.6</ele>
        <time>2021-12-18T08:26:49Z</time>
      </trkpt>
      <trkpt lat="45.01508" lon="5.58548">
        <ele>1796.4</ele>
        <time>2021-12-18T08:26:52Z</time>
      </trkpt>
      <trkpt lat="45.01507" lon="5.58549">
        <ele>1796.8</ele>
        <time>2021-12-18T08:26:54Z</time>
      </trkpt>
      <trkpt lat="45.01507" lon="5.58548">
        <ele>1797.4</ele>
        <time>2021-12-18T08:26:56Z</time>
      </trkpt>
      <trkpt lat="45.01508" lon="5.58544">
        <ele>1798.6</ele>
        <time>2021-12-18T08:27:02Z</time>
      </trkpt>
      <trkpt lat="45.01508" lon="5.58544">
        <ele>1799.2</ele>
        <time>2021-12-18T08:27:05Z</time>
      </trkpt>
      <trkpt lat="45.01508" lon="5.58543">
        <ele>1799.8</ele>
        <time>2021-12-18T08:27:07Z</time>
      </trkpt>
      <trkpt lat="45.01508" lon="5.58542">
        <ele>1800.4</ele>
        <time>2021-12-18T08:27:11Z</time>
      </trkpt>
      <trkpt lat="45.01509" lon="5.58538">
        <ele>1801</ele>
        <time>2021-12-18T08:27:17Z</time>
      </trkpt>
      <trkpt lat="45.01508" lon="5.58538">
        <ele>1801.4</ele>
        <time>2021-12-18T08:27:19Z</time>
      </trkpt>
      <trkpt lat="45.01508" lon="5.58539">
        <ele>1802.2</ele>
        <time>2021-12-18T08:27:21Z</time>
      </trkpt>
      <trkpt lat="45.01504" lon="5.58542">
        <ele>1802.8</ele>
        <time>2021-12-18T08:27:25Z</time>
      </trkpt>
      <trkpt lat="45.01503" lon="5.58543">
        <ele>1803.2</ele>
        <time>2021-12-18T08:27:27Z</time>
      </trkpt>
      <trkpt lat="45.015" lon="5.58544">
        <ele>1804</ele>
        <time>2021-12-18T08:27:31Z</time>
      </trkpt>
      <trkpt lat="45.01499" lon="5.58545">
        <ele>1804.4</ele>
        <time>2021-12-18T08:27:32Z</time>
      </trkpt>
      <trkpt lat="45.01492" lon="5.58553">
        <ele>1805.6</ele>
        <time>2021-12-18T08:27:38Z</time>
      </trkpt>
      <trkpt lat="45.01491" lon="5.58554">
        <ele>1805.8</ele>
        <time>2021-12-18T08:27:39Z</time>
      </trkpt>
      <trkpt lat="45.01482" lon="5.58564">
        <ele>1806.8</ele>
        <time>2021-12-18T08:27:44Z</time>
      </trkpt>
      <trkpt lat="45.01479" lon="5.58566">
        <ele>1807</ele>
        <time>2021-12-18T08:27:46Z</time>
      </trkpt>
      <trkpt lat="45.01478" lon="5.58568">
        <ele>1807.8</ele>
        <time>2021-12-18T08:27:50Z</time>
      </trkpt>
      <trkpt lat="45.01478" lon="5.58568">
        <ele>1808</ele>
        <time>2021-12-18T08:27:51Z</time>
      </trkpt>
      <trkpt lat="45.01477" lon="5.58569">
        <ele>1808.6</ele>
        <time>2021-12-18T08:27:54Z</time>
      </trkpt>
      <trkpt lat="45.01477" lon="5.58569">
        <ele>1809</ele>
        <time>2021-12-18T08:27:56Z</time>
      </trkpt>
      <trkpt lat="45.01474" lon="5.5857">
        <ele>1809.6</ele>
        <time>2021-12-18T08:28:01Z</time>
      </trkpt>
      <trkpt lat="45.01474" lon="5.5857">
        <ele>1810</ele>
        <time>2021-12-18T08:28:05Z</time>
      </trkpt>
      <trkpt lat="45.01474" lon="5.58569">
        <ele>1810.6</ele>
        <time>2021-12-18T08:28:08Z</time>
      </trkpt>
      <trkpt lat="45.01474" lon="5.58569">
        <ele>1811.2</ele>
        <time>2021-12-18T08:28:11Z</time>
      </trkpt>
      <trkpt lat="45.01472" lon="5.58569">
        <ele>1812.4</ele>
        <time>2021-12-18T08:28:17Z</time>
      </trkpt>
      <trkpt lat="45.01472" lon="5.58569">
        <ele>1812.6</ele>
        <time>2021-12-18T08:28:18Z</time>
      </trkpt>
      <trkpt lat="45.01471" lon="5.58567">
        <ele>1813.4</ele>
        <time>2021-12-18T08:28:23Z</time>
      </trkpt>
      <trkpt lat="45.0147" lon="5.58565">
        <ele>1814.2</ele>
        <time>2021-12-18T08:28:27Z</time>
      </trkpt>
      <trkpt lat="45.01469" lon="5.58563">
        <ele>1814.6</ele>
        <time>2021-12-18T08:28:30Z</time>
      </trkpt>
      <trkpt lat="45.01469" lon="5.58561">
        <ele>1815.8</ele>
        <time>2021-12-18T08:28:36Z</time>
      </trkpt>
      <trkpt lat="45.01469" lon="5.58559">
        <ele>1816.8</ele>
        <time>2021-12-18T08:28:42Z</time>
      </trkpt>
      <trkpt lat="45.01469" lon="5.58559">
        <ele>1816.8</ele>
        <time>2021-12-18T08:28:43Z</time>
      </trkpt>
      <trkpt lat="45.01467" lon="5.5856">
        <ele>1818</ele>
        <time>2021-12-18T08:28:50Z</time>
      </trkpt>
      <trkpt lat="45.01467" lon="5.5856">
        <ele>1818.2</ele>
        <time>2021-12-18T08:28:51Z</time>
      </trkpt>
      <trkpt lat="45.01468" lon="5.58559">
        <ele>1819</ele>
        <time>2021-12-18T08:28:55Z</time>
      </trkpt>
      <trkpt lat="45.01468" lon="5.58558">
        <ele>1819.6</ele>
        <time>2021-12-18T08:28:58Z</time>
      </trkpt>
      <trkpt lat="45.01468" lon="5.58557">
        <ele>1820.2</ele>
        <time>2021-12-18T08:29:02Z</time>
      </trkpt>
      <trkpt lat="45.01469" lon="5.58555">
        <ele>1821.2</ele>
        <time>2021-12-18T08:29:06Z</time>
      </trkpt>
      <trkpt lat="45.01468" lon="5.58556">
        <ele>1821.2</ele>
        <time>2021-12-18T08:29:07Z</time>
      </trkpt>
      <trkpt lat="45.01468" lon="5.58552">
        <ele>1822.2</ele>
        <time>2021-12-18T08:29:12Z</time>
      </trkpt>
      <trkpt lat="45.01468" lon="5.58552">
        <ele>1822.4</ele>
        <time>2021-12-18T08:29:13Z</time>
      </trkpt>
      <trkpt lat="45.01466" lon="5.58551">
        <ele>1823.2</ele>
        <time>2021-12-18T08:29:19Z</time>
      </trkpt>
      <trkpt lat="45.01466" lon="5.5855">
        <ele>1823.4</ele>
        <time>2021-12-18T08:29:20Z</time>
      </trkpt>
      <trkpt lat="45.01467" lon="5.58548">
        <ele>1824.2</ele>
        <time>2021-12-18T08:29:25Z</time>
      </trkpt>
      <trkpt lat="45.01467" lon="5.58547">
        <ele>1824.6</ele>
        <time>2021-12-18T08:29:27Z</time>
      </trkpt>
      <trkpt lat="45.01467" lon="5.58545">
        <ele>1825</ele>
        <time>2021-12-18T08:29:30Z</time>
      </trkpt>
      <trkpt lat="45.01467" lon="5.58544">
        <ele>1825.4</ele>
        <time>2021-12-18T08:29:32Z</time>
      </trkpt>
      <trkpt lat="45.01467" lon="5.58544">
        <ele>1825.6</ele>
        <time>2021-12-18T08:29:33Z</time>
      </trkpt>
      <trkpt lat="45.01467" lon="5.58544">
        <ele>1826.4</ele>
        <time>2021-12-18T08:29:37Z</time>
      </trkpt>
      <trkpt lat="45.01466" lon="5.58544">
        <ele>1826.6</ele>
        <time>2021-12-18T08:29:39Z</time>
      </trkpt>
      <trkpt lat="45.01466" lon="5.58543">
        <ele>1827.4</ele>
        <time>2021-12-18T08:29:42Z</time>
      </trkpt>
      <trkpt lat="45.01466" lon="5.58542">
        <ele>1827.8</ele>
        <time>2021-12-18T08:29:44Z</time>
      </trkpt>
      <trkpt lat="45.01466" lon="5.58542">
        <ele>1828.6</ele>
        <time>2021-12-18T08:29:48Z</time>
      </trkpt>
      <trkpt lat="45.01466" lon="5.58542">
        <ele>1829.6</ele>
        <time>2021-12-18T08:29:56Z</time>
      </trkpt>
      <trkpt lat="45.01466" lon="5.58542">
        <ele>1829.6</ele>
        <time>2021-12-18T08:29:58Z</time>
      </trkpt>
      <trkpt lat="45.01464" lon="5.58542">
        <ele>1830.6</ele>
        <time>2021-12-18T08:30:15Z</time>
      </trkpt>
      <trkpt lat="45.01464" lon="5.58542">
        <ele>1831.2</ele>
        <time>2021-12-18T08:30:18Z</time>
      </trkpt>
      <trkpt lat="45.01464" lon="5.58542">
        <ele>1832</ele>
        <time>2021-12-18T08:30:22Z</time>
      </trkpt>
      <trkpt lat="45.01464" lon="5.58541">
        <ele>1833</ele>
        <time>2021-12-18T08:30:28Z</time>
      </trkpt>
      <trkpt lat="45.01464" lon="5.58539">
        <ele>1834</ele>
        <time>2021-12-18T08:30:33Z</time>
      </trkpt>
      <trkpt lat="45.01463" lon="5.58537">
        <ele>1835.2</ele>
        <time>2021-12-18T08:30:40Z</time>
      </trkpt>
      <trkpt lat="45.01462" lon="5.58535">
        <ele>1836.2</ele>
        <time>2021-12-18T08:30:46Z</time>
      </trkpt>
      <trkpt lat="45.01462" lon="5.58531">
        <ele>1837.4</ele>
        <time>2021-12-18T08:30:54Z</time>
      </trkpt>
      <trkpt lat="45.01462" lon="5.58529">
        <ele>1838.6</ele>
        <time>2021-12-18T08:31:00Z</time>
      </trkpt>
      <trkpt lat="45.01462" lon="5.58526">
        <ele>1839.6</ele>
        <time>2021-12-18T08:31:07Z</time>
      </trkpt>
      <trkpt lat="45.01461" lon="5.58525">
        <ele>1840.8</ele>
        <time>2021-12-18T08:31:13Z</time>
      </trkpt>
      <trkpt lat="45.01461" lon="5.58524">
        <ele>1841.8</ele>
        <time>2021-12-18T08:31:19Z</time>
      </trkpt>
      <trkpt lat="45.01461" lon="5.58519">
        <ele>1843</ele>
        <time>2021-12-18T08:31:26Z</time>
      </trkpt>
      <trkpt lat="45.01461" lon="5.58515">
        <ele>1844</ele>
        <time>2021-12-18T08:31:31Z</time>
      </trkpt>
      <trkpt lat="45.01462" lon="5.58514">
        <ele>1844.4</ele>
        <time>2021-12-18T08:31:33Z</time>
      </trkpt>
      <trkpt lat="45.01461" lon="5.58512">
        <ele>1845.2</ele>
        <time>2021-12-18T08:31:38Z</time>
      </trkpt>
      <trkpt lat="45.01461" lon="5.58511">
        <ele>1845.8</ele>
        <time>2021-12-18T08:31:42Z</time>
      </trkpt>
      <trkpt lat="45.01462" lon="5.58509">
        <ele>1846.4</ele>
        <time>2021-12-18T08:31:44Z</time>
      </trkpt>
      <trkpt lat="45.0146" lon="5.58511">
        <ele>1847.2</ele>
        <time>2021-12-18T08:31:49Z</time>
      </trkpt>
      <trkpt lat="45.01461" lon="5.5851">
        <ele>1847.4</ele>
        <time>2021-12-18T08:31:50Z</time>
      </trkpt>
      <trkpt lat="45.0146" lon="5.58509">
        <ele>1848.6</ele>
        <time>2021-12-18T08:31:56Z</time>
      </trkpt>
      <trkpt lat="45.01462" lon="5.58508">
        <ele>1849.6</ele>
        <time>2021-12-18T08:32:03Z</time>
      </trkpt>
      <trkpt lat="45.0146" lon="5.58506">
        <ele>1850.6</ele>
        <time>2021-12-18T08:32:08Z</time>
      </trkpt>
      <trkpt lat="45.01461" lon="5.58506">
        <ele>1851</ele>
        <time>2021-12-18T08:32:10Z</time>
      </trkpt>
      <trkpt lat="45.01462" lon="5.58504">
        <ele>1851.8</ele>
        <time>2021-12-18T08:32:14Z</time>
      </trkpt>
      <trkpt lat="45.01463" lon="5.58502">
        <ele>1852.6</ele>
        <time>2021-12-18T08:32:18Z</time>
      </trkpt>
      <trkpt lat="45.01463" lon="5.585">
        <ele>1852.8</ele>
        <time>2021-12-18T08:32:20Z</time>
      </trkpt>
      <trkpt lat="45.01461" lon="5.58499">
        <ele>1853.4</ele>
        <time>2021-12-18T08:32:24Z</time>
      </trkpt>
      <trkpt lat="45.0146" lon="5.58498">
        <ele>1854</ele>
        <time>2021-12-18T08:32:26Z</time>
      </trkpt>
      <trkpt lat="45.01459" lon="5.58497">
        <ele>1855.2</ele>
        <time>2021-12-18T08:32:33Z</time>
      </trkpt>
      <trkpt lat="45.01459" lon="5.58497">
        <ele>1855.2</ele>
        <time>2021-12-18T08:32:34Z</time>
      </trkpt>
      <trkpt lat="45.01459" lon="5.58497">
        <ele>1856.2</ele>
        <time>2021-12-18T08:32:39Z</time>
      </trkpt>
      <trkpt lat="45.01459" lon="5.58497">
        <ele>1857.4</ele>
        <time>2021-12-18T08:32:45Z</time>
      </trkpt>
      <trkpt lat="45.0146" lon="5.58496">
        <ele>1858.6</ele>
        <time>2021-12-18T08:32:52Z</time>
      </trkpt>
      <trkpt lat="45.0146" lon="5.58494">
        <ele>1859.8</ele>
        <time>2021-12-18T08:32:58Z</time>
      </trkpt>
      <trkpt lat="45.01461" lon="5.58492">
        <ele>1860.8</ele>
        <time>2021-12-18T08:33:05Z</time>
      </trkpt>
      <trkpt lat="45.01462" lon="5.58489">
        <ele>1862</ele>
        <time>2021-12-18T08:33:11Z</time>
      </trkpt>
      <trkpt lat="45.01462" lon="5.58488">
        <ele>1863.2</ele>
        <time>2021-12-18T08:33:18Z</time>
      </trkpt>
      <trkpt lat="45.01462" lon="5.58486">
        <ele>1864.2</ele>
        <time>2021-12-18T08:33:23Z</time>
      </trkpt>
      <trkpt lat="45.01462" lon="5.58484">
        <ele>1865.2</ele>
        <time>2021-12-18T08:33:29Z</time>
      </trkpt>
      <trkpt lat="45.01462" lon="5.58482">
        <ele>1866.2</ele>
        <time>2021-12-18T08:33:36Z</time>
      </trkpt>
      <trkpt lat="45.01462" lon="5.5848">
        <ele>1867.4</ele>
        <time>2021-12-18T08:33:42Z</time>
      </trkpt>
      <trkpt lat="45.01463" lon="5.58478">
        <ele>1868.4</ele>
        <time>2021-12-18T08:33:48Z</time>
      </trkpt>
      <trkpt lat="45.01463" lon="5.58476">
        <ele>1869.4</ele>
        <time>2021-12-18T08:33:54Z</time>
      </trkpt>
      <trkpt lat="45.01462" lon="5.58474">
        <ele>1870.6</ele>
        <time>2021-12-18T08:34:09Z</time>
      </trkpt>
      <trkpt lat="45.01461" lon="5.58474">
        <ele>1871.8</ele>
        <time>2021-12-18T08:34:15Z</time>
      </trkpt>
      <trkpt lat="45.01461" lon="5.58474">
        <ele>1872.2</ele>
        <time>2021-12-18T08:34:17Z</time>
      </trkpt>
      <trkpt lat="45.01461" lon="5.58474">
        <ele>1872.8</ele>
        <time>2021-12-18T08:34:21Z</time>
      </trkpt>
      <trkpt lat="45.01461" lon="5.58471">
        <ele>1874</ele>
        <time>2021-12-18T08:34:27Z</time>
      </trkpt>
      <trkpt lat="45.01461" lon="5.58467">
        <ele>1875.2</ele>
        <time>2021-12-18T08:34:34Z</time>
      </trkpt>
      <trkpt lat="45.01461" lon="5.58464">
        <ele>1876.2</ele>
        <time>2021-12-18T08:34:41Z</time>
      </trkpt>
      <trkpt lat="45.01461" lon="5.58461">
        <ele>1877.4</ele>
        <time>2021-12-18T08:34:48Z</time>
      </trkpt>
      <trkpt lat="45.01462" lon="5.58459">
        <ele>1878.4</ele>
        <time>2021-12-18T08:34:54Z</time>
      </trkpt>
      <trkpt lat="45.01462" lon="5.58458">
        <ele>1878.8</ele>
        <time>2021-12-18T08:34:57Z</time>
      </trkpt>
      <trkpt lat="45.01463" lon="5.58456">
        <ele>1879.4</ele>
        <time>2021-12-18T08:35:01Z</time>
      </trkpt>
      <trkpt lat="45.01464" lon="5.58455">
        <ele>1880.4</ele>
        <time>2021-12-18T08:35:06Z</time>
      </trkpt>
      <trkpt lat="45.01465" lon="5.58454">
        <ele>1881.4</ele>
        <time>2021-12-18T08:35:13Z</time>
      </trkpt>
      <trkpt lat="45.01465" lon="5.58453">
        <ele>1882.6</ele>
        <time>2021-12-18T08:35:18Z</time>
      </trkpt>
      <trkpt lat="45.01465" lon="5.5845">
        <ele>1883.8</ele>
        <time>2021-12-18T08:35:25Z</time>
      </trkpt>
      <trkpt lat="45.01465" lon="5.58449">
        <ele>1884.8</ele>
        <time>2021-12-18T08:35:32Z</time>
      </trkpt>
      <trkpt lat="45.01465" lon="5.58447">
        <ele>1886</ele>
        <time>2021-12-18T08:35:37Z</time>
      </trkpt>
      <trkpt lat="45.01464" lon="5.58445">
        <ele>1887</ele>
        <time>2021-12-18T08:35:45Z</time>
      </trkpt>
      <trkpt lat="45.01464" lon="5.58445">
        <ele>1888</ele>
        <time>2021-12-18T08:35:50Z</time>
      </trkpt>
      <trkpt lat="45.01464" lon="5.58444">
        <ele>1889.2</ele>
        <time>2021-12-18T08:35:58Z</time>
      </trkpt>
      <trkpt lat="45.01464" lon="5.58444">
        <ele>1890.2</ele>
        <time>2021-12-18T08:36:03Z</time>
      </trkpt>
      <trkpt lat="45.01464" lon="5.58444">
        <ele>1891.2</ele>
        <time>2021-12-18T08:36:10Z</time>
      </trkpt>
      <trkpt lat="45.01464" lon="5.58444">
        <ele>1892.4</ele>
        <time>2021-12-18T08:36:17Z</time>
      </trkpt>
      <trkpt lat="45.01464" lon="5.58444">
        <ele>1893.4</ele>
        <time>2021-12-18T08:36:23Z</time>
      </trkpt>
      <trkpt lat="45.01464" lon="5.58444">
        <ele>1894.4</ele>
        <time>2021-12-18T08:36:28Z</time>
      </trkpt>
      <trkpt lat="45.01464" lon="5.58444">
        <ele>1895.8</ele>
        <time>2021-12-18T08:36:38Z</time>
      </trkpt>
      <trkpt lat="45.01464" lon="5.58444">
        <ele>1896.8</ele>
        <time>2021-12-18T08:36:43Z</time>
      </trkpt>
      <trkpt lat="45.01464" lon="5.58444">
        <ele>1897</ele>
        <time>2021-12-18T08:36:44Z</time>
      </trkpt>
      <trkpt lat="45.01464" lon="5.58443">
        <ele>1898.2</ele>
        <time>2021-12-18T08:36:50Z</time>
      </trkpt>
      <trkpt lat="45.01464" lon="5.58443">
        <ele>1899.2</ele>
        <time>2021-12-18T08:36:57Z</time>
      </trkpt>
      <trkpt lat="45.01464" lon="5.58443">
        <ele>1900.4</ele>
        <time>2021-12-18T08:37:04Z</time>
      </trkpt>
      <trkpt lat="45.01464" lon="5.58443">
        <ele>1901.6</ele>
        <time>2021-12-18T08:37:12Z</time>
      </trkpt>
      <trkpt lat="45.01464" lon="5.58442">
        <ele>1902.6</ele>
        <time>2021-12-18T08:37:19Z</time>
      </trkpt>
      <trkpt lat="45.01464" lon="5.58442">
        <ele>1903.6</ele>
        <time>2021-12-18T08:37:26Z</time>
      </trkpt>
      <trkpt lat="45.01464" lon="5.58442">
        <ele>1904.8</ele>
        <time>2021-12-18T08:37:34Z</time>
      </trkpt>
      <trkpt lat="45.01464" lon="5.58441">
        <ele>1905.8</ele>
        <time>2021-12-18T08:37:42Z</time>
      </trkpt>
      <trkpt lat="45.01464" lon="5.58441">
        <ele>1907</ele>
        <time>2021-12-18T08:37:48Z</time>
      </trkpt>
      <trkpt lat="45.01464" lon="5.58441">
        <ele>1908</ele>
        <time>2021-12-18T08:37:54Z</time>
      </trkpt>
      <trkpt lat="45.01464" lon="5.5844">
        <ele>1909.2</ele>
        <time>2021-12-18T08:38:01Z</time>
      </trkpt>
      <trkpt lat="45.01464" lon="5.5844">
        <ele>1910.2</ele>
        <time>2021-12-18T08:38:07Z</time>
      </trkpt>
      <trkpt lat="45.01463" lon="5.58439">
        <ele>1911.4</ele>
        <time>2021-12-18T08:38:13Z</time>
      </trkpt>
      <trkpt lat="45.01463" lon="5.58439">
        <ele>1912.4</ele>
        <time>2021-12-18T08:38:20Z</time>
      </trkpt>
      <trkpt lat="45.01463" lon="5.58438">
        <ele>1913.4</ele>
        <time>2021-12-18T08:38:31Z</time>
      </trkpt>
      <trkpt lat="45.01463" lon="5.58438">
        <ele>1914.6</ele>
        <time>2021-12-18T08:38:36Z</time>
      </trkpt>
      <trkpt lat="45.01463" lon="5.58419">
        <ele>1915.6</ele>
        <time>2021-12-18T08:38:42Z</time>
      </trkpt>
      <trkpt lat="45.01461" lon="5.58398">
        <ele>1916.6</ele>
        <time>2021-12-18T08:38:46Z</time>
      </trkpt>
      <trkpt lat="45.01461" lon="5.58393">
        <ele>1916.6</ele>
        <time>2021-12-18T08:38:47Z</time>
      </trkpt>
      <trkpt lat="45.01463" lon="5.58385">
        <ele>1917.4</ele>
        <time>2021-12-18T08:38:53Z</time>
      </trkpt>
      <trkpt lat="45.01463" lon="5.58384">
        <ele>1917.8</ele>
        <time>2021-12-18T08:38:55Z</time>
      </trkpt>
      <trkpt lat="45.01463" lon="5.58384">
        <ele>1918.4</ele>
        <time>2021-12-18T08:38:59Z</time>
      </trkpt>
      <trkpt lat="45.01463" lon="5.58384">
        <ele>1918.6</ele>
        <time>2021-12-18T08:39:00Z</time>
      </trkpt>
      <trkpt lat="45.01461" lon="5.58386">
        <ele>1918.6</ele>
        <time>2021-12-18T08:39:04Z</time>
      </trkpt>
      <trkpt lat="45.0146" lon="5.58386">
        <ele>1918.6</ele>
        <time>2021-12-18T08:39:09Z</time>
      </trkpt>
      <trkpt lat="45.01462" lon="5.58387">
        <ele>1918.6</ele>
        <time>2021-12-18T08:39:16Z</time>
      </trkpt>
      <trkpt lat="45.01463" lon="5.58387">
        <ele>1918.6</ele>
        <time>2021-12-18T08:39:17Z</time>
      </trkpt>
      <trkpt lat="45.01462" lon="5.58388">
        <ele>1918.4</ele>
        <time>2021-12-18T08:39:23Z</time>
      </trkpt>
      <trkpt lat="45.01462" lon="5.58388">
        <ele>1918.4</ele>
        <time>2021-12-18T08:39:24Z</time>
      </trkpt>
      <trkpt lat="45.01462" lon="5.58386">
        <ele>1918.4</ele>
        <time>2021-12-18T08:39:28Z</time>
      </trkpt>
      <trkpt lat="45.01461" lon="5.58386">
        <ele>1918.2</ele>
        <time>2021-12-18T08:39:36Z</time>
      </trkpt>
      <trkpt lat="45.01461" lon="5.58391">
        <ele>1918.2</ele>
        <time>2021-12-18T08:39:44Z</time>
      </trkpt>
      <trkpt lat="45.01461" lon="5.58391">
        <ele>1918.2</ele>
        <time>2021-12-18T08:39:47Z</time>
      </trkpt>
      <trkpt lat="45.01461" lon="5.58391">
        <ele>1918</ele>
        <time>2021-12-18T08:39:54Z</time>
      </trkpt>
      <trkpt lat="45.01461" lon="5.58391">
        <ele>1918</ele>
        <time>2021-12-18T08:39:55Z</time>
      </trkpt>
      <trkpt lat="45.01461" lon="5.58391">
        <ele>1918</ele>
        <time>2021-12-18T08:39:56Z</time>
      </trkpt>
      <trkpt lat="45.01461" lon="5.58391">
        <ele>1918</ele>
        <time>2021-12-18T08:39:58Z</time>
      </trkpt>
      <trkpt lat="45.01461" lon="5.5839">
        <ele>1918.2</ele>
        <time>2021-12-18T08:40:00Z</time>
      </trkpt>
      <trkpt lat="45.01461" lon="5.5839">
        <ele>1918.2</ele>
        <time>2021-12-18T08:40:04Z</time>
      </trkpt>
      <trkpt lat="45.01461" lon="5.5839">
        <ele>1918.2</ele>
        <time>2021-12-18T08:40:07Z</time>
      </trkpt>
      <trkpt lat="45.01461" lon="5.5839">
        <ele>1918.2</ele>
        <time>2021-12-18T08:40:09Z</time>
      </trkpt>
      <trkpt lat="45.0146" lon="5.58389">
        <ele>1918.2</ele>
        <time>2021-12-18T08:40:11Z</time>
      </trkpt>
      <trkpt lat="45.01459" lon="5.58389">
        <ele>1918</ele>
        <time>2021-12-18T08:40:15Z</time>
      </trkpt>
      <trkpt lat="45.01458" lon="5.58389">
        <ele>1918</ele>
        <time>2021-12-18T08:40:24Z</time>
      </trkpt>
      <trkpt lat="45.01458" lon="5.58389">
        <ele>1917.6</ele>
        <time>2021-12-18T08:40:39Z</time>
      </trkpt>
      <trkpt lat="45.01455" lon="5.58455">
        <ele>1917.4</ele>
        <time>2021-12-18T08:53:17Z</time>
      </trkpt>
      <trkpt lat="45.01469" lon="5.58398">
        <ele>1917.4</ele>
        <time>2021-12-18T08:53:18Z</time>
      </trkpt>
      <trkpt lat="45.01463" lon="5.58406">
        <ele>1917.4</ele>
        <time>2021-12-18T08:53:19Z</time>
      </trkpt>
      <trkpt lat="45.0146" lon="5.58412">
        <ele>1917.2</ele>
        <time>2021-12-18T08:53:20Z</time>
      </trkpt>
      <trkpt lat="45.01462" lon="5.58401">
        <ele>1917.2</ele>
        <time>2021-12-18T08:53:22Z</time>
      </trkpt>
      <trkpt lat="45.01464" lon="5.58395">
        <ele>1917.2</ele>
        <time>2021-12-18T08:53:24Z</time>
      </trkpt>
      <trkpt lat="45.01463" lon="5.58396">
        <ele>1918.8</ele>
        <time>2021-12-18T08:53:31Z</time>
      </trkpt>
      <trkpt lat="45.01464" lon="5.58394">
        <ele>1918.8</ele>
        <time>2021-12-18T08:53:32Z</time>
      </trkpt>
      <trkpt lat="45.01465" lon="5.58391">
        <ele>1919.2</ele>
        <time>2021-12-18T08:53:36Z</time>
      </trkpt>
      <trkpt lat="45.01464" lon="5.5839">
        <ele>1920</ele>
        <time>2021-12-18T08:53:39Z</time>
      </trkpt>
      <trkpt lat="45.01464" lon="5.58389">
        <ele>1921</ele>
        <time>2021-12-18T08:53:42Z</time>
      </trkpt>
      <trkpt lat="45.01464" lon="5.58388">
        <ele>1921.2</ele>
        <time>2021-12-18T08:53:43Z</time>
      </trkpt>
      <trkpt lat="45.01463" lon="5.58387">
        <ele>1921.4</ele>
        <time>2021-12-18T08:53:44Z</time>
      </trkpt>
      <trkpt lat="45.01463" lon="5.5838">
        <ele>1922</ele>
        <time>2021-12-18T08:53:51Z</time>
      </trkpt>
      <trkpt lat="45.01461" lon="5.5838">
        <ele>1922.4</ele>
        <time>2021-12-18T08:53:54Z</time>
      </trkpt>
      <trkpt lat="45.01462" lon="5.5838">
        <ele>1922.8</ele>
        <time>2021-12-18T08:53:56Z</time>
      </trkpt>
      <trkpt lat="45.01463" lon="5.58379">
        <ele>1923.2</ele>
        <time>2021-12-18T08:53:58Z</time>
      </trkpt>
      <trkpt lat="45.01466" lon="5.58378">
        <ele>1923.6</ele>
        <time>2021-12-18T08:54:01Z</time>
      </trkpt>
      <trkpt lat="45.01466" lon="5.58378">
        <ele>1923.8</ele>
        <time>2021-12-18T08:54:02Z</time>
      </trkpt>
      <trkpt lat="45.01469" lon="5.58378">
        <ele>1924.8</ele>
        <time>2021-12-18T08:54:07Z</time>
      </trkpt>
      <trkpt lat="45.0147" lon="5.58377">
        <ele>1924.8</ele>
        <time>2021-12-18T08:54:08Z</time>
      </trkpt>
      <trkpt lat="45.0147" lon="5.5838">
        <ele>1925</ele>
        <time>2021-12-18T08:54:12Z</time>
      </trkpt>
      <trkpt lat="45.0147" lon="5.5838">
        <ele>1925.6</ele>
        <time>2021-12-18T08:54:17Z</time>
      </trkpt>
      <trkpt lat="45.01469" lon="5.58382">
        <ele>1925.8</ele>
        <time>2021-12-18T08:54:19Z</time>
      </trkpt>
      <trkpt lat="45.01469" lon="5.58382">
        <ele>1926.6</ele>
        <time>2021-12-18T08:54:22Z</time>
      </trkpt>
      <trkpt lat="45.0147" lon="5.5838">
        <ele>1927</ele>
        <time>2021-12-18T08:54:24Z</time>
      </trkpt>
      <trkpt lat="45.01471" lon="5.58379">
        <ele>1927.6</ele>
        <time>2021-12-18T08:54:26Z</time>
      </trkpt>
      <trkpt lat="45.01472" lon="5.58378">
        <ele>1927.8</ele>
        <time>2021-12-18T08:54:28Z</time>
      </trkpt>
      <trkpt lat="45.01472" lon="5.58378">
        <ele>1928</ele>
        <time>2021-12-18T08:54:29Z</time>
      </trkpt>
      <trkpt lat="45.01471" lon="5.5838">
        <ele>1928.4</ele>
        <time>2021-12-18T08:54:32Z</time>
      </trkpt>
      <trkpt lat="45.0147" lon="5.58381">
        <ele>1929.2</ele>
        <time>2021-12-18T08:54:36Z</time>
      </trkpt>
      <trkpt lat="45.0147" lon="5.58381">
        <ele>1929.4</ele>
        <time>2021-12-18T08:54:37Z</time>
      </trkpt>
      <trkpt lat="45.0147" lon="5.58382">
        <ele>1930.2</ele>
        <time>2021-12-18T08:54:42Z</time>
      </trkpt>
      <trkpt lat="45.01473" lon="5.58378">
        <ele>1931</ele>
        <time>2021-12-18T08:54:48Z</time>
      </trkpt>
      <trkpt lat="45.01474" lon="5.58377">
        <ele>1931.4</ele>
        <time>2021-12-18T08:54:49Z</time>
      </trkpt>
      <trkpt lat="45.01474" lon="5.58378">
        <ele>1932.4</ele>
        <time>2021-12-18T08:54:53Z</time>
      </trkpt>
      <trkpt lat="45.01474" lon="5.58378">
        <ele>1932.4</ele>
        <time>2021-12-18T08:54:54Z</time>
      </trkpt>
      <trkpt lat="45.01476" lon="5.58377">
        <ele>1933.6</ele>
        <time>2021-12-18T08:55:00Z</time>
      </trkpt>
      <trkpt lat="45.01476" lon="5.58378">
        <ele>1934</ele>
        <time>2021-12-18T08:55:05Z</time>
      </trkpt>
      <trkpt lat="45.01474" lon="5.58383">
        <ele>1934.4</ele>
        <time>2021-12-18T08:55:08Z</time>
      </trkpt>
      <trkpt lat="45.01474" lon="5.58384">
        <ele>1934.4</ele>
        <time>2021-12-18T08:55:09Z</time>
      </trkpt>
      <trkpt lat="45.01474" lon="5.58384">
        <ele>1934.6</ele>
        <time>2021-12-18T08:55:10Z</time>
      </trkpt>
      <trkpt lat="45.01474" lon="5.58388">
        <ele>1934.6</ele>
        <time>2021-12-18T08:55:12Z</time>
      </trkpt>
      <trkpt lat="45.01481" lon="5.58379">
        <ele>1934.8</ele>
        <time>2021-12-18T08:55:17Z</time>
      </trkpt>
      <trkpt lat="45.01479" lon="5.58388">
        <ele>1934.8</ele>
        <time>2021-12-18T08:55:20Z</time>
      </trkpt>
      <trkpt lat="45.01478" lon="5.58393">
        <ele>1935</ele>
        <time>2021-12-18T08:55:22Z</time>
      </trkpt>
      <trkpt lat="45.01482" lon="5.58383">
        <ele>1935</ele>
        <time>2021-12-18T08:55:24Z</time>
      </trkpt>
      <trkpt lat="45.01481" lon="5.58385">
        <ele>1935.2</ele>
        <time>2021-12-18T08:55:28Z</time>
      </trkpt>
      <trkpt lat="45.01481" lon="5.58385">
        <ele>1935.6</ele>
        <time>2021-12-18T08:55:35Z</time>
      </trkpt>
      <trkpt lat="45.01481" lon="5.58385">
        <ele>1936.8</ele>
        <time>2021-12-18T08:55:45Z</time>
      </trkpt>
      <trkpt lat="45.01481" lon="5.58385">
        <ele>1938</ele>
        <time>2021-12-18T08:55:51Z</time>
      </trkpt>
      <trkpt lat="45.01481" lon="5.58385">
        <ele>1939</ele>
        <time>2021-12-18T08:56:03Z</time>
      </trkpt>
      <trkpt lat="45.01481" lon="5.58385">
        <ele>1939.2</ele>
        <time>2021-12-18T08:56:08Z</time>
      </trkpt>
      <trkpt lat="45.01474" lon="5.58425">
        <ele>1939.4</ele>
        <time>2021-12-18T08:56:10Z</time>
      </trkpt>
      <trkpt lat="45.01476" lon="5.5842">
        <ele>1939.8</ele>
        <time>2021-12-18T08:56:18Z</time>
      </trkpt>
      <trkpt lat="45.01479" lon="5.58415">
        <ele>1940</ele>
        <time>2021-12-18T08:56:27Z</time>
      </trkpt>
      <trkpt lat="45.01482" lon="5.5841">
        <ele>1940</ele>
        <time>2021-12-18T08:56:32Z</time>
      </trkpt>
      <trkpt lat="45.01484" lon="5.58406">
        <ele>1939.6</ele>
        <time>2021-12-18T08:56:37Z</time>
      </trkpt>
      <trkpt lat="45.01487" lon="5.58401">
        <ele>1939.6</ele>
        <time>2021-12-18T08:56:39Z</time>
      </trkpt>
      <trkpt lat="45.01487" lon="5.58401">
        <ele>1939.6</ele>
        <time>2021-12-18T08:56:41Z</time>
      </trkpt>
      <trkpt lat="45.01487" lon="5.584">
        <ele>1939.6</ele>
        <time>2021-12-18T08:56:43Z</time>
      </trkpt>
      <trkpt lat="45.01487" lon="5.584">
        <ele>1939.6</ele>
        <time>2021-12-18T08:56:45Z</time>
      </trkpt>
      <trkpt lat="45.01487" lon="5.584">
        <ele>1939.6</ele>
        <time>2021-12-18T08:56:49Z</time>
      </trkpt>
      <trkpt lat="45.01486" lon="5.58399">
        <ele>1939.6</ele>
        <time>2021-12-18T08:56:56Z</time>
      </trkpt>
      <trkpt lat="45.01486" lon="5.58399">
        <ele>1939.6</ele>
        <time>2021-12-18T08:56:57Z</time>
      </trkpt>
      <trkpt lat="45.01482" lon="5.58388">
        <ele>1940.4</ele>
        <time>2021-12-18T08:57:04Z</time>
      </trkpt>
      <trkpt lat="45.01479" lon="5.58383">
        <ele>1940.4</ele>
        <time>2021-12-18T08:57:18Z</time>
      </trkpt>
      <trkpt lat="45.01487" lon="5.58386">
        <ele>1940.6</ele>
        <time>2021-12-18T08:57:27Z</time>
      </trkpt>
      <trkpt lat="45.01487" lon="5.58387">
        <ele>1940.4</ele>
        <time>2021-12-18T08:57:28Z</time>
      </trkpt>
      <trkpt lat="45.01488" lon="5.5839">
        <ele>1940.4</ele>
        <time>2021-12-18T08:57:35Z</time>
      </trkpt>
      <trkpt lat="45.01488" lon="5.5839">
        <ele>1939.2</ele>
        <time>2021-12-18T08:57:44Z</time>
      </trkpt>
      <trkpt lat="45.01483" lon="5.58379">
        <ele>1939.2</ele>
        <time>2021-12-18T08:57:45Z</time>
      </trkpt>
      <trkpt lat="45.01473" lon="5.58381">
        <ele>1939</ele>
        <time>2021-12-18T08:57:48Z</time>
      </trkpt>
      <trkpt lat="45.01473" lon="5.58382">
        <ele>1939</ele>
        <time>2021-12-18T08:57:49Z</time>
      </trkpt>
      <trkpt lat="45.01473" lon="5.58385">
        <ele>1939</ele>
        <time>2021-12-18T08:57:50Z</time>
      </trkpt>
      <trkpt lat="45.01474" lon="5.58387">
        <ele>1939</ele>
        <time>2021-12-18T08:57:51Z</time>
      </trkpt>
      <trkpt lat="45.01474" lon="5.58393">
        <ele>1938.8</ele>
        <time>2021-12-18T08:57:54Z</time>
      </trkpt>
      <trkpt lat="45.01473" lon="5.58395">
        <ele>1939</ele>
        <time>2021-12-18T08:57:55Z</time>
      </trkpt>
      <trkpt lat="45.01472" lon="5.58405">
        <ele>1939</ele>
        <time>2021-12-18T08:57:57Z</time>
      </trkpt>
      <trkpt lat="45.01471" lon="5.58413">
        <ele>1939</ele>
        <time>2021-12-18T08:57:59Z</time>
      </trkpt>
      <trkpt lat="45.01475" lon="5.58407">
        <ele>1939</ele>
        <time>2021-12-18T08:58:03Z</time>
      </trkpt>
      <trkpt lat="45.01475" lon="5.58409">
        <ele>1938.8</ele>
        <time>2021-12-18T08:58:05Z</time>
      </trkpt>
      <trkpt lat="45.01477" lon="5.58404">
        <ele>1938.8</ele>
        <time>2021-12-18T08:58:08Z</time>
      </trkpt>
      <trkpt lat="45.01478" lon="5.58404">
        <ele>1938.8</ele>
        <time>2021-12-18T08:58:09Z</time>
      </trkpt>
      <trkpt lat="45.01475" lon="5.58406">
        <ele>1939</ele>
        <time>2021-12-18T08:58:15Z</time>
      </trkpt>
      <trkpt lat="45.01471" lon="5.58408">
        <ele>1939</ele>
        <time>2021-12-18T08:58:18Z</time>
      </trkpt>
      <trkpt lat="45.01472" lon="5.58405">
        <ele>1939</ele>
        <time>2021-12-18T08:58:19Z</time>
      </trkpt>
      <trkpt lat="45.01471" lon="5.58403">
        <ele>1938.8</ele>
        <time>2021-12-18T08:58:21Z</time>
      </trkpt>
      <trkpt lat="45.0147" lon="5.58405">
        <ele>1938.8</ele>
        <time>2021-12-18T08:58:22Z</time>
      </trkpt>
      <trkpt lat="45.0147" lon="5.58405">
        <ele>1938.8</ele>
        <time>2021-12-18T08:58:23Z</time>
      </trkpt>
      <trkpt lat="45.01468" lon="5.58419">
        <ele>1938.4</ele>
        <time>2021-12-18T08:58:25Z</time>
      </trkpt>
      <trkpt lat="45.01469" lon="5.58417">
        <ele>1938.2</ele>
        <time>2021-12-18T08:58:26Z</time>
      </trkpt>
      <trkpt lat="45.01473" lon="5.58405">
        <ele>1937.8</ele>
        <time>2021-12-18T08:58:31Z</time>
      </trkpt>
      <trkpt lat="45.01475" lon="5.58402">
        <ele>1937.8</ele>
        <time>2021-12-18T08:58:33Z</time>
      </trkpt>
      <trkpt lat="45.01475" lon="5.584">
        <ele>1937.6</ele>
        <time>2021-12-18T08:58:38Z</time>
      </trkpt>
      <trkpt lat="45.01477" lon="5.58397">
        <ele>1937.4</ele>
        <time>2021-12-18T08:58:40Z</time>
      </trkpt>
      <trkpt lat="45.01478" lon="5.58396">
        <ele>1937.2</ele>
        <time>2021-12-18T08:58:46Z</time>
      </trkpt>
      <trkpt lat="45.01479" lon="5.58394">
        <ele>1937.4</ele>
        <time>2021-12-18T08:58:51Z</time>
      </trkpt>
      <trkpt lat="45.01478" lon="5.58395">
        <ele>1937.4</ele>
        <time>2021-12-18T08:58:53Z</time>
      </trkpt>
      <trkpt lat="45.01479" lon="5.58395">
        <ele>1937.4</ele>
        <time>2021-12-18T08:58:55Z</time>
      </trkpt>
      <trkpt lat="45.01478" lon="5.58398">
        <ele>1937.2</ele>
        <time>2021-12-18T08:58:59Z</time>
      </trkpt>
      <trkpt lat="45.0148" lon="5.58397">
        <ele>1937.2</ele>
        <time>2021-12-18T08:59:05Z</time>
      </trkpt>
      <trkpt lat="45.01478" lon="5.58398">
        <ele>1937.2</ele>
        <time>2021-12-18T08:59:09Z</time>
      </trkpt>
      <trkpt lat="45.01478" lon="5.58398">
        <ele>1937.2</ele>
        <time>2021-12-18T08:59:10Z</time>
      </trkpt>
      <trkpt lat="45.01479" lon="5.58399">
        <ele>1937.2</ele>
        <time>2021-12-18T08:59:12Z</time>
      </trkpt>
      <trkpt lat="45.01479" lon="5.584">
        <ele>1937.4</ele>
        <time>2021-12-18T08:59:13Z</time>
      </trkpt>
      <trkpt lat="45.0148" lon="5.58407">
        <ele>1937.8</ele>
        <time>2021-12-18T08:59:20Z</time>
      </trkpt>
      <trkpt lat="45.0148" lon="5.58406">
        <ele>1937.8</ele>
        <time>2021-12-18T08:59:21Z</time>
      </trkpt>
      <trkpt lat="45.01481" lon="5.58404">
        <ele>1938.4</ele>
        <time>2021-12-18T08:59:25Z</time>
      </trkpt>
      <trkpt lat="45.01481" lon="5.58403">
        <ele>1938.4</ele>
        <time>2021-12-18T08:59:26Z</time>
      </trkpt>
      <trkpt lat="45.01481" lon="5.58403">
        <ele>1939</ele>
        <time>2021-12-18T08:59:30Z</time>
      </trkpt>
      <trkpt lat="45.01479" lon="5.58374">
        <ele>1939.2</ele>
        <time>2021-12-18T08:59:32Z</time>
      </trkpt>
      <trkpt lat="45.01483" lon="5.58385">
        <ele>1939.6</ele>
        <time>2021-12-18T08:59:37Z</time>
      </trkpt>
      <trkpt lat="45.01479" lon="5.58385">
        <ele>1939</ele>
        <time>2021-12-18T08:59:47Z</time>
      </trkpt>
      <trkpt lat="45.01483" lon="5.58384">
        <ele>1939</ele>
        <time>2021-12-18T09:00:00Z</time>
      </trkpt>
      <trkpt lat="45.01484" lon="5.58384">
        <ele>1938.8</ele>
        <time>2021-12-18T09:00:03Z</time>
      </trkpt>
      <trkpt lat="45.01483" lon="5.58381">
        <ele>1938.8</ele>
        <time>2021-12-18T09:00:05Z</time>
      </trkpt>
      <trkpt lat="45.01486" lon="5.58378">
        <ele>1939</ele>
        <time>2021-12-18T09:00:10Z</time>
      </trkpt>
      <trkpt lat="45.01483" lon="5.5838">
        <ele>1938.8</ele>
        <time>2021-12-18T09:00:15Z</time>
      </trkpt>
      <trkpt lat="45.01483" lon="5.5838">
        <ele>1938.8</ele>
        <time>2021-12-18T09:00:16Z</time>
      </trkpt>
      <trkpt lat="45.01483" lon="5.58382">
        <ele>1938.8</ele>
        <time>2021-12-18T09:00:19Z</time>
      </trkpt>
      <trkpt lat="45.01482" lon="5.58383">
        <ele>1938.8</ele>
        <time>2021-12-18T09:00:20Z</time>
      </trkpt>
      <trkpt lat="45.01483" lon="5.58384">
        <ele>1938.8</ele>
        <time>2021-12-18T09:00:23Z</time>
      </trkpt>
      <trkpt lat="45.0148" lon="5.58387">
        <ele>1938.6</ele>
        <time>2021-12-18T09:00:29Z</time>
      </trkpt>
      <trkpt lat="45.01481" lon="5.58386">
        <ele>1938.6</ele>
        <time>2021-12-18T09:00:32Z</time>
      </trkpt>
      <trkpt lat="45.01481" lon="5.58389">
        <ele>1938.8</ele>
        <time>2021-12-18T09:00:42Z</time>
      </trkpt>
      <trkpt lat="45.01477" lon="5.58393">
        <ele>1938.8</ele>
        <time>2021-12-18T09:00:47Z</time>
      </trkpt>
      <trkpt lat="45.01475" lon="5.58396">
        <ele>1938.8</ele>
        <time>2021-12-18T09:00:51Z</time>
      </trkpt>
      <trkpt lat="45.01476" lon="5.58396">
        <ele>1938.8</ele>
        <time>2021-12-18T09:00:53Z</time>
      </trkpt>
      <trkpt lat="45.01475" lon="5.58394">
        <ele>1938.8</ele>
        <time>2021-12-18T09:01:07Z</time>
      </trkpt>
      <trkpt lat="45.01484" lon="5.5839">
        <ele>1938.8</ele>
        <time>2021-12-18T09:01:10Z</time>
      </trkpt>
      <trkpt lat="45.01484" lon="5.58389">
        <ele>1938.6</ele>
        <time>2021-12-18T09:01:14Z</time>
      </trkpt>
      <trkpt lat="45.01484" lon="5.58388">
        <ele>1938.4</ele>
        <time>2021-12-18T09:01:19Z</time>
      </trkpt>
      <trkpt lat="45.01481" lon="5.58394">
        <ele>1938.4</ele>
        <time>2021-12-18T09:01:21Z</time>
      </trkpt>
      <trkpt lat="45.0148" lon="5.58396">
        <ele>1937.8</ele>
        <time>2021-12-18T09:01:24Z</time>
      </trkpt>
      <trkpt lat="45.01477" lon="5.58396">
        <ele>1937</ele>
        <time>2021-12-18T09:01:30Z</time>
      </trkpt>
      <trkpt lat="45.01477" lon="5.58393">
        <ele>1936.8</ele>
        <time>2021-12-18T09:01:32Z</time>
      </trkpt>
      <trkpt lat="45.01481" lon="5.58385">
        <ele>1936.6</ele>
        <time>2021-12-18T09:01:35Z</time>
      </trkpt>
      <trkpt lat="45.0148" lon="5.58384">
        <ele>1935.4</ele>
        <time>2021-12-18T09:01:40Z</time>
      </trkpt>
      <trkpt lat="45.01476" lon="5.58381">
        <ele>1934.4</ele>
        <time>2021-12-18T09:01:43Z</time>
      </trkpt>
      <trkpt lat="45.01475" lon="5.5838">
        <ele>1934.2</ele>
        <time>2021-12-18T09:01:44Z</time>
      </trkpt>
      <trkpt lat="45.01475" lon="5.5838">
        <ele>1934.2</ele>
        <time>2021-12-18T09:01:45Z</time>
      </trkpt>
      <trkpt lat="45.01473" lon="5.58382">
        <ele>1933.8</ele>
        <time>2021-12-18T09:01:48Z</time>
      </trkpt>
      <trkpt lat="45.01478" lon="5.5838">
        <ele>1933.2</ele>
        <time>2021-12-18T09:01:51Z</time>
      </trkpt>
      <trkpt lat="45.01478" lon="5.5838">
        <ele>1933</ele>
        <time>2021-12-18T09:01:52Z</time>
      </trkpt>
      <trkpt lat="45.01477" lon="5.58375">
        <ele>1932</ele>
        <time>2021-12-18T09:01:56Z</time>
      </trkpt>
      <trkpt lat="45.01475" lon="5.58372">
        <ele>1931.4</ele>
        <time>2021-12-18T09:02:00Z</time>
      </trkpt>
      <trkpt lat="45.01474" lon="5.58373">
        <ele>1931.2</ele>
        <time>2021-12-18T09:02:04Z</time>
      </trkpt>
      <trkpt lat="45.01473" lon="5.58375">
        <ele>1931.2</ele>
        <time>2021-12-18T09:02:06Z</time>
      </trkpt>
      <trkpt lat="45.01472" lon="5.58378">
        <ele>1931.2</ele>
        <time>2021-12-18T09:02:08Z</time>
      </trkpt>
      <trkpt lat="45.01471" lon="5.5838">
        <ele>1931.2</ele>
        <time>2021-12-18T09:02:12Z</time>
      </trkpt>
      <trkpt lat="45.01471" lon="5.5838">
        <ele>1931.2</ele>
        <time>2021-12-18T09:02:14Z</time>
      </trkpt>
      <trkpt lat="45.01472" lon="5.58379">
        <ele>1931.4</ele>
        <time>2021-12-18T09:02:21Z</time>
      </trkpt>
      <trkpt lat="45.01472" lon="5.58379">
        <ele>1931.4</ele>
        <time>2021-12-18T09:02:22Z</time>
      </trkpt>
      <trkpt lat="45.01472" lon="5.58379">
        <ele>1931.4</ele>
        <time>2021-12-18T09:02:25Z</time>
      </trkpt>
      <trkpt lat="45.01473" lon="5.58378">
        <ele>1931.2</ele>
        <time>2021-12-18T09:02:36Z</time>
      </trkpt>
      <trkpt lat="45.01475" lon="5.58377">
        <ele>1931.2</ele>
        <time>2021-12-18T09:02:39Z</time>
      </trkpt>
      <trkpt lat="45.01475" lon="5.58377">
        <ele>1931.2</ele>
        <time>2021-12-18T09:02:41Z</time>
      </trkpt>
      <trkpt lat="45.01476" lon="5.58376">
        <ele>1931.2</ele>
        <time>2021-12-18T09:02:48Z</time>
      </trkpt>
      <trkpt lat="45.01477" lon="5.58371">
        <ele>1931</ele>
        <time>2021-12-18T09:02:53Z</time>
      </trkpt>
      <trkpt lat="45.01477" lon="5.58368">
        <ele>1931</ele>
        <time>2021-12-18T09:02:55Z</time>
      </trkpt>
      <trkpt lat="45.01478" lon="5.58363">
        <ele>1931</ele>
        <time>2021-12-18T09:03:00Z</time>
      </trkpt>
      <trkpt lat="45.01477" lon="5.58364">
        <ele>1931</ele>
        <time>2021-12-18T09:03:05Z</time>
      </trkpt>
      <trkpt lat="45.01474" lon="5.58368">
        <ele>1930.2</ele>
        <time>2021-12-18T09:03:13Z</time>
      </trkpt>
      <trkpt lat="45.01473" lon="5.58371">
        <ele>1930</ele>
        <time>2021-12-18T09:03:18Z</time>
      </trkpt>
      <trkpt lat="45.01472" lon="5.58374">
        <ele>1929.8</ele>
        <time>2021-12-18T09:03:21Z</time>
      </trkpt>
      <trkpt lat="45.01472" lon="5.58375">
        <ele>1929.8</ele>
        <time>2021-12-18T09:03:24Z</time>
      </trkpt>
      <trkpt lat="45.01471" lon="5.58377">
        <ele>1929.6</ele>
        <time>2021-12-18T09:03:28Z</time>
      </trkpt>
      <trkpt lat="45.01471" lon="5.58377">
        <ele>1928.8</ele>
        <time>2021-12-18T09:03:32Z</time>
      </trkpt>
      <trkpt lat="45.01471" lon="5.58378">
        <ele>1928.4</ele>
        <time>2021-12-18T09:03:33Z</time>
      </trkpt>
      <trkpt lat="45.01469" lon="5.58381">
        <ele>1927.6</ele>
        <time>2021-12-18T09:03:35Z</time>
      </trkpt>
      <trkpt lat="45.01469" lon="5.58384">
        <ele>1926.6</ele>
        <time>2021-12-18T09:03:38Z</time>
      </trkpt>
      <trkpt lat="45.01467" lon="5.58386">
        <ele>1925.6</ele>
        <time>2021-12-18T09:03:41Z</time>
      </trkpt>
      <trkpt lat="45.01466" lon="5.58387">
        <ele>1925</ele>
        <time>2021-12-18T09:03:43Z</time>
      </trkpt>
      <trkpt lat="45.01465" lon="5.58388">
        <ele>1924.2</ele>
        <time>2021-12-18T09:03:45Z</time>
      </trkpt>
      <trkpt lat="45.01465" lon="5.58389">
        <ele>1923.6</ele>
        <time>2021-12-18T09:03:47Z</time>
      </trkpt>
      <trkpt lat="45.01464" lon="5.5839">
        <ele>1923.2</ele>
        <time>2021-12-18T09:03:48Z</time>
      </trkpt>
      <trkpt lat="45.01463" lon="5.58389">
        <ele>1922</ele>
        <time>2021-12-18T09:03:51Z</time>
      </trkpt>
      <trkpt lat="45.01462" lon="5.58388">
        <ele>1921.6</ele>
        <time>2021-12-18T09:03:53Z</time>
      </trkpt>
      <trkpt lat="45.01461" lon="5.58387">
        <ele>1921</ele>
        <time>2021-12-18T09:03:55Z</time>
      </trkpt>
      <trkpt lat="45.01461" lon="5.58386">
        <ele>1920.8</ele>
        <time>2021-12-18T09:03:56Z</time>
      </trkpt>
      <trkpt lat="45.0146" lon="5.58386">
        <ele>1919.8</ele>
        <time>2021-12-18T09:03:59Z</time>
      </trkpt>
      <trkpt lat="45.0146" lon="5.58387">
        <ele>1919.6</ele>
        <time>2021-12-18T09:04:00Z</time>
      </trkpt>
      <trkpt lat="45.01462" lon="5.58386">
        <ele>1918.8</ele>
        <time>2021-12-18T09:04:02Z</time>
      </trkpt>
      <trkpt lat="45.01464" lon="5.58385">
        <ele>1918.4</ele>
        <time>2021-12-18T09:04:03Z</time>
      </trkpt>
      <trkpt lat="45.01464" lon="5.58384">
        <ele>1918</ele>
        <time>2021-12-18T09:04:04Z</time>
      </trkpt>
      <trkpt lat="45.01464" lon="5.58386">
        <ele>1917.2</ele>
        <time>2021-12-18T09:04:06Z</time>
      </trkpt>
      <trkpt lat="45.01464" lon="5.58388">
        <ele>1917</ele>
        <time>2021-12-18T09:04:07Z</time>
      </trkpt>
      <trkpt lat="45.01465" lon="5.58388">
        <ele>1916.8</ele>
        <time>2021-12-18T09:04:08Z</time>
      </trkpt>
      <trkpt lat="45.01465" lon="5.58388">
        <ele>1916.2</ele>
        <time>2021-12-18T09:04:10Z</time>
      </trkpt>
      <trkpt lat="45.01466" lon="5.58388">
        <ele>1915.8</ele>
        <time>2021-12-18T09:04:11Z</time>
      </trkpt>
      <trkpt lat="45.01465" lon="5.58389">
        <ele>1915</ele>
        <time>2021-12-18T09:04:14Z</time>
      </trkpt>
      <trkpt lat="45.01463" lon="5.5839">
        <ele>1914</ele>
        <time>2021-12-18T09:04:18Z</time>
      </trkpt>
      <trkpt lat="45.01463" lon="5.5839">
        <ele>1913.8</ele>
        <time>2021-12-18T09:04:19Z</time>
      </trkpt>
      <trkpt lat="45.01458" lon="5.58388">
        <ele>1912.8</ele>
        <time>2021-12-18T09:04:24Z</time>
      </trkpt>
      <trkpt lat="45.01458" lon="5.58388">
        <ele>1912.8</ele>
        <time>2021-12-18T09:04:25Z</time>
      </trkpt>
      <trkpt lat="45.01457" lon="5.5839">
        <ele>1912.6</ele>
        <time>2021-12-18T09:04:27Z</time>
      </trkpt>
      <trkpt lat="45.01457" lon="5.58388">
        <ele>1912.6</ele>
        <time>2021-12-18T09:04:31Z</time>
      </trkpt>
      <trkpt lat="45.01455" lon="5.58392">
        <ele>1912.6</ele>
        <time>2021-12-18T09:04:34Z</time>
      </trkpt>
      <trkpt lat="45.01455" lon="5.58391">
        <ele>1912.6</ele>
        <time>2021-12-18T09:04:35Z</time>
      </trkpt>
      <trkpt lat="45.01456" lon="5.58388">
        <ele>1912.6</ele>
        <time>2021-12-18T09:04:37Z</time>
      </trkpt>
      <trkpt lat="45.01456" lon="5.58388">
        <ele>1912.6</ele>
        <time>2021-12-18T09:04:38Z</time>
      </trkpt>
      <trkpt lat="45.01458" lon="5.58386">
        <ele>1912.6</ele>
        <time>2021-12-18T09:04:41Z</time>
      </trkpt>
      <trkpt lat="45.01457" lon="5.58387">
        <ele>1912.6</ele>
        <time>2021-12-18T09:04:44Z</time>
      </trkpt>
      <trkpt lat="45.01457" lon="5.58387">
        <ele>1912.6</ele>
        <time>2021-12-18T09:04:45Z</time>
      </trkpt>
      <trkpt lat="45.01458" lon="5.58385">
        <ele>1912.6</ele>
        <time>2021-12-18T09:04:50Z</time>
      </trkpt>
      <trkpt lat="45.01459" lon="5.58383">
        <ele>1912.4</ele>
        <time>2021-12-18T09:04:53Z</time>
      </trkpt>
      <trkpt lat="45.01463" lon="5.5838">
        <ele>1912.6</ele>
        <time>2021-12-18T09:04:59Z</time>
      </trkpt>
      <trkpt lat="45.01463" lon="5.58379">
        <ele>1912.6</ele>
        <time>2021-12-18T09:05:02Z</time>
      </trkpt>
      <trkpt lat="45.01461" lon="5.58381">
        <ele>1912.6</ele>
        <time>2021-12-18T09:05:06Z</time>
      </trkpt>
      <trkpt lat="45.01462" lon="5.5838">
        <ele>1912.6</ele>
        <time>2021-12-18T09:05:07Z</time>
      </trkpt>
      <trkpt lat="45.01462" lon="5.5838">
        <ele>1912.4</ele>
        <time>2021-12-18T09:05:08Z</time>
      </trkpt>
      <trkpt lat="45.01462" lon="5.58374">
        <ele>1912.8</ele>
        <time>2021-12-18T09:11:44Z</time>
      </trkpt>
      <trkpt lat="45.01461" lon="5.58374">
        <ele>1912.8</ele>
        <time>2021-12-18T09:11:45Z</time>
      </trkpt>
      <trkpt lat="45.0146" lon="5.58374">
        <ele>1912.6</ele>
        <time>2021-12-18T09:11:51Z</time>
      </trkpt>
      <trkpt lat="45.0146" lon="5.58374">
        <ele>1912.4</ele>
        <time>2021-12-18T09:11:59Z</time>
      </trkpt>
      <trkpt lat="45.0146" lon="5.58374">
        <ele>1912.4</ele>
        <time>2021-12-18T09:12:02Z</time>
      </trkpt>
      <trkpt lat="45.0146" lon="5.58374">
        <ele>1912.4</ele>
        <time>2021-12-18T09:12:12Z</time>
      </trkpt>
      <trkpt lat="45.01463" lon="5.58373">
        <ele>1912.2</ele>
        <time>2021-12-18T09:12:28Z</time>
      </trkpt>
      <trkpt lat="45.01463" lon="5.58373">
        <ele>1912.2</ele>
        <time>2021-12-18T09:12:31Z</time>
      </trkpt>
      <trkpt lat="45.01463" lon="5.58373">
        <ele>1912.2</ele>
        <time>2021-12-18T09:12:42Z</time>
      </trkpt>
      <trkpt lat="45.01463" lon="5.58374">
        <ele>1911.8</ele>
        <time>2021-12-18T09:12:47Z</time>
      </trkpt>
      <trkpt lat="45.01459" lon="5.58373">
        <ele>1910.8</ele>
        <time>2021-12-18T09:12:55Z</time>
      </trkpt>
      <trkpt lat="45.01456" lon="5.58373">
        <ele>1909.6</ele>
        <time>2021-12-18T09:12:56Z</time>
      </trkpt>
      <trkpt lat="45.01454" lon="5.58371">
        <ele>1908.4</ele>
        <time>2021-12-18T09:12:57Z</time>
      </trkpt>
      <trkpt lat="45.01452" lon="5.58367">
        <ele>1907</ele>
        <time>2021-12-18T09:12:58Z</time>
      </trkpt>
      <trkpt lat="45.0145" lon="5.58363">
        <ele>1905.4</ele>
        <time>2021-12-18T09:12:59Z</time>
      </trkpt>
      <trkpt lat="45.01449" lon="5.58355">
        <ele>1903.4</ele>
        <time>2021-12-18T09:13:01Z</time>
      </trkpt>
      <trkpt lat="45.01448" lon="5.58352">
        <ele>1902.6</ele>
        <time>2021-12-18T09:13:02Z</time>
      </trkpt>
      <trkpt lat="45.01445" lon="5.58351">
        <ele>1902.2</ele>
        <time>2021-12-18T09:13:03Z</time>
      </trkpt>
      <trkpt lat="45.01443" lon="5.5835">
        <ele>1901</ele>
        <time>2021-12-18T09:13:04Z</time>
      </trkpt>
      <trkpt lat="45.01443" lon="5.58348">
        <ele>1899.8</ele>
        <time>2021-12-18T09:13:05Z</time>
      </trkpt>
      <trkpt lat="45.01445" lon="5.58344">
        <ele>1898.2</ele>
        <time>2021-12-18T09:13:06Z</time>
      </trkpt>
      <trkpt lat="45.01446" lon="5.5834">
        <ele>1897</ele>
        <time>2021-12-18T09:13:07Z</time>
      </trkpt>
      <trkpt lat="45.01449" lon="5.58332">
        <ele>1895.2</ele>
        <time>2021-12-18T09:13:09Z</time>
      </trkpt>
      <trkpt lat="45.01449" lon="5.5833">
        <ele>1893.8</ele>
        <time>2021-12-18T09:13:10Z</time>
      </trkpt>
      <trkpt lat="45.01447" lon="5.58326">
        <ele>1892.4</ele>
        <time>2021-12-18T09:13:12Z</time>
      </trkpt>
      <trkpt lat="45.01445" lon="5.58327">
        <ele>1891.8</ele>
        <time>2021-12-18T09:13:13Z</time>
      </trkpt>
      <trkpt lat="45.01444" lon="5.58326">
        <ele>1891</ele>
        <time>2021-12-18T09:13:14Z</time>
      </trkpt>
      <trkpt lat="45.01443" lon="5.58324">
        <ele>1889.6</ele>
        <time>2021-12-18T09:13:15Z</time>
      </trkpt>
      <trkpt lat="45.01443" lon="5.58323">
        <ele>1888.4</ele>
        <time>2021-12-18T09:13:16Z</time>
      </trkpt>
      <trkpt lat="45.01442" lon="5.58323">
        <ele>1887</ele>
        <time>2021-12-18T09:13:17Z</time>
      </trkpt>
      <trkpt lat="45.0144" lon="5.58323">
        <ele>1886.2</ele>
        <time>2021-12-18T09:13:18Z</time>
      </trkpt>
      <trkpt lat="45.01438" lon="5.58323">
        <ele>1884.8</ele>
        <time>2021-12-18T09:13:19Z</time>
      </trkpt>
      <trkpt lat="45.01438" lon="5.5832">
        <ele>1883</ele>
        <time>2021-12-18T09:13:20Z</time>
      </trkpt>
      <trkpt lat="45.01437" lon="5.58317">
        <ele>1881.2</ele>
        <time>2021-12-18T09:13:21Z</time>
      </trkpt>
      <trkpt lat="45.01436" lon="5.58315">
        <ele>1879.4</ele>
        <time>2021-12-18T09:13:22Z</time>
      </trkpt>
      <trkpt lat="45.01435" lon="5.58313">
        <ele>1878.2</ele>
        <time>2021-12-18T09:13:23Z</time>
      </trkpt>
      <trkpt lat="45.0143" lon="5.5831">
        <ele>1876.6</ele>
        <time>2021-12-18T09:13:25Z</time>
      </trkpt>
      <trkpt lat="45.01428" lon="5.58308">
        <ele>1875.4</ele>
        <time>2021-12-18T09:13:26Z</time>
      </trkpt>
      <trkpt lat="45.01425" lon="5.58307">
        <ele>1874.6</ele>
        <time>2021-12-18T09:13:27Z</time>
      </trkpt>
      <trkpt lat="45.01423" lon="5.58307">
        <ele>1874.2</ele>
        <time>2021-12-18T09:13:28Z</time>
      </trkpt>
      <trkpt lat="45.01422" lon="5.58308">
        <ele>1873.2</ele>
        <time>2021-12-18T09:13:29Z</time>
      </trkpt>
      <trkpt lat="45.0142" lon="5.58311">
        <ele>1872.2</ele>
        <time>2021-12-18T09:13:30Z</time>
      </trkpt>
      <trkpt lat="45.01418" lon="5.58313">
        <ele>1870.6</ele>
        <time>2021-12-18T09:13:31Z</time>
      </trkpt>
      <trkpt lat="45.01416" lon="5.58315">
        <ele>1869</ele>
        <time>2021-12-18T09:13:32Z</time>
      </trkpt>
      <trkpt lat="45.01414" lon="5.58319">
        <ele>1867</ele>
        <time>2021-12-18T09:13:33Z</time>
      </trkpt>
      <trkpt lat="45.01414" lon="5.58321">
        <ele>1865.6</ele>
        <time>2021-12-18T09:13:34Z</time>
      </trkpt>
      <trkpt lat="45.01411" lon="5.58321">
        <ele>1863.4</ele>
        <time>2021-12-18T09:13:35Z</time>
      </trkpt>
      <trkpt lat="45.01409" lon="5.5832">
        <ele>1861.6</ele>
        <time>2021-12-18T09:13:36Z</time>
      </trkpt>
      <trkpt lat="45.01407" lon="5.58319">
        <ele>1859.6</ele>
        <time>2021-12-18T09:13:37Z</time>
      </trkpt>
      <trkpt lat="45.01404" lon="5.58318">
        <ele>1858.4</ele>
        <time>2021-12-18T09:13:38Z</time>
      </trkpt>
      <trkpt lat="45.01401" lon="5.58316">
        <ele>1857.4</ele>
        <time>2021-12-18T09:13:39Z</time>
      </trkpt>
      <trkpt lat="45.01398" lon="5.58316">
        <ele>1856.4</ele>
        <time>2021-12-18T09:13:40Z</time>
      </trkpt>
      <trkpt lat="45.01396" lon="5.58318">
        <ele>1855.4</ele>
        <time>2021-12-18T09:13:41Z</time>
      </trkpt>
      <trkpt lat="45.01395" lon="5.5832">
        <ele>1854.8</ele>
        <time>2021-12-18T09:13:42Z</time>
      </trkpt>
      <trkpt lat="45.01395" lon="5.5832">
        <ele>1854</ele>
        <time>2021-12-18T09:13:43Z</time>
      </trkpt>
      <trkpt lat="45.01396" lon="5.58318">
        <ele>1851.8</ele>
        <time>2021-12-18T09:13:44Z</time>
      </trkpt>
      <trkpt lat="45.01396" lon="5.58314">
        <ele>1850</ele>
        <time>2021-12-18T09:13:45Z</time>
      </trkpt>
      <trkpt lat="45.01397" lon="5.5831">
        <ele>1848.4</ele>
        <time>2021-12-18T09:13:46Z</time>
      </trkpt>
      <trkpt lat="45.01397" lon="5.58312">
        <ele>1847</ele>
        <time>2021-12-18T09:13:47Z</time>
      </trkpt>
      <trkpt lat="45.01397" lon="5.58313">
        <ele>1845.8</ele>
        <time>2021-12-18T09:13:48Z</time>
      </trkpt>
      <trkpt lat="45.01397" lon="5.58316">
        <ele>1844</ele>
        <time>2021-12-18T09:13:49Z</time>
      </trkpt>
      <trkpt lat="45.01396" lon="5.58319">
        <ele>1841.8</ele>
        <time>2021-12-18T09:13:50Z</time>
      </trkpt>
      <trkpt lat="45.01395" lon="5.58324">
        <ele>1839.8</ele>
        <time>2021-12-18T09:13:51Z</time>
      </trkpt>
      <trkpt lat="45.01395" lon="5.58328">
        <ele>1838</ele>
        <time>2021-12-18T09:13:52Z</time>
      </trkpt>
      <trkpt lat="45.01393" lon="5.58332">
        <ele>1836.2</ele>
        <time>2021-12-18T09:13:53Z</time>
      </trkpt>
      <trkpt lat="45.01391" lon="5.58335">
        <ele>1833.8</ele>
        <time>2021-12-18T09:13:54Z</time>
      </trkpt>
      <trkpt lat="45.01388" lon="5.58337">
        <ele>1832</ele>
        <time>2021-12-18T09:13:55Z</time>
      </trkpt>
      <trkpt lat="45.01387" lon="5.58338">
        <ele>1830</ele>
        <time>2021-12-18T09:13:56Z</time>
      </trkpt>
      <trkpt lat="45.01385" lon="5.58339">
        <ele>1828.6</ele>
        <time>2021-12-18T09:13:57Z</time>
      </trkpt>
      <trkpt lat="45.01381" lon="5.58341">
        <ele>1827</ele>
        <time>2021-12-18T09:13:59Z</time>
      </trkpt>
      <trkpt lat="45.01377" lon="5.58343">
        <ele>1825.6</ele>
        <time>2021-12-18T09:14:01Z</time>
      </trkpt>
      <trkpt lat="45.01376" lon="5.58343">
        <ele>1825.4</ele>
        <time>2021-12-18T09:14:02Z</time>
      </trkpt>
      <trkpt lat="45.01376" lon="5.58343">
        <ele>1825.2</ele>
        <time>2021-12-18T09:14:04Z</time>
      </trkpt>
      <trkpt lat="45.01375" lon="5.58344">
        <ele>1825</ele>
        <time>2021-12-18T09:14:06Z</time>
      </trkpt>
      <trkpt lat="45.01373" lon="5.58347">
        <ele>1825</ele>
        <time>2021-12-18T09:14:09Z</time>
      </trkpt>
      <trkpt lat="45.01372" lon="5.58349">
        <ele>1825</ele>
        <time>2021-12-18T09:14:10Z</time>
      </trkpt>
      <trkpt lat="45.0137" lon="5.58353">
        <ele>1824.6</ele>
        <time>2021-12-18T09:14:13Z</time>
      </trkpt>
      <trkpt lat="45.01369" lon="5.58353">
        <ele>1824.6</ele>
        <time>2021-12-18T09:14:14Z</time>
      </trkpt>
      <trkpt lat="45.01368" lon="5.58355">
        <ele>1824.6</ele>
        <time>2021-12-18T09:14:18Z</time>
      </trkpt>
      <trkpt lat="45.01364" lon="5.58358">
        <ele>1824.6</ele>
        <time>2021-12-18T09:14:23Z</time>
      </trkpt>
      <trkpt lat="45.01363" lon="5.58359">
        <ele>1824.4</ele>
        <time>2021-12-18T09:14:27Z</time>
      </trkpt>
      <trkpt lat="45.01364" lon="5.58361">
        <ele>1824.4</ele>
        <time>2021-12-18T09:14:32Z</time>
      </trkpt>
      <trkpt lat="45.01365" lon="5.58361">
        <ele>1824.4</ele>
        <time>2021-12-18T09:14:37Z</time>
      </trkpt>
      <trkpt lat="45.01363" lon="5.58362">
        <ele>1824.2</ele>
        <time>2021-12-18T09:14:43Z</time>
      </trkpt>
      <trkpt lat="45.01364" lon="5.58363">
        <ele>1824</ele>
        <time>2021-12-18T09:14:47Z</time>
      </trkpt>
      <trkpt lat="45.01364" lon="5.58363">
        <ele>1824</ele>
        <time>2021-12-18T09:14:54Z</time>
      </trkpt>
      <trkpt lat="45.01366" lon="5.58362">
        <ele>1824</ele>
        <time>2021-12-18T09:14:58Z</time>
      </trkpt>
      <trkpt lat="45.01366" lon="5.58364">
        <ele>1823.8</ele>
        <time>2021-12-18T09:15:03Z</time>
      </trkpt>
      <trkpt lat="45.01368" lon="5.58365">
        <ele>1823.6</ele>
        <time>2021-12-18T09:15:07Z</time>
      </trkpt>
      <trkpt lat="45.01369" lon="5.58368">
        <ele>1823.4</ele>
        <time>2021-12-18T09:15:09Z</time>
      </trkpt>
      <trkpt lat="45.01373" lon="5.58368">
        <ele>1822.4</ele>
        <time>2021-12-18T09:15:12Z</time>
      </trkpt>
      <trkpt lat="45.01373" lon="5.58368">
        <ele>1822</ele>
        <time>2021-12-18T09:15:14Z</time>
      </trkpt>
      <trkpt lat="45.01373" lon="5.58368">
        <ele>1821.8</ele>
        <time>2021-12-18T09:15:16Z</time>
      </trkpt>
      <trkpt lat="45.01374" lon="5.58367">
        <ele>1821.8</ele>
        <time>2021-12-18T09:15:20Z</time>
      </trkpt>
      <trkpt lat="45.01376" lon="5.58366">
        <ele>1822.4</ele>
        <time>2021-12-18T09:15:24Z</time>
      </trkpt>
      <trkpt lat="45.01377" lon="5.58368">
        <ele>1822.8</ele>
        <time>2021-12-18T09:15:27Z</time>
      </trkpt>
      <trkpt lat="45.01377" lon="5.58369">
        <ele>1823.2</ele>
        <time>2021-12-18T09:15:28Z</time>
      </trkpt>
      <trkpt lat="45.01378" lon="5.5837">
        <ele>1823.4</ele>
        <time>2021-12-18T09:15:30Z</time>
      </trkpt>
      <trkpt lat="45.01381" lon="5.58377">
        <ele>1823.2</ele>
        <time>2021-12-18T09:15:34Z</time>
      </trkpt>
      <trkpt lat="45.0138" lon="5.58379">
        <ele>1822.4</ele>
        <time>2021-12-18T09:15:35Z</time>
      </trkpt>
      <trkpt lat="45.0138" lon="5.58381">
        <ele>1821</ele>
        <time>2021-12-18T09:15:36Z</time>
      </trkpt>
      <trkpt lat="45.01378" lon="5.58382">
        <ele>1820</ele>
        <time>2021-12-18T09:15:37Z</time>
      </trkpt>
      <trkpt lat="45.01377" lon="5.58384">
        <ele>1818.2</ele>
        <time>2021-12-18T09:15:38Z</time>
      </trkpt>
      <trkpt lat="45.01376" lon="5.58385">
        <ele>1816.8</ele>
        <time>2021-12-18T09:15:39Z</time>
      </trkpt>
      <trkpt lat="45.01374" lon="5.58387">
        <ele>1815.8</ele>
        <time>2021-12-18T09:15:40Z</time>
      </trkpt>
      <trkpt lat="45.01372" lon="5.58388">
        <ele>1814.2</ele>
        <time>2021-12-18T09:15:41Z</time>
      </trkpt>
      <trkpt lat="45.01371" lon="5.58391">
        <ele>1813</ele>
        <time>2021-12-18T09:15:42Z</time>
      </trkpt>
      <trkpt lat="45.01371" lon="5.58393">
        <ele>1810.8</ele>
        <time>2021-12-18T09:15:43Z</time>
      </trkpt>
      <trkpt lat="45.01369" lon="5.58395">
        <ele>1809.2</ele>
        <time>2021-12-18T09:15:44Z</time>
      </trkpt>
      <trkpt lat="45.01368" lon="5.58398">
        <ele>1807.2</ele>
        <time>2021-12-18T09:15:45Z</time>
      </trkpt>
      <trkpt lat="45.01368" lon="5.584">
        <ele>1805.2</ele>
        <time>2021-12-18T09:15:46Z</time>
      </trkpt>
      <trkpt lat="45.01368" lon="5.584">
        <ele>1803.6</ele>
        <time>2021-12-18T09:15:47Z</time>
      </trkpt>
      <trkpt lat="45.01367" lon="5.584">
        <ele>1801.6</ele>
        <time>2021-12-18T09:15:48Z</time>
      </trkpt>
      <trkpt lat="45.01366" lon="5.58399">
        <ele>1799.6</ele>
        <time>2021-12-18T09:15:49Z</time>
      </trkpt>
      <trkpt lat="45.01365" lon="5.58398">
        <ele>1797.8</ele>
        <time>2021-12-18T09:15:50Z</time>
      </trkpt>
      <trkpt lat="45.01365" lon="5.58397">
        <ele>1796.8</ele>
        <time>2021-12-18T09:15:51Z</time>
      </trkpt>
      <trkpt lat="45.01363" lon="5.58398">
        <ele>1796.2</ele>
        <time>2021-12-18T09:15:52Z</time>
      </trkpt>
      <trkpt lat="45.01362" lon="5.58396">
        <ele>1795.8</ele>
        <time>2021-12-18T09:15:56Z</time>
      </trkpt>
      <trkpt lat="45.01364" lon="5.58392">
        <ele>1795.8</ele>
        <time>2021-12-18T09:15:58Z</time>
      </trkpt>
      <trkpt lat="45.01366" lon="5.58389">
        <ele>1795.8</ele>
        <time>2021-12-18T09:16:00Z</time>
      </trkpt>
      <trkpt lat="45.01365" lon="5.58389">
        <ele>1795.8</ele>
        <time>2021-12-18T09:16:02Z</time>
      </trkpt>
      <trkpt lat="45.01364" lon="5.58391">
        <ele>1795.6</ele>
        <time>2021-12-18T09:16:04Z</time>
      </trkpt>
      <trkpt lat="45.01365" lon="5.58388">
        <ele>1795.8</ele>
        <time>2021-12-18T09:16:09Z</time>
      </trkpt>
      <trkpt lat="45.0137" lon="5.58382">
        <ele>1795.8</ele>
        <time>2021-12-18T09:16:15Z</time>
      </trkpt>
      <trkpt lat="45.0137" lon="5.58382">
        <ele>1795.8</ele>
        <time>2021-12-18T09:16:16Z</time>
      </trkpt>
      <trkpt lat="45.01368" lon="5.58385">
        <ele>1795.8</ele>
        <time>2021-12-18T09:16:18Z</time>
      </trkpt>
      <trkpt lat="45.01368" lon="5.58385">
        <ele>1795.8</ele>
        <time>2021-12-18T09:16:19Z</time>
      </trkpt>
      <trkpt lat="45.01367" lon="5.58386">
        <ele>1795.8</ele>
        <time>2021-12-18T09:16:22Z</time>
      </trkpt>
      <trkpt lat="45.01365" lon="5.58389">
        <ele>1795.8</ele>
        <time>2021-12-18T09:16:24Z</time>
      </trkpt>
      <trkpt lat="45.01366" lon="5.58388">
        <ele>1795.8</ele>
        <time>2021-12-18T09:16:25Z</time>
      </trkpt>
      <trkpt lat="45.01365" lon="5.58388">
        <ele>1795.8</ele>
        <time>2021-12-18T09:16:26Z</time>
      </trkpt>
      <trkpt lat="45.01365" lon="5.58389">
        <ele>1795.6</ele>
        <time>2021-12-18T09:16:28Z</time>
      </trkpt>
      <trkpt lat="45.01363" lon="5.58391">
        <ele>1795.6</ele>
        <time>2021-12-18T09:16:29Z</time>
      </trkpt>
      <trkpt lat="45.01362" lon="5.58393">
        <ele>1795.6</ele>
        <time>2021-12-18T09:16:30Z</time>
      </trkpt>
      <trkpt lat="45.01363" lon="5.58393">
        <ele>1795.4</ele>
        <time>2021-12-18T09:16:32Z</time>
      </trkpt>
      <trkpt lat="45.01364" lon="5.58394">
        <ele>1795.4</ele>
        <time>2021-12-18T09:16:35Z</time>
      </trkpt>
      <trkpt lat="45.01362" lon="5.58395">
        <ele>1795.4</ele>
        <time>2021-12-18T09:16:38Z</time>
      </trkpt>
      <trkpt lat="45.01365" lon="5.58388">
        <ele>1795.6</ele>
        <time>2021-12-18T09:16:43Z</time>
      </trkpt>
      <trkpt lat="45.01365" lon="5.58388">
        <ele>1795.6</ele>
        <time>2021-12-18T09:16:45Z</time>
      </trkpt>
      <trkpt lat="45.01365" lon="5.58388">
        <ele>1795.4</ele>
        <time>2021-12-18T09:16:48Z</time>
      </trkpt>
      <trkpt lat="45.0136" lon="5.58384">
        <ele>1795.2</ele>
        <time>2021-12-18T09:16:51Z</time>
      </trkpt>
      <trkpt lat="45.01358" lon="5.58381">
        <ele>1794.6</ele>
        <time>2021-12-18T09:16:52Z</time>
      </trkpt>
      <trkpt lat="45.01354" lon="5.58374">
        <ele>1793</ele>
        <time>2021-12-18T09:16:54Z</time>
      </trkpt>
      <trkpt lat="45.01352" lon="5.58371">
        <ele>1792.6</ele>
        <time>2021-12-18T09:16:55Z</time>
      </trkpt>
      <trkpt lat="45.01351" lon="5.58366">
        <ele>1791.4</ele>
        <time>2021-12-18T09:16:56Z</time>
      </trkpt>
      <trkpt lat="45.01349" lon="5.58354">
        <ele>1790.2</ele>
        <time>2021-12-18T09:16:58Z</time>
      </trkpt>
      <trkpt lat="45.01347" lon="5.58348">
        <ele>1789.4</ele>
        <time>2021-12-18T09:16:59Z</time>
      </trkpt>
      <trkpt lat="45.01345" lon="5.58345">
        <ele>1789</ele>
        <time>2021-12-18T09:17:00Z</time>
      </trkpt>
      <trkpt lat="45.0134" lon="5.58339">
        <ele>1787.8</ele>
        <time>2021-12-18T09:17:02Z</time>
      </trkpt>
      <trkpt lat="45.01337" lon="5.58335">
        <ele>1787.2</ele>
        <time>2021-12-18T09:17:03Z</time>
      </trkpt>
      <trkpt lat="45.01333" lon="5.58331">
        <ele>1786.2</ele>
        <time>2021-12-18T09:17:04Z</time>
      </trkpt>
      <trkpt lat="45.01325" lon="5.58321">
        <ele>1784.4</ele>
        <time>2021-12-18T09:17:06Z</time>
      </trkpt>
      <trkpt lat="45.01321" lon="5.58317">
        <ele>1783.6</ele>
        <time>2021-12-18T09:17:07Z</time>
      </trkpt>
      <trkpt lat="45.01318" lon="5.58314">
        <ele>1782.4</ele>
        <time>2021-12-18T09:17:08Z</time>
      </trkpt>
      <trkpt lat="45.01311" lon="5.58308">
        <ele>1780.8</ele>
        <time>2021-12-18T09:17:10Z</time>
      </trkpt>
      <trkpt lat="45.01307" lon="5.58306">
        <ele>1780.2</ele>
        <time>2021-12-18T09:17:11Z</time>
      </trkpt>
      <trkpt lat="45.01303" lon="5.58304">
        <ele>1779.6</ele>
        <time>2021-12-18T09:17:12Z</time>
      </trkpt>
      <trkpt lat="45.01295" lon="5.58303">
        <ele>1778</ele>
        <time>2021-12-18T09:17:14Z</time>
      </trkpt>
      <trkpt lat="45.01288" lon="5.5831">
        <ele>1776.6</ele>
        <time>2021-12-18T09:17:16Z</time>
      </trkpt>
      <trkpt lat="45.01283" lon="5.5832">
        <ele>1773.4</ele>
        <time>2021-12-18T09:17:18Z</time>
      </trkpt>
      <trkpt lat="45.0128" lon="5.58326">
        <ele>1771.6</ele>
        <time>2021-12-18T09:17:19Z</time>
      </trkpt>
      <trkpt lat="45.01277" lon="5.58333">
        <ele>1768.2</ele>
        <time>2021-12-18T09:17:20Z</time>
      </trkpt>
      <trkpt lat="45.01274" lon="5.58337">
        <ele>1766</ele>
        <time>2021-12-18T09:17:21Z</time>
      </trkpt>
      <trkpt lat="45.01271" lon="5.5834">
        <ele>1763</ele>
        <time>2021-12-18T09:17:22Z</time>
      </trkpt>
      <trkpt lat="45.01267" lon="5.58343">
        <ele>1760</ele>
        <time>2021-12-18T09:17:23Z</time>
      </trkpt>
      <trkpt lat="45.01267" lon="5.5835">
        <ele>1757.6</ele>
        <time>2021-12-18T09:17:24Z</time>
      </trkpt>
      <trkpt lat="45.01265" lon="5.58358">
        <ele>1755.4</ele>
        <time>2021-12-18T09:17:25Z</time>
      </trkpt>
      <trkpt lat="45.01261" lon="5.58363">
        <ele>1752.6</ele>
        <time>2021-12-18T09:17:26Z</time>
      </trkpt>
      <trkpt lat="45.01257" lon="5.58368">
        <ele>1750.2</ele>
        <time>2021-12-18T09:17:27Z</time>
      </trkpt>
      <trkpt lat="45.01255" lon="5.58374">
        <ele>1747</ele>
        <time>2021-12-18T09:17:28Z</time>
      </trkpt>
      <trkpt lat="45.01253" lon="5.58381">
        <ele>1745</ele>
        <time>2021-12-18T09:17:29Z</time>
      </trkpt>
      <trkpt lat="45.01249" lon="5.58387">
        <ele>1742.2</ele>
        <time>2021-12-18T09:17:30Z</time>
      </trkpt>
      <trkpt lat="45.01244" lon="5.58393">
        <ele>1739.8</ele>
        <time>2021-12-18T09:17:31Z</time>
      </trkpt>
      <trkpt lat="45.01241" lon="5.58399">
        <ele>1736.6</ele>
        <time>2021-12-18T09:17:32Z</time>
      </trkpt>
      <trkpt lat="45.01239" lon="5.58407">
        <ele>1734.6</ele>
        <time>2021-12-18T09:17:33Z</time>
      </trkpt>
      <trkpt lat="45.01235" lon="5.58411">
        <ele>1731.8</ele>
        <time>2021-12-18T09:17:34Z</time>
      </trkpt>
      <trkpt lat="45.01232" lon="5.58414">
        <ele>1729.4</ele>
        <time>2021-12-18T09:17:35Z</time>
      </trkpt>
      <trkpt lat="45.0123" lon="5.58418">
        <ele>1726.4</ele>
        <time>2021-12-18T09:17:36Z</time>
      </trkpt>
      <trkpt lat="45.01228" lon="5.58423">
        <ele>1724.6</ele>
        <time>2021-12-18T09:17:37Z</time>
      </trkpt>
      <trkpt lat="45.01225" lon="5.58428">
        <ele>1722</ele>
        <time>2021-12-18T09:17:38Z</time>
      </trkpt>
      <trkpt lat="45.01222" lon="5.58431">
        <ele>1719.4</ele>
        <time>2021-12-18T09:17:39Z</time>
      </trkpt>
      <trkpt lat="45.0122" lon="5.58434">
        <ele>1716.2</ele>
        <time>2021-12-18T09:17:40Z</time>
      </trkpt>
      <trkpt lat="45.01218" lon="5.58438">
        <ele>1713.8</ele>
        <time>2021-12-18T09:17:41Z</time>
      </trkpt>
      <trkpt lat="45.01216" lon="5.58442">
        <ele>1711.4</ele>
        <time>2021-12-18T09:17:42Z</time>
      </trkpt>
      <trkpt lat="45.01213" lon="5.58445">
        <ele>1708.4</ele>
        <time>2021-12-18T09:17:43Z</time>
      </trkpt>
      <trkpt lat="45.0121" lon="5.58448">
        <ele>1705.8</ele>
        <time>2021-12-18T09:17:44Z</time>
      </trkpt>
      <trkpt lat="45.01208" lon="5.58452">
        <ele>1703.4</ele>
        <time>2021-12-18T09:17:45Z</time>
      </trkpt>
      <trkpt lat="45.01207" lon="5.58456">
        <ele>1700.6</ele>
        <time>2021-12-18T09:17:46Z</time>
      </trkpt>
      <trkpt lat="45.01204" lon="5.5846">
        <ele>1697.8</ele>
        <time>2021-12-18T09:17:47Z</time>
      </trkpt>
      <trkpt lat="45.01201" lon="5.58461">
        <ele>1695.2</ele>
        <time>2021-12-18T09:17:48Z</time>
      </trkpt>
      <trkpt lat="45.01199" lon="5.58461">
        <ele>1692.6</ele>
        <time>2021-12-18T09:17:49Z</time>
      </trkpt>
      <trkpt lat="45.01195" lon="5.58462">
        <ele>1690.6</ele>
        <time>2021-12-18T09:17:50Z</time>
      </trkpt>
      <trkpt lat="45.01194" lon="5.58465">
        <ele>1689.6</ele>
        <time>2021-12-18T09:17:51Z</time>
      </trkpt>
      <trkpt lat="45.01192" lon="5.58468">
        <ele>1687.4</ele>
        <time>2021-12-18T09:17:52Z</time>
      </trkpt>
      <trkpt lat="45.01189" lon="5.5847">
        <ele>1685.2</ele>
        <time>2021-12-18T09:17:53Z</time>
      </trkpt>
      <trkpt lat="45.01186" lon="5.58469">
        <ele>1682.4</ele>
        <time>2021-12-18T09:17:54Z</time>
      </trkpt>
      <trkpt lat="45.01184" lon="5.58471">
        <ele>1680</ele>
        <time>2021-12-18T09:17:55Z</time>
      </trkpt>
      <trkpt lat="45.01185" lon="5.5847">
        <ele>1678.8</ele>
        <time>2021-12-18T09:17:56Z</time>
      </trkpt>
      <trkpt lat="45.01185" lon="5.5847">
        <ele>1677.4</ele>
        <time>2021-12-18T09:17:57Z</time>
      </trkpt>
      <trkpt lat="45.01186" lon="5.5847">
        <ele>1676.6</ele>
        <time>2021-12-18T09:17:58Z</time>
      </trkpt>
      <trkpt lat="45.01188" lon="5.58468">
        <ele>1676</ele>
        <time>2021-12-18T09:17:59Z</time>
      </trkpt>
      <trkpt lat="45.01189" lon="5.58466">
        <ele>1675.6</ele>
        <time>2021-12-18T09:18:01Z</time>
      </trkpt>
      <trkpt lat="45.01195" lon="5.58461">
        <ele>1675.4</ele>
        <time>2021-12-18T09:18:05Z</time>
      </trkpt>
      <trkpt lat="45.01196" lon="5.58461">
        <ele>1675.4</ele>
        <time>2021-12-18T09:18:06Z</time>
      </trkpt>
      <trkpt lat="45.01195" lon="5.58463">
        <ele>1675.6</ele>
        <time>2021-12-18T09:18:08Z</time>
      </trkpt>
      <trkpt lat="45.01193" lon="5.58466">
        <ele>1675.8</ele>
        <time>2021-12-18T09:18:12Z</time>
      </trkpt>
      <trkpt lat="45.01193" lon="5.58466">
        <ele>1675.8</ele>
        <time>2021-12-18T09:18:13Z</time>
      </trkpt>
      <trkpt lat="45.01194" lon="5.58467">
        <ele>1675.6</ele>
        <time>2021-12-18T09:18:18Z</time>
      </trkpt>
      <trkpt lat="45.01196" lon="5.58464">
        <ele>1675.6</ele>
        <time>2021-12-18T09:18:24Z</time>
      </trkpt>
      <trkpt lat="45.01198" lon="5.58461">
        <ele>1675.4</ele>
        <time>2021-12-18T09:18:29Z</time>
      </trkpt>
      <trkpt lat="45.01197" lon="5.58463">
        <ele>1675.4</ele>
        <time>2021-12-18T09:18:31Z</time>
      </trkpt>
      <trkpt lat="45.01193" lon="5.58468">
        <ele>1675.4</ele>
        <time>2021-12-18T09:18:33Z</time>
      </trkpt>
      <trkpt lat="45.01192" lon="5.58469">
        <ele>1675.4</ele>
        <time>2021-12-18T09:18:37Z</time>
      </trkpt>
      <trkpt lat="45.01193" lon="5.58469">
        <ele>1675.4</ele>
        <time>2021-12-18T09:18:40Z</time>
      </trkpt>
      <trkpt lat="45.01193" lon="5.58468">
        <ele>1675.4</ele>
        <time>2021-12-18T09:18:42Z</time>
      </trkpt>
      <trkpt lat="45.01193" lon="5.58468">
        <ele>1675.4</ele>
        <time>2021-12-18T09:18:45Z</time>
      </trkpt>
      <trkpt lat="45.01186" lon="5.58468">
        <ele>1675</ele>
        <time>2021-12-18T09:18:52Z</time>
      </trkpt>
      <trkpt lat="45.0118" lon="5.58469">
        <ele>1674</ele>
        <time>2021-12-18T09:18:55Z</time>
      </trkpt>
      <trkpt lat="45.01178" lon="5.58471">
        <ele>1673.4</ele>
        <time>2021-12-18T09:18:56Z</time>
      </trkpt>
      <trkpt lat="45.01179" lon="5.58469">
        <ele>1672.6</ele>
        <time>2021-12-18T09:19:00Z</time>
      </trkpt>
      <trkpt lat="45.01179" lon="5.58469">
        <ele>1672.4</ele>
        <time>2021-12-18T09:19:07Z</time>
      </trkpt>
      <trkpt lat="45.01179" lon="5.58469">
        <ele>1672.4</ele>
        <time>2021-12-18T09:19:08Z</time>
      </trkpt>
      <trkpt lat="45.01179" lon="5.58469">
        <ele>1672.4</ele>
        <time>2021-12-18T09:19:09Z</time>
      </trkpt>
      <trkpt lat="45.01179" lon="5.58469">
        <ele>1672.2</ele>
        <time>2021-12-18T09:19:11Z</time>
      </trkpt>
      <trkpt lat="45.01179" lon="5.58469">
        <ele>1672.2</ele>
        <time>2021-12-18T09:19:13Z</time>
      </trkpt>
      <trkpt lat="45.01179" lon="5.58468">
        <ele>1672.2</ele>
        <time>2021-12-18T09:19:16Z</time>
      </trkpt>
      <trkpt lat="45.01179" lon="5.58468">
        <ele>1672.2</ele>
        <time>2021-12-18T09:19:18Z</time>
      </trkpt>
      <trkpt lat="45.01179" lon="5.58468">
        <ele>1672</ele>
        <time>2021-12-18T09:19:21Z</time>
      </trkpt>
      <trkpt lat="45.01179" lon="5.58468">
        <ele>1672</ele>
        <time>2021-12-18T09:19:22Z</time>
      </trkpt>
      <trkpt lat="45.01178" lon="5.5847">
        <ele>1672</ele>
        <time>2021-12-18T09:19:29Z</time>
      </trkpt>
      <trkpt lat="45.01175" lon="5.5848">
        <ele>1670.8</ele>
        <time>2021-12-18T09:19:46Z</time>
      </trkpt>
      <trkpt lat="45.01173" lon="5.58484">
        <ele>1668.8</ele>
        <time>2021-12-18T09:19:47Z</time>
      </trkpt>
      <trkpt lat="45.0117" lon="5.5849">
        <ele>1666.8</ele>
        <time>2021-12-18T09:19:48Z</time>
      </trkpt>
      <trkpt lat="45.01168" lon="5.58498">
        <ele>1664</ele>
        <time>2021-12-18T09:19:49Z</time>
      </trkpt>
      <trkpt lat="45.01164" lon="5.58506">
        <ele>1662.4</ele>
        <time>2021-12-18T09:19:50Z</time>
      </trkpt>
      <trkpt lat="45.01161" lon="5.58513">
        <ele>1659.4</ele>
        <time>2021-12-18T09:19:51Z</time>
      </trkpt>
      <trkpt lat="45.01158" lon="5.58521">
        <ele>1656.2</ele>
        <time>2021-12-18T09:19:52Z</time>
      </trkpt>
      <trkpt lat="45.01158" lon="5.58522">
        <ele>1653.8</ele>
        <time>2021-12-18T09:19:53Z</time>
      </trkpt>
      <trkpt lat="45.01156" lon="5.58526">
        <ele>1650.6</ele>
        <time>2021-12-18T09:19:54Z</time>
      </trkpt>
      <trkpt lat="45.01154" lon="5.58532">
        <ele>1647.6</ele>
        <time>2021-12-18T09:19:55Z</time>
      </trkpt>
      <trkpt lat="45.01151" lon="5.58537">
        <ele>1645</ele>
        <time>2021-12-18T09:19:56Z</time>
      </trkpt>
      <trkpt lat="45.01147" lon="5.58541">
        <ele>1642.2</ele>
        <time>2021-12-18T09:19:57Z</time>
      </trkpt>
      <trkpt lat="45.01142" lon="5.58546">
        <ele>1639.2</ele>
        <time>2021-12-18T09:19:58Z</time>
      </trkpt>
      <trkpt lat="45.01138" lon="5.58552">
        <ele>1636.4</ele>
        <time>2021-12-18T09:19:59Z</time>
      </trkpt>
      <trkpt lat="45.01135" lon="5.58558">
        <ele>1634.8</ele>
        <time>2021-12-18T09:20:00Z</time>
      </trkpt>
      <trkpt lat="45.01132" lon="5.58562">
        <ele>1632.4</ele>
        <time>2021-12-18T09:20:01Z</time>
      </trkpt>
      <trkpt lat="45.0113" lon="5.58566">
        <ele>1629.6</ele>
        <time>2021-12-18T09:20:02Z</time>
      </trkpt>
      <trkpt lat="45.01128" lon="5.5857">
        <ele>1627.2</ele>
        <time>2021-12-18T09:20:03Z</time>
      </trkpt>
      <trkpt lat="45.01124" lon="5.58574">
        <ele>1624.8</ele>
        <time>2021-12-18T09:20:04Z</time>
      </trkpt>
      <trkpt lat="45.0112" lon="5.58576">
        <ele>1622</ele>
        <time>2021-12-18T09:20:05Z</time>
      </trkpt>
      <trkpt lat="45.01117" lon="5.5858">
        <ele>1619</ele>
        <time>2021-12-18T09:20:06Z</time>
      </trkpt>
      <trkpt lat="45.01114" lon="5.58584">
        <ele>1617.4</ele>
        <time>2021-12-18T09:20:07Z</time>
      </trkpt>
      <trkpt lat="45.01112" lon="5.58587">
        <ele>1614.8</ele>
        <time>2021-12-18T09:20:08Z</time>
      </trkpt>
      <trkpt lat="45.01109" lon="5.5859">
        <ele>1611.8</ele>
        <time>2021-12-18T09:20:09Z</time>
      </trkpt>
      <trkpt lat="45.01107" lon="5.58593">
        <ele>1608.8</ele>
        <time>2021-12-18T09:20:10Z</time>
      </trkpt>
      <trkpt lat="45.01105" lon="5.58595">
        <ele>1607.2</ele>
        <time>2021-12-18T09:20:11Z</time>
      </trkpt>
      <trkpt lat="45.01101" lon="5.58597">
        <ele>1604.4</ele>
        <time>2021-12-18T09:20:12Z</time>
      </trkpt>
      <trkpt lat="45.01099" lon="5.58601">
        <ele>1601.2</ele>
        <time>2021-12-18T09:20:13Z</time>
      </trkpt>
      <trkpt lat="45.01097" lon="5.58605">
        <ele>1598.8</ele>
        <time>2021-12-18T09:20:14Z</time>
      </trkpt>
      <trkpt lat="45.01095" lon="5.58607">
        <ele>1596.4</ele>
        <time>2021-12-18T09:20:15Z</time>
      </trkpt>
      <trkpt lat="45.01091" lon="5.58607">
        <ele>1593.6</ele>
        <time>2021-12-18T09:20:16Z</time>
      </trkpt>
      <trkpt lat="45.01087" lon="5.58607">
        <ele>1590.2</ele>
        <time>2021-12-18T09:20:17Z</time>
      </trkpt>
      <trkpt lat="45.01081" lon="5.58609">
        <ele>1587.6</ele>
        <time>2021-12-18T09:20:18Z</time>
      </trkpt>
      <trkpt lat="45.01076" lon="5.58609">
        <ele>1586</ele>
        <time>2021-12-18T09:20:19Z</time>
      </trkpt>
      <trkpt lat="45.0107" lon="5.58611">
        <ele>1584.2</ele>
        <time>2021-12-18T09:20:20Z</time>
      </trkpt>
      <trkpt lat="45.01065" lon="5.58612">
        <ele>1582.8</ele>
        <time>2021-12-18T09:20:21Z</time>
      </trkpt>
      <trkpt lat="45.0106" lon="5.58614">
        <ele>1581.4</ele>
        <time>2021-12-18T09:20:22Z</time>
      </trkpt>
      <trkpt lat="45.01057" lon="5.58618">
        <ele>1579.8</ele>
        <time>2021-12-18T09:20:23Z</time>
      </trkpt>
      <trkpt lat="45.01053" lon="5.58626">
        <ele>1576.2</ele>
        <time>2021-12-18T09:20:25Z</time>
      </trkpt>
      <trkpt lat="45.01052" lon="5.5863">
        <ele>1572.8</ele>
        <time>2021-12-18T09:20:26Z</time>
      </trkpt>
      <trkpt lat="45.01053" lon="5.58635">
        <ele>1569.4</ele>
        <time>2021-12-18T09:20:27Z</time>
      </trkpt>
      <trkpt lat="45.01053" lon="5.58643">
        <ele>1566.8</ele>
        <time>2021-12-18T09:20:28Z</time>
      </trkpt>
      <trkpt lat="45.0105" lon="5.5865">
        <ele>1563.2</ele>
        <time>2021-12-18T09:20:29Z</time>
      </trkpt>
      <trkpt lat="45.01046" lon="5.58653">
        <ele>1560</ele>
        <time>2021-12-18T09:20:30Z</time>
      </trkpt>
      <trkpt lat="45.01043" lon="5.58659">
        <ele>1556</ele>
        <time>2021-12-18T09:20:31Z</time>
      </trkpt>
      <trkpt lat="45.01042" lon="5.58668">
        <ele>1553.6</ele>
        <time>2021-12-18T09:20:32Z</time>
      </trkpt>
      <trkpt lat="45.01044" lon="5.58677">
        <ele>1550.6</ele>
        <time>2021-12-18T09:20:33Z</time>
      </trkpt>
      <trkpt lat="45.01044" lon="5.58687">
        <ele>1547.4</ele>
        <time>2021-12-18T09:20:34Z</time>
      </trkpt>
      <trkpt lat="45.01042" lon="5.58693">
        <ele>1544</ele>
        <time>2021-12-18T09:20:35Z</time>
      </trkpt>
      <trkpt lat="45.01037" lon="5.58698">
        <ele>1540.2</ele>
        <time>2021-12-18T09:20:36Z</time>
      </trkpt>
      <trkpt lat="45.01034" lon="5.58705">
        <ele>1536.2</ele>
        <time>2021-12-18T09:20:37Z</time>
      </trkpt>
      <trkpt lat="45.01033" lon="5.58717">
        <ele>1533.8</ele>
        <time>2021-12-18T09:20:38Z</time>
      </trkpt>
      <trkpt lat="45.01032" lon="5.58726">
        <ele>1530.6</ele>
        <time>2021-12-18T09:20:39Z</time>
      </trkpt>
      <trkpt lat="45.0103" lon="5.58732">
        <ele>1526.8</ele>
        <time>2021-12-18T09:20:40Z</time>
      </trkpt>
      <trkpt lat="45.01025" lon="5.58739">
        <ele>1522.4</ele>
        <time>2021-12-18T09:20:41Z</time>
      </trkpt>
      <trkpt lat="45.01023" lon="5.58745">
        <ele>1517</ele>
        <time>2021-12-18T09:20:42Z</time>
      </trkpt>
      <trkpt lat="45.01024" lon="5.58753">
        <ele>1514</ele>
        <time>2021-12-18T09:20:43Z</time>
      </trkpt>
      <trkpt lat="45.01029" lon="5.58763">
        <ele>1510.2</ele>
        <time>2021-12-18T09:20:44Z</time>
      </trkpt>
      <trkpt lat="45.0103" lon="5.58773">
        <ele>1506.6</ele>
        <time>2021-12-18T09:20:45Z</time>
      </trkpt>
      <trkpt lat="45.01027" lon="5.58781">
        <ele>1504</ele>
        <time>2021-12-18T09:20:46Z</time>
      </trkpt>
      <trkpt lat="45.01021" lon="5.58787">
        <ele>1499.2</ele>
        <time>2021-12-18T09:20:47Z</time>
      </trkpt>
      <trkpt lat="45.01017" lon="5.5879">
        <ele>1494.6</ele>
        <time>2021-12-18T09:20:48Z</time>
      </trkpt>
      <trkpt lat="45.01013" lon="5.58795">
        <ele>1491.6</ele>
        <time>2021-12-18T09:20:49Z</time>
      </trkpt>
      <trkpt lat="45.01013" lon="5.58802">
        <ele>1490</ele>
        <time>2021-12-18T09:20:50Z</time>
      </trkpt>
      <trkpt lat="45.01016" lon="5.5881">
        <ele>1487.6</ele>
        <time>2021-12-18T09:20:51Z</time>
      </trkpt>
      <trkpt lat="45.01017" lon="5.58819">
        <ele>1484.8</ele>
        <time>2021-12-18T09:20:52Z</time>
      </trkpt>
      <trkpt lat="45.01016" lon="5.58826">
        <ele>1482.4</ele>
        <time>2021-12-18T09:20:53Z</time>
      </trkpt>
      <trkpt lat="45.01013" lon="5.58832">
        <ele>1478.6</ele>
        <time>2021-12-18T09:20:54Z</time>
      </trkpt>
      <trkpt lat="45.01011" lon="5.58837">
        <ele>1474.2</ele>
        <time>2021-12-18T09:20:55Z</time>
      </trkpt>
      <trkpt lat="45.0101" lon="5.58846">
        <ele>1471.6</ele>
        <time>2021-12-18T09:20:56Z</time>
      </trkpt>
      <trkpt lat="45.01012" lon="5.58852">
        <ele>1468.4</ele>
        <time>2021-12-18T09:20:57Z</time>
      </trkpt>
      <trkpt lat="45.01014" lon="5.58859">
        <ele>1464.6</ele>
        <time>2021-12-18T09:20:58Z</time>
      </trkpt>
      <trkpt lat="45.01017" lon="5.58862">
        <ele>1462.6</ele>
        <time>2021-12-18T09:20:59Z</time>
      </trkpt>
      <trkpt lat="45.01019" lon="5.58862">
        <ele>1459.8</ele>
        <time>2021-12-18T09:21:00Z</time>
      </trkpt>
      <trkpt lat="45.01019" lon="5.58861">
        <ele>1458</ele>
        <time>2021-12-18T09:21:01Z</time>
      </trkpt>
      <trkpt lat="45.0102" lon="5.58861">
        <ele>1457</ele>
        <time>2021-12-18T09:21:02Z</time>
      </trkpt>
      <trkpt lat="45.01021" lon="5.5886">
        <ele>1456.4</ele>
        <time>2021-12-18T09:21:03Z</time>
      </trkpt>
      <trkpt lat="45.01021" lon="5.58859">
        <ele>1455.8</ele>
        <time>2021-12-18T09:21:05Z</time>
      </trkpt>
      <trkpt lat="45.01022" lon="5.58859">
        <ele>1455.6</ele>
        <time>2021-12-18T09:21:07Z</time>
      </trkpt>
      <trkpt lat="45.01023" lon="5.5886">
        <ele>1455.6</ele>
        <time>2021-12-18T09:21:08Z</time>
      </trkpt>
      <trkpt lat="45.01022" lon="5.58859">
        <ele>1455.4</ele>
        <time>2021-12-18T09:21:31Z</time>
      </trkpt>
      <trkpt lat="45.01022" lon="5.58859">
        <ele>1455.4</ele>
        <time>2021-12-18T09:21:33Z</time>
      </trkpt>
      <trkpt lat="45.01022" lon="5.58859">
        <ele>1455.4</ele>
        <time>2021-12-18T09:21:36Z</time>
      </trkpt>
      <trkpt lat="45.0102" lon="5.58861">
        <ele>1455.4</ele>
        <time>2021-12-18T09:21:47Z</time>
      </trkpt>
      <trkpt lat="45.01018" lon="5.58861">
        <ele>1455.4</ele>
        <time>2021-12-18T09:21:49Z</time>
      </trkpt>
      <trkpt lat="45.01018" lon="5.58861">
        <ele>1455.4</ele>
        <time>2021-12-18T09:21:51Z</time>
      </trkpt>
      <trkpt lat="45.01017" lon="5.58861">
        <ele>1455.2</ele>
        <time>2021-12-18T09:21:53Z</time>
      </trkpt>
      <trkpt lat="45.01016" lon="5.58861">
        <ele>1455</ele>
        <time>2021-12-18T09:21:55Z</time>
      </trkpt>
      <trkpt lat="45.01014" lon="5.58862">
        <ele>1455</ele>
        <time>2021-12-18T09:22:00Z</time>
      </trkpt>
      <trkpt lat="45.01013" lon="5.58864">
        <ele>1454.6</ele>
        <time>2021-12-18T09:22:11Z</time>
      </trkpt>
      <trkpt lat="45.01012" lon="5.58865">
        <ele>1453.6</ele>
        <time>2021-12-18T09:22:13Z</time>
      </trkpt>
      <trkpt lat="45.01011" lon="5.58865">
        <ele>1453.2</ele>
        <time>2021-12-18T09:22:14Z</time>
      </trkpt>
      <trkpt lat="45.01008" lon="5.5887">
        <ele>1452.6</ele>
        <time>2021-12-18T09:22:27Z</time>
      </trkpt>
      <trkpt lat="45.01013" lon="5.58881">
        <ele>1452</ele>
        <time>2021-12-18T09:22:35Z</time>
      </trkpt>
      <trkpt lat="45.01019" lon="5.58896">
        <ele>1449.8</ele>
        <time>2021-12-18T09:22:37Z</time>
      </trkpt>
      <trkpt lat="45.0102" lon="5.58907">
        <ele>1448.6</ele>
        <time>2021-12-18T09:22:38Z</time>
      </trkpt>
      <trkpt lat="45.01019" lon="5.58914">
        <ele>1446.8</ele>
        <time>2021-12-18T09:22:39Z</time>
      </trkpt>
      <trkpt lat="45.01017" lon="5.58918">
        <ele>1444.8</ele>
        <time>2021-12-18T09:22:40Z</time>
      </trkpt>
      <trkpt lat="45.01013" lon="5.58921">
        <ele>1442.4</ele>
        <time>2021-12-18T09:22:41Z</time>
      </trkpt>
      <trkpt lat="45.01009" lon="5.58923">
        <ele>1440.2</ele>
        <time>2021-12-18T09:22:42Z</time>
      </trkpt>
      <trkpt lat="45.01005" lon="5.58923">
        <ele>1438.8</ele>
        <time>2021-12-18T09:22:43Z</time>
      </trkpt>
      <trkpt lat="45.01" lon="5.58923">
        <ele>1437.4</ele>
        <time>2021-12-18T09:22:44Z</time>
      </trkpt>
      <trkpt lat="45.00998" lon="5.58922">
        <ele>1436</ele>
        <time>2021-12-18T09:22:45Z</time>
      </trkpt>
      <trkpt lat="45.00994" lon="5.58922">
        <ele>1435.2</ele>
        <time>2021-12-18T09:22:46Z</time>
      </trkpt>
      <trkpt lat="45.00992" lon="5.58922">
        <ele>1434.8</ele>
        <time>2021-12-18T09:22:47Z</time>
      </trkpt>
      <trkpt lat="45.00991" lon="5.58921">
        <ele>1434.6</ele>
        <time>2021-12-18T09:22:48Z</time>
      </trkpt>
      <trkpt lat="45.00991" lon="5.5892">
        <ele>1433.8</ele>
        <time>2021-12-18T09:22:51Z</time>
      </trkpt>
      <trkpt lat="45.00991" lon="5.5892">
        <ele>1433.6</ele>
        <time>2021-12-18T09:22:52Z</time>
      </trkpt>
      <trkpt lat="45.00991" lon="5.58919">
        <ele>1433.4</ele>
        <time>2021-12-18T09:22:54Z</time>
      </trkpt>
      <trkpt lat="45.0099" lon="5.58918">
        <ele>1433.4</ele>
        <time>2021-12-18T09:22:59Z</time>
      </trkpt>
      <trkpt lat="45.00989" lon="5.58918">
        <ele>1432.8</ele>
        <time>2021-12-18T09:23:03Z</time>
      </trkpt>
      <trkpt lat="45.00989" lon="5.58918">
        <ele>1432.6</ele>
        <time>2021-12-18T09:23:04Z</time>
      </trkpt>
      <trkpt lat="45.00989" lon="5.58915">
        <ele>1432.6</ele>
        <time>2021-12-18T09:23:11Z</time>
      </trkpt>
      <trkpt lat="45.00989" lon="5.58916">
        <ele>1432.4</ele>
        <time>2021-12-18T09:23:15Z</time>
      </trkpt>
      <trkpt lat="45.00989" lon="5.58917">
        <ele>1432.2</ele>
        <time>2021-12-18T09:23:25Z</time>
      </trkpt>
      <trkpt lat="45.00983" lon="5.58923">
        <ele>1431.6</ele>
        <time>2021-12-18T09:23:27Z</time>
      </trkpt>
      <trkpt lat="45.00983" lon="5.58929">
        <ele>1431.2</ele>
        <time>2021-12-18T09:23:28Z</time>
      </trkpt>
      <trkpt lat="45.00984" lon="5.58935">
        <ele>1430</ele>
        <time>2021-12-18T09:23:29Z</time>
      </trkpt>
      <trkpt lat="45.00986" lon="5.58941">
        <ele>1428.2</ele>
        <time>2021-12-18T09:23:30Z</time>
      </trkpt>
      <trkpt lat="45.00987" lon="5.58946">
        <ele>1426.4</ele>
        <time>2021-12-18T09:23:31Z</time>
      </trkpt>
      <trkpt lat="45.0099" lon="5.58954">
        <ele>1424.6</ele>
        <time>2021-12-18T09:23:32Z</time>
      </trkpt>
      <trkpt lat="45.00989" lon="5.58964">
        <ele>1423.2</ele>
        <time>2021-12-18T09:23:33Z</time>
      </trkpt>
      <trkpt lat="45.00986" lon="5.5897">
        <ele>1422</ele>
        <time>2021-12-18T09:23:34Z</time>
      </trkpt>
      <trkpt lat="45.00984" lon="5.58978">
        <ele>1419.6</ele>
        <time>2021-12-18T09:23:35Z</time>
      </trkpt>
      <trkpt lat="45.00983" lon="5.58987">
        <ele>1418.2</ele>
        <time>2021-12-18T09:23:36Z</time>
      </trkpt>
      <trkpt lat="45.00981" lon="5.58996">
        <ele>1415</ele>
        <time>2021-12-18T09:23:37Z</time>
      </trkpt>
      <trkpt lat="45.00979" lon="5.59007">
        <ele>1413.8</ele>
        <time>2021-12-18T09:23:38Z</time>
      </trkpt>
      <trkpt lat="45.00977" lon="5.59016">
        <ele>1410.4</ele>
        <time>2021-12-18T09:23:39Z</time>
      </trkpt>
      <trkpt lat="45.00975" lon="5.59026">
        <ele>1407.4</ele>
        <time>2021-12-18T09:23:40Z</time>
      </trkpt>
      <trkpt lat="45.00971" lon="5.59032">
        <ele>1403.4</ele>
        <time>2021-12-18T09:23:41Z</time>
      </trkpt>
      <trkpt lat="45.00966" lon="5.59041">
        <ele>1399</ele>
        <time>2021-12-18T09:23:42Z</time>
      </trkpt>
      <trkpt lat="45.00962" lon="5.59051">
        <ele>1395.2</ele>
        <time>2021-12-18T09:23:43Z</time>
      </trkpt>
      <trkpt lat="45.00958" lon="5.5906">
        <ele>1393</ele>
        <time>2021-12-18T09:23:44Z</time>
      </trkpt>
      <trkpt lat="45.00953" lon="5.59068">
        <ele>1388.4</ele>
        <time>2021-12-18T09:23:45Z</time>
      </trkpt>
      <trkpt lat="45.0095" lon="5.59079">
        <ele>1384.6</ele>
        <time>2021-12-18T09:23:46Z</time>
      </trkpt>
      <trkpt lat="45.00947" lon="5.59089">
        <ele>1382.6</ele>
        <time>2021-12-18T09:23:47Z</time>
      </trkpt>
      <trkpt lat="45.00943" lon="5.59099">
        <ele>1379</ele>
        <time>2021-12-18T09:23:48Z</time>
      </trkpt>
      <trkpt lat="45.00941" lon="5.59109">
        <ele>1374.2</ele>
        <time>2021-12-18T09:23:49Z</time>
      </trkpt>
      <trkpt lat="45.00938" lon="5.59117">
        <ele>1371</ele>
        <time>2021-12-18T09:23:50Z</time>
      </trkpt>
      <trkpt lat="45.00933" lon="5.59124">
        <ele>1368.2</ele>
        <time>2021-12-18T09:23:51Z</time>
      </trkpt>
      <trkpt lat="45.00928" lon="5.59131">
        <ele>1365.8</ele>
        <time>2021-12-18T09:23:52Z</time>
      </trkpt>
      <trkpt lat="45.00925" lon="5.59139">
        <ele>1363.4</ele>
        <time>2021-12-18T09:23:53Z</time>
      </trkpt>
      <trkpt lat="45.0092" lon="5.59146">
        <ele>1361.4</ele>
        <time>2021-12-18T09:23:54Z</time>
      </trkpt>
      <trkpt lat="45.00914" lon="5.59152">
        <ele>1359.4</ele>
        <time>2021-12-18T09:23:55Z</time>
      </trkpt>
      <trkpt lat="45.00908" lon="5.59157">
        <ele>1357.8</ele>
        <time>2021-12-18T09:23:56Z</time>
      </trkpt>
      <trkpt lat="45.00905" lon="5.59163">
        <ele>1356.2</ele>
        <time>2021-12-18T09:23:57Z</time>
      </trkpt>
      <trkpt lat="45.00905" lon="5.59167">
        <ele>1358</ele>
        <time>2021-12-18T09:23:58Z</time>
      </trkpt>
      <trkpt lat="45.00905" lon="5.59169">
        <ele>1350.2</ele>
        <time>2021-12-18T09:23:59Z</time>
      </trkpt>
      <trkpt lat="45.00906" lon="5.59169">
        <ele>1346</ele>
        <time>2021-12-18T09:24:00Z</time>
      </trkpt>
      <trkpt lat="45.00906" lon="5.5917">
        <ele>1343.8</ele>
        <time>2021-12-18T09:24:01Z</time>
      </trkpt>
      <trkpt lat="45.00907" lon="5.5917">
        <ele>1342.6</ele>
        <time>2021-12-18T09:24:02Z</time>
      </trkpt>
      <trkpt lat="45.00908" lon="5.5917">
        <ele>1342</ele>
        <time>2021-12-18T09:24:03Z</time>
      </trkpt>
      <trkpt lat="45.00908" lon="5.5917">
        <ele>1341.8</ele>
        <time>2021-12-18T09:24:04Z</time>
      </trkpt>
      <trkpt lat="45.00908" lon="5.59171">
        <ele>1341.6</ele>
        <time>2021-12-18T09:24:05Z</time>
      </trkpt>
      <trkpt lat="45.00908" lon="5.59171">
        <ele>1341.6</ele>
        <time>2021-12-18T09:24:06Z</time>
      </trkpt>
      <trkpt lat="45.00907" lon="5.59171">
        <ele>1341.4</ele>
        <time>2021-12-18T09:24:09Z</time>
      </trkpt>
      <trkpt lat="45.00909" lon="5.5917">
        <ele>1341.4</ele>
        <time>2021-12-18T09:24:11Z</time>
      </trkpt>
      <trkpt lat="45.0091" lon="5.5917">
        <ele>1341.2</ele>
        <time>2021-12-18T09:24:13Z</time>
      </trkpt>
      <trkpt lat="45.00911" lon="5.59172">
        <ele>1341.2</ele>
        <time>2021-12-18T09:24:15Z</time>
      </trkpt>
      <trkpt lat="45.00912" lon="5.59177">
        <ele>1341</ele>
        <time>2021-12-18T09:24:17Z</time>
      </trkpt>
      <trkpt lat="45.00911" lon="5.5918">
        <ele>1340.4</ele>
        <time>2021-12-18T09:24:19Z</time>
      </trkpt>
      <trkpt lat="45.00909" lon="5.59182">
        <ele>1339.4</ele>
        <time>2021-12-18T09:24:21Z</time>
      </trkpt>
      <trkpt lat="45.00907" lon="5.59187">
        <ele>1338.4</ele>
        <time>2021-12-18T09:24:24Z</time>
      </trkpt>
      <trkpt lat="45.00906" lon="5.59188">
        <ele>1337.8</ele>
        <time>2021-12-18T09:24:25Z</time>
      </trkpt>
      <trkpt lat="45.00905" lon="5.5919">
        <ele>1337.2</ele>
        <time>2021-12-18T09:24:26Z</time>
      </trkpt>
      <trkpt lat="45.00903" lon="5.59197">
        <ele>1335.2</ele>
        <time>2021-12-18T09:24:29Z</time>
      </trkpt>
      <trkpt lat="45.00901" lon="5.59201">
        <ele>1333.8</ele>
        <time>2021-12-18T09:24:31Z</time>
      </trkpt>
      <trkpt lat="45.00898" lon="5.59204">
        <ele>1333</ele>
        <time>2021-12-18T09:24:34Z</time>
      </trkpt>
      <trkpt lat="45.00897" lon="5.59205">
        <ele>1332.4</ele>
        <time>2021-12-18T09:24:36Z</time>
      </trkpt>
      <trkpt lat="45.00897" lon="5.59206">
        <ele>1331.6</ele>
        <time>2021-12-18T09:24:37Z</time>
      </trkpt>
      <trkpt lat="45.00897" lon="5.59206">
        <ele>1331</ele>
        <time>2021-12-18T09:24:38Z</time>
      </trkpt>
      <trkpt lat="45.00897" lon="5.59207">
        <ele>1330.4</ele>
        <time>2021-12-18T09:24:43Z</time>
      </trkpt>
      <trkpt lat="45.00897" lon="5.59209">
        <ele>1330.8</ele>
        <time>2021-12-18T09:24:48Z</time>
      </trkpt>
      <trkpt lat="45.00897" lon="5.59209">
        <ele>1330.6</ele>
        <time>2021-12-18T09:24:49Z</time>
      </trkpt>
      <trkpt lat="45.00896" lon="5.5921">
        <ele>1330.8</ele>
        <time>2021-12-18T09:24:56Z</time>
      </trkpt>
      <trkpt lat="45.00898" lon="5.59211">
        <ele>1331.2</ele>
        <time>2021-12-18T09:25:02Z</time>
      </trkpt>
      <trkpt lat="45.00898" lon="5.59213">
        <ele>1331.4</ele>
        <time>2021-12-18T09:25:09Z</time>
      </trkpt>
      <trkpt lat="45.00898" lon="5.59213">
        <ele>1331.4</ele>
        <time>2021-12-18T09:25:13Z</time>
      </trkpt>
      <trkpt lat="45.00898" lon="5.59213">
        <ele>1331.4</ele>
        <time>2021-12-18T09:25:30Z</time>
      </trkpt>
      <trkpt lat="45.00898" lon="5.59213">
        <ele>1331.4</ele>
        <time>2021-12-18T09:25:31Z</time>
      </trkpt>
      <trkpt lat="45.00898" lon="5.59213">
        <ele>1331.4</ele>
        <time>2021-12-18T09:25:33Z</time>
      </trkpt>
      <trkpt lat="45.00898" lon="5.59213">
        <ele>1331.4</ele>
        <time>2021-12-18T09:25:34Z</time>
      </trkpt>
      <trkpt lat="45.00898" lon="5.59213">
        <ele>1331</ele>
        <time>2021-12-18T09:25:36Z</time>
      </trkpt>
      <trkpt lat="45.00898" lon="5.59213">
        <ele>1330.8</ele>
        <time>2021-12-18T09:25:38Z</time>
      </trkpt>
      <trkpt lat="45.00894" lon="5.5922">
        <ele>1329.8</ele>
        <time>2021-12-18T09:25:42Z</time>
      </trkpt>
      <trkpt lat="45.00893" lon="5.59222">
        <ele>1329.4</ele>
        <time>2021-12-18T09:25:43Z</time>
      </trkpt>
      <trkpt lat="45.00889" lon="5.59233">
        <ele>1328.6</ele>
        <time>2021-12-18T09:25:46Z</time>
      </trkpt>
      <trkpt lat="45.00889" lon="5.59237">
        <ele>1327.8</ele>
        <time>2021-12-18T09:25:47Z</time>
      </trkpt>
      <trkpt lat="45.00888" lon="5.59242">
        <ele>1326.8</ele>
        <time>2021-12-18T09:25:48Z</time>
      </trkpt>
      <trkpt lat="45.00885" lon="5.5925">
        <ele>1325.6</ele>
        <time>2021-12-18T09:25:50Z</time>
      </trkpt>
      <trkpt lat="45.00884" lon="5.59251">
        <ele>1325</ele>
        <time>2021-12-18T09:25:51Z</time>
      </trkpt>
      <trkpt lat="45.00884" lon="5.59252">
        <ele>1323.8</ele>
        <time>2021-12-18T09:25:52Z</time>
      </trkpt>
      <trkpt lat="45.00884" lon="5.59252">
        <ele>1322.6</ele>
        <time>2021-12-18T09:25:54Z</time>
      </trkpt>
      <trkpt lat="45.00884" lon="5.59253">
        <ele>1322.2</ele>
        <time>2021-12-18T09:25:56Z</time>
      </trkpt>
      <trkpt lat="45.00884" lon="5.59253">
        <ele>1321.6</ele>
        <time>2021-12-18T09:25:58Z</time>
      </trkpt>
      <trkpt lat="45.00883" lon="5.59256">
        <ele>1320.8</ele>
        <time>2021-12-18T09:26:02Z</time>
      </trkpt>
      <trkpt lat="45.00884" lon="5.59261">
        <ele>1320.6</ele>
        <time>2021-12-18T09:26:07Z</time>
      </trkpt>
      <trkpt lat="45.00884" lon="5.59261">
        <ele>1320.4</ele>
        <time>2021-12-18T09:26:08Z</time>
      </trkpt>
      <trkpt lat="45.00885" lon="5.59264">
        <ele>1319.8</ele>
        <time>2021-12-18T09:26:12Z</time>
      </trkpt>
      <trkpt lat="45.00886" lon="5.59266">
        <ele>1319.4</ele>
        <time>2021-12-18T09:26:15Z</time>
      </trkpt>
      <trkpt lat="45.00887" lon="5.59269">
        <ele>1319.2</ele>
        <time>2021-12-18T09:26:16Z</time>
      </trkpt>
      <trkpt lat="45.00887" lon="5.59272">
        <ele>1318.6</ele>
        <time>2021-12-18T09:26:18Z</time>
      </trkpt>
      <trkpt lat="45.00887" lon="5.59274">
        <ele>1318</ele>
        <time>2021-12-18T09:26:19Z</time>
      </trkpt>
      <trkpt lat="45.00886" lon="5.59276">
        <ele>1317.4</ele>
        <time>2021-12-18T09:26:20Z</time>
      </trkpt>
      <trkpt lat="45.00886" lon="5.59278">
        <ele>1316.8</ele>
        <time>2021-12-18T09:26:21Z</time>
      </trkpt>
      <trkpt lat="45.00886" lon="5.59282">
        <ele>1315.4</ele>
        <time>2021-12-18T09:26:23Z</time>
      </trkpt>
      <trkpt lat="45.00886" lon="5.59282">
        <ele>1315</ele>
        <time>2021-12-18T09:26:24Z</time>
      </trkpt>
      <trkpt lat="45.00885" lon="5.59283">
        <ele>1314.2</ele>
        <time>2021-12-18T09:26:25Z</time>
      </trkpt>
      <trkpt lat="45.00885" lon="5.59283">
        <ele>1313.8</ele>
        <time>2021-12-18T09:26:26Z</time>
      </trkpt>
      <trkpt lat="45.00885" lon="5.59284">
        <ele>1313.6</ele>
        <time>2021-12-18T09:26:27Z</time>
      </trkpt>
      <trkpt lat="45.00885" lon="5.59286">
        <ele>1313.4</ele>
        <time>2021-12-18T09:26:29Z</time>
      </trkpt>
      <trkpt lat="45.00884" lon="5.59289">
        <ele>1313.2</ele>
        <time>2021-12-18T09:26:31Z</time>
      </trkpt>
      <trkpt lat="45.00883" lon="5.5929">
        <ele>1313</ele>
        <time>2021-12-18T09:26:32Z</time>
      </trkpt>
      <trkpt lat="45.00879" lon="5.59293">
        <ele>1312</ele>
        <time>2021-12-18T09:26:35Z</time>
      </trkpt>
      <trkpt lat="45.00879" lon="5.59295">
        <ele>1311.2</ele>
        <time>2021-12-18T09:26:37Z</time>
      </trkpt>
      <trkpt lat="45.0088" lon="5.59297">
        <ele>1310.8</ele>
        <time>2021-12-18T09:26:38Z</time>
      </trkpt>
      <trkpt lat="45.00879" lon="5.59301">
        <ele>1309.6</ele>
        <time>2021-12-18T09:26:42Z</time>
      </trkpt>
      <trkpt lat="45.00883" lon="5.59305">
        <ele>1309.2</ele>
        <time>2021-12-18T09:26:47Z</time>
      </trkpt>
      <trkpt lat="45.00883" lon="5.59307">
        <ele>1308.6</ele>
        <time>2021-12-18T09:26:49Z</time>
      </trkpt>
      <trkpt lat="45.00885" lon="5.59312">
        <ele>1307.4</ele>
        <time>2021-12-18T09:26:52Z</time>
      </trkpt>
      <trkpt lat="45.00886" lon="5.59314">
        <ele>1307.2</ele>
        <time>2021-12-18T09:26:53Z</time>
      </trkpt>
      <trkpt lat="45.00887" lon="5.59323">
        <ele>1306.4</ele>
        <time>2021-12-18T09:26:56Z</time>
      </trkpt>
      <trkpt lat="45.00888" lon="5.59324">
        <ele>1305.2</ele>
        <time>2021-12-18T09:26:57Z</time>
      </trkpt>
      <trkpt lat="45.0089" lon="5.59326">
        <ele>1304.2</ele>
        <time>2021-12-18T09:26:59Z</time>
      </trkpt>
      <trkpt lat="45.00889" lon="5.59327">
        <ele>1303.6</ele>
        <time>2021-12-18T09:27:01Z</time>
      </trkpt>
      <trkpt lat="45.00889" lon="5.59327">
        <ele>1303.4</ele>
        <time>2021-12-18T09:27:02Z</time>
      </trkpt>
      <trkpt lat="45.00888" lon="5.59327">
        <ele>1303.2</ele>
        <time>2021-12-18T09:27:03Z</time>
      </trkpt>
      <trkpt lat="45.00883" lon="5.59332">
        <ele>1302</ele>
        <time>2021-12-18T09:27:06Z</time>
      </trkpt>
      <trkpt lat="45.00881" lon="5.59332">
        <ele>1301.4</ele>
        <time>2021-12-18T09:27:07Z</time>
      </trkpt>
      <trkpt lat="45.00879" lon="5.59333">
        <ele>1301</ele>
        <time>2021-12-18T09:27:08Z</time>
      </trkpt>
      <trkpt lat="45.00878" lon="5.59334">
        <ele>1300.4</ele>
        <time>2021-12-18T09:27:12Z</time>
      </trkpt>
      <trkpt lat="45.00878" lon="5.59341">
        <ele>1300.2</ele>
        <time>2021-12-18T09:27:16Z</time>
      </trkpt>
      <trkpt lat="45.00877" lon="5.59344">
        <ele>1300.2</ele>
        <time>2021-12-18T09:27:17Z</time>
      </trkpt>
      <trkpt lat="45.00875" lon="5.59346">
        <ele>1300</ele>
        <time>2021-12-18T09:27:18Z</time>
      </trkpt>
      <trkpt lat="45.00871" lon="5.59352">
        <ele>1298.6</ele>
        <time>2021-12-18T09:27:20Z</time>
      </trkpt>
      <trkpt lat="45.00869" lon="5.59354">
        <ele>1298.2</ele>
        <time>2021-12-18T09:27:21Z</time>
      </trkpt>
      <trkpt lat="45.00868" lon="5.59355">
        <ele>1297.8</ele>
        <time>2021-12-18T09:27:22Z</time>
      </trkpt>
      <trkpt lat="45.00867" lon="5.59355">
        <ele>1297.4</ele>
        <time>2021-12-18T09:27:23Z</time>
      </trkpt>
      <trkpt lat="45.00867" lon="5.59357">
        <ele>1296.8</ele>
        <time>2021-12-18T09:27:26Z</time>
      </trkpt>
      <trkpt lat="45.00867" lon="5.59358">
        <ele>1296.6</ele>
        <time>2021-12-18T09:27:27Z</time>
      </trkpt>
      <trkpt lat="45.00869" lon="5.5936">
        <ele>1296.4</ele>
        <time>2021-12-18T09:27:30Z</time>
      </trkpt>
      <trkpt lat="45.00871" lon="5.59361">
        <ele>1296.4</ele>
        <time>2021-12-18T09:27:32Z</time>
      </trkpt>
      <trkpt lat="45.00874" lon="5.59367">
        <ele>1296</ele>
        <time>2021-12-18T09:27:37Z</time>
      </trkpt>
      <trkpt lat="45.00876" lon="5.59371">
        <ele>1295.6</ele>
        <time>2021-12-18T09:27:39Z</time>
      </trkpt>
      <trkpt lat="45.00878" lon="5.59373">
        <ele>1295</ele>
        <time>2021-12-18T09:27:40Z</time>
      </trkpt>
      <trkpt lat="45.00881" lon="5.5938">
        <ele>1293.6</ele>
        <time>2021-12-18T09:27:42Z</time>
      </trkpt>
      <trkpt lat="45.00883" lon="5.59385">
        <ele>1292.6</ele>
        <time>2021-12-18T09:27:44Z</time>
      </trkpt>
      <trkpt lat="45.00883" lon="5.59386">
        <ele>1291.2</ele>
        <time>2021-12-18T09:27:46Z</time>
      </trkpt>
      <trkpt lat="45.00883" lon="5.59386">
        <ele>1290.4</ele>
        <time>2021-12-18T09:27:48Z</time>
      </trkpt>
      <trkpt lat="45.00884" lon="5.59385">
        <ele>1290.4</ele>
        <time>2021-12-18T09:27:55Z</time>
      </trkpt>
      <trkpt lat="45.00883" lon="5.59386">
        <ele>1290.6</ele>
        <time>2021-12-18T09:27:58Z</time>
      </trkpt>
      <trkpt lat="45.00883" lon="5.59386">
        <ele>1290.6</ele>
        <time>2021-12-18T09:28:00Z</time>
      </trkpt>
      <trkpt lat="45.00884" lon="5.59386">
        <ele>1290.4</ele>
        <time>2021-12-18T09:28:05Z</time>
      </trkpt>
      <trkpt lat="45.00884" lon="5.59386">
        <ele>1290.4</ele>
        <time>2021-12-18T09:28:06Z</time>
      </trkpt>
      <trkpt lat="45.00884" lon="5.59386">
        <ele>1290.4</ele>
        <time>2021-12-18T09:28:15Z</time>
      </trkpt>
      <trkpt lat="45.00884" lon="5.59386">
        <ele>1290.4</ele>
        <time>2021-12-18T09:28:17Z</time>
      </trkpt>
      <trkpt lat="45.00884" lon="5.59387">
        <ele>1290</ele>
        <time>2021-12-18T09:28:21Z</time>
      </trkpt>
      <trkpt lat="45.00884" lon="5.59387">
        <ele>1289.8</ele>
        <time>2021-12-18T09:28:26Z</time>
      </trkpt>
      <trkpt lat="45.00887" lon="5.59398">
        <ele>1288.6</ele>
        <time>2021-12-18T09:28:29Z</time>
      </trkpt>
      <trkpt lat="45.00888" lon="5.59405">
        <ele>1287.2</ele>
        <time>2021-12-18T09:28:30Z</time>
      </trkpt>
      <trkpt lat="45.00889" lon="5.5941">
        <ele>1286</ele>
        <time>2021-12-18T09:28:31Z</time>
      </trkpt>
      <trkpt lat="45.00888" lon="5.59413">
        <ele>1285.4</ele>
        <time>2021-12-18T09:28:32Z</time>
      </trkpt>
      <trkpt lat="45.00886" lon="5.59416">
        <ele>1284.8</ele>
        <time>2021-12-18T09:28:33Z</time>
      </trkpt>
      <trkpt lat="45.00884" lon="5.59424">
        <ele>1284.4</ele>
        <time>2021-12-18T09:28:35Z</time>
      </trkpt>
      <trkpt lat="45.00884" lon="5.59429">
        <ele>1283.2</ele>
        <time>2021-12-18T09:28:36Z</time>
      </trkpt>
      <trkpt lat="45.00885" lon="5.59431">
        <ele>1282.6</ele>
        <time>2021-12-18T09:28:37Z</time>
      </trkpt>
      <trkpt lat="45.00884" lon="5.59432">
        <ele>1282</ele>
        <time>2021-12-18T09:28:38Z</time>
      </trkpt>
      <trkpt lat="45.00885" lon="5.59434">
        <ele>1281.2</ele>
        <time>2021-12-18T09:28:40Z</time>
      </trkpt>
      <trkpt lat="45.00885" lon="5.59434">
        <ele>1281</ele>
        <time>2021-12-18T09:28:42Z</time>
      </trkpt>
      <trkpt lat="45.00885" lon="5.59439">
        <ele>1280.8</ele>
        <time>2021-12-18T09:28:45Z</time>
      </trkpt>
      <trkpt lat="45.00886" lon="5.59445">
        <ele>1280.4</ele>
        <time>2021-12-18T09:28:48Z</time>
      </trkpt>
      <trkpt lat="45.00887" lon="5.59446">
        <ele>1280</ele>
        <time>2021-12-18T09:28:49Z</time>
      </trkpt>
      <trkpt lat="45.00888" lon="5.59447">
        <ele>1279.8</ele>
        <time>2021-12-18T09:28:50Z</time>
      </trkpt>
      <trkpt lat="45.00891" lon="5.59455">
        <ele>1279.4</ele>
        <time>2021-12-18T09:28:54Z</time>
      </trkpt>
      <trkpt lat="45.00899" lon="5.59466">
        <ele>1278.2</ele>
        <time>2021-12-18T09:28:57Z</time>
      </trkpt>
      <trkpt lat="45.00903" lon="5.59474">
        <ele>1276.6</ele>
        <time>2021-12-18T09:28:59Z</time>
      </trkpt>
      <trkpt lat="45.00904" lon="5.59477">
        <ele>1276</ele>
        <time>2021-12-18T09:29:00Z</time>
      </trkpt>
      <trkpt lat="45.00904" lon="5.59479">
        <ele>1275.8</ele>
        <time>2021-12-18T09:29:01Z</time>
      </trkpt>
      <trkpt lat="45.00905" lon="5.59487">
        <ele>1275.4</ele>
        <time>2021-12-18T09:29:04Z</time>
      </trkpt>
      <trkpt lat="45.00908" lon="5.5949">
        <ele>1275.4</ele>
        <time>2021-12-18T09:29:06Z</time>
      </trkpt>
      <trkpt lat="45.00914" lon="5.59502">
        <ele>1275.4</ele>
        <time>2021-12-18T09:29:10Z</time>
      </trkpt>
      <trkpt lat="45.00921" lon="5.59517">
        <ele>1273.6</ele>
        <time>2021-12-18T09:29:13Z</time>
      </trkpt>
      <trkpt lat="45.00923" lon="5.59522">
        <ele>1272.8</ele>
        <time>2021-12-18T09:29:14Z</time>
      </trkpt>
      <trkpt lat="45.00924" lon="5.59526">
        <ele>1272</ele>
        <time>2021-12-18T09:29:15Z</time>
      </trkpt>
      <trkpt lat="45.00923" lon="5.59535">
        <ele>1271</ele>
        <time>2021-12-18T09:29:17Z</time>
      </trkpt>
      <trkpt lat="45.00924" lon="5.5954">
        <ele>1270.8</ele>
        <time>2021-12-18T09:29:18Z</time>
      </trkpt>
      <trkpt lat="45.00925" lon="5.59548">
        <ele>1270.2</ele>
        <time>2021-12-18T09:29:19Z</time>
      </trkpt>
      <trkpt lat="45.00926" lon="5.59557">
        <ele>1268.6</ele>
        <time>2021-12-18T09:29:20Z</time>
      </trkpt>
      <trkpt lat="45.00929" lon="5.59571">
        <ele>1267</ele>
        <time>2021-12-18T09:29:22Z</time>
      </trkpt>
      <trkpt lat="45.0093" lon="5.59574">
        <ele>1266.6</ele>
        <time>2021-12-18T09:29:23Z</time>
      </trkpt>
      <trkpt lat="45.00931" lon="5.59578">
        <ele>1266</ele>
        <time>2021-12-18T09:29:24Z</time>
      </trkpt>
      <trkpt lat="45.00932" lon="5.59584">
        <ele>1265.6</ele>
        <time>2021-12-18T09:29:25Z</time>
      </trkpt>
      <trkpt lat="45.00932" lon="5.5959">
        <ele>1265</ele>
        <time>2021-12-18T09:29:27Z</time>
      </trkpt>
      <trkpt lat="45.00931" lon="5.59599">
        <ele>1264.6</ele>
        <time>2021-12-18T09:29:29Z</time>
      </trkpt>
      <trkpt lat="45.00927" lon="5.59611">
        <ele>1263.8</ele>
        <time>2021-12-18T09:29:31Z</time>
      </trkpt>
      <trkpt lat="45.00926" lon="5.59616">
        <ele>1263.2</ele>
        <time>2021-12-18T09:29:32Z</time>
      </trkpt>
      <trkpt lat="45.00923" lon="5.59626">
        <ele>1262.2</ele>
        <time>2021-12-18T09:29:34Z</time>
      </trkpt>
      <trkpt lat="45.00922" lon="5.5963">
        <ele>1262</ele>
        <time>2021-12-18T09:29:35Z</time>
      </trkpt>
      <trkpt lat="45.00922" lon="5.59636">
        <ele>1261.6</ele>
        <time>2021-12-18T09:29:37Z</time>
      </trkpt>
      <trkpt lat="45.00926" lon="5.59638">
        <ele>1261</ele>
        <time>2021-12-18T09:29:39Z</time>
      </trkpt>
      <trkpt lat="45.00942" lon="5.59642">
        <ele>1260.2</ele>
        <time>2021-12-18T09:29:46Z</time>
      </trkpt>
      <trkpt lat="45.00944" lon="5.59643">
        <ele>1260.2</ele>
        <time>2021-12-18T09:29:48Z</time>
      </trkpt>
      <trkpt lat="45.00946" lon="5.59643">
        <ele>1260.2</ele>
        <time>2021-12-18T09:29:51Z</time>
      </trkpt>
      <trkpt lat="45.00948" lon="5.59646">
        <ele>1260</ele>
        <time>2021-12-18T09:29:54Z</time>
      </trkpt>
      <trkpt lat="45.0095" lon="5.59648">
        <ele>1260</ele>
        <time>2021-12-18T09:29:56Z</time>
      </trkpt>
      <trkpt lat="45.0095" lon="5.5965">
        <ele>1260.2</ele>
        <time>2021-12-18T09:29:59Z</time>
      </trkpt>
      <trkpt lat="45.0095" lon="5.59651">
        <ele>1260.4</ele>
        <time>2021-12-18T09:30:00Z</time>
      </trkpt>
      <trkpt lat="45.00953" lon="5.59654">
        <ele>1260.6</ele>
        <time>2021-12-18T09:30:07Z</time>
      </trkpt>
      <trkpt lat="45.00953" lon="5.59656">
        <ele>1260.8</ele>
        <time>2021-12-18T09:30:12Z</time>
      </trkpt>
      <trkpt lat="45.00956" lon="5.59659">
        <ele>1261.4</ele>
        <time>2021-12-18T09:30:17Z</time>
      </trkpt>
      <trkpt lat="45.00958" lon="5.5966">
        <ele>1261.4</ele>
        <time>2021-12-18T09:30:19Z</time>
      </trkpt>
      <trkpt lat="45.00959" lon="5.59662">
        <ele>1261.6</ele>
        <time>2021-12-18T09:30:22Z</time>
      </trkpt>
      <trkpt lat="45.00961" lon="5.59662">
        <ele>1261.8</ele>
        <time>2021-12-18T09:30:26Z</time>
      </trkpt>
      <trkpt lat="45.00963" lon="5.59662">
        <ele>1262</ele>
        <time>2021-12-18T09:30:28Z</time>
      </trkpt>
      <trkpt lat="45.00964" lon="5.59664">
        <ele>1262</ele>
        <time>2021-12-18T09:30:32Z</time>
      </trkpt>
      <trkpt lat="45.00966" lon="5.59663">
        <ele>1262.4</ele>
        <time>2021-12-18T09:30:40Z</time>
      </trkpt>
      <trkpt lat="45.00967" lon="5.59667">
        <ele>1262.8</ele>
        <time>2021-12-18T09:30:48Z</time>
      </trkpt>
      <trkpt lat="45.00971" lon="5.59668">
        <ele>1263</ele>
        <time>2021-12-18T09:30:51Z</time>
      </trkpt>
      <trkpt lat="45.00977" lon="5.59671">
        <ele>1263.4</ele>
        <time>2021-12-18T09:30:56Z</time>
      </trkpt>
      <trkpt lat="45.00992" lon="5.59684">
        <ele>1261.6</ele>
        <time>2021-12-18T09:31:00Z</time>
      </trkpt>
      <trkpt lat="45.00998" lon="5.59688">
        <ele>1259.8</ele>
        <time>2021-12-18T09:31:02Z</time>
      </trkpt>
      <trkpt lat="45.01001" lon="5.5969">
        <ele>1259.6</ele>
        <time>2021-12-18T09:31:03Z</time>
      </trkpt>
      <trkpt lat="45.01002" lon="5.59691">
        <ele>1259.2</ele>
        <time>2021-12-18T09:31:04Z</time>
      </trkpt>
      <trkpt lat="45.01004" lon="5.59694">
        <ele>1259.2</ele>
        <time>2021-12-18T09:31:08Z</time>
      </trkpt>
      <trkpt lat="45.01004" lon="5.59694">
        <ele>1259.2</ele>
        <time>2021-12-18T09:31:09Z</time>
      </trkpt>
      <trkpt lat="45.01004" lon="5.597">
        <ele>1259.2</ele>
        <time>2021-12-18T09:31:18Z</time>
      </trkpt>
      <trkpt lat="45.01008" lon="5.59704">
        <ele>1259</ele>
        <time>2021-12-18T09:31:22Z</time>
      </trkpt>
      <trkpt lat="45.01009" lon="5.59706">
        <ele>1259</ele>
        <time>2021-12-18T09:31:23Z</time>
      </trkpt>
      <trkpt lat="45.0101" lon="5.59707">
        <ele>1258.8</ele>
        <time>2021-12-18T09:31:24Z</time>
      </trkpt>
      <trkpt lat="45.0101" lon="5.59711">
        <ele>1258.8</ele>
        <time>2021-12-18T09:31:26Z</time>
      </trkpt>
      <trkpt lat="45.01011" lon="5.59716">
        <ele>1258.8</ele>
        <time>2021-12-18T09:31:29Z</time>
      </trkpt>
      <trkpt lat="45.01011" lon="5.59717">
        <ele>1258.8</ele>
        <time>2021-12-18T09:31:30Z</time>
      </trkpt>
      <trkpt lat="45.01012" lon="5.59718">
        <ele>1258.8</ele>
        <time>2021-12-18T09:31:31Z</time>
      </trkpt>
      <trkpt lat="45.01014" lon="5.59721">
        <ele>1258.8</ele>
        <time>2021-12-18T09:31:34Z</time>
      </trkpt>
      <trkpt lat="45.01014" lon="5.59722">
        <ele>1258.8</ele>
        <time>2021-12-18T09:31:36Z</time>
      </trkpt>
      <trkpt lat="45.01013" lon="5.59724">
        <ele>1258.6</ele>
        <time>2021-12-18T09:31:39Z</time>
      </trkpt>
      <trkpt lat="45.01015" lon="5.59722">
        <ele>1258.4</ele>
        <time>2021-12-18T09:31:41Z</time>
      </trkpt>
      <trkpt lat="45.01018" lon="5.59725">
        <ele>1257.4</ele>
        <time>2021-12-18T09:31:46Z</time>
      </trkpt>
      <trkpt lat="45.01018" lon="5.59725">
        <ele>1256.4</ele>
        <time>2021-12-18T09:31:48Z</time>
      </trkpt>
      <trkpt lat="45.01018" lon="5.59726">
        <ele>1255.4</ele>
        <time>2021-12-18T09:31:51Z</time>
      </trkpt>
      <trkpt lat="45.01018" lon="5.59726">
        <ele>1255</ele>
        <time>2021-12-18T09:31:52Z</time>
      </trkpt>
      <trkpt lat="45.01019" lon="5.59726">
        <ele>1253.8</ele>
        <time>2021-12-18T09:31:56Z</time>
      </trkpt>
      <trkpt lat="45.01019" lon="5.59728">
        <ele>1252.8</ele>
        <time>2021-12-18T09:31:58Z</time>
      </trkpt>
      <trkpt lat="45.01019" lon="5.59728">
        <ele>1252.4</ele>
        <time>2021-12-18T09:31:59Z</time>
      </trkpt>
      <trkpt lat="45.01019" lon="5.59729">
        <ele>1251.4</ele>
        <time>2021-12-18T09:32:02Z</time>
      </trkpt>
      <trkpt lat="45.0102" lon="5.59729">
        <ele>1251</ele>
        <time>2021-12-18T09:32:03Z</time>
      </trkpt>
      <trkpt lat="45.01022" lon="5.59728">
        <ele>1250.2</ele>
        <time>2021-12-18T09:32:05Z</time>
      </trkpt>
      <trkpt lat="45.01023" lon="5.59729">
        <ele>1249</ele>
        <time>2021-12-18T09:32:07Z</time>
      </trkpt>
      <trkpt lat="45.01025" lon="5.5973">
        <ele>1247.8</ele>
        <time>2021-12-18T09:32:09Z</time>
      </trkpt>
      <trkpt lat="45.01028" lon="5.59733">
        <ele>1246.4</ele>
        <time>2021-12-18T09:32:11Z</time>
      </trkpt>
      <trkpt lat="45.01029" lon="5.59735">
        <ele>1245.2</ele>
        <time>2021-12-18T09:32:13Z</time>
      </trkpt>
      <trkpt lat="45.0103" lon="5.59734">
        <ele>1244.4</ele>
        <time>2021-12-18T09:32:14Z</time>
      </trkpt>
      <trkpt lat="45.01032" lon="5.59734">
        <ele>1243.6</ele>
        <time>2021-12-18T09:32:15Z</time>
      </trkpt>
      <trkpt lat="45.01032" lon="5.59734">
        <ele>1242.8</ele>
        <time>2021-12-18T09:32:16Z</time>
      </trkpt>
      <trkpt lat="45.01033" lon="5.59733">
        <ele>1242.2</ele>
        <time>2021-12-18T09:32:17Z</time>
      </trkpt>
      <trkpt lat="45.01034" lon="5.59733">
        <ele>1241</ele>
        <time>2021-12-18T09:32:18Z</time>
      </trkpt>
      <trkpt lat="45.01035" lon="5.59733">
        <ele>1239.6</ele>
        <time>2021-12-18T09:32:19Z</time>
      </trkpt>
      <trkpt lat="45.01036" lon="5.59733">
        <ele>1239</ele>
        <time>2021-12-18T09:32:20Z</time>
      </trkpt>
      <trkpt lat="45.01038" lon="5.59732">
        <ele>1238.6</ele>
        <time>2021-12-18T09:32:21Z</time>
      </trkpt>
      <trkpt lat="45.01039" lon="5.59732">
        <ele>1238.2</ele>
        <time>2021-12-18T09:32:22Z</time>
      </trkpt>
      <trkpt lat="45.0104" lon="5.59731">
        <ele>1238</ele>
        <time>2021-12-18T09:32:23Z</time>
      </trkpt>
      <trkpt lat="45.01041" lon="5.5973">
        <ele>1237.8</ele>
        <time>2021-12-18T09:32:26Z</time>
      </trkpt>
      <trkpt lat="45.0104" lon="5.5973">
        <ele>1237.8</ele>
        <time>2021-12-18T09:32:28Z</time>
      </trkpt>
      <trkpt lat="45.0104" lon="5.59726">
        <ele>1237.4</ele>
        <time>2021-12-18T09:32:33Z</time>
      </trkpt>
      <trkpt lat="45.01042" lon="5.59724">
        <ele>1236.4</ele>
        <time>2021-12-18T09:32:35Z</time>
      </trkpt>
      <trkpt lat="45.01043" lon="5.59724">
        <ele>1235.8</ele>
        <time>2021-12-18T09:32:36Z</time>
      </trkpt>
      <trkpt lat="45.01044" lon="5.59724">
        <ele>1234.6</ele>
        <time>2021-12-18T09:32:37Z</time>
      </trkpt>
      <trkpt lat="45.01046" lon="5.59727">
        <ele>1232.6</ele>
        <time>2021-12-18T09:32:39Z</time>
      </trkpt>
      <trkpt lat="45.01048" lon="5.59728">
        <ele>1231.6</ele>
        <time>2021-12-18T09:32:40Z</time>
      </trkpt>
      <trkpt lat="45.01049" lon="5.59728">
        <ele>1230.6</ele>
        <time>2021-12-18T09:32:41Z</time>
      </trkpt>
      <trkpt lat="45.0105" lon="5.59728">
        <ele>1229.4</ele>
        <time>2021-12-18T09:32:42Z</time>
      </trkpt>
      <trkpt lat="45.01052" lon="5.59726">
        <ele>1227.4</ele>
        <time>2021-12-18T09:32:44Z</time>
      </trkpt>
      <trkpt lat="45.01054" lon="5.59725">
        <ele>1225.8</ele>
        <time>2021-12-18T09:32:45Z</time>
      </trkpt>
      <trkpt lat="45.01055" lon="5.59725">
        <ele>1224.4</ele>
        <time>2021-12-18T09:32:46Z</time>
      </trkpt>
      <trkpt lat="45.01056" lon="5.59724">
        <ele>1223</ele>
        <time>2021-12-18T09:32:47Z</time>
      </trkpt>
      <trkpt lat="45.01058" lon="5.59724">
        <ele>1221.8</ele>
        <time>2021-12-18T09:32:48Z</time>
      </trkpt>
      <trkpt lat="45.0106" lon="5.59725">
        <ele>1220</ele>
        <time>2021-12-18T09:32:49Z</time>
      </trkpt>
      <trkpt lat="45.01061" lon="5.59725">
        <ele>1218.2</ele>
        <time>2021-12-18T09:32:50Z</time>
      </trkpt>
      <trkpt lat="45.01064" lon="5.59726">
        <ele>1216.6</ele>
        <time>2021-12-18T09:32:51Z</time>
      </trkpt>
      <trkpt lat="45.01066" lon="5.59728">
        <ele>1215.4</ele>
        <time>2021-12-18T09:32:52Z</time>
      </trkpt>
      <trkpt lat="45.01068" lon="5.59729">
        <ele>1213.8</ele>
        <time>2021-12-18T09:32:53Z</time>
      </trkpt>
      <trkpt lat="45.01071" lon="5.5973">
        <ele>1211.6</ele>
        <time>2021-12-18T09:32:54Z</time>
      </trkpt>
      <trkpt lat="45.01073" lon="5.59728">
        <ele>1210.4</ele>
        <time>2021-12-18T09:32:55Z</time>
      </trkpt>
      <trkpt lat="45.01075" lon="5.59728">
        <ele>1208.8</ele>
        <time>2021-12-18T09:32:56Z</time>
      </trkpt>
      <trkpt lat="45.01076" lon="5.5973">
        <ele>1207.2</ele>
        <time>2021-12-18T09:32:57Z</time>
      </trkpt>
      <trkpt lat="45.01076" lon="5.59734">
        <ele>1205.8</ele>
        <time>2021-12-18T09:32:58Z</time>
      </trkpt>
      <trkpt lat="45.01078" lon="5.59737">
        <ele>1204.4</ele>
        <time>2021-12-18T09:32:59Z</time>
      </trkpt>
      <trkpt lat="45.01082" lon="5.59737">
        <ele>1202.6</ele>
        <time>2021-12-18T09:33:00Z</time>
      </trkpt>
      <trkpt lat="45.01087" lon="5.59736">
        <ele>1201</ele>
        <time>2021-12-18T09:33:01Z</time>
      </trkpt>
      <trkpt lat="45.01092" lon="5.59737">
        <ele>1200</ele>
        <time>2021-12-18T09:33:02Z</time>
      </trkpt>
      <trkpt lat="45.01094" lon="5.59738">
        <ele>1198.2</ele>
        <time>2021-12-18T09:33:03Z</time>
      </trkpt>
      <trkpt lat="45.01095" lon="5.59743">
        <ele>1196.8</ele>
        <time>2021-12-18T09:33:04Z</time>
      </trkpt>
      <trkpt lat="45.01096" lon="5.59749">
        <ele>1196.2</ele>
        <time>2021-12-18T09:33:05Z</time>
      </trkpt>
      <trkpt lat="45.01097" lon="5.59755">
        <ele>1195</ele>
        <time>2021-12-18T09:33:06Z</time>
      </trkpt>
      <trkpt lat="45.01101" lon="5.59761">
        <ele>1193.6</ele>
        <time>2021-12-18T09:33:07Z</time>
      </trkpt>
      <trkpt lat="45.01105" lon="5.59765">
        <ele>1192.2</ele>
        <time>2021-12-18T09:33:08Z</time>
      </trkpt>
      <trkpt lat="45.0111" lon="5.59769">
        <ele>1190.8</ele>
        <time>2021-12-18T09:33:09Z</time>
      </trkpt>
      <trkpt lat="45.01113" lon="5.59775">
        <ele>1189.4</ele>
        <time>2021-12-18T09:33:10Z</time>
      </trkpt>
      <trkpt lat="45.01118" lon="5.59779">
        <ele>1187.8</ele>
        <time>2021-12-18T09:33:11Z</time>
      </trkpt>
      <trkpt lat="45.01123" lon="5.59783">
        <ele>1186.8</ele>
        <time>2021-12-18T09:33:12Z</time>
      </trkpt>
      <trkpt lat="45.01126" lon="5.59789">
        <ele>1185.2</ele>
        <time>2021-12-18T09:33:13Z</time>
      </trkpt>
      <trkpt lat="45.01129" lon="5.59796">
        <ele>1183.8</ele>
        <time>2021-12-18T09:33:14Z</time>
      </trkpt>
      <trkpt lat="45.01133" lon="5.59807">
        <ele>1182.2</ele>
        <time>2021-12-18T09:33:15Z</time>
      </trkpt>
      <trkpt lat="45.01137" lon="5.59815">
        <ele>1181</ele>
        <time>2021-12-18T09:33:16Z</time>
      </trkpt>
      <trkpt lat="45.01143" lon="5.59824">
        <ele>1180</ele>
        <time>2021-12-18T09:33:17Z</time>
      </trkpt>
      <trkpt lat="45.01148" lon="5.5983">
        <ele>1178.8</ele>
        <time>2021-12-18T09:33:18Z</time>
      </trkpt>
      <trkpt lat="45.01152" lon="5.59835">
        <ele>1177.2</ele>
        <time>2021-12-18T09:33:19Z</time>
      </trkpt>
      <trkpt lat="45.01157" lon="5.59841">
        <ele>1176.2</ele>
        <time>2021-12-18T09:33:20Z</time>
      </trkpt>
      <trkpt lat="45.01161" lon="5.59848">
        <ele>1175.2</ele>
        <time>2021-12-18T09:33:21Z</time>
      </trkpt>
      <trkpt lat="45.01164" lon="5.59853">
        <ele>1174.6</ele>
        <time>2021-12-18T09:33:22Z</time>
      </trkpt>
      <trkpt lat="45.01168" lon="5.59858">
        <ele>1173.6</ele>
        <time>2021-12-18T09:33:23Z</time>
      </trkpt>
      <trkpt lat="45.0117" lon="5.59861">
        <ele>1173.2</ele>
        <time>2021-12-18T09:33:24Z</time>
      </trkpt>
      <trkpt lat="45.01175" lon="5.5987">
        <ele>1172.6</ele>
        <time>2021-12-18T09:33:26Z</time>
      </trkpt>
      <trkpt lat="45.01178" lon="5.59874">
        <ele>1172.4</ele>
        <time>2021-12-18T09:33:27Z</time>
      </trkpt>
      <trkpt lat="45.0118" lon="5.59878">
        <ele>1172</ele>
        <time>2021-12-18T09:33:28Z</time>
      </trkpt>
      <trkpt lat="45.01183" lon="5.59886">
        <ele>1171.8</ele>
        <time>2021-12-18T09:33:30Z</time>
      </trkpt>
      <trkpt lat="45.01185" lon="5.59889">
        <ele>1171.4</ele>
        <time>2021-12-18T09:33:31Z</time>
      </trkpt>
      <trkpt lat="45.01191" lon="5.59896">
        <ele>1171</ele>
        <time>2021-12-18T09:33:34Z</time>
      </trkpt>
      <trkpt lat="45.01196" lon="5.599">
        <ele>1170.4</ele>
        <time>2021-12-18T09:33:37Z</time>
      </trkpt>
      <trkpt lat="45.01198" lon="5.59901">
        <ele>1170.4</ele>
        <time>2021-12-18T09:33:38Z</time>
      </trkpt>
      <trkpt lat="45.01201" lon="5.59901">
        <ele>1170.2</ele>
        <time>2021-12-18T09:33:39Z</time>
      </trkpt>
      <trkpt lat="45.01208" lon="5.59901">
        <ele>1170</ele>
        <time>2021-12-18T09:33:41Z</time>
      </trkpt>
      <trkpt lat="45.01211" lon="5.59903">
        <ele>1169.8</ele>
        <time>2021-12-18T09:33:42Z</time>
      </trkpt>
      <trkpt lat="45.01221" lon="5.59905">
        <ele>1169.4</ele>
        <time>2021-12-18T09:33:47Z</time>
      </trkpt>
      <trkpt lat="45.01238" lon="5.59908">
        <ele>1168.6</ele>
        <time>2021-12-18T09:33:53Z</time>
      </trkpt>
      <trkpt lat="45.01243" lon="5.5991">
        <ele>1168.2</ele>
        <time>2021-12-18T09:33:55Z</time>
      </trkpt>
      <trkpt lat="45.01247" lon="5.5991">
        <ele>1167.8</ele>
        <time>2021-12-18T09:33:57Z</time>
      </trkpt>
      <trkpt lat="45.0125" lon="5.59911">
        <ele>1167.8</ele>
        <time>2021-12-18T09:33:59Z</time>
      </trkpt>
      <trkpt lat="45.01252" lon="5.59916">
        <ele>1167.8</ele>
        <time>2021-12-18T09:34:01Z</time>
      </trkpt>
      <trkpt lat="45.01254" lon="5.59922">
        <ele>1167.8</ele>
        <time>2021-12-18T09:34:03Z</time>
      </trkpt>
      <trkpt lat="45.01259" lon="5.59926">
        <ele>1167.6</ele>
        <time>2021-12-18T09:34:06Z</time>
      </trkpt>
      <trkpt lat="45.01261" lon="5.59927">
        <ele>1167.4</ele>
        <time>2021-12-18T09:34:07Z</time>
      </trkpt>
      <trkpt lat="45.01265" lon="5.59929">
        <ele>1167</ele>
        <time>2021-12-18T09:34:09Z</time>
      </trkpt>
      <trkpt lat="45.01275" lon="5.59933">
        <ele>1166.8</ele>
        <time>2021-12-18T09:34:14Z</time>
      </trkpt>
      <trkpt lat="45.01289" lon="5.59934">
        <ele>1166.2</ele>
        <time>2021-12-18T09:34:19Z</time>
      </trkpt>
      <trkpt lat="45.01292" lon="5.59935">
        <ele>1166</ele>
        <time>2021-12-18T09:34:20Z</time>
      </trkpt>
      <trkpt lat="45.01304" lon="5.59942">
        <ele>1165.4</ele>
        <time>2021-12-18T09:34:24Z</time>
      </trkpt>
      <trkpt lat="45.01308" lon="5.59944">
        <ele>1165</ele>
        <time>2021-12-18T09:34:26Z</time>
      </trkpt>
      <trkpt lat="45.0131" lon="5.59945">
        <ele>1164.6</ele>
        <time>2021-12-18T09:34:29Z</time>
      </trkpt>
      <trkpt lat="45.01315" lon="5.59949">
        <ele>1164.4</ele>
        <time>2021-12-18T09:34:32Z</time>
      </trkpt>
      <trkpt lat="45.01318" lon="5.5995">
        <ele>1164.4</ele>
        <time>2021-12-18T09:34:33Z</time>
      </trkpt>
      <trkpt lat="45.0132" lon="5.59952">
        <ele>1164.2</ele>
        <time>2021-12-18T09:34:34Z</time>
      </trkpt>
      <trkpt lat="45.01324" lon="5.59954">
        <ele>1163.8</ele>
        <time>2021-12-18T09:34:36Z</time>
      </trkpt>
      <trkpt lat="45.0133" lon="5.59959">
        <ele>1163.6</ele>
        <time>2021-12-18T09:34:41Z</time>
      </trkpt>
      <trkpt lat="45.01333" lon="5.5996">
        <ele>1163.6</ele>
        <time>2021-12-18T09:34:48Z</time>
      </trkpt>
      <trkpt lat="45.01332" lon="5.59961">
        <ele>1163.6</ele>
        <time>2021-12-18T09:34:52Z</time>
      </trkpt>
      <trkpt lat="45.01331" lon="5.5996">
        <ele>1163.6</ele>
        <time>2021-12-18T09:34:53Z</time>
      </trkpt>
      <trkpt lat="45.01334" lon="5.59961">
        <ele>1163.8</ele>
        <time>2021-12-18T09:35:00Z</time>
      </trkpt>
      <trkpt lat="45.01336" lon="5.59959">
        <ele>1163.6</ele>
        <time>2021-12-18T09:35:08Z</time>
      </trkpt>
      <trkpt lat="45.01336" lon="5.59958">
        <ele>1163.4</ele>
        <time>2021-12-18T09:35:13Z</time>
      </trkpt>
      <trkpt lat="45.01336" lon="5.59958">
        <ele>1163.4</ele>
        <time>2021-12-18T09:35:14Z</time>
      </trkpt>
      <trkpt lat="45.01339" lon="5.59959">
        <ele>1163.2</ele>
        <time>2021-12-18T09:35:18Z</time>
      </trkpt>
      <trkpt lat="45.01344" lon="5.5996">
        <ele>1163</ele>
        <time>2021-12-18T09:35:21Z</time>
      </trkpt>
      <trkpt lat="45.01346" lon="5.59962">
        <ele>1162.8</ele>
        <time>2021-12-18T09:35:22Z</time>
      </trkpt>
      <trkpt lat="45.01359" lon="5.59971">
        <ele>1162.4</ele>
        <time>2021-12-18T09:35:28Z</time>
      </trkpt>
      <trkpt lat="45.01371" lon="5.59979">
        <ele>1161.6</ele>
        <time>2021-12-18T09:35:33Z</time>
      </trkpt>
      <trkpt lat="45.01374" lon="5.5998">
        <ele>1161.6</ele>
        <time>2021-12-18T09:35:34Z</time>
      </trkpt>
      <trkpt lat="45.01386" lon="5.59988">
        <ele>1161</ele>
        <time>2021-12-18T09:35:39Z</time>
      </trkpt>
      <trkpt lat="45.01403" lon="5.59994">
        <ele>1160.6</ele>
        <time>2021-12-18T09:35:46Z</time>
      </trkpt>
      <trkpt lat="45.01405" lon="5.59995">
        <ele>1160.6</ele>
        <time>2021-12-18T09:35:47Z</time>
      </trkpt>
      <trkpt lat="45.01414" lon="5.59995">
        <ele>1160</ele>
        <time>2021-12-18T09:35:51Z</time>
      </trkpt>
      <trkpt lat="45.01426" lon="5.60001">
        <ele>1159.6</ele>
        <time>2021-12-18T09:35:56Z</time>
      </trkpt>
      <trkpt lat="45.01441" lon="5.60009">
        <ele>1159</ele>
        <time>2021-12-18T09:36:01Z</time>
      </trkpt>
      <trkpt lat="45.01448" lon="5.6001">
        <ele>1158.4</ele>
        <time>2021-12-18T09:36:03Z</time>
      </trkpt>
      <trkpt lat="45.01459" lon="5.60012">
        <ele>1158.2</ele>
        <time>2021-12-18T09:36:06Z</time>
      </trkpt>
      <trkpt lat="45.01467" lon="5.60014">
        <ele>1157.8</ele>
        <time>2021-12-18T09:36:09Z</time>
      </trkpt>
      <trkpt lat="45.01469" lon="5.60015">
        <ele>1157.8</ele>
        <time>2021-12-18T09:36:10Z</time>
      </trkpt>
      <trkpt lat="45.01478" lon="5.60018">
        <ele>1157.4</ele>
        <time>2021-12-18T09:36:13Z</time>
      </trkpt>
      <trkpt lat="45.01482" lon="5.60019">
        <ele>1157.4</ele>
        <time>2021-12-18T09:36:14Z</time>
      </trkpt>
      <trkpt lat="45.01494" lon="5.60017">
        <ele>1157</ele>
        <time>2021-12-18T09:36:18Z</time>
      </trkpt>
      <trkpt lat="45.01496" lon="5.60017">
        <ele>1156.8</ele>
        <time>2021-12-18T09:36:19Z</time>
      </trkpt>
      <trkpt lat="45.015" lon="5.6002">
        <ele>1156.8</ele>
        <time>2021-12-18T09:36:21Z</time>
      </trkpt>
      <trkpt lat="45.01504" lon="5.60021">
        <ele>1156.4</ele>
        <time>2021-12-18T09:36:23Z</time>
      </trkpt>
      <trkpt lat="45.01506" lon="5.60021">
        <ele>1156.2</ele>
        <time>2021-12-18T09:36:24Z</time>
      </trkpt>
      <trkpt lat="45.0152" lon="5.60027">
        <ele>1155.8</ele>
        <time>2021-12-18T09:36:31Z</time>
      </trkpt>
      <trkpt lat="45.01529" lon="5.60028">
        <ele>1155.4</ele>
        <time>2021-12-18T09:36:36Z</time>
      </trkpt>
      <trkpt lat="45.01533" lon="5.6003">
        <ele>1155.2</ele>
        <time>2021-12-18T09:36:38Z</time>
      </trkpt>
      <trkpt lat="45.0155" lon="5.60038">
        <ele>1154.6</ele>
        <time>2021-12-18T09:36:45Z</time>
      </trkpt>
      <trkpt lat="45.01558" lon="5.60042">
        <ele>1154.2</ele>
        <time>2021-12-18T09:36:48Z</time>
      </trkpt>
      <trkpt lat="45.01562" lon="5.60042">
        <ele>1153.8</ele>
        <time>2021-12-18T09:36:50Z</time>
      </trkpt>
      <trkpt lat="45.01574" lon="5.60043">
        <ele>1153.4</ele>
        <time>2021-12-18T09:36:55Z</time>
      </trkpt>
      <trkpt lat="45.01591" lon="5.6005">
        <ele>1153</ele>
        <time>2021-12-18T09:37:02Z</time>
      </trkpt>
      <trkpt lat="45.01602" lon="5.60056">
        <ele>1152.6</ele>
        <time>2021-12-18T09:37:08Z</time>
      </trkpt>
      <trkpt lat="45.01609" lon="5.60059">
        <ele>1152.6</ele>
        <time>2021-12-18T09:37:11Z</time>
      </trkpt>
      <trkpt lat="45.01611" lon="5.6006">
        <ele>1152.6</ele>
        <time>2021-12-18T09:37:12Z</time>
      </trkpt>
      <trkpt lat="45.01615" lon="5.60062">
        <ele>1152.6</ele>
        <time>2021-12-18T09:37:15Z</time>
      </trkpt>
      <trkpt lat="45.01618" lon="5.60065">
        <ele>1152.4</ele>
        <time>2021-12-18T09:37:17Z</time>
      </trkpt>
      <trkpt lat="45.01621" lon="5.60068">
        <ele>1152.2</ele>
        <time>2021-12-18T09:37:20Z</time>
      </trkpt>
      <trkpt lat="45.01623" lon="5.60068">
        <ele>1152.2</ele>
        <time>2021-12-18T09:37:22Z</time>
      </trkpt>
      <trkpt lat="45.01624" lon="5.60069">
        <ele>1152.2</ele>
        <time>2021-12-18T09:37:23Z</time>
      </trkpt>
      <trkpt lat="45.01628" lon="5.60072">
        <ele>1152</ele>
        <time>2021-12-18T09:37:26Z</time>
      </trkpt>
      <trkpt lat="45.01632" lon="5.60075">
        <ele>1152</ele>
        <time>2021-12-18T09:37:30Z</time>
      </trkpt>
      <trkpt lat="45.01643" lon="5.60081">
        <ele>1152</ele>
        <time>2021-12-18T09:37:38Z</time>
      </trkpt>
      <trkpt lat="45.01645" lon="5.60083">
        <ele>1152</ele>
        <time>2021-12-18T09:37:39Z</time>
      </trkpt>
      <trkpt lat="45.01647" lon="5.60085">
        <ele>1151.8</ele>
        <time>2021-12-18T09:37:41Z</time>
      </trkpt>
      <trkpt lat="45.01647" lon="5.60087">
        <ele>1151.8</ele>
        <time>2021-12-18T09:37:44Z</time>
      </trkpt>
      <trkpt lat="45.01647" lon="5.60087">
        <ele>1151.6</ele>
        <time>2021-12-18T09:37:46Z</time>
      </trkpt>
      <trkpt lat="45.01647" lon="5.60086">
        <ele>1151.6</ele>
        <time>2021-12-18T09:37:51Z</time>
      </trkpt>
      <trkpt lat="45.01648" lon="5.60085">
        <ele>1151.6</ele>
        <time>2021-12-18T09:37:57Z</time>
      </trkpt>
      <trkpt lat="45.01649" lon="5.60085">
        <ele>1151.6</ele>
        <time>2021-12-18T09:37:58Z</time>
      </trkpt>
      <trkpt lat="45.01655" lon="5.60087">
        <ele>1151.6</ele>
        <time>2021-12-18T09:38:04Z</time>
      </trkpt>
      <trkpt lat="45.01657" lon="5.60088">
        <ele>1151.6</ele>
        <time>2021-12-18T09:38:05Z</time>
      </trkpt>
      <trkpt lat="45.01661" lon="5.60091">
        <ele>1151.6</ele>
        <time>2021-12-18T09:38:09Z</time>
      </trkpt>
      <trkpt lat="45.01663" lon="5.60092">
        <ele>1151.8</ele>
        <time>2021-12-18T09:38:10Z</time>
      </trkpt>
      <trkpt lat="45.01673" lon="5.60093">
        <ele>1151.4</ele>
        <time>2021-12-18T09:38:18Z</time>
      </trkpt>
      <trkpt lat="45.01677" lon="5.60093">
        <ele>1151.4</ele>
        <time>2021-12-18T09:38:23Z</time>
      </trkpt>
      <trkpt lat="45.01689" lon="5.60099">
        <ele>1151</ele>
        <time>2021-12-18T09:38:30Z</time>
      </trkpt>
      <trkpt lat="45.0169" lon="5.60099">
        <ele>1151</ele>
        <time>2021-12-18T09:38:31Z</time>
      </trkpt>
      <trkpt lat="45.01691" lon="5.601">
        <ele>1151</ele>
        <time>2021-12-18T09:38:32Z</time>
      </trkpt>
      <trkpt lat="45.01692" lon="5.601">
        <ele>1151</ele>
        <time>2021-12-18T09:38:34Z</time>
      </trkpt>
      <trkpt lat="45.01696" lon="5.60101">
        <ele>1151.2</ele>
        <time>2021-12-18T09:38:38Z</time>
      </trkpt>
      <trkpt lat="45.017" lon="5.60103">
        <ele>1151</ele>
        <time>2021-12-18T09:38:43Z</time>
      </trkpt>
      <trkpt lat="45.017" lon="5.60104">
        <ele>1151</ele>
        <time>2021-12-18T09:38:44Z</time>
      </trkpt>
      <trkpt lat="45.01705" lon="5.60105">
        <ele>1151</ele>
        <time>2021-12-18T09:38:49Z</time>
      </trkpt>
      <trkpt lat="45.01706" lon="5.60106">
        <ele>1151</ele>
        <time>2021-12-18T09:38:52Z</time>
      </trkpt>
      <trkpt lat="45.01708" lon="5.60106">
        <ele>1151</ele>
        <time>2021-12-18T09:38:53Z</time>
      </trkpt>
      <trkpt lat="45.01709" lon="5.60106">
        <ele>1151</ele>
        <time>2021-12-18T09:38:54Z</time>
      </trkpt>
      <trkpt lat="45.01713" lon="5.60105">
        <ele>1151</ele>
        <time>2021-12-18T09:38:58Z</time>
      </trkpt>
      <trkpt lat="45.01721" lon="5.60104">
        <ele>1151</ele>
        <time>2021-12-18T09:39:03Z</time>
      </trkpt>
      <trkpt lat="45.01722" lon="5.60103">
        <ele>1151.2</ele>
        <time>2021-12-18T09:39:05Z</time>
      </trkpt>
      <trkpt lat="45.01722" lon="5.60107">
        <ele>1151.2</ele>
        <time>2021-12-18T09:39:08Z</time>
      </trkpt>
      <trkpt lat="45.01723" lon="5.60108">
        <ele>1151.2</ele>
        <time>2021-12-18T09:39:09Z</time>
      </trkpt>
      <trkpt lat="45.01733" lon="5.60108">
        <ele>1151</ele>
        <time>2021-12-18T09:39:14Z</time>
      </trkpt>
      <trkpt lat="45.01742" lon="5.60108">
        <ele>1151.2</ele>
        <time>2021-12-18T09:39:19Z</time>
      </trkpt>
      <trkpt lat="45.01744" lon="5.60106">
        <ele>1151.4</ele>
        <time>2021-12-18T09:39:21Z</time>
      </trkpt>
      <trkpt lat="45.01746" lon="5.60107">
        <ele>1151.4</ele>
        <time>2021-12-18T09:39:22Z</time>
      </trkpt>
      <trkpt lat="45.01749" lon="5.60107">
        <ele>1151.4</ele>
        <time>2021-12-18T09:39:24Z</time>
      </trkpt>
      <trkpt lat="45.01751" lon="5.60107">
        <ele>1151.6</ele>
        <time>2021-12-18T09:39:25Z</time>
      </trkpt>
      <trkpt lat="45.01754" lon="5.60109">
        <ele>1151.6</ele>
        <time>2021-12-18T09:39:28Z</time>
      </trkpt>
      <trkpt lat="45.01755" lon="5.6011">
        <ele>1151.6</ele>
        <time>2021-12-18T09:39:30Z</time>
      </trkpt>
      <trkpt lat="45.01755" lon="5.60109">
        <ele>1151.6</ele>
        <time>2021-12-18T09:39:31Z</time>
      </trkpt>
      <trkpt lat="45.01758" lon="5.60107">
        <ele>1151.8</ele>
        <time>2021-12-18T09:39:34Z</time>
      </trkpt>
      <trkpt lat="45.01758" lon="5.60106">
        <ele>1152</ele>
        <time>2021-12-18T09:39:37Z</time>
      </trkpt>
      <trkpt lat="45.01758" lon="5.60106">
        <ele>1152</ele>
        <time>2021-12-18T09:39:39Z</time>
      </trkpt>
      <trkpt lat="45.01758" lon="5.60106">
        <ele>1152.2</ele>
        <time>2021-12-18T09:39:42Z</time>
      </trkpt>
      <trkpt lat="45.01758" lon="5.60104">
        <ele>1152</ele>
        <time>2021-12-18T09:39:48Z</time>
      </trkpt>
      <trkpt lat="45.01759" lon="5.60107">
        <ele>1152</ele>
        <time>2021-12-18T09:39:54Z</time>
      </trkpt>
      <trkpt lat="45.01764" lon="5.60106">
        <ele>1152</ele>
        <time>2021-12-18T09:39:59Z</time>
      </trkpt>
      <trkpt lat="45.01765" lon="5.60105">
        <ele>1152</ele>
        <time>2021-12-18T09:40:00Z</time>
      </trkpt>
      <trkpt lat="45.01767" lon="5.60105">
        <ele>1152</ele>
        <time>2021-12-18T09:40:02Z</time>
      </trkpt>
      <trkpt lat="45.01771" lon="5.60107">
        <ele>1152</ele>
        <time>2021-12-18T09:40:04Z</time>
      </trkpt>
      <trkpt lat="45.01773" lon="5.60108">
        <ele>1152</ele>
        <time>2021-12-18T09:40:07Z</time>
      </trkpt>
      <trkpt lat="45.01773" lon="5.60106">
        <ele>1152</ele>
        <time>2021-12-18T09:40:08Z</time>
      </trkpt>
      <trkpt lat="45.01775" lon="5.60107">
        <ele>1152</ele>
        <time>2021-12-18T09:40:09Z</time>
      </trkpt>
      <trkpt lat="45.01775" lon="5.60108">
        <ele>1151.6</ele>
        <time>2021-12-18T09:40:10Z</time>
      </trkpt>
      <trkpt lat="45.01773" lon="5.60109">
        <ele>1151.2</ele>
        <time>2021-12-18T09:40:12Z</time>
      </trkpt>
      <trkpt lat="45.01773" lon="5.6011">
        <ele>1150.8</ele>
        <time>2021-12-18T09:40:13Z</time>
      </trkpt>
      <trkpt lat="45.01774" lon="5.60111">
        <ele>1150.2</ele>
        <time>2021-12-18T09:40:14Z</time>
      </trkpt>
      <trkpt lat="45.01776" lon="5.60112">
        <ele>1149.4</ele>
        <time>2021-12-18T09:40:16Z</time>
      </trkpt>
      <trkpt lat="45.01778" lon="5.60114">
        <ele>1148.2</ele>
        <time>2021-12-18T09:40:18Z</time>
      </trkpt>
      <trkpt lat="45.01778" lon="5.60114">
        <ele>1147.8</ele>
        <time>2021-12-18T09:40:19Z</time>
      </trkpt>
      <trkpt lat="45.01779" lon="5.60115">
        <ele>1147.2</ele>
        <time>2021-12-18T09:40:21Z</time>
      </trkpt>
      <trkpt lat="45.01782" lon="5.60121">
        <ele>1146.6</ele>
        <time>2021-12-18T09:40:27Z</time>
      </trkpt>
      <trkpt lat="45.01782" lon="5.60124">
        <ele>1146.2</ele>
        <time>2021-12-18T09:40:33Z</time>
      </trkpt>
      <trkpt lat="45.01782" lon="5.60126">
        <ele>1146</ele>
        <time>2021-12-18T09:40:34Z</time>
      </trkpt>
      <trkpt lat="45.01783" lon="5.60134">
        <ele>1145</ele>
        <time>2021-12-18T09:40:39Z</time>
      </trkpt>
      <trkpt lat="45.01791" lon="5.60139">
        <ele>1143.4</ele>
        <time>2021-12-18T09:40:43Z</time>
      </trkpt>
      <trkpt lat="45.01792" lon="5.60142">
        <ele>1142.6</ele>
        <time>2021-12-18T09:40:45Z</time>
      </trkpt>
      <trkpt lat="45.01791" lon="5.60143">
        <ele>1142.4</ele>
        <time>2021-12-18T09:40:46Z</time>
      </trkpt>
      <trkpt lat="45.01791" lon="5.60146">
        <ele>1142</ele>
        <time>2021-12-18T09:40:47Z</time>
      </trkpt>
      <trkpt lat="45.01794" lon="5.60149">
        <ele>1141</ele>
        <time>2021-12-18T09:40:50Z</time>
      </trkpt>
      <trkpt lat="45.01797" lon="5.6015">
        <ele>1140</ele>
        <time>2021-12-18T09:40:53Z</time>
      </trkpt>
      <trkpt lat="45.018" lon="5.60152">
        <ele>1139.8</ele>
        <time>2021-12-18T09:40:55Z</time>
      </trkpt>
      <trkpt lat="45.018" lon="5.60154">
        <ele>1139.8</ele>
        <time>2021-12-18T09:40:56Z</time>
      </trkpt>
      <trkpt lat="45.01802" lon="5.60156">
        <ele>1139.6</ele>
        <time>2021-12-18T09:40:57Z</time>
      </trkpt>
      <trkpt lat="45.01805" lon="5.60162">
        <ele>1138.8</ele>
        <time>2021-12-18T09:40:59Z</time>
      </trkpt>
      <trkpt lat="45.01811" lon="5.60175">
        <ele>1138</ele>
        <time>2021-12-18T09:41:02Z</time>
      </trkpt>
      <trkpt lat="45.01812" lon="5.60178">
        <ele>1137.2</ele>
        <time>2021-12-18T09:41:03Z</time>
      </trkpt>
      <trkpt lat="45.01816" lon="5.60185">
        <ele>1136</ele>
        <time>2021-12-18T09:41:05Z</time>
      </trkpt>
      <trkpt lat="45.01819" lon="5.60194">
        <ele>1134.2</ele>
        <time>2021-12-18T09:41:07Z</time>
      </trkpt>
      <trkpt lat="45.01819" lon="5.60198">
        <ele>1133.2</ele>
        <time>2021-12-18T09:41:08Z</time>
      </trkpt>
      <trkpt lat="45.01818" lon="5.60202">
        <ele>1131.8</ele>
        <time>2021-12-18T09:41:09Z</time>
      </trkpt>
      <trkpt lat="45.01818" lon="5.60213">
        <ele>1129.4</ele>
        <time>2021-12-18T09:41:11Z</time>
      </trkpt>
      <trkpt lat="45.01819" lon="5.60217">
        <ele>1128.4</ele>
        <time>2021-12-18T09:41:12Z</time>
      </trkpt>
      <trkpt lat="45.0182" lon="5.6022">
        <ele>1127.2</ele>
        <time>2021-12-18T09:41:13Z</time>
      </trkpt>
      <trkpt lat="45.01825" lon="5.60227">
        <ele>1125.8</ele>
        <time>2021-12-18T09:41:15Z</time>
      </trkpt>
      <trkpt lat="45.0183" lon="5.60234">
        <ele>1124.2</ele>
        <time>2021-12-18T09:41:17Z</time>
      </trkpt>
      <trkpt lat="45.01828" lon="5.60244">
        <ele>1122.8</ele>
        <time>2021-12-18T09:41:19Z</time>
      </trkpt>
      <trkpt lat="45.01827" lon="5.60249">
        <ele>1122</ele>
        <time>2021-12-18T09:41:20Z</time>
      </trkpt>
      <trkpt lat="45.01826" lon="5.60252">
        <ele>1121</ele>
        <time>2021-12-18T09:41:21Z</time>
      </trkpt>
      <trkpt lat="45.01825" lon="5.60254">
        <ele>1119.6</ele>
        <time>2021-12-18T09:41:22Z</time>
      </trkpt>
      <trkpt lat="45.01823" lon="5.60257">
        <ele>1118.4</ele>
        <time>2021-12-18T09:41:23Z</time>
      </trkpt>
      <trkpt lat="45.01824" lon="5.60261">
        <ele>1117.2</ele>
        <time>2021-12-18T09:41:24Z</time>
      </trkpt>
      <trkpt lat="45.01828" lon="5.6027">
        <ele>1115.8</ele>
        <time>2021-12-18T09:41:26Z</time>
      </trkpt>
      <trkpt lat="45.0183" lon="5.60279">
        <ele>1114.2</ele>
        <time>2021-12-18T09:41:28Z</time>
      </trkpt>
      <trkpt lat="45.0183" lon="5.60286">
        <ele>1112.8</ele>
        <time>2021-12-18T09:41:30Z</time>
      </trkpt>
      <trkpt lat="45.01829" lon="5.60289">
        <ele>1111.8</ele>
        <time>2021-12-18T09:41:31Z</time>
      </trkpt>
      <trkpt lat="45.01829" lon="5.60292">
        <ele>1110.6</ele>
        <time>2021-12-18T09:41:32Z</time>
      </trkpt>
      <trkpt lat="45.0183" lon="5.60294">
        <ele>1109.6</ele>
        <time>2021-12-18T09:41:33Z</time>
      </trkpt>
      <trkpt lat="45.01831" lon="5.60294">
        <ele>1108.8</ele>
        <time>2021-12-18T09:41:34Z</time>
      </trkpt>
      <trkpt lat="45.01835" lon="5.603">
        <ele>1106.8</ele>
        <time>2021-12-18T09:41:37Z</time>
      </trkpt>
      <trkpt lat="45.01835" lon="5.60303">
        <ele>1105.8</ele>
        <time>2021-12-18T09:41:38Z</time>
      </trkpt>
      <trkpt lat="45.01835" lon="5.60307">
        <ele>1104.8</ele>
        <time>2021-12-18T09:41:39Z</time>
      </trkpt>
      <trkpt lat="45.01835" lon="5.6031">
        <ele>1104.2</ele>
        <time>2021-12-18T09:41:40Z</time>
      </trkpt>
      <trkpt lat="45.01834" lon="5.60313">
        <ele>1103.4</ele>
        <time>2021-12-18T09:41:41Z</time>
      </trkpt>
      <trkpt lat="45.01835" lon="5.60315">
        <ele>1102.4</ele>
        <time>2021-12-18T09:41:42Z</time>
      </trkpt>
      <trkpt lat="45.01836" lon="5.60321">
        <ele>1100.8</ele>
        <time>2021-12-18T09:41:44Z</time>
      </trkpt>
      <trkpt lat="45.01835" lon="5.60328">
        <ele>1099.6</ele>
        <time>2021-12-18T09:41:46Z</time>
      </trkpt>
      <trkpt lat="45.01835" lon="5.6033">
        <ele>1098.6</ele>
        <time>2021-12-18T09:41:47Z</time>
      </trkpt>
      <trkpt lat="45.01834" lon="5.60332">
        <ele>1097.4</ele>
        <time>2021-12-18T09:41:48Z</time>
      </trkpt>
      <trkpt lat="45.01833" lon="5.60334">
        <ele>1096.6</ele>
        <time>2021-12-18T09:41:49Z</time>
      </trkpt>
      <trkpt lat="45.01832" lon="5.60336">
        <ele>1096.4</ele>
        <time>2021-12-18T09:41:50Z</time>
      </trkpt>
      <trkpt lat="45.01829" lon="5.60342">
        <ele>1096</ele>
        <time>2021-12-18T09:41:53Z</time>
      </trkpt>
      <trkpt lat="45.01828" lon="5.60342">
        <ele>1096</ele>
        <time>2021-12-18T09:41:56Z</time>
      </trkpt>
      <trkpt lat="45.01828" lon="5.60341">
        <ele>1096</ele>
        <time>2021-12-18T09:41:57Z</time>
      </trkpt>
      <trkpt lat="45.01828" lon="5.60339">
        <ele>1096</ele>
        <time>2021-12-18T09:42:00Z</time>
      </trkpt>
      <trkpt lat="45.01828" lon="5.6034">
        <ele>1096</ele>
        <time>2021-12-18T09:42:02Z</time>
      </trkpt>
      <trkpt lat="45.01829" lon="5.60341">
        <ele>1096</ele>
        <time>2021-12-18T09:42:03Z</time>
      </trkpt>
      <trkpt lat="45.01828" lon="5.60343">
        <ele>1095.8</ele>
        <time>2021-12-18T09:42:07Z</time>
      </trkpt>
      <trkpt lat="45.01823" lon="5.60344">
        <ele>1095</ele>
        <time>2021-12-18T09:42:10Z</time>
      </trkpt>
      <trkpt lat="45.0182" lon="5.60343">
        <ele>1094.8</ele>
        <time>2021-12-18T09:42:11Z</time>
      </trkpt>
      <trkpt lat="45.01818" lon="5.60345">
        <ele>1094.6</ele>
        <time>2021-12-18T09:42:12Z</time>
      </trkpt>
      <trkpt lat="45.01818" lon="5.6035">
        <ele>1093.6</ele>
        <time>2021-12-18T09:42:14Z</time>
      </trkpt>
      <trkpt lat="45.01821" lon="5.60357">
        <ele>1092.8</ele>
        <time>2021-12-18T09:42:16Z</time>
      </trkpt>
      <trkpt lat="45.01822" lon="5.6036">
        <ele>1092.4</ele>
        <time>2021-12-18T09:42:17Z</time>
      </trkpt>
      <trkpt lat="45.01822" lon="5.60363">
        <ele>1091.8</ele>
        <time>2021-12-18T09:42:18Z</time>
      </trkpt>
      <trkpt lat="45.01821" lon="5.60366">
        <ele>1091.4</ele>
        <time>2021-12-18T09:42:19Z</time>
      </trkpt>
      <trkpt lat="45.01819" lon="5.6037">
        <ele>1091.2</ele>
        <time>2021-12-18T09:42:20Z</time>
      </trkpt>
      <trkpt lat="45.01819" lon="5.60373">
        <ele>1089.8</ele>
        <time>2021-12-18T09:42:22Z</time>
      </trkpt>
      <trkpt lat="45.01819" lon="5.60374">
        <ele>1089.2</ele>
        <time>2021-12-18T09:42:24Z</time>
      </trkpt>
      <trkpt lat="45.01818" lon="5.60376">
        <ele>1089.2</ele>
        <time>2021-12-18T09:42:26Z</time>
      </trkpt>
      <trkpt lat="45.01818" lon="5.60379">
        <ele>1088.8</ele>
        <time>2021-12-18T09:42:28Z</time>
      </trkpt>
      <trkpt lat="45.01818" lon="5.60379">
        <ele>1088.6</ele>
        <time>2021-12-18T09:42:29Z</time>
      </trkpt>
      <trkpt lat="45.01819" lon="5.60381">
        <ele>1087.6</ele>
        <time>2021-12-18T09:42:33Z</time>
      </trkpt>
      <trkpt lat="45.01819" lon="5.60382">
        <ele>1087.4</ele>
        <time>2021-12-18T09:42:34Z</time>
      </trkpt>
      <trkpt lat="45.01818" lon="5.60393">
        <ele>1087</ele>
        <time>2021-12-18T09:42:37Z</time>
      </trkpt>
      <trkpt lat="45.0182" lon="5.604">
        <ele>1086</ele>
        <time>2021-12-18T09:42:39Z</time>
      </trkpt>
      <trkpt lat="45.01823" lon="5.60405">
        <ele>1084.8</ele>
        <time>2021-12-18T09:42:41Z</time>
      </trkpt>
      <trkpt lat="45.01827" lon="5.60412">
        <ele>1083.8</ele>
        <time>2021-12-18T09:42:44Z</time>
      </trkpt>
      <trkpt lat="45.01828" lon="5.60414">
        <ele>1083</ele>
        <time>2021-12-18T09:42:46Z</time>
      </trkpt>
      <trkpt lat="45.01828" lon="5.60414">
        <ele>1082.8</ele>
        <time>2021-12-18T09:42:47Z</time>
      </trkpt>
      <trkpt lat="45.01828" lon="5.60414">
        <ele>1082.6</ele>
        <time>2021-12-18T09:42:48Z</time>
      </trkpt>
      <trkpt lat="45.01829" lon="5.60415">
        <ele>1082.4</ele>
        <time>2021-12-18T09:42:50Z</time>
      </trkpt>
      <trkpt lat="45.01829" lon="5.60416">
        <ele>1082.4</ele>
        <time>2021-12-18T09:42:51Z</time>
      </trkpt>
      <trkpt lat="45.01829" lon="5.60419">
        <ele>1082.4</ele>
        <time>2021-12-18T09:42:53Z</time>
      </trkpt>
      <trkpt lat="45.01831" lon="5.60427">
        <ele>1082.4</ele>
        <time>2021-12-18T09:42:56Z</time>
      </trkpt>
      <trkpt lat="45.01831" lon="5.60431">
        <ele>1082.2</ele>
        <time>2021-12-18T09:42:57Z</time>
      </trkpt>
      <trkpt lat="45.01829" lon="5.60435">
        <ele>1081</ele>
        <time>2021-12-18T09:42:58Z</time>
      </trkpt>
      <trkpt lat="45.01828" lon="5.60442">
        <ele>1079.8</ele>
        <time>2021-12-18T09:42:59Z</time>
      </trkpt>
      <trkpt lat="45.01827" lon="5.6045">
        <ele>1078.8</ele>
        <time>2021-12-18T09:43:00Z</time>
      </trkpt>
      <trkpt lat="45.01827" lon="5.60458">
        <ele>1077.4</ele>
        <time>2021-12-18T09:43:01Z</time>
      </trkpt>
      <trkpt lat="45.01827" lon="5.60465">
        <ele>1076.4</ele>
        <time>2021-12-18T09:43:02Z</time>
      </trkpt>
      <trkpt lat="45.01826" lon="5.6048">
        <ele>1074.2</ele>
        <time>2021-12-18T09:43:04Z</time>
      </trkpt>
      <trkpt lat="45.0183" lon="5.60494">
        <ele>1072.2</ele>
        <time>2021-12-18T09:43:06Z</time>
      </trkpt>
      <trkpt lat="45.0183" lon="5.60501">
        <ele>1071.4</ele>
        <time>2021-12-18T09:43:07Z</time>
      </trkpt>
      <trkpt lat="45.01831" lon="5.60508">
        <ele>1070</ele>
        <time>2021-12-18T09:43:08Z</time>
      </trkpt>
      <trkpt lat="45.01832" lon="5.60513">
        <ele>1068.8</ele>
        <time>2021-12-18T09:43:09Z</time>
      </trkpt>
      <trkpt lat="45.01832" lon="5.6052">
        <ele>1067.4</ele>
        <time>2021-12-18T09:43:10Z</time>
      </trkpt>
      <trkpt lat="45.01838" lon="5.6053">
        <ele>1065.4</ele>
        <time>2021-12-18T09:43:12Z</time>
      </trkpt>
      <trkpt lat="45.01844" lon="5.60538">
        <ele>1063.8</ele>
        <time>2021-12-18T09:43:14Z</time>
      </trkpt>
      <trkpt lat="45.01847" lon="5.60539">
        <ele>1062.8</ele>
        <time>2021-12-18T09:43:16Z</time>
      </trkpt>
      <trkpt lat="45.01848" lon="5.60539">
        <ele>1062.4</ele>
        <time>2021-12-18T09:43:18Z</time>
      </trkpt>
      <trkpt lat="45.01849" lon="5.60539">
        <ele>1062.2</ele>
        <time>2021-12-18T09:43:19Z</time>
      </trkpt>
      <trkpt lat="45.01851" lon="5.6054">
        <ele>1062.2</ele>
        <time>2021-12-18T09:43:21Z</time>
      </trkpt>
      <trkpt lat="45.01853" lon="5.60543">
        <ele>1062</ele>
        <time>2021-12-18T09:43:27Z</time>
      </trkpt>
      <trkpt lat="45.01852" lon="5.60543">
        <ele>1062</ele>
        <time>2021-12-18T09:43:28Z</time>
      </trkpt>
      <trkpt lat="45.01859" lon="5.60543">
        <ele>1061.8</ele>
        <time>2021-12-18T09:43:34Z</time>
      </trkpt>
      <trkpt lat="45.01862" lon="5.60545">
        <ele>1061.8</ele>
        <time>2021-12-18T09:43:36Z</time>
      </trkpt>
      <trkpt lat="45.01862" lon="5.60546">
        <ele>1061.8</ele>
        <time>2021-12-18T09:43:38Z</time>
      </trkpt>
      <trkpt lat="45.01862" lon="5.60546">
        <ele>1061.8</ele>
        <time>2021-12-18T09:43:39Z</time>
      </trkpt>
      <trkpt lat="45.01862" lon="5.60548">
        <ele>1061.6</ele>
        <time>2021-12-18T09:43:41Z</time>
      </trkpt>
      <trkpt lat="45.01864" lon="5.60549">
        <ele>1061.4</ele>
        <time>2021-12-18T09:43:44Z</time>
      </trkpt>
      <trkpt lat="45.01864" lon="5.60551">
        <ele>1060.8</ele>
        <time>2021-12-18T09:43:49Z</time>
      </trkpt>
      <trkpt lat="45.01869" lon="5.60556">
        <ele>1060.4</ele>
        <time>2021-12-18T09:43:52Z</time>
      </trkpt>
      <trkpt lat="45.01869" lon="5.60559">
        <ele>1060.2</ele>
        <time>2021-12-18T09:43:53Z</time>
      </trkpt>
      <trkpt lat="45.01868" lon="5.60563">
        <ele>1059</ele>
        <time>2021-12-18T09:43:55Z</time>
      </trkpt>
      <trkpt lat="45.01867" lon="5.60563">
        <ele>1058.2</ele>
        <time>2021-12-18T09:43:57Z</time>
      </trkpt>
      <trkpt lat="45.01867" lon="5.60569">
        <ele>1058</ele>
        <time>2021-12-18T09:44:00Z</time>
      </trkpt>
      <trkpt lat="45.01868" lon="5.60571">
        <ele>1057.4</ele>
        <time>2021-12-18T09:44:01Z</time>
      </trkpt>
      <trkpt lat="45.01873" lon="5.60587">
        <ele>1056.6</ele>
        <time>2021-12-18T09:44:05Z</time>
      </trkpt>
      <trkpt lat="45.01871" lon="5.60601">
        <ele>1055.6</ele>
        <time>2021-12-18T09:44:07Z</time>
      </trkpt>
      <trkpt lat="45.01869" lon="5.6061">
        <ele>1055.2</ele>
        <time>2021-12-18T09:44:08Z</time>
      </trkpt>
      <trkpt lat="45.01866" lon="5.60618">
        <ele>1053.8</ele>
        <time>2021-12-18T09:44:09Z</time>
      </trkpt>
      <trkpt lat="45.01863" lon="5.60626">
        <ele>1051.8</ele>
        <time>2021-12-18T09:44:10Z</time>
      </trkpt>
      <trkpt lat="45.01859" lon="5.60633">
        <ele>1050.6</ele>
        <time>2021-12-18T09:44:11Z</time>
      </trkpt>
      <trkpt lat="45.01856" lon="5.60639">
        <ele>1048</ele>
        <time>2021-12-18T09:44:12Z</time>
      </trkpt>
      <trkpt lat="45.01851" lon="5.60648">
        <ele>1046.4</ele>
        <time>2021-12-18T09:44:13Z</time>
      </trkpt>
      <trkpt lat="45.01844" lon="5.60664">
        <ele>1044</ele>
        <time>2021-12-18T09:44:15Z</time>
      </trkpt>
      <trkpt lat="45.0184" lon="5.60673">
        <ele>1043.2</ele>
        <time>2021-12-18T09:44:16Z</time>
      </trkpt>
      <trkpt lat="45.01836" lon="5.60682">
        <ele>1041.6</ele>
        <time>2021-12-18T09:44:17Z</time>
      </trkpt>
      <trkpt lat="45.01833" lon="5.6069">
        <ele>1040</ele>
        <time>2021-12-18T09:44:18Z</time>
      </trkpt>
      <trkpt lat="45.0183" lon="5.60699">
        <ele>1039</ele>
        <time>2021-12-18T09:44:19Z</time>
      </trkpt>
      <trkpt lat="45.01829" lon="5.60709">
        <ele>1037</ele>
        <time>2021-12-18T09:44:20Z</time>
      </trkpt>
      <trkpt lat="45.01827" lon="5.60718">
        <ele>1035.2</ele>
        <time>2021-12-18T09:44:21Z</time>
      </trkpt>
      <trkpt lat="45.01827" lon="5.60727">
        <ele>1032.8</ele>
        <time>2021-12-18T09:44:22Z</time>
      </trkpt>
      <trkpt lat="45.01826" lon="5.60735">
        <ele>1031.4</ele>
        <time>2021-12-18T09:44:23Z</time>
      </trkpt>
      <trkpt lat="45.01825" lon="5.60742">
        <ele>1030.6</ele>
        <time>2021-12-18T09:44:24Z</time>
      </trkpt>
      <trkpt lat="45.01825" lon="5.60748">
        <ele>1028.6</ele>
        <time>2021-12-18T09:44:25Z</time>
      </trkpt>
      <trkpt lat="45.01826" lon="5.60751">
        <ele>1027.6</ele>
        <time>2021-12-18T09:44:26Z</time>
      </trkpt>
      <trkpt lat="45.01827" lon="5.60754">
        <ele>1026.6</ele>
        <time>2021-12-18T09:44:27Z</time>
      </trkpt>
      <trkpt lat="45.01827" lon="5.60755">
        <ele>1025.6</ele>
        <time>2021-12-18T09:44:28Z</time>
      </trkpt>
      <trkpt lat="45.01827" lon="5.60756">
        <ele>1024.6</ele>
        <time>2021-12-18T09:44:30Z</time>
      </trkpt>
      <trkpt lat="45.01827" lon="5.60758">
        <ele>1024.4</ele>
        <time>2021-12-18T09:44:31Z</time>
      </trkpt>
      <trkpt lat="45.01827" lon="5.60759">
        <ele>1024.2</ele>
        <time>2021-12-18T09:44:34Z</time>
      </trkpt>
      <trkpt lat="45.01827" lon="5.6076">
        <ele>1024.4</ele>
        <time>2021-12-18T09:44:39Z</time>
      </trkpt>
      <trkpt lat="45.01827" lon="5.60762">
        <ele>1024.2</ele>
        <time>2021-12-18T09:44:45Z</time>
      </trkpt>
      <trkpt lat="45.01827" lon="5.60763">
        <ele>1024.2</ele>
        <time>2021-12-18T09:44:54Z</time>
      </trkpt>
      <trkpt lat="45.01828" lon="5.60764">
        <ele>1024</ele>
        <time>2021-12-18T09:45:00Z</time>
      </trkpt>
      <trkpt lat="45.01828" lon="5.60766">
        <ele>1023.6</ele>
        <time>2021-12-18T09:45:09Z</time>
      </trkpt>
      <trkpt lat="45.01828" lon="5.60767">
        <ele>1023</ele>
        <time>2021-12-18T09:45:10Z</time>
      </trkpt>
      <trkpt lat="45.01827" lon="5.60785">
        <ele>1021.8</ele>
        <time>2021-12-18T09:45:12Z</time>
      </trkpt>
      <trkpt lat="45.01827" lon="5.60796">
        <ele>1020.4</ele>
        <time>2021-12-18T09:45:13Z</time>
      </trkpt>
      <trkpt lat="45.01827" lon="5.60806">
        <ele>1018.4</ele>
        <time>2021-12-18T09:45:14Z</time>
      </trkpt>
      <trkpt lat="45.01827" lon="5.60818">
        <ele>1017.2</ele>
        <time>2021-12-18T09:45:15Z</time>
      </trkpt>
      <trkpt lat="45.01826" lon="5.60829">
        <ele>1015.8</ele>
        <time>2021-12-18T09:45:16Z</time>
      </trkpt>
      <trkpt lat="45.01826" lon="5.60841">
        <ele>1013.4</ele>
        <time>2021-12-18T09:45:17Z</time>
      </trkpt>
      <trkpt lat="45.01825" lon="5.6085">
        <ele>1012</ele>
        <time>2021-12-18T09:45:18Z</time>
      </trkpt>
      <trkpt lat="45.01823" lon="5.60858">
        <ele>1009.8</ele>
        <time>2021-12-18T09:45:19Z</time>
      </trkpt>
      <trkpt lat="45.0182" lon="5.60866">
        <ele>1008.4</ele>
        <time>2021-12-18T09:45:20Z</time>
      </trkpt>
      <trkpt lat="45.01819" lon="5.60874">
        <ele>1006.8</ele>
        <time>2021-12-18T09:45:21Z</time>
      </trkpt>
      <trkpt lat="45.01816" lon="5.60879">
        <ele>1006</ele>
        <time>2021-12-18T09:45:22Z</time>
      </trkpt>
      <trkpt lat="45.01812" lon="5.60883">
        <ele>1004.6</ele>
        <time>2021-12-18T09:45:23Z</time>
      </trkpt>
      <trkpt lat="45.01809" lon="5.60885">
        <ele>1003.8</ele>
        <time>2021-12-18T09:45:24Z</time>
      </trkpt>
      <trkpt lat="45.01804" lon="5.60888">
        <ele>1003.2</ele>
        <time>2021-12-18T09:45:25Z</time>
      </trkpt>
      <trkpt lat="45.01798" lon="5.6089">
        <ele>1002.4</ele>
        <time>2021-12-18T09:45:26Z</time>
      </trkpt>
      <trkpt lat="45.01792" lon="5.60891">
        <ele>1002</ele>
        <time>2021-12-18T09:45:27Z</time>
      </trkpt>
      <trkpt lat="45.01786" lon="5.60892">
        <ele>1001.6</ele>
        <time>2021-12-18T09:45:28Z</time>
      </trkpt>
      <trkpt lat="45.0178" lon="5.60894">
        <ele>1001</ele>
        <time>2021-12-18T09:45:29Z</time>
      </trkpt>
      <trkpt lat="45.01762" lon="5.60896">
        <ele>999.6</ele>
        <time>2021-12-18T09:45:32Z</time>
      </trkpt>
      <trkpt lat="45.01757" lon="5.60897">
        <ele>998.6</ele>
        <time>2021-12-18T09:45:33Z</time>
      </trkpt>
      <trkpt lat="45.01752" lon="5.60898">
        <ele>997.4</ele>
        <time>2021-12-18T09:45:34Z</time>
      </trkpt>
      <trkpt lat="45.01741" lon="5.60901">
        <ele>996.4</ele>
        <time>2021-12-18T09:45:36Z</time>
      </trkpt>
      <trkpt lat="45.01736" lon="5.60904">
        <ele>995.8</ele>
        <time>2021-12-18T09:45:37Z</time>
      </trkpt>
      <trkpt lat="45.01718" lon="5.60911">
        <ele>994.2</ele>
        <time>2021-12-18T09:45:40Z</time>
      </trkpt>
      <trkpt lat="45.01712" lon="5.60911">
        <ele>993.4</ele>
        <time>2021-12-18T09:45:41Z</time>
      </trkpt>
      <trkpt lat="45.01707" lon="5.60912">
        <ele>992.6</ele>
        <time>2021-12-18T09:45:42Z</time>
      </trkpt>
      <trkpt lat="45.01703" lon="5.60916">
        <ele>990.6</ele>
        <time>2021-12-18T09:45:43Z</time>
      </trkpt>
      <trkpt lat="45.01698" lon="5.60919">
        <ele>989.6</ele>
        <time>2021-12-18T09:45:44Z</time>
      </trkpt>
      <trkpt lat="45.01692" lon="5.60919">
        <ele>988.2</ele>
        <time>2021-12-18T09:45:45Z</time>
      </trkpt>
      <trkpt lat="45.01686" lon="5.60917">
        <ele>986.2</ele>
        <time>2021-12-18T09:45:46Z</time>
      </trkpt>
      <trkpt lat="45.0168" lon="5.60916">
        <ele>985</ele>
        <time>2021-12-18T09:45:47Z</time>
      </trkpt>
      <trkpt lat="45.01675" lon="5.60915">
        <ele>984.2</ele>
        <time>2021-12-18T09:45:48Z</time>
      </trkpt>
      <trkpt lat="45.01669" lon="5.60917">
        <ele>983.2</ele>
        <time>2021-12-18T09:45:49Z</time>
      </trkpt>
      <trkpt lat="45.01664" lon="5.6092">
        <ele>982.6</ele>
        <time>2021-12-18T09:45:50Z</time>
      </trkpt>
      <trkpt lat="45.01659" lon="5.60926">
        <ele>982.2</ele>
        <time>2021-12-18T09:45:51Z</time>
      </trkpt>
      <trkpt lat="45.01655" lon="5.60934">
        <ele>981.8</ele>
        <time>2021-12-18T09:45:52Z</time>
      </trkpt>
      <trkpt lat="45.01652" lon="5.60942">
        <ele>981</ele>
        <time>2021-12-18T09:45:53Z</time>
      </trkpt>
      <trkpt lat="45.01645" lon="5.60959">
        <ele>979.6</ele>
        <time>2021-12-18T09:45:55Z</time>
      </trkpt>
      <trkpt lat="45.01642" lon="5.60968">
        <ele>978</ele>
        <time>2021-12-18T09:45:56Z</time>
      </trkpt>
      <trkpt lat="45.0164" lon="5.60978">
        <ele>975.6</ele>
        <time>2021-12-18T09:45:57Z</time>
      </trkpt>
      <trkpt lat="45.01637" lon="5.60987">
        <ele>973.4</ele>
        <time>2021-12-18T09:45:58Z</time>
      </trkpt>
      <trkpt lat="45.01635" lon="5.60997">
        <ele>972.2</ele>
        <time>2021-12-18T09:45:59Z</time>
      </trkpt>
      <trkpt lat="45.01631" lon="5.61006">
        <ele>971.2</ele>
        <time>2021-12-18T09:46:00Z</time>
      </trkpt>
      <trkpt lat="45.01626" lon="5.61011">
        <ele>969</ele>
        <time>2021-12-18T09:46:01Z</time>
      </trkpt>
      <trkpt lat="45.01619" lon="5.61015">
        <ele>967.8</ele>
        <time>2021-12-18T09:46:02Z</time>
      </trkpt>
      <trkpt lat="45.01613" lon="5.61018">
        <ele>966.8</ele>
        <time>2021-12-18T09:46:03Z</time>
      </trkpt>
      <trkpt lat="45.01602" lon="5.61025">
        <ele>965.6</ele>
        <time>2021-12-18T09:46:05Z</time>
      </trkpt>
      <trkpt lat="45.01599" lon="5.61031">
        <ele>965.4</ele>
        <time>2021-12-18T09:46:06Z</time>
      </trkpt>
      <trkpt lat="45.01598" lon="5.61038">
        <ele>965</ele>
        <time>2021-12-18T09:46:07Z</time>
      </trkpt>
      <trkpt lat="45.01596" lon="5.61045">
        <ele>964</ele>
        <time>2021-12-18T09:46:08Z</time>
      </trkpt>
      <trkpt lat="45.01592" lon="5.61056">
        <ele>962</ele>
        <time>2021-12-18T09:46:10Z</time>
      </trkpt>
      <trkpt lat="45.01589" lon="5.6106">
        <ele>961</ele>
        <time>2021-12-18T09:46:11Z</time>
      </trkpt>
      <trkpt lat="45.01586" lon="5.61062">
        <ele>960.2</ele>
        <time>2021-12-18T09:46:12Z</time>
      </trkpt>
      <trkpt lat="45.01583" lon="5.61064">
        <ele>959.6</ele>
        <time>2021-12-18T09:46:13Z</time>
      </trkpt>
      <trkpt lat="45.01577" lon="5.61065">
        <ele>958.4</ele>
        <time>2021-12-18T09:46:15Z</time>
      </trkpt>
      <trkpt lat="45.01576" lon="5.61064">
        <ele>957.6</ele>
        <time>2021-12-18T09:46:16Z</time>
      </trkpt>
      <trkpt lat="45.01577" lon="5.61063">
        <ele>957.2</ele>
        <time>2021-12-18T09:46:18Z</time>
      </trkpt>
      <trkpt lat="45.01577" lon="5.61062">
        <ele>957</ele>
        <time>2021-12-18T09:46:19Z</time>
      </trkpt>
      <trkpt lat="45.01577" lon="5.61061">
        <ele>957</ele>
        <time>2021-12-18T09:46:20Z</time>
      </trkpt>
      <trkpt lat="45.01577" lon="5.6106">
        <ele>957</ele>
        <time>2021-12-18T09:46:21Z</time>
      </trkpt>
    </trkseg>
  </trk>
</gpx>